<?xml version="1.0" encoding="UTF-8"?>
<gpx version="1.1" creator="https://www.youtrack.es" xsi:schemaLocation="http://www.topografix.com/GPX/1/1 http://www.topografix.com/GPX/1/1/gpx.xsd http://www.garmin.com/xmlschemas/GpxExtensions/v3 http://www.garmin.com/xmlschemas/GpxExtensionsv3.xsd http://www.garmin.com/xmlschemas/TrackPointExtension/v1 http://www.garmin.com/xmlschemas/TrackPointExtensionv1.xsd" xmlns:gpxtpx="http://www.garmin.com/xmlschemas/TrackPointExtension/v1" xmlns:gpxx="http://www.garmin.com/xmlschemas/GpxExtensions/v3" xmlns:xsi="http://www.w3.org/2001/XMLSchema-instance">
  <metadata>
    <link href="https://www.youtrack.es">
      <text>YouTrack.es</text>
    </link>
    <time>2026-05-09T08:15:15Z</time>
  </metadata>
  <trk>
    <src>https://www.youtrack.es</src>
    <link href="https://www.youtrack.es/ruta/147-huex18-higuera-bonares">
      <text>YouTrack.es</text>
    </link>
    <trkseg>
      <trkpt lat="37.833922561" lon="-6.445232593">
        <ele>581.00</ele>
        <time>1899-12-29T23:00:00Z</time>
      </trkpt>
      <trkpt lat="37.834159099" lon="-6.445075180">
        <ele>583.00</ele>
        <time>1899-12-29T23:00:00Z</time>
      </trkpt>
      <trkpt lat="37.834399324" lon="-6.445182469">
        <ele>584.00</ele>
        <time>1899-12-29T23:00:00Z</time>
      </trkpt>
      <trkpt lat="37.834813893" lon="-6.445567030">
        <ele>586.00</ele>
        <time>1899-12-29T23:00:00Z</time>
      </trkpt>
      <trkpt lat="37.834997959" lon="-6.445778087">
        <ele>588.00</ele>
        <time>1899-12-29T23:00:00Z</time>
      </trkpt>
      <trkpt lat="37.835137937" lon="-6.446042955">
        <ele>589.00</ele>
        <time>1899-12-29T23:00:00Z</time>
      </trkpt>
      <trkpt lat="37.835187558" lon="-6.446395665">
        <ele>591.00</ele>
        <time>1899-12-29T23:00:00Z</time>
      </trkpt>
      <trkpt lat="37.835266013" lon="-6.446646284">
        <ele>593.00</ele>
        <time>1899-12-29T23:00:00Z</time>
      </trkpt>
      <trkpt lat="37.835372966" lon="-6.446835883">
        <ele>595.00</ele>
        <time>1899-12-29T23:00:00Z</time>
      </trkpt>
      <trkpt lat="37.835494336" lon="-6.447017267">
        <ele>597.00</ele>
        <time>1899-12-29T23:00:00Z</time>
      </trkpt>
      <trkpt lat="37.835712098" lon="-6.447083652">
        <ele>601.00</ele>
        <time>1899-12-29T23:00:00Z</time>
      </trkpt>
      <trkpt lat="37.835946623" lon="-6.447156575">
        <ele>604.00</ele>
        <time>1899-12-29T23:00:00Z</time>
      </trkpt>
      <trkpt lat="37.836285587" lon="-6.447397135">
        <ele>605.00</ele>
        <time>1899-12-29T23:00:00Z</time>
      </trkpt>
      <trkpt lat="37.836713903" lon="-6.447466537">
        <ele>608.00</ele>
        <time>1899-12-29T23:00:00Z</time>
      </trkpt>
      <trkpt lat="37.836788502" lon="-6.447256152">
        <ele>609.00</ele>
        <time>1899-12-29T23:00:00Z</time>
      </trkpt>
      <trkpt lat="37.836859077" lon="-6.447076444">
        <ele>611.00</ele>
        <time>1899-12-29T23:00:00Z</time>
      </trkpt>
      <trkpt lat="37.836958151" lon="-6.446880810">
        <ele>612.00</ele>
        <time>1899-12-29T23:00:00Z</time>
      </trkpt>
      <trkpt lat="37.837050520" lon="-6.446707305">
        <ele>613.00</ele>
        <time>1899-12-29T23:00:00Z</time>
      </trkpt>
      <trkpt lat="37.837219164" lon="-6.446645111">
        <ele>614.00</ele>
        <time>1899-12-29T23:00:00Z</time>
      </trkpt>
      <trkpt lat="37.837357130" lon="-6.446624324">
        <ele>616.00</ele>
        <time>1899-12-29T23:00:00Z</time>
      </trkpt>
      <trkpt lat="37.837686706" lon="-6.446578559">
        <ele>619.00</ele>
        <time>1899-12-29T23:00:00Z</time>
      </trkpt>
      <trkpt lat="37.837710846" lon="-6.446286365">
        <ele>617.00</ele>
        <time>1899-12-29T23:00:00Z</time>
      </trkpt>
      <trkpt lat="37.837731969" lon="-6.446006075">
        <ele>616.00</ele>
        <time>1899-12-29T23:00:00Z</time>
      </trkpt>
      <trkpt lat="37.837725263" lon="-6.445749924">
        <ele>616.00</ele>
        <time>1899-12-29T23:00:00Z</time>
      </trkpt>
      <trkpt lat="37.837675977" lon="-6.445620004">
        <ele>616.00</ele>
        <time>1899-12-29T23:00:00Z</time>
      </trkpt>
      <trkpt lat="37.837640103" lon="-6.445468124">
        <ele>616.00</ele>
        <time>1899-12-29T23:00:00Z</time>
      </trkpt>
      <trkpt lat="37.837638594" lon="-6.445133016">
        <ele>617.00</ele>
        <time>1899-12-29T23:00:00Z</time>
      </trkpt>
      <trkpt lat="37.837669272" lon="-6.444631778">
        <ele>617.00</ele>
        <time>1899-12-29T23:00:00Z</time>
      </trkpt>
      <trkpt lat="37.837685198" lon="-6.443972792">
        <ele>616.00</ele>
        <time>1899-12-29T23:00:00Z</time>
      </trkpt>
      <trkpt lat="37.837684192" lon="-6.443508435">
        <ele>615.00</ele>
        <time>1899-12-29T23:00:00Z</time>
      </trkpt>
      <trkpt lat="37.837682683" lon="-6.443127897">
        <ele>615.00</ele>
        <time>1899-12-29T23:00:00Z</time>
      </trkpt>
      <trkpt lat="37.837595008" lon="-6.442570668">
        <ele>612.00</ele>
        <time>1899-12-29T23:00:00Z</time>
      </trkpt>
      <trkpt lat="37.837544885" lon="-6.442104131">
        <ele>609.00</ele>
        <time>1899-12-29T23:00:00Z</time>
      </trkpt>
      <trkpt lat="37.837219499" lon="-6.441703308">
        <ele>605.00</ele>
        <time>1899-12-29T23:00:00Z</time>
      </trkpt>
      <trkpt lat="37.837215643" lon="-6.441423856">
        <ele>604.00</ele>
        <time>1899-12-29T23:00:00Z</time>
      </trkpt>
      <trkpt lat="37.837440949" lon="-6.440634951">
        <ele>601.00</ele>
        <time>1899-12-29T23:00:00Z</time>
      </trkpt>
      <trkpt lat="37.837654687" lon="-6.439782344">
        <ele>599.00</ele>
        <time>1899-12-29T23:00:00Z</time>
      </trkpt>
      <trkpt lat="37.837829869" lon="-6.439049598">
        <ele>596.00</ele>
        <time>1899-12-29T23:00:00Z</time>
      </trkpt>
      <trkpt lat="37.837675307" lon="-6.438383739">
        <ele>597.00</ele>
        <time>1899-12-29T23:00:00Z</time>
      </trkpt>
      <trkpt lat="37.837554440" lon="-6.437795162">
        <ele>596.00</ele>
        <time>1899-12-29T23:00:00Z</time>
      </trkpt>
      <trkpt lat="37.837595008" lon="-6.437308341">
        <ele>597.00</ele>
        <time>1899-12-29T23:00:00Z</time>
      </trkpt>
      <trkpt lat="37.837656699" lon="-6.436775252">
        <ele>599.00</ele>
        <time>1899-12-29T23:00:00Z</time>
      </trkpt>
      <trkpt lat="37.837727275" lon="-6.436365712">
        <ele>601.00</ele>
        <time>1899-12-29T23:00:00Z</time>
      </trkpt>
      <trkpt lat="37.837788295" lon="-6.436048038">
        <ele>602.00</ele>
        <time>1899-12-29T23:00:00Z</time>
      </trkpt>
      <trkpt lat="37.837645635" lon="-6.435712092">
        <ele>604.00</ele>
        <time>1899-12-29T23:00:00Z</time>
      </trkpt>
      <trkpt lat="37.837466933" lon="-6.435418054">
        <ele>605.00</ele>
        <time>1899-12-29T23:00:00Z</time>
      </trkpt>
      <trkpt lat="37.837359812" lon="-6.435026117">
        <ele>607.00</ele>
        <time>1899-12-29T23:00:00Z</time>
      </trkpt>
      <trkpt lat="37.837337852" lon="-6.434228998">
        <ele>606.00</ele>
        <time>1899-12-29T23:00:00Z</time>
      </trkpt>
      <trkpt lat="37.837286554" lon="-6.433936805">
        <ele>606.00</ele>
        <time>1899-12-29T23:00:00Z</time>
      </trkpt>
      <trkpt lat="37.836985476" lon="-6.433205400">
        <ele>607.00</ele>
        <time>1899-12-29T23:00:00Z</time>
      </trkpt>
      <trkpt lat="37.836920097" lon="-6.432418507">
        <ele>607.00</ele>
        <time>1899-12-29T23:00:00Z</time>
      </trkpt>
      <trkpt lat="37.836842984" lon="-6.431315448">
        <ele>608.00</ele>
        <time>1899-12-29T23:00:00Z</time>
      </trkpt>
      <trkpt lat="37.836739551" lon="-6.430932730">
        <ele>610.00</ele>
        <time>1899-12-29T23:00:00Z</time>
      </trkpt>
      <trkpt lat="37.836689260" lon="-6.430461667">
        <ele>611.00</ele>
        <time>1899-12-29T23:00:00Z</time>
      </trkpt>
      <trkpt lat="37.836765032" lon="-6.429891530">
        <ele>613.00</ele>
        <time>1899-12-29T23:00:00Z</time>
      </trkpt>
      <trkpt lat="37.836902663" lon="-6.429599840">
        <ele>614.00</ele>
        <time>1899-12-29T23:00:00Z</time>
      </trkpt>
      <trkpt lat="37.837182954" lon="-6.429364476">
        <ele>616.00</ele>
        <time>1899-12-29T23:00:00Z</time>
      </trkpt>
      <trkpt lat="37.837425191" lon="-6.429001540">
        <ele>619.00</ele>
        <time>1899-12-29T23:00:00Z</time>
      </trkpt>
      <trkpt lat="37.837769855" lon="-6.428686716">
        <ele>620.00</ele>
        <time>1899-12-29T23:00:00Z</time>
      </trkpt>
      <trkpt lat="37.838215604" lon="-6.428333167">
        <ele>621.00</ele>
        <time>1899-12-29T23:00:00Z</time>
      </trkpt>
      <trkpt lat="37.838483993" lon="-6.428024545">
        <ele>620.00</ele>
        <time>1899-12-29T23:00:00Z</time>
      </trkpt>
      <trkpt lat="37.838812731" lon="-6.427348126">
        <ele>620.00</ele>
        <time>1899-12-29T23:00:00Z</time>
      </trkpt>
      <trkpt lat="37.839013729" lon="-6.426381022">
        <ele>621.00</ele>
        <time>1899-12-29T23:00:00Z</time>
      </trkpt>
      <trkpt lat="37.839109283" lon="-6.425929740">
        <ele>621.00</ele>
        <time>1899-12-29T23:00:00Z</time>
      </trkpt>
      <trkpt lat="37.839288488" lon="-6.425751541">
        <ele>621.00</ele>
        <time>1899-12-29T23:00:00Z</time>
      </trkpt>
      <trkpt lat="37.839546651" lon="-6.425498240">
        <ele>622.00</ele>
        <time>1899-12-29T23:00:00Z</time>
      </trkpt>
      <trkpt lat="37.839830965" lon="-6.425029021">
        <ele>622.00</ele>
        <time>1899-12-29T23:00:00Z</time>
      </trkpt>
      <trkpt lat="37.840129025" lon="-6.424238440">
        <ele>621.00</ele>
        <time>1899-12-29T23:00:00Z</time>
      </trkpt>
      <trkpt lat="37.840429600" lon="-6.423635948">
        <ele>618.00</ele>
        <time>1899-12-29T23:00:00Z</time>
      </trkpt>
      <trkpt lat="37.840815671" lon="-6.422907561">
        <ele>616.00</ele>
        <time>1899-12-29T23:00:00Z</time>
      </trkpt>
      <trkpt lat="37.840862945" lon="-6.422384027">
        <ele>614.00</ele>
        <time>1899-12-29T23:00:00Z</time>
      </trkpt>
      <trkpt lat="37.840987500" lon="-6.422197782">
        <ele>613.00</ele>
        <time>1899-12-29T23:00:00Z</time>
      </trkpt>
      <trkpt lat="37.841330320" lon="-6.421750188">
        <ele>609.00</ele>
        <time>1899-12-29T23:00:00Z</time>
      </trkpt>
      <trkpt lat="37.841441464" lon="-6.421381049">
        <ele>607.00</ele>
        <time>1899-12-29T23:00:00Z</time>
      </trkpt>
      <trkpt lat="37.841521427" lon="-6.421007887">
        <ele>605.00</ele>
        <time>1899-12-29T23:00:00Z</time>
      </trkpt>
      <trkpt lat="37.841162514" lon="-6.420149412">
        <ele>600.00</ele>
        <time>1899-12-29T23:00:00Z</time>
      </trkpt>
      <trkpt lat="37.840875182" lon="-6.419101506">
        <ele>595.00</ele>
        <time>1899-12-29T23:00:00Z</time>
      </trkpt>
      <trkpt lat="37.840483915" lon="-6.417638697">
        <ele>589.00</ele>
        <time>1899-12-29T23:00:00Z</time>
      </trkpt>
      <trkpt lat="37.840129193" lon="-6.416450143">
        <ele>588.00</ele>
        <time>1899-12-29T23:00:00Z</time>
      </trkpt>
      <trkpt lat="37.839793917" lon="-6.415623352">
        <ele>588.00</ele>
        <time>1899-12-29T23:00:00Z</time>
      </trkpt>
      <trkpt lat="37.839673720" lon="-6.415080540">
        <ele>590.00</ele>
        <time>1899-12-29T23:00:00Z</time>
      </trkpt>
      <trkpt lat="37.839738093" lon="-6.414753646">
        <ele>591.00</ele>
        <time>1899-12-29T23:00:00Z</time>
      </trkpt>
      <trkpt lat="37.839872036" lon="-6.414452735">
        <ele>592.00</ele>
        <time>1899-12-29T23:00:00Z</time>
      </trkpt>
      <trkpt lat="37.840043530" lon="-6.414237991">
        <ele>592.00</ele>
        <time>1899-12-29T23:00:00Z</time>
      </trkpt>
      <trkpt lat="37.840270344" lon="-6.414081752">
        <ele>591.00</ele>
        <time>1899-12-29T23:00:00Z</time>
      </trkpt>
      <trkpt lat="37.840718608" lon="-6.413897518">
        <ele>589.00</ele>
        <time>1899-12-29T23:00:00Z</time>
      </trkpt>
      <trkpt lat="37.841458730" lon="-6.413537264">
        <ele>586.00</ele>
        <time>1899-12-29T23:00:00Z</time>
      </trkpt>
      <trkpt lat="37.841894589" lon="-6.413243227">
        <ele>585.00</ele>
        <time>1899-12-29T23:00:00Z</time>
      </trkpt>
      <trkpt lat="37.842733115" lon="-6.412637718">
        <ele>586.00</ele>
        <time>1899-12-29T23:00:00Z</time>
      </trkpt>
      <trkpt lat="37.843928039" lon="-6.411790475">
        <ele>592.00</ele>
        <time>1899-12-29T23:00:00Z</time>
      </trkpt>
      <trkpt lat="37.844868153" lon="-6.410916746">
        <ele>600.00</ele>
        <time>1899-12-29T23:00:00Z</time>
      </trkpt>
      <trkpt lat="37.845202256" lon="-6.410372928">
        <ele>597.00</ele>
        <time>1899-12-29T23:00:00Z</time>
      </trkpt>
      <trkpt lat="37.845528480" lon="-6.409522165">
        <ele>592.00</ele>
        <time>1899-12-29T23:00:00Z</time>
      </trkpt>
      <trkpt lat="37.845877670" lon="-6.408767123">
        <ele>587.00</ele>
        <time>1899-12-29T23:00:00Z</time>
      </trkpt>
      <trkpt lat="37.846145388" lon="-6.408160441">
        <ele>583.00</ele>
        <time>1899-12-29T23:00:00Z</time>
      </trkpt>
      <trkpt lat="37.846286707" lon="-6.407863889">
        <ele>581.00</ele>
        <time>1899-12-29T23:00:00Z</time>
      </trkpt>
      <trkpt lat="37.846858017" lon="-6.406617835">
        <ele>572.00</ele>
        <time>1899-12-29T23:00:00Z</time>
      </trkpt>
      <trkpt lat="37.847240232" lon="-6.405623741">
        <ele>566.00</ele>
        <time>1899-12-29T23:00:00Z</time>
      </trkpt>
      <trkpt lat="37.847604677" lon="-6.404914130">
        <ele>562.00</ele>
        <time>1899-12-29T23:00:00Z</time>
      </trkpt>
      <trkpt lat="37.847652454" lon="-6.404436193">
        <ele>559.00</ele>
        <time>1899-12-29T23:00:00Z</time>
      </trkpt>
      <trkpt lat="37.847678605" lon="-6.403977200">
        <ele>556.00</ele>
        <time>1899-12-29T23:00:00Z</time>
      </trkpt>
      <trkpt lat="37.847735099" lon="-6.403704453">
        <ele>554.00</ele>
        <time>1899-12-29T23:00:00Z</time>
      </trkpt>
      <trkpt lat="37.848087978" lon="-6.403867062">
        <ele>552.00</ele>
        <time>1899-12-29T23:00:00Z</time>
      </trkpt>
      <trkpt lat="37.848996073" lon="-6.404332761">
        <ele>544.00</ele>
        <time>1899-12-29T23:00:00Z</time>
      </trkpt>
      <trkpt lat="37.849450540" lon="-6.404602155">
        <ele>541.00</ele>
        <time>1899-12-29T23:00:00Z</time>
      </trkpt>
      <trkpt lat="37.849923111" lon="-6.405109596">
        <ele>538.00</ele>
        <time>1899-12-29T23:00:00Z</time>
      </trkpt>
      <trkpt lat="37.850338016" lon="-6.405655090">
        <ele>536.00</ele>
        <time>1899-12-29T23:00:00Z</time>
      </trkpt>
      <trkpt lat="37.850784101" lon="-6.405580826">
        <ele>533.00</ele>
        <time>1899-12-29T23:00:00Z</time>
      </trkpt>
      <trkpt lat="37.851034384" lon="-6.405547634">
        <ele>531.00</ele>
        <time>1899-12-29T23:00:00Z</time>
      </trkpt>
      <trkpt lat="37.851254158" lon="-6.405657437">
        <ele>530.00</ele>
        <time>1899-12-29T23:00:00Z</time>
      </trkpt>
      <trkpt lat="37.851454485" lon="-6.405689623">
        <ele>528.00</ele>
        <time>1899-12-29T23:00:00Z</time>
      </trkpt>
      <trkpt lat="37.851625141" lon="-6.405672021">
        <ele>526.00</ele>
        <time>1899-12-29T23:00:00Z</time>
      </trkpt>
      <trkpt lat="37.851926889" lon="-6.405422240">
        <ele>524.00</ele>
        <time>1899-12-29T23:00:00Z</time>
      </trkpt>
      <trkpt lat="37.852126546" lon="-6.405138094">
        <ele>521.00</ele>
        <time>1899-12-29T23:00:00Z</time>
      </trkpt>
      <trkpt lat="37.852716967" lon="-6.405505389">
        <ele>517.00</ele>
        <time>1899-12-29T23:00:00Z</time>
      </trkpt>
      <trkpt lat="37.853091471" lon="-6.405771933">
        <ele>515.00</ele>
        <time>1899-12-29T23:00:00Z</time>
      </trkpt>
      <trkpt lat="37.853174284" lon="-6.405962706">
        <ele>514.00</ele>
        <time>1899-12-29T23:00:00Z</time>
      </trkpt>
      <trkpt lat="37.853251565" lon="-6.406291109">
        <ele>513.00</ele>
        <time>1899-12-29T23:00:00Z</time>
      </trkpt>
      <trkpt lat="37.853446864" lon="-6.406736020">
        <ele>511.00</ele>
        <time>1899-12-29T23:00:00Z</time>
      </trkpt>
      <trkpt lat="37.853722461" lon="-6.407197528">
        <ele>509.00</ele>
        <time>1899-12-29T23:00:00Z</time>
      </trkpt>
      <trkpt lat="37.854037788" lon="-6.407396682">
        <ele>508.00</ele>
        <time>1899-12-29T23:00:00Z</time>
      </trkpt>
      <trkpt lat="37.854226381" lon="-6.407621820">
        <ele>506.00</ele>
        <time>1899-12-29T23:00:00Z</time>
      </trkpt>
      <trkpt lat="37.854435761" lon="-6.407777555">
        <ele>504.00</ele>
        <time>1899-12-29T23:00:00Z</time>
      </trkpt>
      <trkpt lat="37.854705155" lon="-6.407803539">
        <ele>503.00</ele>
        <time>1899-12-29T23:00:00Z</time>
      </trkpt>
      <trkpt lat="37.855041437" lon="-6.407676805">
        <ele>500.00</ele>
        <time>1899-12-29T23:00:00Z</time>
      </trkpt>
      <trkpt lat="37.855294067" lon="-6.407547388">
        <ele>499.00</ele>
        <time>1899-12-29T23:00:00Z</time>
      </trkpt>
      <trkpt lat="37.855797820" lon="-6.407435238">
        <ele>495.00</ele>
        <time>1899-12-29T23:00:00Z</time>
      </trkpt>
      <trkpt lat="37.856120355" lon="-6.407359131">
        <ele>494.00</ele>
        <time>1899-12-29T23:00:00Z</time>
      </trkpt>
      <trkpt lat="37.856334262" lon="-6.407060903">
        <ele>492.00</ele>
        <time>1899-12-29T23:00:00Z</time>
      </trkpt>
      <trkpt lat="37.856601309" lon="-6.406917404">
        <ele>489.00</ele>
        <time>1899-12-29T23:00:00Z</time>
      </trkpt>
      <trkpt lat="37.856804319" lon="-6.406628564">
        <ele>487.00</ele>
        <time>1899-12-29T23:00:00Z</time>
      </trkpt>
      <trkpt lat="37.856918313" lon="-6.406460926">
        <ele>486.00</ele>
        <time>1899-12-29T23:00:00Z</time>
      </trkpt>
      <trkpt lat="37.857130039" lon="-6.406268310">
        <ele>483.00</ele>
        <time>1899-12-29T23:00:00Z</time>
      </trkpt>
      <trkpt lat="37.857586015" lon="-6.406633928">
        <ele>478.00</ele>
        <time>1899-12-29T23:00:00Z</time>
      </trkpt>
      <trkpt lat="37.857807465" lon="-6.406871974">
        <ele>476.00</ele>
        <time>1899-12-29T23:00:00Z</time>
      </trkpt>
      <trkpt lat="37.857854739" lon="-6.407123096">
        <ele>476.00</ele>
        <time>1899-12-29T23:00:00Z</time>
      </trkpt>
      <trkpt lat="37.858039476" lon="-6.407595836">
        <ele>473.00</ele>
        <time>1899-12-29T23:00:00Z</time>
      </trkpt>
      <trkpt lat="37.858221866" lon="-6.407894399">
        <ele>470.00</ele>
        <time>1899-12-29T23:00:00Z</time>
      </trkpt>
      <trkpt lat="37.858423200" lon="-6.408252139">
        <ele>467.00</ele>
        <time>1899-12-29T23:00:00Z</time>
      </trkpt>
      <trkpt lat="37.858451195" lon="-6.408696212">
        <ele>465.00</ele>
        <time>1899-12-29T23:00:00Z</time>
      </trkpt>
      <trkpt lat="37.859036420" lon="-6.409462653">
        <ele>458.00</ele>
        <time>1899-12-29T23:00:00Z</time>
      </trkpt>
      <trkpt lat="37.859453503" lon="-6.409907229">
        <ele>454.00</ele>
        <time>1899-12-29T23:00:00Z</time>
      </trkpt>
      <trkpt lat="37.859629188" lon="-6.409990378">
        <ele>452.00</ele>
        <time>1899-12-29T23:00:00Z</time>
      </trkpt>
      <trkpt lat="37.859778050" lon="-6.409982499">
        <ele>451.00</ele>
        <time>1899-12-29T23:00:00Z</time>
      </trkpt>
      <trkpt lat="37.860017605" lon="-6.410210989">
        <ele>449.00</ele>
        <time>1899-12-29T23:00:00Z</time>
      </trkpt>
      <trkpt lat="37.860313989" lon="-6.410350967">
        <ele>446.00</ele>
        <time>1899-12-29T23:00:00Z</time>
      </trkpt>
      <trkpt lat="37.860495206" lon="-6.410571579">
        <ele>444.00</ele>
        <time>1899-12-29T23:00:00Z</time>
      </trkpt>
      <trkpt lat="37.860736102" lon="-6.410896461">
        <ele>442.00</ele>
        <time>1899-12-29T23:00:00Z</time>
      </trkpt>
      <trkpt lat="37.861051932" lon="-6.411118582">
        <ele>438.00</ele>
        <time>1899-12-29T23:00:00Z</time>
      </trkpt>
      <trkpt lat="37.861244548" lon="-6.411380265">
        <ele>438.00</ele>
        <time>1899-12-29T23:00:00Z</time>
      </trkpt>
      <trkpt lat="37.861541770" lon="-6.411313880">
        <ele>435.00</ele>
        <time>1899-12-29T23:00:00Z</time>
      </trkpt>
      <trkpt lat="37.861981820" lon="-6.411070302">
        <ele>432.00</ele>
        <time>1899-12-29T23:00:00Z</time>
      </trkpt>
      <trkpt lat="37.862150129" lon="-6.410892271">
        <ele>430.00</ele>
        <time>1899-12-29T23:00:00Z</time>
      </trkpt>
      <trkpt lat="37.862189859" lon="-6.410611644">
        <ele>428.00</ele>
        <time>1899-12-29T23:00:00Z</time>
      </trkpt>
      <trkpt lat="37.862201761" lon="-6.410418861">
        <ele>427.00</ele>
        <time>1899-12-29T23:00:00Z</time>
      </trkpt>
      <trkpt lat="37.862448692" lon="-6.410151981">
        <ele>425.00</ele>
        <time>1899-12-29T23:00:00Z</time>
      </trkpt>
      <trkpt lat="37.862595711" lon="-6.409997251">
        <ele>422.00</ele>
        <time>1899-12-29T23:00:00Z</time>
      </trkpt>
      <trkpt lat="37.862672992" lon="-6.409812178">
        <ele>422.00</ele>
        <time>1899-12-29T23:00:00Z</time>
      </trkpt>
      <trkpt lat="37.862827890" lon="-6.409748476">
        <ele>421.00</ele>
        <time>1899-12-29T23:00:00Z</time>
      </trkpt>
      <trkpt lat="37.862956971" lon="-6.409837827">
        <ele>420.00</ele>
        <time>1899-12-29T23:00:00Z</time>
      </trkpt>
      <trkpt lat="37.863124106" lon="-6.410090961">
        <ele>419.00</ele>
        <time>1899-12-29T23:00:00Z</time>
      </trkpt>
      <trkpt lat="37.863343880" lon="-6.410466637">
        <ele>416.00</ele>
        <time>1899-12-29T23:00:00Z</time>
      </trkpt>
      <trkpt lat="37.863471285" lon="-6.410738882">
        <ele>413.00</ele>
        <time>1899-12-29T23:00:00Z</time>
      </trkpt>
      <trkpt lat="37.863792647" lon="-6.410841644">
        <ele>412.00</ele>
        <time>1899-12-29T23:00:00Z</time>
      </trkpt>
      <trkpt lat="37.864215765" lon="-6.410685573">
        <ele>409.00</ele>
        <time>1899-12-29T23:00:00Z</time>
      </trkpt>
      <trkpt lat="37.864448279" lon="-6.410680376">
        <ele>408.00</ele>
        <time>1899-12-29T23:00:00Z</time>
      </trkpt>
      <trkpt lat="37.864684481" lon="-6.410670485">
        <ele>406.00</ele>
        <time>1899-12-29T23:00:00Z</time>
      </trkpt>
      <trkpt lat="37.864834350" lon="-6.410469823">
        <ele>405.00</ele>
        <time>1899-12-29T23:00:00Z</time>
      </trkpt>
      <trkpt lat="37.864794787" lon="-6.410236973">
        <ele>404.00</ele>
        <time>1899-12-29T23:00:00Z</time>
      </trkpt>
      <trkpt lat="37.864644919" lon="-6.409923825">
        <ele>403.00</ele>
        <time>1899-12-29T23:00:00Z</time>
      </trkpt>
      <trkpt lat="37.864826974" lon="-6.409681421">
        <ele>401.00</ele>
        <time>1899-12-29T23:00:00Z</time>
      </trkpt>
      <trkpt lat="37.864978518" lon="-6.409347821">
        <ele>400.00</ele>
        <time>1899-12-29T23:00:00Z</time>
      </trkpt>
      <trkpt lat="37.865152024" lon="-6.409013718">
        <ele>397.00</ele>
        <time>1899-12-29T23:00:00Z</time>
      </trkpt>
      <trkpt lat="37.865201645" lon="-6.408673245">
        <ele>395.00</ele>
        <time>1899-12-29T23:00:00Z</time>
      </trkpt>
      <trkpt lat="37.865089159" lon="-6.408432852">
        <ele>394.00</ele>
        <time>1899-12-29T23:00:00Z</time>
      </trkpt>
      <trkpt lat="37.864886485" lon="-6.408235542">
        <ele>392.00</ele>
        <time>1899-12-29T23:00:00Z</time>
      </trkpt>
      <trkpt lat="37.864663024" lon="-6.408112161">
        <ele>391.00</ele>
        <time>1899-12-29T23:00:00Z</time>
      </trkpt>
      <trkpt lat="37.864439897" lon="-6.408016272">
        <ele>390.00</ele>
        <time>1899-12-29T23:00:00Z</time>
      </trkpt>
      <trkpt lat="37.864144854" lon="-6.407977045">
        <ele>389.00</ele>
        <time>1899-12-29T23:00:00Z</time>
      </trkpt>
      <trkpt lat="37.863812093" lon="-6.408094559">
        <ele>387.00</ele>
        <time>1899-12-29T23:00:00Z</time>
      </trkpt>
      <trkpt lat="37.863711342" lon="-6.407913342">
        <ele>386.00</ele>
        <time>1899-12-29T23:00:00Z</time>
      </trkpt>
      <trkpt lat="37.863666583" lon="-6.407575049">
        <ele>386.00</ele>
        <time>1899-12-29T23:00:00Z</time>
      </trkpt>
      <trkpt lat="37.863621153" lon="-6.407181770">
        <ele>385.00</ele>
        <time>1899-12-29T23:00:00Z</time>
      </trkpt>
      <trkpt lat="37.863665577" lon="-6.406983621">
        <ele>385.00</ele>
        <time>1899-12-29T23:00:00Z</time>
      </trkpt>
      <trkpt lat="37.863868419" lon="-6.406928636">
        <ele>385.00</ele>
        <time>1899-12-29T23:00:00Z</time>
      </trkpt>
      <trkpt lat="37.864140160" lon="-6.406872142">
        <ele>383.00</ele>
        <time>1899-12-29T23:00:00Z</time>
      </trkpt>
      <trkpt lat="37.864516843" lon="-6.406771895">
        <ele>382.00</ele>
        <time>1899-12-29T23:00:00Z</time>
      </trkpt>
      <trkpt lat="37.864788249" lon="-6.406683214">
        <ele>381.00</ele>
        <time>1899-12-29T23:00:00Z</time>
      </trkpt>
      <trkpt lat="37.864996959" lon="-6.406531837">
        <ele>380.00</ele>
        <time>1899-12-29T23:00:00Z</time>
      </trkpt>
      <trkpt lat="37.865183037" lon="-6.406321283">
        <ele>378.00</ele>
        <time>1899-12-29T23:00:00Z</time>
      </trkpt>
      <trkpt lat="37.865362410" lon="-6.406408958">
        <ele>377.00</ele>
        <time>1899-12-29T23:00:00Z</time>
      </trkpt>
      <trkpt lat="37.865470033" lon="-6.406567041">
        <ele>375.00</ele>
        <time>1899-12-29T23:00:00Z</time>
      </trkpt>
      <trkpt lat="37.865661476" lon="-6.406737026">
        <ele>374.00</ele>
        <time>1899-12-29T23:00:00Z</time>
      </trkpt>
      <trkpt lat="37.865947802" lon="-6.406927798">
        <ele>371.00</ele>
        <time>1899-12-29T23:00:00Z</time>
      </trkpt>
      <trkpt lat="37.866282240" lon="-6.406924948">
        <ele>370.00</ele>
        <time>1899-12-29T23:00:00Z</time>
      </trkpt>
      <trkpt lat="37.866550293" lon="-6.407116055">
        <ele>366.00</ele>
        <time>1899-12-29T23:00:00Z</time>
      </trkpt>
      <trkpt lat="37.866886910" lon="-6.407268941">
        <ele>363.00</ele>
        <time>1899-12-29T23:00:00Z</time>
      </trkpt>
      <trkpt lat="37.867201902" lon="-6.407183949">
        <ele>360.00</ele>
        <time>1899-12-29T23:00:00Z</time>
      </trkpt>
      <trkpt lat="37.867366020" lon="-6.407221500">
        <ele>358.00</ele>
        <time>1899-12-29T23:00:00Z</time>
      </trkpt>
      <trkpt lat="37.867627367" lon="-6.407188140">
        <ele>355.00</ele>
        <time>1899-12-29T23:00:00Z</time>
      </trkpt>
      <trkpt lat="37.867959626" lon="-6.406792179">
        <ele>351.00</ele>
        <time>1899-12-29T23:00:00Z</time>
      </trkpt>
      <trkpt lat="37.868142016" lon="-6.406533513">
        <ele>351.00</ele>
        <time>1899-12-29T23:00:00Z</time>
      </trkpt>
      <trkpt lat="37.868228517" lon="-6.406463441">
        <ele>351.00</ele>
        <time>1899-12-29T23:00:00Z</time>
      </trkpt>
      <trkpt lat="37.868330609" lon="-6.406444665">
        <ele>350.00</ele>
        <time>1899-12-29T23:00:00Z</time>
      </trkpt>
      <trkpt lat="37.868393306" lon="-6.406530160">
        <ele>349.00</ele>
        <time>1899-12-29T23:00:00Z</time>
      </trkpt>
      <trkpt lat="37.868462037" lon="-6.406648345">
        <ele>349.00</ele>
        <time>1899-12-29T23:00:00Z</time>
      </trkpt>
      <trkpt lat="37.868640404" lon="-6.406761836">
        <ele>348.00</ele>
        <time>1899-12-29T23:00:00Z</time>
      </trkpt>
      <trkpt lat="37.868780214" lon="-6.406779774">
        <ele>347.00</ele>
        <time>1899-12-29T23:00:00Z</time>
      </trkpt>
      <trkpt lat="37.868929915" lon="-6.406784803">
        <ele>346.00</ele>
        <time>1899-12-29T23:00:00Z</time>
      </trkpt>
      <trkpt lat="37.869134601" lon="-6.406694278">
        <ele>344.00</ele>
        <time>1899-12-29T23:00:00Z</time>
      </trkpt>
      <trkpt lat="37.869348507" lon="-6.406516246">
        <ele>342.00</ele>
        <time>1899-12-29T23:00:00Z</time>
      </trkpt>
      <trkpt lat="37.869500555" lon="-6.406254061">
        <ele>340.00</ele>
        <time>1899-12-29T23:00:00Z</time>
      </trkpt>
      <trkpt lat="37.869557552" lon="-6.405949797">
        <ele>338.00</ele>
        <time>1899-12-29T23:00:00Z</time>
      </trkpt>
      <trkpt lat="37.869550511" lon="-6.405701190">
        <ele>337.00</ele>
        <time>1899-12-29T23:00:00Z</time>
      </trkpt>
      <trkpt lat="37.869562414" lon="-6.405360550">
        <ele>335.00</ele>
        <time>1899-12-29T23:00:00Z</time>
      </trkpt>
      <trkpt lat="37.869573981" lon="-6.405120660">
        <ele>334.00</ele>
        <time>1899-12-29T23:00:00Z</time>
      </trkpt>
      <trkpt lat="37.869520839" lon="-6.404971294">
        <ele>332.00</ele>
        <time>1899-12-29T23:00:00Z</time>
      </trkpt>
      <trkpt lat="37.869363092" lon="-6.404951680">
        <ele>331.00</ele>
        <time>1899-12-29T23:00:00Z</time>
      </trkpt>
      <trkpt lat="37.869206015" lon="-6.405027956">
        <ele>331.00</ele>
        <time>1899-12-29T23:00:00Z</time>
      </trkpt>
      <trkpt lat="37.869107444" lon="-6.405037344">
        <ele>330.00</ele>
        <time>1899-12-29T23:00:00Z</time>
      </trkpt>
      <trkpt lat="37.869059332" lon="-6.404932737">
        <ele>330.00</ele>
        <time>1899-12-29T23:00:00Z</time>
      </trkpt>
      <trkpt lat="37.869199645" lon="-6.404711287">
        <ele>327.00</ele>
        <time>1899-12-29T23:00:00Z</time>
      </trkpt>
      <trkpt lat="37.869285811" lon="-6.404501405">
        <ele>326.00</ele>
        <time>1899-12-29T23:00:00Z</time>
      </trkpt>
      <trkpt lat="37.869578339" lon="-6.404192280">
        <ele>322.00</ele>
        <time>1899-12-29T23:00:00Z</time>
      </trkpt>
      <trkpt lat="37.869798783" lon="-6.403959431">
        <ele>321.00</ele>
        <time>1899-12-29T23:00:00Z</time>
      </trkpt>
      <trkpt lat="37.870033644" lon="-6.403880641">
        <ele>318.00</ele>
        <time>1899-12-29T23:00:00Z</time>
      </trkpt>
      <trkpt lat="37.870097514" lon="-6.403762959">
        <ele>318.00</ele>
        <time>1899-12-29T23:00:00Z</time>
      </trkpt>
      <trkpt lat="37.870039009" lon="-6.403637901">
        <ele>316.00</ele>
        <time>1899-12-29T23:00:00Z</time>
      </trkpt>
      <trkpt lat="37.869903389" lon="-6.403534468">
        <ele>315.00</ele>
        <time>1899-12-29T23:00:00Z</time>
      </trkpt>
      <trkpt lat="37.869576495" lon="-6.403284520">
        <ele>313.00</ele>
        <time>1899-12-29T23:00:00Z</time>
      </trkpt>
      <trkpt lat="37.869493179" lon="-6.403161474">
        <ele>312.00</ele>
        <time>1899-12-29T23:00:00Z</time>
      </trkpt>
      <trkpt lat="37.869526204" lon="-6.403024681">
        <ele>312.00</ele>
        <time>1899-12-29T23:00:00Z</time>
      </trkpt>
      <trkpt lat="37.869625781" lon="-6.403051838">
        <ele>312.00</ele>
        <time>1899-12-29T23:00:00Z</time>
      </trkpt>
      <trkpt lat="37.869804148" lon="-6.403106656">
        <ele>312.00</ele>
        <time>1899-12-29T23:00:00Z</time>
      </trkpt>
      <trkpt lat="37.869966757" lon="-6.403062567">
        <ele>312.00</ele>
        <time>1899-12-29T23:00:00Z</time>
      </trkpt>
      <trkpt lat="37.870114781" lon="-6.403235570">
        <ele>311.00</ele>
        <time>1899-12-29T23:00:00Z</time>
      </trkpt>
      <trkpt lat="37.870371435" lon="-6.403251998">
        <ele>312.00</ele>
        <time>1899-12-29T23:00:00Z</time>
      </trkpt>
      <trkpt lat="37.870632950" lon="-6.403201874">
        <ele>312.00</ele>
        <time>1899-12-29T23:00:00Z</time>
      </trkpt>
      <trkpt lat="37.870816179" lon="-6.403186787">
        <ele>312.00</ele>
        <time>1899-12-29T23:00:00Z</time>
      </trkpt>
      <trkpt lat="37.871044502" lon="-6.403255183">
        <ele>311.00</ele>
        <time>1899-12-29T23:00:00Z</time>
      </trkpt>
      <trkpt lat="37.871278692" lon="-6.403334476">
        <ele>311.00</ele>
        <time>1899-12-29T23:00:00Z</time>
      </trkpt>
      <trkpt lat="37.871620338" lon="-6.403190810">
        <ele>312.00</ele>
        <time>1899-12-29T23:00:00Z</time>
      </trkpt>
      <trkpt lat="37.872097269" lon="-6.402922757">
        <ele>311.00</ele>
        <time>1899-12-29T23:00:00Z</time>
      </trkpt>
      <trkpt lat="37.872332465" lon="-6.402660236">
        <ele>309.00</ele>
        <time>1899-12-29T23:00:00Z</time>
      </trkpt>
      <trkpt lat="37.872381918" lon="-6.402445994">
        <ele>308.00</ele>
        <time>1899-12-29T23:00:00Z</time>
      </trkpt>
      <trkpt lat="37.872462384" lon="-6.402374245">
        <ele>308.00</ele>
        <time>1899-12-29T23:00:00Z</time>
      </trkpt>
      <trkpt lat="37.872626837" lon="-6.402466111">
        <ele>306.00</ele>
        <time>1899-12-29T23:00:00Z</time>
      </trkpt>
      <trkpt lat="37.872897740" lon="-6.402460076">
        <ele>305.00</ele>
        <time>1899-12-29T23:00:00Z</time>
      </trkpt>
      <trkpt lat="37.873133104" lon="-6.402417999">
        <ele>304.00</ele>
        <time>1899-12-29T23:00:00Z</time>
      </trkpt>
      <trkpt lat="37.873292193" lon="-6.402546745">
        <ele>304.00</ele>
        <time>1899-12-29T23:00:00Z</time>
      </trkpt>
      <trkpt lat="37.873679940" lon="-6.402361505">
        <ele>304.00</ele>
        <time>1899-12-29T23:00:00Z</time>
      </trkpt>
      <trkpt lat="37.873785384" lon="-6.402197555">
        <ele>304.00</ele>
        <time>1899-12-29T23:00:00Z</time>
      </trkpt>
      <trkpt lat="37.873812206" lon="-6.402027905">
        <ele>304.00</ele>
        <time>1899-12-29T23:00:00Z</time>
      </trkpt>
      <trkpt lat="37.873855792" lon="-6.401813664">
        <ele>303.00</ele>
        <time>1899-12-29T23:00:00Z</time>
      </trkpt>
      <trkpt lat="37.873958889" lon="-6.401690114">
        <ele>303.00</ele>
        <time>1899-12-29T23:00:00Z</time>
      </trkpt>
      <trkpt lat="37.874224931" lon="-6.401551813">
        <ele>301.00</ele>
        <time>1899-12-29T23:00:00Z</time>
      </trkpt>
      <trkpt lat="37.874656431" lon="-6.401365567">
        <ele>298.00</ele>
        <time>1899-12-29T23:00:00Z</time>
      </trkpt>
      <trkpt lat="37.874980979" lon="-6.401244365">
        <ele>297.00</ele>
        <time>1899-12-29T23:00:00Z</time>
      </trkpt>
      <trkpt lat="37.875193711" lon="-6.401048563">
        <ele>295.00</ele>
        <time>1899-12-29T23:00:00Z</time>
      </trkpt>
      <trkpt lat="37.875275519" lon="-6.400855612">
        <ele>295.00</ele>
        <time>1899-12-29T23:00:00Z</time>
      </trkpt>
      <trkpt lat="37.875285745" lon="-6.400553863">
        <ele>294.00</ele>
        <time>1899-12-29T23:00:00Z</time>
      </trkpt>
      <trkpt lat="37.875401415" lon="-6.400492508">
        <ele>294.00</ele>
        <time>1899-12-29T23:00:00Z</time>
      </trkpt>
      <trkpt lat="37.875584811" lon="-6.400481109">
        <ele>293.00</ele>
        <time>1899-12-29T23:00:00Z</time>
      </trkpt>
      <trkpt lat="37.875853870" lon="-6.400350016">
        <ele>291.00</ele>
        <time>1899-12-29T23:00:00Z</time>
      </trkpt>
      <trkpt lat="37.876079511" lon="-6.400230993">
        <ele>290.00</ele>
        <time>1899-12-29T23:00:00Z</time>
      </trkpt>
      <trkpt lat="37.876156792" lon="-6.400137283">
        <ele>290.00</ele>
        <time>1899-12-29T23:00:00Z</time>
      </trkpt>
      <trkpt lat="37.876285873" lon="-6.399998479">
        <ele>289.00</ele>
        <time>1899-12-29T23:00:00Z</time>
      </trkpt>
      <trkpt lat="37.876337841" lon="-6.399762109">
        <ele>287.00</ele>
        <time>1899-12-29T23:00:00Z</time>
      </trkpt>
      <trkpt lat="37.876345720" lon="-6.399493553">
        <ele>286.00</ele>
        <time>1899-12-29T23:00:00Z</time>
      </trkpt>
      <trkpt lat="37.876442950" lon="-6.399366483">
        <ele>285.00</ele>
        <time>1899-12-29T23:00:00Z</time>
      </trkpt>
      <trkpt lat="37.876602542" lon="-6.399322394">
        <ele>284.00</ele>
        <time>1899-12-29T23:00:00Z</time>
      </trkpt>
      <trkpt lat="37.876776215" lon="-6.399241257">
        <ele>283.00</ele>
        <time>1899-12-29T23:00:00Z</time>
      </trkpt>
      <trkpt lat="37.876899932" lon="-6.399128269">
        <ele>282.00</ele>
        <time>1899-12-29T23:00:00Z</time>
      </trkpt>
      <trkpt lat="37.877027672" lon="-6.399092227">
        <ele>281.00</ele>
        <time>1899-12-29T23:00:00Z</time>
      </trkpt>
      <trkpt lat="37.877235208" lon="-6.399146374">
        <ele>279.00</ele>
        <time>1899-12-29T23:00:00Z</time>
      </trkpt>
      <trkpt lat="37.877329253" lon="-6.398997344">
        <ele>278.00</ele>
        <time>1899-12-29T23:00:00Z</time>
      </trkpt>
      <trkpt lat="37.877262868" lon="-6.398837082">
        <ele>277.00</ele>
        <time>1899-12-29T23:00:00Z</time>
      </trkpt>
      <trkpt lat="37.877171841" lon="-6.398581769">
        <ele>275.00</ele>
        <time>1899-12-29T23:00:00Z</time>
      </trkpt>
      <trkpt lat="37.877217270" lon="-6.398290414">
        <ele>269.00</ele>
        <time>1899-12-29T23:00:00Z</time>
      </trkpt>
      <trkpt lat="37.877263203" lon="-6.398039460">
        <ele>266.00</ele>
        <time>1899-12-29T23:00:00Z</time>
      </trkpt>
      <trkpt lat="37.877282649" lon="-6.397561189">
        <ele>275.00</ele>
        <time>1899-12-29T23:00:00Z</time>
      </trkpt>
      <trkpt lat="37.877373006" lon="-6.397357006">
        <ele>276.00</ele>
        <time>1899-12-29T23:00:00Z</time>
      </trkpt>
      <trkpt lat="37.877554055" lon="-6.397386007">
        <ele>277.00</ele>
        <time>1899-12-29T23:00:00Z</time>
      </trkpt>
      <trkpt lat="37.877792604" lon="-6.397365890">
        <ele>277.00</ele>
        <time>1899-12-29T23:00:00Z</time>
      </trkpt>
      <trkpt lat="37.878033668" lon="-6.397312749">
        <ele>277.00</ele>
        <time>1899-12-29T23:00:00Z</time>
      </trkpt>
      <trkpt lat="37.878385875" lon="-6.397087947">
        <ele>278.00</ele>
        <time>1899-12-29T23:00:00Z</time>
      </trkpt>
      <trkpt lat="37.878698856" lon="-6.396966912">
        <ele>277.00</ele>
        <time>1899-12-29T23:00:00Z</time>
      </trkpt>
      <trkpt lat="37.878931202" lon="-6.396921314">
        <ele>278.00</ele>
        <time>1899-12-29T23:00:00Z</time>
      </trkpt>
      <trkpt lat="37.879028264" lon="-6.396775637">
        <ele>278.00</ele>
        <time>1899-12-29T23:00:00Z</time>
      </trkpt>
      <trkpt lat="37.879066151" lon="-6.396580003">
        <ele>278.00</ele>
        <time>1899-12-29T23:00:00Z</time>
      </trkpt>
      <trkpt lat="37.879176289" lon="-6.396537088">
        <ele>278.00</ele>
        <time>1899-12-29T23:00:00Z</time>
      </trkpt>
      <trkpt lat="37.879260108" lon="-6.396689638">
        <ele>279.00</ele>
        <time>1899-12-29T23:00:00Z</time>
      </trkpt>
      <trkpt lat="37.879372928" lon="-6.396841519">
        <ele>279.00</ele>
        <time>1899-12-29T23:00:00Z</time>
      </trkpt>
      <trkpt lat="37.879524305" lon="-6.396834310">
        <ele>279.00</ele>
        <time>1899-12-29T23:00:00Z</time>
      </trkpt>
      <trkpt lat="37.879716419" lon="-6.396616884">
        <ele>280.00</ele>
        <time>1899-12-29T23:00:00Z</time>
      </trkpt>
      <trkpt lat="37.879890595" lon="-6.396366600">
        <ele>281.00</ele>
        <time>1899-12-29T23:00:00Z</time>
      </trkpt>
      <trkpt lat="37.880049348" lon="-6.396061666">
        <ele>282.00</ele>
        <time>1899-12-29T23:00:00Z</time>
      </trkpt>
      <trkpt lat="37.880201731" lon="-6.395914815">
        <ele>282.00</ele>
        <time>1899-12-29T23:00:00Z</time>
      </trkpt>
      <trkpt lat="37.880427036" lon="-6.395990588">
        <ele>283.00</ele>
        <time>1899-12-29T23:00:00Z</time>
      </trkpt>
      <trkpt lat="37.880599201" lon="-6.396012381">
        <ele>284.00</ele>
        <time>1899-12-29T23:00:00Z</time>
      </trkpt>
      <trkpt lat="37.880790811" lon="-6.395964101">
        <ele>284.00</ele>
        <time>1899-12-29T23:00:00Z</time>
      </trkpt>
      <trkpt lat="37.880917210" lon="-6.396042053">
        <ele>284.00</ele>
        <time>1899-12-29T23:00:00Z</time>
      </trkpt>
      <trkpt lat="37.881267238" lon="-6.396276746">
        <ele>285.00</ele>
        <time>1899-12-29T23:00:00Z</time>
      </trkpt>
      <trkpt lat="37.881492544" lon="-6.396341454">
        <ele>285.00</ele>
        <time>1899-12-29T23:00:00Z</time>
      </trkpt>
      <trkpt lat="37.881654818" lon="-6.396286301">
        <ele>286.00</ele>
        <time>1899-12-29T23:00:00Z</time>
      </trkpt>
      <trkpt lat="37.881780211" lon="-6.396500375">
        <ele>287.00</ele>
        <time>1899-12-29T23:00:00Z</time>
      </trkpt>
      <trkpt lat="37.881865203" lon="-6.396737415">
        <ele>287.00</ele>
        <time>1899-12-29T23:00:00Z</time>
      </trkpt>
      <trkpt lat="37.881963942" lon="-6.396918967">
        <ele>288.00</ele>
        <time>1899-12-29T23:00:00Z</time>
      </trkpt>
      <trkpt lat="37.882053126" lon="-6.397052910">
        <ele>288.00</ele>
        <time>1899-12-29T23:00:00Z</time>
      </trkpt>
      <trkpt lat="37.882431988" lon="-6.397058945">
        <ele>288.00</ele>
        <time>1899-12-29T23:00:00Z</time>
      </trkpt>
      <trkpt lat="37.882623430" lon="-6.396995913">
        <ele>288.00</ele>
        <time>1899-12-29T23:00:00Z</time>
      </trkpt>
      <trkpt lat="37.882866338" lon="-6.396872699">
        <ele>289.00</ele>
        <time>1899-12-29T23:00:00Z</time>
      </trkpt>
      <trkpt lat="37.883001119" lon="-6.396718975">
        <ele>289.00</ele>
        <time>1899-12-29T23:00:00Z</time>
      </trkpt>
      <trkpt lat="37.883172613" lon="-6.396696679">
        <ele>288.00</ele>
        <time>1899-12-29T23:00:00Z</time>
      </trkpt>
      <trkpt lat="37.883363049" lon="-6.396773290">
        <ele>288.00</ele>
        <time>1899-12-29T23:00:00Z</time>
      </trkpt>
      <trkpt lat="37.884086408" lon="-6.397040002">
        <ele>293.00</ele>
        <time>1899-12-29T23:00:00Z</time>
      </trkpt>
      <trkpt lat="37.884433083" lon="-6.397032123">
        <ele>295.00</ele>
        <time>1899-12-29T23:00:00Z</time>
      </trkpt>
      <trkpt lat="37.884688564" lon="-6.396974958">
        <ele>297.00</ele>
        <time>1899-12-29T23:00:00Z</time>
      </trkpt>
      <trkpt lat="37.884864081" lon="-6.396823917">
        <ele>298.00</ele>
        <time>1899-12-29T23:00:00Z</time>
      </trkpt>
      <trkpt lat="37.884987295" lon="-6.396677736">
        <ele>300.00</ele>
        <time>1899-12-29T23:00:00Z</time>
      </trkpt>
      <trkpt lat="37.885195334" lon="-6.396555528">
        <ele>301.00</ele>
        <time>1899-12-29T23:00:00Z</time>
      </trkpt>
      <trkpt lat="37.885493059" lon="-6.396394428">
        <ele>303.00</ele>
        <time>1899-12-29T23:00:00Z</time>
      </trkpt>
      <trkpt lat="37.885777876" lon="-6.396336425">
        <ele>305.00</ele>
        <time>1899-12-29T23:00:00Z</time>
      </trkpt>
      <trkpt lat="37.886207700" lon="-6.396985184">
        <ele>303.00</ele>
        <time>1899-12-29T23:00:00Z</time>
      </trkpt>
      <trkpt lat="37.886466365" lon="-6.397491116">
        <ele>301.00</ele>
        <time>1899-12-29T23:00:00Z</time>
      </trkpt>
      <trkpt lat="37.886736766" lon="-6.398032922">
        <ele>300.00</ele>
        <time>1899-12-29T23:00:00Z</time>
      </trkpt>
      <trkpt lat="37.886970118" lon="-6.398366522">
        <ele>299.00</ele>
        <time>1899-12-29T23:00:00Z</time>
      </trkpt>
      <trkpt lat="37.887355853" lon="-6.398581266">
        <ele>298.00</ele>
        <time>1899-12-29T23:00:00Z</time>
      </trkpt>
      <trkpt lat="37.887771595" lon="-6.398485377">
        <ele>296.00</ele>
        <time>1899-12-29T23:00:00Z</time>
      </trkpt>
      <trkpt lat="37.888083234" lon="-6.398290917">
        <ele>295.00</ele>
        <time>1899-12-29T23:00:00Z</time>
      </trkpt>
      <trkpt lat="37.888297308" lon="-6.398084220">
        <ele>294.00</ele>
        <time>1899-12-29T23:00:00Z</time>
      </trkpt>
      <trkpt lat="37.888533343" lon="-6.398208607">
        <ele>291.00</ele>
        <time>1899-12-29T23:00:00Z</time>
      </trkpt>
      <trkpt lat="37.888626549" lon="-6.398336347">
        <ele>294.00</ele>
        <time>1899-12-29T23:00:00Z</time>
      </trkpt>
      <trkpt lat="37.888574246" lon="-6.398676317">
        <ele>296.00</ele>
        <time>1899-12-29T23:00:00Z</time>
      </trkpt>
      <trkpt lat="37.888492439" lon="-6.398952082">
        <ele>298.00</ele>
        <time>1899-12-29T23:00:00Z</time>
      </trkpt>
      <trkpt lat="37.888759989" lon="-6.399277803">
        <ele>300.00</ele>
        <time>1899-12-29T23:00:00Z</time>
      </trkpt>
      <trkpt lat="37.888965849" lon="-6.399492044">
        <ele>303.00</ele>
        <time>1899-12-29T23:00:00Z</time>
      </trkpt>
      <trkpt lat="37.888865098" lon="-6.399709135">
        <ele>304.00</ele>
        <time>1899-12-29T23:00:00Z</time>
      </trkpt>
      <trkpt lat="37.888590842" lon="-6.399729755">
        <ele>306.00</ele>
        <time>1899-12-29T23:00:00Z</time>
      </trkpt>
      <trkpt lat="37.888519596" lon="-6.399947852">
        <ele>308.00</ele>
        <time>1899-12-29T23:00:00Z</time>
      </trkpt>
      <trkpt lat="37.888600230" lon="-6.400393602">
        <ele>310.00</ele>
        <time>1899-12-29T23:00:00Z</time>
      </trkpt>
      <trkpt lat="37.888610791" lon="-6.401136573">
        <ele>314.00</ele>
        <time>1899-12-29T23:00:00Z</time>
      </trkpt>
      <trkpt lat="37.888429239" lon="-6.401249059">
        <ele>316.00</ele>
        <time>1899-12-29T23:00:00Z</time>
      </trkpt>
      <trkpt lat="37.888186667" lon="-6.401081253">
        <ele>318.00</ele>
        <time>1899-12-29T23:00:00Z</time>
      </trkpt>
      <trkpt lat="37.887953650" lon="-6.401187535">
        <ele>320.00</ele>
        <time>1899-12-29T23:00:00Z</time>
      </trkpt>
      <trkpt lat="37.887803447" lon="-6.401479561">
        <ele>321.00</ele>
        <time>1899-12-29T23:00:00Z</time>
      </trkpt>
      <trkpt lat="37.887472361" lon="-6.401523147">
        <ele>324.00</ele>
        <time>1899-12-29T23:00:00Z</time>
      </trkpt>
      <trkpt lat="37.887179498" lon="-6.401443183">
        <ele>327.00</ele>
        <time>1899-12-29T23:00:00Z</time>
      </trkpt>
      <trkpt lat="37.886950839" lon="-6.401051413">
        <ele>329.00</ele>
        <time>1899-12-29T23:00:00Z</time>
      </trkpt>
      <trkpt lat="37.886748668" lon="-6.400911603">
        <ele>331.00</ele>
        <time>1899-12-29T23:00:00Z</time>
      </trkpt>
      <trkpt lat="37.886543311" lon="-6.400945131">
        <ele>332.00</ele>
        <time>1899-12-29T23:00:00Z</time>
      </trkpt>
      <trkpt lat="37.886432335" lon="-6.401193067">
        <ele>333.00</ele>
        <time>1899-12-29T23:00:00Z</time>
      </trkpt>
      <trkpt lat="37.886470892" lon="-6.401487943">
        <ele>336.00</ele>
        <time>1899-12-29T23:00:00Z</time>
      </trkpt>
      <trkpt lat="37.886647750" lon="-6.401866470">
        <ele>337.00</ele>
        <time>1899-12-29T23:00:00Z</time>
      </trkpt>
      <trkpt lat="37.886592261" lon="-6.402791496">
        <ele>341.00</ele>
        <time>1899-12-29T23:00:00Z</time>
      </trkpt>
      <trkpt lat="37.886591256" lon="-6.403527595">
        <ele>341.00</ele>
        <time>1899-12-29T23:00:00Z</time>
      </trkpt>
      <trkpt lat="37.886691671" lon="-6.404160429">
        <ele>340.00</ele>
        <time>1899-12-29T23:00:00Z</time>
      </trkpt>
      <trkpt lat="37.886858806" lon="-6.404654626">
        <ele>338.00</ele>
        <time>1899-12-29T23:00:00Z</time>
      </trkpt>
      <trkpt lat="37.886943631" lon="-6.404991914">
        <ele>337.00</ele>
        <time>1899-12-29T23:00:00Z</time>
      </trkpt>
      <trkpt lat="37.886782363" lon="-6.405313108">
        <ele>337.00</ele>
        <time>1899-12-29T23:00:00Z</time>
      </trkpt>
      <trkpt lat="37.886701226" lon="-6.405646876">
        <ele>337.00</ele>
        <time>1899-12-29T23:00:00Z</time>
      </trkpt>
      <trkpt lat="37.886739783" lon="-6.405967064">
        <ele>338.00</ele>
        <time>1899-12-29T23:00:00Z</time>
      </trkpt>
      <trkpt lat="37.886831649" lon="-6.406372748">
        <ele>338.00</ele>
        <time>1899-12-29T23:00:00Z</time>
      </trkpt>
      <trkpt lat="37.887121830" lon="-6.406676676">
        <ele>340.00</ele>
        <time>1899-12-29T23:00:00Z</time>
      </trkpt>
      <trkpt lat="37.887642849" lon="-6.407119576">
        <ele>341.00</ele>
        <time>1899-12-29T23:00:00Z</time>
      </trkpt>
      <trkpt lat="37.888314407" lon="-6.407689042">
        <ele>343.00</ele>
        <time>1899-12-29T23:00:00Z</time>
      </trkpt>
      <trkpt lat="37.888969872" lon="-6.408338305">
        <ele>344.00</ele>
        <time>1899-12-29T23:00:00Z</time>
      </trkpt>
      <trkpt lat="37.888898291" lon="-6.408534776">
        <ele>345.00</ele>
        <time>1899-12-29T23:00:00Z</time>
      </trkpt>
      <trkpt lat="37.888585478" lon="-6.408664361">
        <ele>347.00</ele>
        <time>1899-12-29T23:00:00Z</time>
      </trkpt>
      <trkpt lat="37.888428904" lon="-6.408913303">
        <ele>348.00</ele>
        <time>1899-12-29T23:00:00Z</time>
      </trkpt>
      <trkpt lat="37.888622358" lon="-6.409248244">
        <ele>351.00</ele>
        <time>1899-12-29T23:00:00Z</time>
      </trkpt>
      <trkpt lat="37.888742387" lon="-6.409649570">
        <ele>353.00</ele>
        <time>1899-12-29T23:00:00Z</time>
      </trkpt>
      <trkpt lat="37.888787147" lon="-6.409987863">
        <ele>355.00</ele>
        <time>1899-12-29T23:00:00Z</time>
      </trkpt>
      <trkpt lat="37.889061403" lon="-6.410364211">
        <ele>354.00</ele>
        <time>1899-12-29T23:00:00Z</time>
      </trkpt>
      <trkpt lat="37.889255192" lon="-6.410727818">
        <ele>354.00</ele>
        <time>1899-12-29T23:00:00Z</time>
      </trkpt>
      <trkpt lat="37.889305986" lon="-6.411087569">
        <ele>354.00</ele>
        <time>1899-12-29T23:00:00Z</time>
      </trkpt>
      <trkpt lat="37.889207415" lon="-6.411392838">
        <ele>355.00</ele>
        <time>1899-12-29T23:00:00Z</time>
      </trkpt>
      <trkpt lat="37.889304981" lon="-6.411830876">
        <ele>355.00</ele>
        <time>1899-12-29T23:00:00Z</time>
      </trkpt>
      <trkpt lat="37.889392320" lon="-6.412745509">
        <ele>350.00</ele>
        <time>1899-12-29T23:00:00Z</time>
      </trkpt>
      <trkpt lat="37.889428195" lon="-6.413668524">
        <ele>345.00</ele>
        <time>1899-12-29T23:00:00Z</time>
      </trkpt>
      <trkpt lat="37.889552750" lon="-6.414394733">
        <ele>341.00</ele>
        <time>1899-12-29T23:00:00Z</time>
      </trkpt>
      <trkpt lat="37.889659200" lon="-6.415049024">
        <ele>338.00</ele>
        <time>1899-12-29T23:00:00Z</time>
      </trkpt>
      <trkpt lat="37.889912333" lon="-6.415570211">
        <ele>335.00</ele>
        <time>1899-12-29T23:00:00Z</time>
      </trkpt>
      <trkpt lat="37.889918704" lon="-6.416024677">
        <ele>332.00</ele>
        <time>1899-12-29T23:00:00Z</time>
      </trkpt>
      <trkpt lat="37.890056837" lon="-6.416490711">
        <ele>329.00</ele>
        <time>1899-12-29T23:00:00Z</time>
      </trkpt>
      <trkpt lat="37.890210561" lon="-6.416848116">
        <ele>327.00</ele>
        <time>1899-12-29T23:00:00Z</time>
      </trkpt>
      <trkpt lat="37.890372500" lon="-6.417790074">
        <ele>322.00</ele>
        <time>1899-12-29T23:00:00Z</time>
      </trkpt>
      <trkpt lat="37.890491690" lon="-6.418133732">
        <ele>320.00</ele>
        <time>1899-12-29T23:00:00Z</time>
      </trkpt>
      <trkpt lat="37.890766449" lon="-6.418560706">
        <ele>317.00</ele>
        <time>1899-12-29T23:00:00Z</time>
      </trkpt>
      <trkpt lat="37.891041879" lon="-6.419023555">
        <ele>316.00</ele>
        <time>1899-12-29T23:00:00Z</time>
      </trkpt>
      <trkpt lat="37.891001143" lon="-6.419385318">
        <ele>317.00</ele>
        <time>1899-12-29T23:00:00Z</time>
      </trkpt>
      <trkpt lat="37.891199626" lon="-6.419676840">
        <ele>315.00</ele>
        <time>1899-12-29T23:00:00Z</time>
      </trkpt>
      <trkpt lat="37.891330048" lon="-6.420005914">
        <ele>316.00</ele>
        <time>1899-12-29T23:00:00Z</time>
      </trkpt>
      <trkpt lat="37.891409677" lon="-6.420379411">
        <ele>316.00</ele>
        <time>1899-12-29T23:00:00Z</time>
      </trkpt>
      <trkpt lat="37.891459968" lon="-6.420703121">
        <ele>317.00</ele>
        <time>1899-12-29T23:00:00Z</time>
      </trkpt>
      <trkpt lat="37.891337425" lon="-6.420936808">
        <ele>318.00</ele>
        <time>1899-12-29T23:00:00Z</time>
      </trkpt>
      <trkpt lat="37.891278584" lon="-6.421226822">
        <ele>319.00</ele>
        <time>1899-12-29T23:00:00Z</time>
      </trkpt>
      <trkpt lat="37.891573962" lon="-6.421487331">
        <ele>319.00</ele>
        <time>1899-12-29T23:00:00Z</time>
      </trkpt>
      <trkpt lat="37.891865317" lon="-6.421466377">
        <ele>319.00</ele>
        <time>1899-12-29T23:00:00Z</time>
      </trkpt>
      <trkpt lat="37.892096490" lon="-6.421641558">
        <ele>319.00</ele>
        <time>1899-12-29T23:00:00Z</time>
      </trkpt>
      <trkpt lat="37.892190870" lon="-6.422245726">
        <ele>317.00</ele>
        <time>1899-12-29T23:00:00Z</time>
      </trkpt>
      <trkpt lat="37.892486416" lon="-6.422520652">
        <ele>315.00</ele>
        <time>1899-12-29T23:00:00Z</time>
      </trkpt>
      <trkpt lat="37.893347237" lon="-6.423639301">
        <ele>312.00</ele>
        <time>1899-12-29T23:00:00Z</time>
      </trkpt>
      <trkpt lat="37.894087359" lon="-6.424123440">
        <ele>312.00</ele>
        <time>1899-12-29T23:00:00Z</time>
      </trkpt>
      <trkpt lat="37.894514166" lon="-6.424380932">
        <ele>311.00</ele>
        <time>1899-12-29T23:00:00Z</time>
      </trkpt>
      <trkpt lat="37.894761600" lon="-6.424483694">
        <ele>311.00</ele>
        <time>1899-12-29T23:00:00Z</time>
      </trkpt>
      <trkpt lat="37.895086147" lon="-6.424382608">
        <ele>309.00</ele>
        <time>1899-12-29T23:00:00Z</time>
      </trkpt>
      <trkpt lat="37.895371802" lon="-6.424361821">
        <ele>309.00</ele>
        <time>1899-12-29T23:00:00Z</time>
      </trkpt>
      <trkpt lat="37.895497531" lon="-6.423947588">
        <ele>308.00</ele>
        <time>1899-12-29T23:00:00Z</time>
      </trkpt>
      <trkpt lat="37.895677909" lon="-6.423755977">
        <ele>308.00</ele>
        <time>1899-12-29T23:00:00Z</time>
      </trkpt>
      <trkpt lat="37.895893157" lon="-6.423599571">
        <ele>307.00</ele>
        <time>1899-12-29T23:00:00Z</time>
      </trkpt>
      <trkpt lat="37.896090969" lon="-6.423847843">
        <ele>309.00</ele>
        <time>1899-12-29T23:00:00Z</time>
      </trkpt>
      <trkpt lat="37.896131203" lon="-6.424265597">
        <ele>311.00</ele>
        <time>1899-12-29T23:00:00Z</time>
      </trkpt>
      <trkpt lat="37.896260954" lon="-6.424551420">
        <ele>313.00</ele>
        <time>1899-12-29T23:00:00Z</time>
      </trkpt>
      <trkpt lat="37.896442674" lon="-6.425269078">
        <ele>317.00</ele>
        <time>1899-12-29T23:00:00Z</time>
      </trkpt>
      <trkpt lat="37.896550130" lon="-6.425591614">
        <ele>316.00</ele>
        <time>1899-12-29T23:00:00Z</time>
      </trkpt>
      <trkpt lat="37.897011973" lon="-6.425487511">
        <ele>314.00</ele>
        <time>1899-12-29T23:00:00Z</time>
      </trkpt>
      <trkpt lat="37.897128146" lon="-6.425614748">
        <ele>312.00</ele>
        <time>1899-12-29T23:00:00Z</time>
      </trkpt>
      <trkpt lat="37.897064108" lon="-6.425948180">
        <ele>313.00</ele>
        <time>1899-12-29T23:00:00Z</time>
      </trkpt>
      <trkpt lat="37.897062935" lon="-6.426273063">
        <ele>314.00</ele>
        <time>1899-12-29T23:00:00Z</time>
      </trkpt>
      <trkpt lat="37.897549421" lon="-6.426481940">
        <ele>317.00</ele>
        <time>1899-12-29T23:00:00Z</time>
      </trkpt>
      <trkpt lat="37.898062896" lon="-6.426714119">
        <ele>320.00</ele>
        <time>1899-12-29T23:00:00Z</time>
      </trkpt>
      <trkpt lat="37.898259033" lon="-6.426930204">
        <ele>321.00</ele>
        <time>1899-12-29T23:00:00Z</time>
      </trkpt>
      <trkpt lat="37.898552567" lon="-6.427219547">
        <ele>318.00</ele>
        <time>1899-12-29T23:00:00Z</time>
      </trkpt>
      <trkpt lat="37.898842581" lon="-6.427578460">
        <ele>316.00</ele>
        <time>1899-12-29T23:00:00Z</time>
      </trkpt>
      <trkpt lat="37.899072748" lon="-6.427608132">
        <ele>314.00</ele>
        <time>1899-12-29T23:00:00Z</time>
      </trkpt>
      <trkpt lat="37.899336275" lon="-6.427712571">
        <ele>312.00</ele>
        <time>1899-12-29T23:00:00Z</time>
      </trkpt>
      <trkpt lat="37.899520341" lon="-6.427731682">
        <ele>310.00</ele>
        <time>1899-12-29T23:00:00Z</time>
      </trkpt>
      <trkpt lat="37.899697367" lon="-6.427576952">
        <ele>309.00</ele>
        <time>1899-12-29T23:00:00Z</time>
      </trkpt>
      <trkpt lat="37.899798620" lon="-6.427580472">
        <ele>308.00</ele>
        <time>1899-12-29T23:00:00Z</time>
      </trkpt>
      <trkpt lat="37.899906915" lon="-6.427763700">
        <ele>308.00</ele>
        <time>1899-12-29T23:00:00Z</time>
      </trkpt>
      <trkpt lat="37.900027279" lon="-6.427824888">
        <ele>308.00</ele>
        <time>1899-12-29T23:00:00Z</time>
      </trkpt>
      <trkpt lat="37.900166083" lon="-6.427953970">
        <ele>307.00</ele>
        <time>1899-12-29T23:00:00Z</time>
      </trkpt>
      <trkpt lat="37.900131885" lon="-6.428077687">
        <ele>308.00</ele>
        <time>1899-12-29T23:00:00Z</time>
      </trkpt>
      <trkpt lat="37.900031973" lon="-6.428161170">
        <ele>309.00</ele>
        <time>1899-12-29T23:00:00Z</time>
      </trkpt>
      <trkpt lat="37.899813540" lon="-6.428328473">
        <ele>310.00</ele>
        <time>1899-12-29T23:00:00Z</time>
      </trkpt>
      <trkpt lat="37.899711281" lon="-6.428568531">
        <ele>311.00</ele>
        <time>1899-12-29T23:00:00Z</time>
      </trkpt>
      <trkpt lat="37.899660319" lon="-6.428871285">
        <ele>314.00</ele>
        <time>1899-12-29T23:00:00Z</time>
      </trkpt>
      <trkpt lat="37.899685465" lon="-6.429027356">
        <ele>315.00</ele>
        <time>1899-12-29T23:00:00Z</time>
      </trkpt>
      <trkpt lat="37.899811361" lon="-6.429152079">
        <ele>316.00</ele>
        <time>1899-12-29T23:00:00Z</time>
      </trkpt>
      <trkpt lat="37.899892833" lon="-6.429399680">
        <ele>316.00</ele>
        <time>1899-12-29T23:00:00Z</time>
      </trkpt>
      <trkpt lat="37.900060639" lon="-6.429570001">
        <ele>317.00</ele>
        <time>1899-12-29T23:00:00Z</time>
      </trkpt>
      <trkpt lat="37.900341935" lon="-6.429627500">
        <ele>318.00</ele>
        <time>1899-12-29T23:00:00Z</time>
      </trkpt>
      <trkpt lat="37.900553495" lon="-6.429640241">
        <ele>319.00</ele>
        <time>1899-12-29T23:00:00Z</time>
      </trkpt>
      <trkpt lat="37.901080716" lon="-6.430208702">
        <ele>322.00</ele>
        <time>1899-12-29T23:00:00Z</time>
      </trkpt>
      <trkpt lat="37.901575081" lon="-6.430725530">
        <ele>324.00</ele>
        <time>1899-12-29T23:00:00Z</time>
      </trkpt>
      <trkpt lat="37.901537362" lon="-6.431317963">
        <ele>327.00</ele>
        <time>1899-12-29T23:00:00Z</time>
      </trkpt>
      <trkpt lat="37.901627887" lon="-6.431536395">
        <ele>326.00</ele>
        <time>1899-12-29T23:00:00Z</time>
      </trkpt>
      <trkpt lat="37.901654206" lon="-6.431779470">
        <ele>325.00</ele>
        <time>1899-12-29T23:00:00Z</time>
      </trkpt>
      <trkpt lat="37.901563011" lon="-6.432164367">
        <ele>324.00</ele>
        <time>1899-12-29T23:00:00Z</time>
      </trkpt>
      <trkpt lat="37.901677005" lon="-6.432428565">
        <ele>323.00</ele>
        <time>1899-12-29T23:00:00Z</time>
      </trkpt>
      <trkpt lat="37.901874650" lon="-6.432766523">
        <ele>322.00</ele>
        <time>1899-12-29T23:00:00Z</time>
      </trkpt>
      <trkpt lat="37.902026027" lon="-6.433076318">
        <ele>322.00</ele>
        <time>1899-12-29T23:00:00Z</time>
      </trkpt>
      <trkpt lat="37.901940867" lon="-6.433559787">
        <ele>323.00</ele>
        <time>1899-12-29T23:00:00Z</time>
      </trkpt>
      <trkpt lat="37.901916560" lon="-6.434128750">
        <ele>322.00</ele>
        <time>1899-12-29T23:00:00Z</time>
      </trkpt>
      <trkpt lat="37.902028207" lon="-6.434549689">
        <ele>320.00</ele>
        <time>1899-12-29T23:00:00Z</time>
      </trkpt>
      <trkpt lat="37.902291063" lon="-6.434949841">
        <ele>318.00</ele>
        <time>1899-12-29T23:00:00Z</time>
      </trkpt>
      <trkpt lat="37.902355772" lon="-6.435296517">
        <ele>316.00</ele>
        <time>1899-12-29T23:00:00Z</time>
      </trkpt>
      <trkpt lat="37.902439088" lon="-6.435424760">
        <ele>316.00</ele>
        <time>1899-12-29T23:00:00Z</time>
      </trkpt>
      <trkpt lat="37.902471442" lon="-6.435694154">
        <ele>315.00</ele>
        <time>1899-12-29T23:00:00Z</time>
      </trkpt>
      <trkpt lat="37.902386952" lon="-6.435893308">
        <ele>315.00</ele>
        <time>1899-12-29T23:00:00Z</time>
      </trkpt>
      <trkpt lat="37.902367003" lon="-6.436108388">
        <ele>315.00</ele>
        <time>1899-12-29T23:00:00Z</time>
      </trkpt>
      <trkpt lat="37.902424838" lon="-6.436310057">
        <ele>313.00</ele>
        <time>1899-12-29T23:00:00Z</time>
      </trkpt>
      <trkpt lat="37.902913839" lon="-6.436769217">
        <ele>309.00</ele>
        <time>1899-12-29T23:00:00Z</time>
      </trkpt>
      <trkpt lat="37.903197818" lon="-6.436693277">
        <ele>307.00</ele>
        <time>1899-12-29T23:00:00Z</time>
      </trkpt>
      <trkpt lat="37.903385404" lon="-6.436631083">
        <ele>306.00</ele>
        <time>1899-12-29T23:00:00Z</time>
      </trkpt>
      <trkpt lat="37.903529741" lon="-6.436761338">
        <ele>304.00</ele>
        <time>1899-12-29T23:00:00Z</time>
      </trkpt>
      <trkpt lat="37.903554887" lon="-6.436923277">
        <ele>304.00</ele>
        <time>1899-12-29T23:00:00Z</time>
      </trkpt>
      <trkpt lat="37.903476767" lon="-6.437255535">
        <ele>307.00</ele>
        <time>1899-12-29T23:00:00Z</time>
      </trkpt>
      <trkpt lat="37.903545666" lon="-6.437578909">
        <ele>309.00</ele>
        <time>1899-12-29T23:00:00Z</time>
      </trkpt>
      <trkpt lat="37.903522532" lon="-6.437904295">
        <ele>311.00</ele>
        <time>1899-12-29T23:00:00Z</time>
      </trkpt>
      <trkpt lat="37.903597131" lon="-6.438308638">
        <ele>314.00</ele>
        <time>1899-12-29T23:00:00Z</time>
      </trkpt>
      <trkpt lat="37.903601155" lon="-6.438935101">
        <ele>317.00</ele>
        <time>1899-12-29T23:00:00Z</time>
      </trkpt>
      <trkpt lat="37.903620936" lon="-6.439369619">
        <ele>320.00</ele>
        <time>1899-12-29T23:00:00Z</time>
      </trkpt>
      <trkpt lat="37.903755885" lon="-6.439488474">
        <ele>320.00</ele>
        <time>1899-12-29T23:00:00Z</time>
      </trkpt>
      <trkpt lat="37.903824952" lon="-6.439825259">
        <ele>321.00</ele>
        <time>1899-12-29T23:00:00Z</time>
      </trkpt>
      <trkpt lat="37.904076912" lon="-6.441314053">
        <ele>320.00</ele>
        <time>1899-12-29T23:00:00Z</time>
      </trkpt>
      <trkpt lat="37.904078085" lon="-6.441740189">
        <ele>320.00</ele>
        <time>1899-12-29T23:00:00Z</time>
      </trkpt>
      <trkpt lat="37.903999630" lon="-6.442413088">
        <ele>320.00</ele>
        <time>1899-12-29T23:00:00Z</time>
      </trkpt>
      <trkpt lat="37.903788742" lon="-6.443561744">
        <ele>321.00</ele>
        <time>1899-12-29T23:00:00Z</time>
      </trkpt>
      <trkpt lat="37.903517839" lon="-6.445377097">
        <ele>309.00</ele>
        <time>1899-12-29T23:00:00Z</time>
      </trkpt>
      <trkpt lat="37.903158758" lon="-6.447007712">
        <ele>304.00</ele>
        <time>1899-12-29T23:00:00Z</time>
      </trkpt>
      <trkpt lat="37.902721725" lon="-6.448554173">
        <ele>306.00</ele>
        <time>1899-12-29T23:00:00Z</time>
      </trkpt>
      <trkpt lat="37.902415954" lon="-6.449287925">
        <ele>308.00</ele>
        <time>1899-12-29T23:00:00Z</time>
      </trkpt>
      <trkpt lat="37.902193163" lon="-6.449972894">
        <ele>307.00</ele>
        <time>1899-12-29T23:00:00Z</time>
      </trkpt>
      <trkpt lat="37.902139518" lon="-6.450812425">
        <ele>306.00</ele>
        <time>1899-12-29T23:00:00Z</time>
      </trkpt>
      <trkpt lat="37.902265247" lon="-6.451507453">
        <ele>305.00</ele>
        <time>1899-12-29T23:00:00Z</time>
      </trkpt>
      <trkpt lat="37.902613431" lon="-6.452162415">
        <ele>302.00</ele>
        <time>1899-12-29T23:00:00Z</time>
      </trkpt>
      <trkpt lat="37.902766820" lon="-6.452510767">
        <ele>295.00</ele>
        <time>1899-12-29T23:00:00Z</time>
      </trkpt>
      <trkpt lat="37.902898248" lon="-6.452941764">
        <ele>298.00</ele>
        <time>1899-12-29T23:00:00Z</time>
      </trkpt>
      <trkpt lat="37.903059516" lon="-6.453184504">
        <ele>301.00</ele>
        <time>1899-12-29T23:00:00Z</time>
      </trkpt>
      <trkpt lat="37.903204691" lon="-6.453275196">
        <ele>303.00</ele>
        <time>1899-12-29T23:00:00Z</time>
      </trkpt>
      <trkpt lat="37.903358247" lon="-6.453283578">
        <ele>304.00</ele>
        <time>1899-12-29T23:00:00Z</time>
      </trkpt>
      <trkpt lat="37.903792094" lon="-6.453080568">
        <ele>308.00</ele>
        <time>1899-12-29T23:00:00Z</time>
      </trkpt>
      <trkpt lat="37.904263828" lon="-6.452923659">
        <ele>310.00</ele>
        <time>1899-12-29T23:00:00Z</time>
      </trkpt>
      <trkpt lat="37.904885933" lon="-6.452898346">
        <ele>314.00</ele>
        <time>1899-12-29T23:00:00Z</time>
      </trkpt>
      <trkpt lat="37.905109897" lon="-6.452963725">
        <ele>315.00</ele>
        <time>1899-12-29T23:00:00Z</time>
      </trkpt>
      <trkpt lat="37.905717082" lon="-6.453542747">
        <ele>318.00</ele>
        <time>1899-12-29T23:00:00Z</time>
      </trkpt>
      <trkpt lat="37.905959319" lon="-6.453930326">
        <ele>318.00</ele>
        <time>1899-12-29T23:00:00Z</time>
      </trkpt>
      <trkpt lat="37.906242628" lon="-6.454592496">
        <ele>319.00</ele>
        <time>1899-12-29T23:00:00Z</time>
      </trkpt>
      <trkpt lat="37.906449158" lon="-6.455092225">
        <ele>319.00</ele>
        <time>1899-12-29T23:00:00Z</time>
      </trkpt>
      <trkpt lat="37.906553764" lon="-6.455605868">
        <ele>318.00</ele>
        <time>1899-12-29T23:00:00Z</time>
      </trkpt>
      <trkpt lat="37.906626016" lon="-6.456132084">
        <ele>317.00</ele>
        <time>1899-12-29T23:00:00Z</time>
      </trkpt>
      <trkpt lat="37.906638086" lon="-6.457011346">
        <ele>315.00</ele>
        <time>1899-12-29T23:00:00Z</time>
      </trkpt>
      <trkpt lat="37.906505316" lon="-6.457489114">
        <ele>314.00</ele>
        <time>1899-12-29T23:00:00Z</time>
      </trkpt>
      <trkpt lat="37.906442620" lon="-6.457744427">
        <ele>314.00</ele>
        <time>1899-12-29T23:00:00Z</time>
      </trkpt>
      <trkpt lat="37.906305492" lon="-6.458167881">
        <ele>313.00</ele>
        <time>1899-12-29T23:00:00Z</time>
      </trkpt>
      <trkpt lat="37.906304318" lon="-6.458425876">
        <ele>312.00</ele>
        <time>1899-12-29T23:00:00Z</time>
      </trkpt>
      <trkpt lat="37.906183787" lon="-6.459102631">
        <ele>316.00</ele>
        <time>1899-12-29T23:00:00Z</time>
      </trkpt>
      <trkpt lat="37.906097118" lon="-6.459552404">
        <ele>320.00</ele>
        <time>1899-12-29T23:00:00Z</time>
      </trkpt>
      <trkpt lat="37.905975245" lon="-6.459856331">
        <ele>322.00</ele>
        <time>1899-12-29T23:00:00Z</time>
      </trkpt>
      <trkpt lat="37.905973233" lon="-6.460442394">
        <ele>325.00</ele>
        <time>1899-12-29T23:00:00Z</time>
      </trkpt>
      <trkpt lat="37.905921098" lon="-6.460987553">
        <ele>328.00</ele>
        <time>1899-12-29T23:00:00Z</time>
      </trkpt>
      <trkpt lat="37.905770894" lon="-6.461647879">
        <ele>332.00</ele>
        <time>1899-12-29T23:00:00Z</time>
      </trkpt>
      <trkpt lat="37.905668132" lon="-6.461892799">
        <ele>334.00</ele>
        <time>1899-12-29T23:00:00Z</time>
      </trkpt>
      <trkpt lat="37.905512564" lon="-6.462155823">
        <ele>336.00</ele>
        <time>1899-12-29T23:00:00Z</time>
      </trkpt>
      <trkpt lat="37.905413490" lon="-6.462676842">
        <ele>338.00</ele>
        <time>1899-12-29T23:00:00Z</time>
      </trkpt>
      <trkpt lat="37.905329503" lon="-6.463084705">
        <ele>341.00</ele>
        <time>1899-12-29T23:00:00Z</time>
      </trkpt>
      <trkpt lat="37.905169576" lon="-6.463263910">
        <ele>343.00</ele>
        <time>1899-12-29T23:00:00Z</time>
      </trkpt>
      <trkpt lat="37.905013673" lon="-6.463267263">
        <ele>344.00</ele>
        <time>1899-12-29T23:00:00Z</time>
      </trkpt>
      <trkpt lat="37.904863134" lon="-6.463161819">
        <ele>346.00</ele>
        <time>1899-12-29T23:00:00Z</time>
      </trkpt>
      <trkpt lat="37.904641852" lon="-6.462986637">
        <ele>348.00</ele>
        <time>1899-12-29T23:00:00Z</time>
      </trkpt>
      <trkpt lat="37.904502209" lon="-6.462960318">
        <ele>349.00</ele>
        <time>1899-12-29T23:00:00Z</time>
      </trkpt>
      <trkpt lat="37.904393915" lon="-6.463042293">
        <ele>350.00</ele>
        <time>1899-12-29T23:00:00Z</time>
      </trkpt>
      <trkpt lat="37.904313449" lon="-6.463223845">
        <ele>351.00</ele>
        <time>1899-12-29T23:00:00Z</time>
      </trkpt>
      <trkpt lat="37.904339768" lon="-6.463453509">
        <ele>352.00</ele>
        <time>1899-12-29T23:00:00Z</time>
      </trkpt>
      <trkpt lat="37.904359382" lon="-6.463679150">
        <ele>354.00</ele>
        <time>1899-12-29T23:00:00Z</time>
      </trkpt>
      <trkpt lat="37.904332727" lon="-6.463905629">
        <ele>356.00</ele>
        <time>1899-12-29T23:00:00Z</time>
      </trkpt>
      <trkpt lat="37.904269360" lon="-6.464120541">
        <ele>357.00</ele>
        <time>1899-12-29T23:00:00Z</time>
      </trkpt>
      <trkpt lat="37.904124688" lon="-6.464466881">
        <ele>360.00</ele>
        <time>1899-12-29T23:00:00Z</time>
      </trkpt>
      <trkpt lat="37.904084790" lon="-6.464702077">
        <ele>361.00</ele>
        <time>1899-12-29T23:00:00Z</time>
      </trkpt>
      <trkpt lat="37.904080600" lon="-6.465116479">
        <ele>364.00</ele>
        <time>1899-12-29T23:00:00Z</time>
      </trkpt>
      <trkpt lat="37.904017568" lon="-6.465360560">
        <ele>365.00</ele>
        <time>1899-12-29T23:00:00Z</time>
      </trkpt>
      <trkpt lat="37.903889157" lon="-6.465668846">
        <ele>367.00</ele>
        <time>1899-12-29T23:00:00Z</time>
      </trkpt>
      <trkpt lat="37.903833166" lon="-6.465937905">
        <ele>369.00</ele>
        <time>1899-12-29T23:00:00Z</time>
      </trkpt>
      <trkpt lat="37.903814726" lon="-6.466294136">
        <ele>372.00</ele>
        <time>1899-12-29T23:00:00Z</time>
      </trkpt>
      <trkpt lat="37.903724536" lon="-6.466488596">
        <ele>373.00</ele>
        <time>1899-12-29T23:00:00Z</time>
      </trkpt>
      <trkpt lat="37.903616745" lon="-6.466603931">
        <ele>374.00</ele>
        <time>1899-12-29T23:00:00Z</time>
      </trkpt>
      <trkpt lat="37.903503925" lon="-6.466606278">
        <ele>375.00</ele>
        <time>1899-12-29T23:00:00Z</time>
      </trkpt>
      <trkpt lat="37.903313823" lon="-6.466526818">
        <ele>376.00</ele>
        <time>1899-12-29T23:00:00Z</time>
      </trkpt>
      <trkpt lat="37.903160937" lon="-6.466505025">
        <ele>377.00</ele>
        <time>1899-12-29T23:00:00Z</time>
      </trkpt>
      <trkpt lat="37.903023139" lon="-6.466604266">
        <ele>378.00</ele>
        <time>1899-12-29T23:00:00Z</time>
      </trkpt>
      <trkpt lat="37.902899422" lon="-6.466774251">
        <ele>379.00</ele>
        <time>1899-12-29T23:00:00Z</time>
      </trkpt>
      <trkpt lat="37.902751900" lon="-6.466902997">
        <ele>380.00</ele>
        <time>1899-12-29T23:00:00Z</time>
      </trkpt>
      <trkpt lat="37.902464569" lon="-6.466988828">
        <ele>382.00</ele>
        <time>1899-12-29T23:00:00Z</time>
      </trkpt>
      <trkpt lat="37.902203389" lon="-6.467048842">
        <ele>384.00</ele>
        <time>1899-12-29T23:00:00Z</time>
      </trkpt>
      <trkpt lat="37.902035918" lon="-6.467169710">
        <ele>385.00</ele>
        <time>1899-12-29T23:00:00Z</time>
      </trkpt>
      <trkpt lat="37.901938353" lon="-6.467314046">
        <ele>387.00</ele>
        <time>1899-12-29T23:00:00Z</time>
      </trkpt>
      <trkpt lat="37.901929636" lon="-6.467640772">
        <ele>388.00</ele>
        <time>1899-12-29T23:00:00Z</time>
      </trkpt>
      <trkpt lat="37.901937682" lon="-6.467996333">
        <ele>391.00</ele>
        <time>1899-12-29T23:00:00Z</time>
      </trkpt>
      <trkpt lat="37.901924774" lon="-6.468264386">
        <ele>392.00</ele>
        <time>1899-12-29T23:00:00Z</time>
      </trkpt>
      <trkpt lat="37.901834752" lon="-6.468467228">
        <ele>394.00</ele>
        <time>1899-12-29T23:00:00Z</time>
      </trkpt>
      <trkpt lat="37.901694439" lon="-6.468641907">
        <ele>395.00</ele>
        <time>1899-12-29T23:00:00Z</time>
      </trkpt>
      <trkpt lat="37.901456896" lon="-6.468726564">
        <ele>396.00</ele>
        <time>1899-12-29T23:00:00Z</time>
      </trkpt>
      <trkpt lat="37.901275344" lon="-6.468789093">
        <ele>397.00</ele>
        <time>1899-12-29T23:00:00Z</time>
      </trkpt>
      <trkpt lat="37.901150621" lon="-6.468879618">
        <ele>398.00</ele>
        <time>1899-12-29T23:00:00Z</time>
      </trkpt>
      <trkpt lat="37.901041321" lon="-6.469133087">
        <ele>398.00</ele>
        <time>1899-12-29T23:00:00Z</time>
      </trkpt>
      <trkpt lat="37.900969908" lon="-6.469490323">
        <ele>400.00</ele>
        <time>1899-12-29T23:00:00Z</time>
      </trkpt>
      <trkpt lat="37.900847197" lon="-6.469739936">
        <ele>401.00</ele>
        <time>1899-12-29T23:00:00Z</time>
      </trkpt>
      <trkpt lat="37.900662459" lon="-6.470053587">
        <ele>402.00</ele>
        <time>1899-12-29T23:00:00Z</time>
      </trkpt>
      <trkpt lat="37.900518961" lon="-6.470228266">
        <ele>404.00</ele>
        <time>1899-12-29T23:00:00Z</time>
      </trkpt>
      <trkpt lat="37.900204808" lon="-6.470293645">
        <ele>405.00</ele>
        <time>1899-12-29T23:00:00Z</time>
      </trkpt>
      <trkpt lat="37.900113445" lon="-6.470408645">
        <ele>405.00</ele>
        <time>1899-12-29T23:00:00Z</time>
      </trkpt>
      <trkpt lat="37.899930552" lon="-6.470609307">
        <ele>406.00</ele>
        <time>1899-12-29T23:00:00Z</time>
      </trkpt>
      <trkpt lat="37.899571136" lon="-6.470759343">
        <ele>407.00</ele>
        <time>1899-12-29T23:00:00Z</time>
      </trkpt>
      <trkpt lat="37.899237201" lon="-6.470841821">
        <ele>410.00</ele>
        <time>1899-12-29T23:00:00Z</time>
      </trkpt>
      <trkpt lat="37.899000999" lon="-6.470784154">
        <ele>412.00</ele>
        <time>1899-12-29T23:00:00Z</time>
      </trkpt>
      <trkpt lat="37.898816261" lon="-6.470608301">
        <ele>414.00</ele>
        <time>1899-12-29T23:00:00Z</time>
      </trkpt>
      <trkpt lat="37.898594476" lon="-6.470395401">
        <ele>416.00</ele>
        <time>1899-12-29T23:00:00Z</time>
      </trkpt>
      <trkpt lat="37.898298427" lon="-6.470330693">
        <ele>418.00</ele>
        <time>1899-12-29T23:00:00Z</time>
      </trkpt>
      <trkpt lat="37.897774391" lon="-6.470312756">
        <ele>422.00</ele>
        <time>1899-12-29T23:00:00Z</time>
      </trkpt>
      <trkpt lat="37.897441965" lon="-6.470252909">
        <ele>424.00</ele>
        <time>1899-12-29T23:00:00Z</time>
      </trkpt>
      <trkpt lat="37.897154130" lon="-6.470305212">
        <ele>426.00</ele>
        <time>1899-12-29T23:00:00Z</time>
      </trkpt>
      <trkpt lat="37.896904685" lon="-6.470503192">
        <ele>429.00</ele>
        <time>1899-12-29T23:00:00Z</time>
      </trkpt>
      <trkpt lat="37.896664459" lon="-6.470880713">
        <ele>431.00</ele>
        <time>1899-12-29T23:00:00Z</time>
      </trkpt>
      <trkpt lat="37.896456253" lon="-6.471174080">
        <ele>434.00</ele>
        <time>1899-12-29T23:00:00Z</time>
      </trkpt>
      <trkpt lat="37.896228097" lon="-6.471471805">
        <ele>436.00</ele>
        <time>1899-12-29T23:00:00Z</time>
      </trkpt>
      <trkpt lat="37.896004636" lon="-6.471614800">
        <ele>438.00</ele>
        <time>1899-12-29T23:00:00Z</time>
      </trkpt>
      <trkpt lat="37.895818222" lon="-6.471564341">
        <ele>439.00</ele>
        <time>1899-12-29T23:00:00Z</time>
      </trkpt>
      <trkpt lat="37.895577159" lon="-6.471393853">
        <ele>441.00</ele>
        <time>1899-12-29T23:00:00Z</time>
      </trkpt>
      <trkpt lat="37.895382196" lon="-6.471205596">
        <ele>443.00</ele>
        <time>1899-12-29T23:00:00Z</time>
      </trkpt>
      <trkpt lat="37.895145155" lon="-6.471081041">
        <ele>445.00</ele>
        <time>1899-12-29T23:00:00Z</time>
      </trkpt>
      <trkpt lat="37.894952875" lon="-6.471085064">
        <ele>446.00</ele>
        <time>1899-12-29T23:00:00Z</time>
      </trkpt>
      <trkpt lat="37.894714493" lon="-6.471115407">
        <ele>448.00</ele>
        <time>1899-12-29T23:00:00Z</time>
      </trkpt>
      <trkpt lat="37.894587424" lon="-6.471042819">
        <ele>449.00</ele>
        <time>1899-12-29T23:00:00Z</time>
      </trkpt>
      <trkpt lat="37.894522212" lon="-6.470872667">
        <ele>450.00</ele>
        <time>1899-12-29T23:00:00Z</time>
      </trkpt>
      <trkpt lat="37.894495558" lon="-6.470618024">
        <ele>452.00</ele>
        <time>1899-12-29T23:00:00Z</time>
      </trkpt>
      <trkpt lat="37.894498073" lon="-6.470324993">
        <ele>453.00</ele>
        <time>1899-12-29T23:00:00Z</time>
      </trkpt>
      <trkpt lat="37.894445267" lon="-6.470091809">
        <ele>455.00</ele>
        <time>1899-12-29T23:00:00Z</time>
      </trkpt>
      <trkpt lat="37.894307803" lon="-6.469977647">
        <ele>456.00</ele>
        <time>1899-12-29T23:00:00Z</time>
      </trkpt>
      <trkpt lat="37.894151229" lon="-6.469934899">
        <ele>457.00</ele>
        <time>1899-12-29T23:00:00Z</time>
      </trkpt>
      <trkpt lat="37.893978730" lon="-6.469921991">
        <ele>459.00</ele>
        <time>1899-12-29T23:00:00Z</time>
      </trkpt>
      <trkpt lat="37.893830705" lon="-6.470013019">
        <ele>460.00</ele>
        <time>1899-12-29T23:00:00Z</time>
      </trkpt>
      <trkpt lat="37.893722076" lon="-6.470312420">
        <ele>461.00</ele>
        <time>1899-12-29T23:00:00Z</time>
      </trkpt>
      <trkpt lat="37.893620655" lon="-6.470670328">
        <ele>464.00</ele>
        <time>1899-12-29T23:00:00Z</time>
      </trkpt>
      <trkpt lat="37.893470954" lon="-6.471270975">
        <ele>467.00</ele>
        <time>1899-12-29T23:00:00Z</time>
      </trkpt>
      <trkpt lat="37.893331815" lon="-6.471449509">
        <ele>469.00</ele>
        <time>1899-12-29T23:00:00Z</time>
      </trkpt>
      <trkpt lat="37.893145569" lon="-6.471523773">
        <ele>470.00</ele>
        <time>1899-12-29T23:00:00Z</time>
      </trkpt>
      <trkpt lat="37.892934009" lon="-6.471506841">
        <ele>472.00</ele>
        <time>1899-12-29T23:00:00Z</time>
      </trkpt>
      <trkpt lat="37.892831247" lon="-6.471612789">
        <ele>472.00</ele>
        <time>1899-12-29T23:00:00Z</time>
      </trkpt>
      <trkpt lat="37.892712392" lon="-6.471865922">
        <ele>473.00</ele>
        <time>1899-12-29T23:00:00Z</time>
      </trkpt>
      <trkpt lat="37.892497983" lon="-6.472027358">
        <ele>475.00</ele>
        <time>1899-12-29T23:00:00Z</time>
      </trkpt>
      <trkpt lat="37.892332189" lon="-6.472220812">
        <ele>476.00</ele>
        <time>1899-12-29T23:00:00Z</time>
      </trkpt>
      <trkpt lat="37.892192546" lon="-6.472421139">
        <ele>476.00</ele>
        <time>1899-12-29T23:00:00Z</time>
      </trkpt>
      <trkpt lat="37.892063800" lon="-6.472540330">
        <ele>477.00</ele>
        <time>1899-12-29T23:00:00Z</time>
      </trkpt>
      <trkpt lat="37.891970426" lon="-6.472456343">
        <ele>478.00</ele>
        <time>1899-12-29T23:00:00Z</time>
      </trkpt>
      <trkpt lat="37.891892474" lon="-6.472328939">
        <ele>478.00</ele>
        <time>1899-12-29T23:00:00Z</time>
      </trkpt>
      <trkpt lat="37.891734894" lon="-6.472102124">
        <ele>481.00</ele>
        <time>1899-12-29T23:00:00Z</time>
      </trkpt>
      <trkpt lat="37.891612854" lon="-6.471978240">
        <ele>482.00</ele>
        <time>1899-12-29T23:00:00Z</time>
      </trkpt>
      <trkpt lat="37.891459465" lon="-6.471897941">
        <ele>483.00</ele>
        <time>1899-12-29T23:00:00Z</time>
      </trkpt>
      <trkpt lat="37.891223095" lon="-6.471935492">
        <ele>484.00</ele>
        <time>1899-12-29T23:00:00Z</time>
      </trkpt>
      <trkpt lat="37.890914138" lon="-6.472004224">
        <ele>486.00</ele>
        <time>1899-12-29T23:00:00Z</time>
      </trkpt>
      <trkpt lat="37.890773993" lon="-6.472181082">
        <ele>487.00</ele>
        <time>1899-12-29T23:00:00Z</time>
      </trkpt>
      <trkpt lat="37.890719678" lon="-6.472523399">
        <ele>488.00</ele>
        <time>1899-12-29T23:00:00Z</time>
      </trkpt>
      <trkpt lat="37.890744656" lon="-6.472920030">
        <ele>491.00</ele>
        <time>1899-12-29T23:00:00Z</time>
      </trkpt>
      <trkpt lat="37.890799977" lon="-6.473109126">
        <ele>493.00</ele>
        <time>1899-12-29T23:00:00Z</time>
      </trkpt>
      <trkpt lat="37.890838366" lon="-6.473296545">
        <ele>494.00</ele>
        <time>1899-12-29T23:00:00Z</time>
      </trkpt>
      <trkpt lat="37.890852783" lon="-6.473601479">
        <ele>496.00</ele>
        <time>1899-12-29T23:00:00Z</time>
      </trkpt>
      <trkpt lat="37.890805341" lon="-6.473944131">
        <ele>498.00</ele>
        <time>1899-12-29T23:00:00Z</time>
      </trkpt>
      <trkpt lat="37.890835516" lon="-6.474249568">
        <ele>500.00</ele>
        <time>1899-12-29T23:00:00Z</time>
      </trkpt>
      <trkpt lat="37.890886981" lon="-6.474493984">
        <ele>501.00</ele>
        <time>1899-12-29T23:00:00Z</time>
      </trkpt>
      <trkpt lat="37.891020086" lon="-6.474840324">
        <ele>504.00</ele>
        <time>1899-12-29T23:00:00Z</time>
      </trkpt>
      <trkpt lat="37.891118824" lon="-6.475177277">
        <ele>506.00</ele>
        <time>1899-12-29T23:00:00Z</time>
      </trkpt>
      <trkpt lat="37.891155872" lon="-6.475543398">
        <ele>508.00</ele>
        <time>1899-12-29T23:00:00Z</time>
      </trkpt>
      <trkpt lat="37.891161405" lon="-6.476099957">
        <ele>510.00</ele>
        <time>1899-12-29T23:00:00Z</time>
      </trkpt>
      <trkpt lat="37.891277745" lon="-6.476393491">
        <ele>511.00</ele>
        <time>1899-12-29T23:00:00Z</time>
      </trkpt>
      <trkpt lat="37.891559042" lon="-6.476734132">
        <ele>513.00</ele>
        <time>1899-12-29T23:00:00Z</time>
      </trkpt>
      <trkpt lat="37.891694158" lon="-6.476936135">
        <ele>514.00</ele>
        <time>1899-12-29T23:00:00Z</time>
      </trkpt>
      <trkpt lat="37.891827933" lon="-6.477343161">
        <ele>515.00</ele>
        <time>1899-12-29T23:00:00Z</time>
      </trkpt>
      <trkpt lat="37.891964223" lon="-6.477421783">
        <ele>516.00</ele>
        <time>1899-12-29T23:00:00Z</time>
      </trkpt>
      <trkpt lat="37.892116103" lon="-6.477443241">
        <ele>516.00</ele>
        <time>1899-12-29T23:00:00Z</time>
      </trkpt>
      <trkpt lat="37.892320454" lon="-6.477477271">
        <ele>518.00</ele>
        <time>1899-12-29T23:00:00Z</time>
      </trkpt>
      <trkpt lat="37.892501839" lon="-6.477564946">
        <ele>522.00</ele>
        <time>1899-12-29T23:00:00Z</time>
      </trkpt>
      <trkpt lat="37.892568558" lon="-6.477693021">
        <ele>525.00</ele>
        <time>1899-12-29T23:00:00Z</time>
      </trkpt>
      <trkpt lat="37.892492786" lon="-6.477821097">
        <ele>525.00</ele>
        <time>1899-12-29T23:00:00Z</time>
      </trkpt>
      <trkpt lat="37.892411146" lon="-6.478078589">
        <ele>523.00</ele>
        <time>1899-12-29T23:00:00Z</time>
      </trkpt>
      <trkpt lat="37.892319281" lon="-6.478369273">
        <ele>521.00</ele>
        <time>1899-12-29T23:00:00Z</time>
      </trkpt>
      <trkpt lat="37.892218698" lon="-6.478433143">
        <ele>521.00</ele>
        <time>1899-12-29T23:00:00Z</time>
      </trkpt>
      <trkpt lat="37.892078552" lon="-6.478920467">
        <ele>519.00</ele>
        <time>1899-12-29T23:00:00Z</time>
      </trkpt>
      <trkpt lat="37.891950309" lon="-6.479179468">
        <ele>518.00</ele>
        <time>1899-12-29T23:00:00Z</time>
      </trkpt>
      <trkpt lat="37.891856600" lon="-6.479485407">
        <ele>518.00</ele>
        <time>1899-12-29T23:00:00Z</time>
      </trkpt>
      <trkpt lat="37.891750317" lon="-6.479687076">
        <ele>518.00</ele>
        <time>1899-12-29T23:00:00Z</time>
      </trkpt>
      <trkpt lat="37.891585864" lon="-6.479771230">
        <ele>517.00</ele>
        <time>1899-12-29T23:00:00Z</time>
      </trkpt>
      <trkpt lat="37.891286295" lon="-6.479872651">
        <ele>518.00</ele>
        <time>1899-12-29T23:00:00Z</time>
      </trkpt>
      <trkpt lat="37.890979517" lon="-6.480002739">
        <ele>520.00</ele>
        <time>1899-12-29T23:00:00Z</time>
      </trkpt>
      <trkpt lat="37.890626639" lon="-6.480057724">
        <ele>523.00</ele>
        <time>1899-12-29T23:00:00Z</time>
      </trkpt>
      <trkpt lat="37.890268900" lon="-6.480307505">
        <ele>526.00</ele>
        <time>1899-12-29T23:00:00Z</time>
      </trkpt>
      <trkpt lat="37.889877297" lon="-6.480557956">
        <ele>529.00</ele>
        <time>1899-12-29T23:00:00Z</time>
      </trkpt>
      <trkpt lat="37.889678478" lon="-6.480605062">
        <ele>531.00</ele>
        <time>1899-12-29T23:00:00Z</time>
      </trkpt>
      <trkpt lat="37.889443450" lon="-6.480752416">
        <ele>534.00</ele>
        <time>1899-12-29T23:00:00Z</time>
      </trkpt>
      <trkpt lat="37.889169026" lon="-6.481052656">
        <ele>537.00</ele>
        <time>1899-12-29T23:00:00Z</time>
      </trkpt>
      <trkpt lat="37.888902649" lon="-6.481381226">
        <ele>540.00</ele>
        <time>1899-12-29T23:00:00Z</time>
      </trkpt>
      <trkpt lat="37.888533846" lon="-6.481654979">
        <ele>544.00</ele>
        <time>1899-12-29T23:00:00Z</time>
      </trkpt>
      <trkpt lat="37.888064291" lon="-6.481978353">
        <ele>549.00</ele>
        <time>1899-12-29T23:00:00Z</time>
      </trkpt>
      <trkpt lat="37.887807470" lon="-6.482187901">
        <ele>551.00</ele>
        <time>1899-12-29T23:00:00Z</time>
      </trkpt>
      <trkpt lat="37.887505889" lon="-6.482422259">
        <ele>554.00</ele>
        <time>1899-12-29T23:00:00Z</time>
      </trkpt>
      <trkpt lat="37.887305729" lon="-6.482640188">
        <ele>556.00</ele>
        <time>1899-12-29T23:00:00Z</time>
      </trkpt>
      <trkpt lat="37.887192909" lon="-6.482922658">
        <ele>558.00</ele>
        <time>1899-12-29T23:00:00Z</time>
      </trkpt>
      <trkpt lat="37.887053099" lon="-6.483158190">
        <ele>560.00</ele>
        <time>1899-12-29T23:00:00Z</time>
      </trkpt>
      <trkpt lat="37.886889149" lon="-6.483280398">
        <ele>561.00</ele>
        <time>1899-12-29T23:00:00Z</time>
      </trkpt>
      <trkpt lat="37.886597626" lon="-6.483414844">
        <ele>563.00</ele>
        <time>1899-12-29T23:00:00Z</time>
      </trkpt>
      <trkpt lat="37.886282466" lon="-6.483483240">
        <ele>563.00</ele>
        <time>1899-12-29T23:00:00Z</time>
      </trkpt>
      <trkpt lat="37.885969654" lon="-6.483447198">
        <ele>564.00</ele>
        <time>1899-12-29T23:00:00Z</time>
      </trkpt>
      <trkpt lat="37.885592803" lon="-6.483393721">
        <ele>566.00</ele>
        <time>1899-12-29T23:00:00Z</time>
      </trkpt>
      <trkpt lat="37.885421813" lon="-6.483544428">
        <ele>566.00</ele>
        <time>1899-12-29T23:00:00Z</time>
      </trkpt>
      <trkpt lat="37.885337491" lon="-6.483712401">
        <ele>567.00</ele>
        <time>1899-12-29T23:00:00Z</time>
      </trkpt>
      <trkpt lat="37.885177899" lon="-6.483872496">
        <ele>568.00</ele>
        <time>1899-12-29T23:00:00Z</time>
      </trkpt>
      <trkpt lat="37.885036916" lon="-6.484022699">
        <ele>569.00</ele>
        <time>1899-12-29T23:00:00Z</time>
      </trkpt>
      <trkpt lat="37.885029875" lon="-6.484336015">
        <ele>572.00</ele>
        <time>1899-12-29T23:00:00Z</time>
      </trkpt>
      <trkpt lat="37.885084189" lon="-6.484738346">
        <ele>575.00</ele>
        <time>1899-12-29T23:00:00Z</time>
      </trkpt>
      <trkpt lat="37.885145545" lon="-6.485107318">
        <ele>577.00</ele>
        <time>1899-12-29T23:00:00Z</time>
      </trkpt>
      <trkpt lat="37.885234393" lon="-6.485556420">
        <ele>576.00</ele>
        <time>1899-12-29T23:00:00Z</time>
      </trkpt>
      <trkpt lat="37.885264736" lon="-6.485849954">
        <ele>576.00</ele>
        <time>1899-12-29T23:00:00Z</time>
      </trkpt>
      <trkpt lat="37.885202542" lon="-6.486259494">
        <ele>576.00</ele>
        <time>1899-12-29T23:00:00Z</time>
      </trkpt>
      <trkpt lat="37.885121237" lon="-6.486655287">
        <ele>576.00</ele>
        <time>1899-12-29T23:00:00Z</time>
      </trkpt>
      <trkpt lat="37.885114700" lon="-6.487001963">
        <ele>577.00</ele>
        <time>1899-12-29T23:00:00Z</time>
      </trkpt>
      <trkpt lat="37.885278985" lon="-6.487477887">
        <ele>578.00</ele>
        <time>1899-12-29T23:00:00Z</time>
      </trkpt>
      <trkpt lat="37.885909136" lon="-6.487896312">
        <ele>577.00</ele>
        <time>1899-12-29T23:00:00Z</time>
      </trkpt>
      <trkpt lat="37.886217255" lon="-6.488150787">
        <ele>576.00</ele>
        <time>1899-12-29T23:00:00Z</time>
      </trkpt>
      <trkpt lat="37.886533421" lon="-6.488433592">
        <ele>575.00</ele>
        <time>1899-12-29T23:00:00Z</time>
      </trkpt>
      <trkpt lat="37.886744309" lon="-6.488732994">
        <ele>574.00</ele>
        <time>1899-12-29T23:00:00Z</time>
      </trkpt>
      <trkpt lat="37.887141276" lon="-6.489436403">
        <ele>575.00</ele>
        <time>1899-12-29T23:00:00Z</time>
      </trkpt>
      <trkpt lat="37.887472529" lon="-6.490013245">
        <ele>575.00</ele>
        <time>1899-12-29T23:00:00Z</time>
      </trkpt>
      <trkpt lat="37.888076361" lon="-6.491006669">
        <ele>577.00</ele>
        <time>1899-12-29T23:00:00Z</time>
      </trkpt>
      <trkpt lat="37.888211813" lon="-6.491283942">
        <ele>577.00</ele>
        <time>1899-12-29T23:00:00Z</time>
      </trkpt>
      <trkpt lat="37.888403591" lon="-6.491839997">
        <ele>575.00</ele>
        <time>1899-12-29T23:00:00Z</time>
      </trkpt>
      <trkpt lat="37.888559997" lon="-6.492278203">
        <ele>575.00</ele>
        <time>1899-12-29T23:00:00Z</time>
      </trkpt>
      <trkpt lat="37.888706513" lon="-6.492830403">
        <ele>574.00</ele>
        <time>1899-12-29T23:00:00Z</time>
      </trkpt>
      <trkpt lat="37.889021002" lon="-6.493559461">
        <ele>572.00</ele>
        <time>1899-12-29T23:00:00Z</time>
      </trkpt>
      <trkpt lat="37.889220659" lon="-6.494139154">
        <ele>572.00</ele>
        <time>1899-12-29T23:00:00Z</time>
      </trkpt>
      <trkpt lat="37.889400702" lon="-6.494657490">
        <ele>572.00</ele>
        <time>1899-12-29T23:00:00Z</time>
      </trkpt>
      <trkpt lat="37.889545541" lon="-6.495366432">
        <ele>574.00</ele>
        <time>1899-12-29T23:00:00Z</time>
      </trkpt>
      <trkpt lat="37.889672276" lon="-6.496128011">
        <ele>577.00</ele>
        <time>1899-12-29T23:00:00Z</time>
      </trkpt>
      <trkpt lat="37.889770512" lon="-6.496719271">
        <ele>578.00</ele>
        <time>1899-12-29T23:00:00Z</time>
      </trkpt>
      <trkpt lat="37.890014593" lon="-6.497245822">
        <ele>579.00</ele>
        <time>1899-12-29T23:00:00Z</time>
      </trkpt>
      <trkpt lat="37.890141495" lon="-6.497395188">
        <ele>578.00</ele>
        <time>1899-12-29T23:00:00Z</time>
      </trkpt>
      <trkpt lat="37.890385073" lon="-6.497568190">
        <ele>577.00</ele>
        <time>1899-12-29T23:00:00Z</time>
      </trkpt>
      <trkpt lat="37.890648432" lon="-6.497696266">
        <ele>576.00</ele>
        <time>1899-12-29T23:00:00Z</time>
      </trkpt>
      <trkpt lat="37.890866529" lon="-6.497721244">
        <ele>575.00</ele>
        <time>1899-12-29T23:00:00Z</time>
      </trkpt>
      <trkpt lat="37.891107928" lon="-6.497734655">
        <ele>574.00</ele>
        <time>1899-12-29T23:00:00Z</time>
      </trkpt>
      <trkpt lat="37.891248409" lon="-6.497902460">
        <ele>572.00</ele>
        <time>1899-12-29T23:00:00Z</time>
      </trkpt>
      <trkpt lat="37.891561221" lon="-6.498400848">
        <ele>570.00</ele>
        <time>1899-12-29T23:00:00Z</time>
      </trkpt>
      <trkpt lat="37.891723160" lon="-6.498382576">
        <ele>569.00</ele>
        <time>1899-12-29T23:00:00Z</time>
      </trkpt>
      <trkpt lat="37.892019376" lon="-6.499049775">
        <ele>571.00</ele>
        <time>1899-12-29T23:00:00Z</time>
      </trkpt>
      <trkpt lat="37.892296314" lon="-6.499549504">
        <ele>571.00</ele>
        <time>1899-12-29T23:00:00Z</time>
      </trkpt>
      <trkpt lat="37.892210986" lon="-6.499656457">
        <ele>572.00</ele>
        <time>1899-12-29T23:00:00Z</time>
      </trkpt>
      <trkpt lat="37.892401759" lon="-6.500401273">
        <ele>571.00</ele>
        <time>1899-12-29T23:00:00Z</time>
      </trkpt>
      <trkpt lat="37.892299164" lon="-6.500572432">
        <ele>571.00</ele>
        <time>1899-12-29T23:00:00Z</time>
      </trkpt>
      <trkpt lat="37.892500330" lon="-6.501010973">
        <ele>573.00</ele>
        <time>1899-12-29T23:00:00Z</time>
      </trkpt>
      <trkpt lat="37.892751619" lon="-6.501404922">
        <ele>575.00</ele>
        <time>1899-12-29T23:00:00Z</time>
      </trkpt>
      <trkpt lat="37.892881203" lon="-6.501624025">
        <ele>577.00</ele>
        <time>1899-12-29T23:00:00Z</time>
      </trkpt>
      <trkpt lat="37.893306501" lon="-6.502279658">
        <ele>574.00</ele>
        <time>1899-12-29T23:00:00Z</time>
      </trkpt>
      <trkpt lat="37.893586289" lon="-6.502663884">
        <ele>573.00</ele>
        <time>1899-12-29T23:00:00Z</time>
      </trkpt>
      <trkpt lat="37.893979400" lon="-6.503222287">
        <ele>573.00</ele>
        <time>1899-12-29T23:00:00Z</time>
      </trkpt>
      <trkpt lat="37.894165479" lon="-6.503496375">
        <ele>573.00</ele>
        <time>1899-12-29T23:00:00Z</time>
      </trkpt>
      <trkpt lat="37.894583400" lon="-6.504167933">
        <ele>576.00</ele>
        <time>1899-12-29T23:00:00Z</time>
      </trkpt>
      <trkpt lat="37.894786410" lon="-6.504478734">
        <ele>577.00</ele>
        <time>1899-12-29T23:00:00Z</time>
      </trkpt>
      <trkpt lat="37.895323858" lon="-6.505043507">
        <ele>576.00</ele>
        <time>1899-12-29T23:00:00Z</time>
      </trkpt>
      <trkpt lat="37.895760722" lon="-6.505677514">
        <ele>580.00</ele>
        <time>1899-12-29T23:00:00Z</time>
      </trkpt>
      <trkpt lat="37.895907238" lon="-6.505867783">
        <ele>581.00</ele>
        <time>1899-12-29T23:00:00Z</time>
      </trkpt>
      <trkpt lat="37.896013856" lon="-6.506053526">
        <ele>580.00</ele>
        <time>1899-12-29T23:00:00Z</time>
      </trkpt>
      <trkpt lat="37.896380983" lon="-6.506865397">
        <ele>578.00</ele>
        <time>1899-12-29T23:00:00Z</time>
      </trkpt>
      <trkpt lat="37.896483578" lon="-6.507119536">
        <ele>575.00</ele>
        <time>1899-12-29T23:00:00Z</time>
      </trkpt>
      <trkpt lat="37.896633614" lon="-6.507549025">
        <ele>571.00</ele>
        <time>1899-12-29T23:00:00Z</time>
      </trkpt>
      <trkpt lat="37.896811813" lon="-6.508051772">
        <ele>570.00</ele>
        <time>1899-12-29T23:00:00Z</time>
      </trkpt>
      <trkpt lat="37.897046506" lon="-6.508803964">
        <ele>567.00</ele>
        <time>1899-12-29T23:00:00Z</time>
      </trkpt>
      <trkpt lat="37.897148766" lon="-6.508972608">
        <ele>566.00</ele>
        <time>1899-12-29T23:00:00Z</time>
      </trkpt>
      <trkpt lat="37.897249516" lon="-6.509100348">
        <ele>565.00</ele>
        <time>1899-12-29T23:00:00Z</time>
      </trkpt>
      <trkpt lat="37.897385303" lon="-6.509281062">
        <ele>567.00</ele>
        <time>1899-12-29T23:00:00Z</time>
      </trkpt>
      <trkpt lat="37.897502817" lon="-6.509477533">
        <ele>570.00</ele>
        <time>1899-12-29T23:00:00Z</time>
      </trkpt>
      <trkpt lat="37.897623181" lon="-6.509664282">
        <ele>572.00</ele>
        <time>1899-12-29T23:00:00Z</time>
      </trkpt>
      <trkpt lat="37.897688393" lon="-6.509823371">
        <ele>573.00</ele>
        <time>1899-12-29T23:00:00Z</time>
      </trkpt>
      <trkpt lat="37.897392679" lon="-6.510224193">
        <ele>573.00</ele>
        <time>1899-12-29T23:00:00Z</time>
      </trkpt>
      <trkpt lat="37.897467613" lon="-6.510355286">
        <ele>573.00</ele>
        <time>1899-12-29T23:00:00Z</time>
      </trkpt>
      <trkpt lat="37.897431068" lon="-6.510648485">
        <ele>573.00</ele>
        <time>1899-12-29T23:00:00Z</time>
      </trkpt>
      <trkpt lat="37.897321098" lon="-6.511026677">
        <ele>573.00</ele>
        <time>1899-12-29T23:00:00Z</time>
      </trkpt>
      <trkpt lat="37.897197884" lon="-6.511305291">
        <ele>574.00</ele>
        <time>1899-12-29T23:00:00Z</time>
      </trkpt>
      <trkpt lat="37.897231076" lon="-6.511431020">
        <ele>574.00</ele>
        <time>1899-12-29T23:00:00Z</time>
      </trkpt>
      <trkpt lat="37.897289917" lon="-6.511687003">
        <ele>574.00</ele>
        <time>1899-12-29T23:00:00Z</time>
      </trkpt>
      <trkpt lat="37.897227556" lon="-6.511869226">
        <ele>574.00</ele>
        <time>1899-12-29T23:00:00Z</time>
      </trkpt>
      <trkpt lat="37.897063941" lon="-6.512031835">
        <ele>575.00</ele>
        <time>1899-12-29T23:00:00Z</time>
      </trkpt>
      <trkpt lat="37.896867469" lon="-6.512245070">
        <ele>576.00</ele>
        <time>1899-12-29T23:00:00Z</time>
      </trkpt>
      <trkpt lat="37.896906361" lon="-6.512611527">
        <ele>577.00</ele>
        <time>1899-12-29T23:00:00Z</time>
      </trkpt>
      <trkpt lat="37.896927483" lon="-6.512828451">
        <ele>578.00</ele>
        <time>1899-12-29T23:00:00Z</time>
      </trkpt>
      <trkpt lat="37.896918096" lon="-6.513049901">
        <ele>579.00</ele>
        <time>1899-12-29T23:00:00Z</time>
      </trkpt>
      <trkpt lat="37.896893285" lon="-6.513220556">
        <ele>580.00</ele>
        <time>1899-12-29T23:00:00Z</time>
      </trkpt>
      <trkpt lat="37.896828745" lon="-6.513394397">
        <ele>582.00</ele>
        <time>1899-12-29T23:00:00Z</time>
      </trkpt>
      <trkpt lat="37.896723133" lon="-6.513534542">
        <ele>582.00</ele>
        <time>1899-12-29T23:00:00Z</time>
      </trkpt>
      <trkpt lat="37.896809634" lon="-6.513639148">
        <ele>583.00</ele>
        <time>1899-12-29T23:00:00Z</time>
      </trkpt>
      <trkpt lat="37.896910887" lon="-6.513855234">
        <ele>584.00</ele>
        <time>1899-12-29T23:00:00Z</time>
      </trkpt>
      <trkpt lat="37.897096630" lon="-6.514107026">
        <ele>584.00</ele>
        <time>1899-12-29T23:00:00Z</time>
      </trkpt>
      <trkpt lat="37.897218838" lon="-6.514338702">
        <ele>584.00</ele>
        <time>1899-12-29T23:00:00Z</time>
      </trkpt>
      <trkpt lat="37.897418998" lon="-6.514675152">
        <ele>584.00</ele>
        <time>1899-12-29T23:00:00Z</time>
      </trkpt>
      <trkpt lat="37.897694595" lon="-6.515046973">
        <ele>585.00</ele>
        <time>1899-12-29T23:00:00Z</time>
      </trkpt>
      <trkpt lat="37.897943202" lon="-6.515391469">
        <ele>584.00</ele>
        <time>1899-12-29T23:00:00Z</time>
      </trkpt>
      <trkpt lat="37.898029201" lon="-6.515630521">
        <ele>584.00</ele>
        <time>1899-12-29T23:00:00Z</time>
      </trkpt>
      <trkpt lat="37.897972539" lon="-6.515813246">
        <ele>584.00</ele>
        <time>1899-12-29T23:00:00Z</time>
      </trkpt>
      <trkpt lat="37.898007743" lon="-6.516034361">
        <ele>584.00</ele>
        <time>1899-12-29T23:00:00Z</time>
      </trkpt>
      <trkpt lat="37.898076307" lon="-6.516270060">
        <ele>583.00</ele>
        <time>1899-12-29T23:00:00Z</time>
      </trkpt>
      <trkpt lat="37.898111511" lon="-6.516519338">
        <ele>583.00</ele>
        <time>1899-12-29T23:00:00Z</time>
      </trkpt>
      <trkpt lat="37.898098938" lon="-6.516697537">
        <ele>583.00</ele>
        <time>1899-12-29T23:00:00Z</time>
      </trkpt>
      <trkpt lat="37.898159791" lon="-6.516965926">
        <ele>584.00</ele>
        <time>1899-12-29T23:00:00Z</time>
      </trkpt>
      <trkpt lat="37.898272946" lon="-6.517183352">
        <ele>582.00</ele>
        <time>1899-12-29T23:00:00Z</time>
      </trkpt>
      <trkpt lat="37.898537647" lon="-6.517426092">
        <ele>580.00</ele>
        <time>1899-12-29T23:00:00Z</time>
      </trkpt>
      <trkpt lat="37.898773011" lon="-6.517649721">
        <ele>579.00</ele>
        <time>1899-12-29T23:00:00Z</time>
      </trkpt>
      <trkpt lat="37.898956072" lon="-6.517924313">
        <ele>577.00</ele>
        <time>1899-12-29T23:00:00Z</time>
      </trkpt>
      <trkpt lat="37.899106946" lon="-6.518053059">
        <ele>577.00</ele>
        <time>1899-12-29T23:00:00Z</time>
      </trkpt>
      <trkpt lat="37.899213061" lon="-6.518223379">
        <ele>576.00</ele>
        <time>1899-12-29T23:00:00Z</time>
      </trkpt>
      <trkpt lat="37.899371143" lon="-6.518389676">
        <ele>576.00</ele>
        <time>1899-12-29T23:00:00Z</time>
      </trkpt>
      <trkpt lat="37.899451107" lon="-6.518578604">
        <ele>577.00</ele>
        <time>1899-12-29T23:00:00Z</time>
      </trkpt>
      <trkpt lat="37.899425793" lon="-6.518963166">
        <ele>577.00</ele>
        <time>1899-12-29T23:00:00Z</time>
      </trkpt>
      <trkpt lat="37.899386063" lon="-6.519305483">
        <ele>576.00</ele>
        <time>1899-12-29T23:00:00Z</time>
      </trkpt>
      <trkpt lat="37.899460830" lon="-6.519696079">
        <ele>575.00</ele>
        <time>1899-12-29T23:00:00Z</time>
      </trkpt>
      <trkpt lat="37.899507266" lon="-6.519922055">
        <ele>574.00</ele>
        <time>1899-12-29T23:00:00Z</time>
      </trkpt>
      <trkpt lat="37.899693679" lon="-6.520224810">
        <ele>573.00</ele>
        <time>1899-12-29T23:00:00Z</time>
      </trkpt>
      <trkpt lat="37.899869028" lon="-6.520555727">
        <ele>573.00</ele>
        <time>1899-12-29T23:00:00Z</time>
      </trkpt>
      <trkpt lat="37.899997104" lon="-6.520740464">
        <ele>573.00</ele>
        <time>1899-12-29T23:00:00Z</time>
      </trkpt>
      <trkpt lat="37.900128365" lon="-6.521023773">
        <ele>573.00</ele>
        <time>1899-12-29T23:00:00Z</time>
      </trkpt>
      <trkpt lat="37.900263648" lon="-6.521236841">
        <ele>572.00</ele>
        <time>1899-12-29T23:00:00Z</time>
      </trkpt>
      <trkpt lat="37.900343277" lon="-6.521472540">
        <ele>573.00</ele>
        <time>1899-12-29T23:00:00Z</time>
      </trkpt>
      <trkpt lat="37.900454421" lon="-6.521832291">
        <ele>572.00</ele>
        <time>1899-12-29T23:00:00Z</time>
      </trkpt>
      <trkpt lat="37.900553495" lon="-6.522071511">
        <ele>570.00</ele>
        <time>1899-12-29T23:00:00Z</time>
      </trkpt>
      <trkpt lat="37.900588531" lon="-6.522316094">
        <ele>567.00</ele>
        <time>1899-12-29T23:00:00Z</time>
      </trkpt>
      <trkpt lat="37.900674865" lon="-6.522547603">
        <ele>566.00</ele>
        <time>1899-12-29T23:00:00Z</time>
      </trkpt>
      <trkpt lat="37.900748290" lon="-6.522740554">
        <ele>566.00</ele>
        <time>1899-12-29T23:00:00Z</time>
      </trkpt>
      <trkpt lat="37.901110388" lon="-6.522857901">
        <ele>571.00</ele>
        <time>1899-12-29T23:00:00Z</time>
      </trkpt>
      <trkpt lat="37.901368383" lon="-6.523036938">
        <ele>573.00</ele>
        <time>1899-12-29T23:00:00Z</time>
      </trkpt>
      <trkpt lat="37.901467793" lon="-6.523092426">
        <ele>572.00</ele>
        <time>1899-12-29T23:00:00Z</time>
      </trkpt>
      <trkpt lat="37.901787311" lon="-6.523448657">
        <ele>572.00</ele>
        <time>1899-12-29T23:00:00Z</time>
      </trkpt>
      <trkpt lat="37.902003229" lon="-6.523798686">
        <ele>572.00</ele>
        <time>1899-12-29T23:00:00Z</time>
      </trkpt>
      <trkpt lat="37.902299613" lon="-6.524262540">
        <ele>569.00</ele>
        <time>1899-12-29T23:00:00Z</time>
      </trkpt>
      <trkpt lat="37.902641091" lon="-6.524647269">
        <ele>568.00</ele>
        <time>1899-12-29T23:00:00Z</time>
      </trkpt>
      <trkpt lat="37.902553584" lon="-6.524923202">
        <ele>569.00</ele>
        <time>1899-12-29T23:00:00Z</time>
      </trkpt>
      <trkpt lat="37.902513854" lon="-6.525270045">
        <ele>570.00</ele>
        <time>1899-12-29T23:00:00Z</time>
      </trkpt>
      <trkpt lat="37.902494743" lon="-6.525828447">
        <ele>573.00</ele>
        <time>1899-12-29T23:00:00Z</time>
      </trkpt>
      <trkpt lat="37.902572360" lon="-6.526303701">
        <ele>574.00</ele>
        <time>1899-12-29T23:00:00Z</time>
      </trkpt>
      <trkpt lat="37.902654838" lon="-6.526661441">
        <ele>576.00</ele>
        <time>1899-12-29T23:00:00Z</time>
      </trkpt>
      <trkpt lat="37.902831025" lon="-6.526865624">
        <ele>575.00</ele>
        <time>1899-12-29T23:00:00Z</time>
      </trkpt>
      <trkpt lat="37.902891710" lon="-6.527143400">
        <ele>573.00</ele>
        <time>1899-12-29T23:00:00Z</time>
      </trkpt>
      <trkpt lat="37.902874444" lon="-6.527462415">
        <ele>568.00</ele>
        <time>1899-12-29T23:00:00Z</time>
      </trkpt>
      <trkpt lat="37.902850304" lon="-6.527696941">
        <ele>565.00</ele>
        <time>1899-12-29T23:00:00Z</time>
      </trkpt>
      <trkpt lat="37.902896237" lon="-6.527979076">
        <ele>561.00</ele>
        <time>1899-12-29T23:00:00Z</time>
      </trkpt>
      <trkpt lat="37.902956586" lon="-6.528322566">
        <ele>558.00</ele>
        <time>1899-12-29T23:00:00Z</time>
      </trkpt>
      <trkpt lat="37.903056499" lon="-6.528798155">
        <ele>553.00</ele>
        <time>1899-12-29T23:00:00Z</time>
      </trkpt>
      <trkpt lat="37.903194632" lon="-6.529133096">
        <ele>551.00</ele>
        <time>1899-12-29T23:00:00Z</time>
      </trkpt>
      <trkpt lat="37.903462015" lon="-6.529521514">
        <ele>546.00</ele>
        <time>1899-12-29T23:00:00Z</time>
      </trkpt>
      <trkpt lat="37.903734762" lon="-6.529689319">
        <ele>542.00</ele>
        <time>1899-12-29T23:00:00Z</time>
      </trkpt>
      <trkpt lat="37.903855294" lon="-6.529911440">
        <ele>538.00</ele>
        <time>1899-12-29T23:00:00Z</time>
      </trkpt>
      <trkpt lat="37.903931737" lon="-6.530081425">
        <ele>535.00</ele>
        <time>1899-12-29T23:00:00Z</time>
      </trkpt>
      <trkpt lat="37.904006168" lon="-6.530519128">
        <ele>538.00</ele>
        <time>1899-12-29T23:00:00Z</time>
      </trkpt>
      <trkpt lat="37.903934252" lon="-6.530701183">
        <ele>539.00</ele>
        <time>1899-12-29T23:00:00Z</time>
      </trkpt>
      <trkpt lat="37.903921679" lon="-6.530959010">
        <ele>540.00</ele>
        <time>1899-12-29T23:00:00Z</time>
      </trkpt>
      <trkpt lat="37.903883122" lon="-6.531094965">
        <ele>541.00</ele>
        <time>1899-12-29T23:00:00Z</time>
      </trkpt>
      <trkpt lat="37.903714981" lon="-6.531257238">
        <ele>540.00</ele>
        <time>1899-12-29T23:00:00Z</time>
      </trkpt>
      <trkpt lat="37.903461512" lon="-6.531469971">
        <ele>543.00</ele>
        <time>1899-12-29T23:00:00Z</time>
      </trkpt>
      <trkpt lat="37.903296556" lon="-6.531716734">
        <ele>547.00</ele>
        <time>1899-12-29T23:00:00Z</time>
      </trkpt>
      <trkpt lat="37.903123554" lon="-6.532033738">
        <ele>548.00</ele>
        <time>1899-12-29T23:00:00Z</time>
      </trkpt>
      <trkpt lat="37.903094720" lon="-6.532418299">
        <ele>549.00</ele>
        <time>1899-12-29T23:00:00Z</time>
      </trkpt>
      <trkpt lat="37.903146856" lon="-6.532841586">
        <ele>549.00</ele>
        <time>1899-12-29T23:00:00Z</time>
      </trkpt>
      <trkpt lat="37.903153058" lon="-6.533005871">
        <ele>550.00</ele>
        <time>1899-12-29T23:00:00Z</time>
      </trkpt>
      <trkpt lat="37.903175354" lon="-6.533299573">
        <ele>551.00</ele>
        <time>1899-12-29T23:00:00Z</time>
      </trkpt>
      <trkpt lat="37.903310470" lon="-6.533712130">
        <ele>552.00</ele>
        <time>1899-12-29T23:00:00Z</time>
      </trkpt>
      <trkpt lat="37.903381549" lon="-6.534088645">
        <ele>551.00</ele>
        <time>1899-12-29T23:00:00Z</time>
      </trkpt>
      <trkpt lat="37.903456315" lon="-6.534479242">
        <ele>556.00</ele>
        <time>1899-12-29T23:00:00Z</time>
      </trkpt>
      <trkpt lat="37.903544828" lon="-6.534894314">
        <ele>554.00</ele>
        <time>1899-12-29T23:00:00Z</time>
      </trkpt>
      <trkpt lat="37.903610207" lon="-6.535157338">
        <ele>555.00</ele>
        <time>1899-12-29T23:00:00Z</time>
      </trkpt>
      <trkpt lat="37.903636862" lon="-6.535308212">
        <ele>555.00</ele>
        <time>1899-12-29T23:00:00Z</time>
      </trkpt>
      <trkpt lat="37.903545834" lon="-6.535525639">
        <ele>555.00</ele>
        <time>1899-12-29T23:00:00Z</time>
      </trkpt>
      <trkpt lat="37.903387584" lon="-6.535744406">
        <ele>556.00</ele>
        <time>1899-12-29T23:00:00Z</time>
      </trkpt>
      <trkpt lat="37.903302256" lon="-6.536022350">
        <ele>558.00</ele>
        <time>1899-12-29T23:00:00Z</time>
      </trkpt>
      <trkpt lat="37.903198823" lon="-6.536385622">
        <ele>562.00</ele>
        <time>1899-12-29T23:00:00Z</time>
      </trkpt>
      <trkpt lat="37.903042082" lon="-6.537239403">
        <ele>568.00</ele>
        <time>1899-12-29T23:00:00Z</time>
      </trkpt>
      <trkpt lat="37.902724240" lon="-6.538356207">
        <ele>583.00</ele>
        <time>1899-12-29T23:00:00Z</time>
      </trkpt>
      <trkpt lat="37.902557608" lon="-6.538860463">
        <ele>587.00</ele>
        <time>1899-12-29T23:00:00Z</time>
      </trkpt>
      <trkpt lat="37.902422324" lon="-6.539191045">
        <ele>591.00</ele>
        <time>1899-12-29T23:00:00Z</time>
      </trkpt>
      <trkpt lat="37.902379073" lon="-6.539488770">
        <ele>594.00</ele>
        <time>1899-12-29T23:00:00Z</time>
      </trkpt>
      <trkpt lat="37.902377397" lon="-6.539795883">
        <ele>595.00</ele>
        <time>1899-12-29T23:00:00Z</time>
      </trkpt>
      <trkpt lat="37.902372703" lon="-6.539993361">
        <ele>597.00</ele>
        <time>1899-12-29T23:00:00Z</time>
      </trkpt>
      <trkpt lat="37.902290560" lon="-6.540259738">
        <ele>598.00</ele>
        <time>1899-12-29T23:00:00Z</time>
      </trkpt>
      <trkpt lat="37.902221493" lon="-6.540573053">
        <ele>599.00</ele>
        <time>1899-12-29T23:00:00Z</time>
      </trkpt>
      <trkpt lat="37.902263571" lon="-6.540786792">
        <ele>602.00</ele>
        <time>1899-12-29T23:00:00Z</time>
      </trkpt>
      <trkpt lat="37.902277987" lon="-6.540949568">
        <ele>602.00</ele>
        <time>1899-12-29T23:00:00Z</time>
      </trkpt>
      <trkpt lat="37.902281843" lon="-6.541126259">
        <ele>601.00</ele>
        <time>1899-12-29T23:00:00Z</time>
      </trkpt>
      <trkpt lat="37.902331632" lon="-6.541280989">
        <ele>602.00</ele>
        <time>1899-12-29T23:00:00Z</time>
      </trkpt>
      <trkpt lat="37.902521063" lon="-6.541593634">
        <ele>603.00</ele>
        <time>1899-12-29T23:00:00Z</time>
      </trkpt>
      <trkpt lat="37.902723067" lon="-6.541921366">
        <ele>604.00</ele>
        <time>1899-12-29T23:00:00Z</time>
      </trkpt>
      <trkpt lat="37.902856842" lon="-6.542149689">
        <ele>605.00</ele>
        <time>1899-12-29T23:00:00Z</time>
      </trkpt>
      <trkpt lat="37.902953904" lon="-6.542621758">
        <ele>606.00</ele>
        <time>1899-12-29T23:00:00Z</time>
      </trkpt>
      <trkpt lat="37.903014757" lon="-6.542833317">
        <ele>608.00</ele>
        <time>1899-12-29T23:00:00Z</time>
      </trkpt>
      <trkpt lat="37.903108466" lon="-6.543144956">
        <ele>608.00</ele>
        <time>1899-12-29T23:00:00Z</time>
      </trkpt>
      <trkpt lat="37.903091200" lon="-6.543353163">
        <ele>610.00</ele>
        <time>1899-12-29T23:00:00Z</time>
      </trkpt>
      <trkpt lat="37.903038058" lon="-6.543507054">
        <ele>615.00</ele>
        <time>1899-12-29T23:00:00Z</time>
      </trkpt>
      <trkpt lat="37.902967483" lon="-6.543717440">
        <ele>615.00</ele>
        <time>1899-12-29T23:00:00Z</time>
      </trkpt>
      <trkpt lat="37.902871426" lon="-6.544102337">
        <ele>614.00</ele>
        <time>1899-12-29T23:00:00Z</time>
      </trkpt>
      <trkpt lat="37.902779896" lon="-6.544514559">
        <ele>613.00</ele>
        <time>1899-12-29T23:00:00Z</time>
      </trkpt>
      <trkpt lat="37.902758438" lon="-6.544901468">
        <ele>617.00</ele>
        <time>1899-12-29T23:00:00Z</time>
      </trkpt>
      <trkpt lat="37.902747709" lon="-6.545194667">
        <ele>623.00</ele>
        <time>1899-12-29T23:00:00Z</time>
      </trkpt>
      <trkpt lat="37.902776711" lon="-6.545476131">
        <ele>626.00</ele>
        <time>1899-12-29T23:00:00Z</time>
      </trkpt>
      <trkpt lat="37.902741171" lon="-6.545704119">
        <ele>626.00</ele>
        <time>1899-12-29T23:00:00Z</time>
      </trkpt>
      <trkpt lat="37.902684510" lon="-6.545927245">
        <ele>626.00</ele>
        <time>1899-12-29T23:00:00Z</time>
      </trkpt>
      <trkpt lat="37.902498432" lon="-6.546097565">
        <ele>626.00</ele>
        <time>1899-12-29T23:00:00Z</time>
      </trkpt>
      <trkpt lat="37.902227361" lon="-6.546489503">
        <ele>624.00</ele>
        <time>1899-12-29T23:00:00Z</time>
      </trkpt>
      <trkpt lat="37.902194336" lon="-6.546622608">
        <ele>623.00</ele>
        <time>1899-12-29T23:00:00Z</time>
      </trkpt>
      <trkpt lat="37.902221829" lon="-6.546841543">
        <ele>622.00</ele>
        <time>1899-12-29T23:00:00Z</time>
      </trkpt>
      <trkpt lat="37.902208753" lon="-6.547020413">
        <ele>622.00</ele>
        <time>1899-12-29T23:00:00Z</time>
      </trkpt>
      <trkpt lat="37.902054526" lon="-6.547133904">
        <ele>622.00</ele>
        <time>1899-12-29T23:00:00Z</time>
      </trkpt>
      <trkpt lat="37.901724782" lon="-6.547248736">
        <ele>623.00</ele>
        <time>1899-12-29T23:00:00Z</time>
      </trkpt>
      <trkpt lat="37.901570555" lon="-6.547305565">
        <ele>623.00</ele>
        <time>1899-12-29T23:00:00Z</time>
      </trkpt>
      <trkpt lat="37.901447508" lon="-6.547428444">
        <ele>623.00</ele>
        <time>1899-12-29T23:00:00Z</time>
      </trkpt>
      <trkpt lat="37.901338208" lon="-6.547551155">
        <ele>624.00</ele>
        <time>1899-12-29T23:00:00Z</time>
      </trkpt>
      <trkpt lat="37.901218850" lon="-6.547718793">
        <ele>625.00</ele>
        <time>1899-12-29T23:00:00Z</time>
      </trkpt>
      <trkpt lat="37.901115417" lon="-6.547913086">
        <ele>624.00</ele>
        <time>1899-12-29T23:00:00Z</time>
      </trkpt>
      <trkpt lat="37.901056409" lon="-6.548131853">
        <ele>624.00</ele>
        <time>1899-12-29T23:00:00Z</time>
      </trkpt>
      <trkpt lat="37.900956329" lon="-6.548491437">
        <ele>625.00</ele>
        <time>1899-12-29T23:00:00Z</time>
      </trkpt>
      <trkpt lat="37.900846861" lon="-6.548768710">
        <ele>625.00</ele>
        <time>1899-12-29T23:00:00Z</time>
      </trkpt>
      <trkpt lat="37.900635805" lon="-6.549288556">
        <ele>627.00</ele>
        <time>1899-12-29T23:00:00Z</time>
      </trkpt>
      <trkpt lat="37.900565900" lon="-6.549496762">
        <ele>627.00</ele>
        <time>1899-12-29T23:00:00Z</time>
      </trkpt>
      <trkpt lat="37.900437992" lon="-6.549702454">
        <ele>628.00</ele>
        <time>1899-12-29T23:00:00Z</time>
      </trkpt>
      <trkpt lat="37.900303714" lon="-6.549913008">
        <ele>629.00</ele>
        <time>1899-12-29T23:00:00Z</time>
      </trkpt>
      <trkpt lat="37.900225427" lon="-6.550113335">
        <ele>629.00</ele>
        <time>1899-12-29T23:00:00Z</time>
      </trkpt>
      <trkpt lat="37.900179494" lon="-6.550467387">
        <ele>630.00</ele>
        <time>1899-12-29T23:00:00Z</time>
      </trkpt>
      <trkpt lat="37.900089473" lon="-6.550757568">
        <ele>631.00</ele>
        <time>1899-12-29T23:00:00Z</time>
      </trkpt>
      <trkpt lat="37.900041863" lon="-6.550983042">
        <ele>631.00</ele>
        <time>1899-12-29T23:00:00Z</time>
      </trkpt>
      <trkpt lat="37.899996098" lon="-6.551122684">
        <ele>632.00</ele>
        <time>1899-12-29T23:00:00Z</time>
      </trkpt>
      <trkpt lat="37.899896856" lon="-6.551295687">
        <ele>632.00</ele>
        <time>1899-12-29T23:00:00Z</time>
      </trkpt>
      <trkpt lat="37.899832483" lon="-6.551536750">
        <ele>634.00</ele>
        <time>1899-12-29T23:00:00Z</time>
      </trkpt>
      <trkpt lat="37.899835836" lon="-6.551785525">
        <ele>635.00</ele>
        <time>1899-12-29T23:00:00Z</time>
      </trkpt>
      <trkpt lat="37.899774648" lon="-6.552084256">
        <ele>637.00</ele>
        <time>1899-12-29T23:00:00Z</time>
      </trkpt>
      <trkpt lat="37.899772469" lon="-6.552284583">
        <ele>638.00</ele>
        <time>1899-12-29T23:00:00Z</time>
      </trkpt>
      <trkpt lat="37.899743803" lon="-6.552472003">
        <ele>639.00</ele>
        <time>1899-12-29T23:00:00Z</time>
      </trkpt>
      <trkpt lat="37.899700720" lon="-6.552686580">
        <ele>641.00</ele>
        <time>1899-12-29T23:00:00Z</time>
      </trkpt>
      <trkpt lat="37.899702061" lon="-6.552977934">
        <ele>643.00</ele>
        <time>1899-12-29T23:00:00Z</time>
      </trkpt>
      <trkpt lat="37.899718825" lon="-6.553165857">
        <ele>643.00</ele>
        <time>1899-12-29T23:00:00Z</time>
      </trkpt>
      <trkpt lat="37.899740115" lon="-6.553326119">
        <ele>644.00</ele>
        <time>1899-12-29T23:00:00Z</time>
      </trkpt>
      <trkpt lat="37.899654619" lon="-6.553598028">
        <ele>646.00</ele>
        <time>1899-12-29T23:00:00Z</time>
      </trkpt>
      <trkpt lat="37.899579182" lon="-6.553754266">
        <ele>648.00</ele>
        <time>1899-12-29T23:00:00Z</time>
      </trkpt>
      <trkpt lat="37.899511959" lon="-6.553910505">
        <ele>648.00</ele>
        <time>1899-12-29T23:00:00Z</time>
      </trkpt>
      <trkpt lat="37.899429314" lon="-6.554041598">
        <ele>650.00</ele>
        <time>1899-12-29T23:00:00Z</time>
      </trkpt>
      <trkpt lat="37.899299897" lon="-6.554248799">
        <ele>652.00</ele>
        <time>1899-12-29T23:00:00Z</time>
      </trkpt>
      <trkpt lat="37.899151202" lon="-6.554403864">
        <ele>654.00</ele>
        <time>1899-12-29T23:00:00Z</time>
      </trkpt>
      <trkpt lat="37.899025138" lon="-6.554576028">
        <ele>656.00</ele>
        <time>1899-12-29T23:00:00Z</time>
      </trkpt>
      <trkpt lat="37.898906283" lon="-6.554817595">
        <ele>658.00</ele>
        <time>1899-12-29T23:00:00Z</time>
      </trkpt>
      <trkpt lat="37.898768149" lon="-6.555161085">
        <ele>661.00</ele>
        <time>1899-12-29T23:00:00Z</time>
      </trkpt>
      <trkpt lat="37.898571510" lon="-6.555561908">
        <ele>664.00</ele>
        <time>1899-12-29T23:00:00Z</time>
      </trkpt>
      <trkpt lat="37.898389120" lon="-6.555796936">
        <ele>666.00</ele>
        <time>1899-12-29T23:00:00Z</time>
      </trkpt>
      <trkpt lat="37.898192480" lon="-6.555973962">
        <ele>668.00</ele>
        <time>1899-12-29T23:00:00Z</time>
      </trkpt>
      <trkpt lat="37.898049317" lon="-6.556116622">
        <ele>670.00</ele>
        <time>1899-12-29T23:00:00Z</time>
      </trkpt>
      <trkpt lat="37.897928283" lon="-6.556268334">
        <ele>672.00</ele>
        <time>1899-12-29T23:00:00Z</time>
      </trkpt>
      <trkpt lat="37.897831220" lon="-6.556545943">
        <ele>674.00</ele>
        <time>1899-12-29T23:00:00Z</time>
      </trkpt>
      <trkpt lat="37.897761315" lon="-6.556726322">
        <ele>676.00</ele>
        <time>1899-12-29T23:00:00Z</time>
      </trkpt>
      <trkpt lat="37.897688560" lon="-6.556877699">
        <ele>677.00</ele>
        <time>1899-12-29T23:00:00Z</time>
      </trkpt>
      <trkpt lat="37.897515725" lon="-6.557071321">
        <ele>680.00</ele>
        <time>1899-12-29T23:00:00Z</time>
      </trkpt>
      <trkpt lat="37.897297125" lon="-6.557285227">
        <ele>682.00</ele>
        <time>1899-12-29T23:00:00Z</time>
      </trkpt>
      <trkpt lat="37.897124793" lon="-6.557528470">
        <ele>684.00</ele>
        <time>1899-12-29T23:00:00Z</time>
      </trkpt>
      <trkpt lat="37.897084728" lon="-6.557695102">
        <ele>686.00</ele>
        <time>1899-12-29T23:00:00Z</time>
      </trkpt>
      <trkpt lat="37.897068635" lon="-6.557842121">
        <ele>687.00</ele>
        <time>1899-12-29T23:00:00Z</time>
      </trkpt>
      <trkpt lat="37.897024378" lon="-6.557952426">
        <ele>688.00</ele>
        <time>1899-12-29T23:00:00Z</time>
      </trkpt>
      <trkpt lat="37.896875348" lon="-6.558143534">
        <ele>691.00</ele>
        <time>1899-12-29T23:00:00Z</time>
      </trkpt>
      <trkpt lat="37.896805275" lon="-6.558305807">
        <ele>694.00</ele>
        <time>1899-12-29T23:00:00Z</time>
      </trkpt>
      <trkpt lat="37.896773256" lon="-6.558440086">
        <ele>692.00</ele>
        <time>1899-12-29T23:00:00Z</time>
      </trkpt>
      <trkpt lat="37.896731514" lon="-6.558553241">
        <ele>692.00</ele>
        <time>1899-12-29T23:00:00Z</time>
      </trkpt>
      <trkpt lat="37.896654233" lon="-6.558701769">
        <ele>692.00</ele>
        <time>1899-12-29T23:00:00Z</time>
      </trkpt>
      <trkpt lat="37.896698993" lon="-6.558847111">
        <ele>692.00</ele>
        <time>1899-12-29T23:00:00Z</time>
      </trkpt>
      <trkpt lat="37.896825895" lon="-6.559033860">
        <ele>691.00</ele>
        <time>1899-12-29T23:00:00Z</time>
      </trkpt>
      <trkpt lat="37.897170559" lon="-6.559492517">
        <ele>692.00</ele>
        <time>1899-12-29T23:00:00Z</time>
      </trkpt>
      <trkpt lat="37.897327971" lon="-6.559722014">
        <ele>693.00</ele>
        <time>1899-12-29T23:00:00Z</time>
      </trkpt>
      <trkpt lat="37.897287738" lon="-6.559933908">
        <ele>693.00</ele>
        <time>1899-12-29T23:00:00Z</time>
      </trkpt>
      <trkpt lat="37.897093110" lon="-6.560473870">
        <ele>692.00</ele>
        <time>1899-12-29T23:00:00Z</time>
      </trkpt>
      <trkpt lat="37.896742746" lon="-6.560919452">
        <ele>689.00</ele>
        <time>1899-12-29T23:00:00Z</time>
      </trkpt>
      <trkpt lat="37.896563374" lon="-6.561318263">
        <ele>688.00</ele>
        <time>1899-12-29T23:00:00Z</time>
      </trkpt>
      <trkpt lat="37.896468155" lon="-6.561579946">
        <ele>686.00</ele>
        <time>1899-12-29T23:00:00Z</time>
      </trkpt>
      <trkpt lat="37.896270845" lon="-6.561914217">
        <ele>684.00</ele>
        <time>1899-12-29T23:00:00Z</time>
      </trkpt>
      <trkpt lat="37.896359190" lon="-6.562206075">
        <ele>686.00</ele>
        <time>1899-12-29T23:00:00Z</time>
      </trkpt>
      <trkpt lat="37.896359526" lon="-6.562495921">
        <ele>685.00</ele>
        <time>1899-12-29T23:00:00Z</time>
      </trkpt>
      <trkpt lat="37.896353323" lon="-6.563088521">
        <ele>686.00</ele>
        <time>1899-12-29T23:00:00Z</time>
      </trkpt>
      <trkpt lat="37.896377966" lon="-6.563680787">
        <ele>688.00</ele>
        <time>1899-12-29T23:00:00Z</time>
      </trkpt>
      <trkpt lat="37.896003965" lon="-6.563653797">
        <ele>684.00</ele>
        <time>1899-12-29T23:00:00Z</time>
      </trkpt>
      <trkpt lat="37.895905226" lon="-6.563699059">
        <ele>683.00</ele>
        <time>1899-12-29T23:00:00Z</time>
      </trkpt>
      <trkpt lat="37.895920482" lon="-6.564039029">
        <ele>684.00</ele>
        <time>1899-12-29T23:00:00Z</time>
      </trkpt>
      <trkpt lat="37.895925511" lon="-6.564259809">
        <ele>687.00</ele>
        <time>1899-12-29T23:00:00Z</time>
      </trkpt>
      <trkpt lat="37.895854935" lon="-6.564385537">
        <ele>688.00</ele>
        <time>1899-12-29T23:00:00Z</time>
      </trkpt>
      <trkpt lat="37.895704731" lon="-6.564454939">
        <ele>687.00</ele>
        <time>1899-12-29T23:00:00Z</time>
      </trkpt>
      <trkpt lat="37.895555701" lon="-6.564446893">
        <ele>685.00</ele>
        <time>1899-12-29T23:00:00Z</time>
      </trkpt>
      <trkpt lat="37.895390745" lon="-6.564549822">
        <ele>684.00</ele>
        <time>1899-12-29T23:00:00Z</time>
      </trkpt>
      <trkpt lat="37.895298712" lon="-6.564543284">
        <ele>682.00</ele>
        <time>1899-12-29T23:00:00Z</time>
      </trkpt>
      <trkpt lat="37.895166446" lon="-6.564465836">
        <ele>681.00</ele>
        <time>1899-12-29T23:00:00Z</time>
      </trkpt>
      <trkpt lat="37.894817088" lon="-6.565055922">
        <ele>675.00</ele>
        <time>1899-12-29T23:00:00Z</time>
      </trkpt>
      <trkpt lat="37.894521374" lon="-6.565553639">
        <ele>668.00</ele>
        <time>1899-12-29T23:00:00Z</time>
      </trkpt>
      <trkpt lat="37.894113511" lon="-6.566694416">
        <ele>663.00</ele>
        <time>1899-12-29T23:00:00Z</time>
      </trkpt>
      <trkpt lat="37.893705312" lon="-6.567467898">
        <ele>665.00</ele>
        <time>1899-12-29T23:00:00Z</time>
      </trkpt>
      <trkpt lat="37.893110532" lon="-6.568339951">
        <ele>671.00</ele>
        <time>1899-12-29T23:00:00Z</time>
      </trkpt>
      <trkpt lat="37.892650533" lon="-6.569293980">
        <ele>670.00</ele>
        <time>1899-12-29T23:00:00Z</time>
      </trkpt>
      <trkpt lat="37.891960368" lon="-6.570960972">
        <ele>675.00</ele>
        <time>1899-12-29T23:00:00Z</time>
      </trkpt>
      <trkpt lat="37.891674880" lon="-6.571614090">
        <ele>676.00</ele>
        <time>1899-12-29T23:00:00Z</time>
      </trkpt>
      <trkpt lat="37.891359553" lon="-6.571667399">
        <ele>673.00</ele>
        <time>1899-12-29T23:00:00Z</time>
      </trkpt>
      <trkpt lat="37.890858315" lon="-6.571729090">
        <ele>667.00</ele>
        <time>1899-12-29T23:00:00Z</time>
      </trkpt>
      <trkpt lat="37.890396807" lon="-6.571682151">
        <ele>662.00</ele>
        <time>1899-12-29T23:00:00Z</time>
      </trkpt>
      <trkpt lat="37.890223134" lon="-6.572065707">
        <ele>663.00</ele>
        <time>1899-12-29T23:00:00Z</time>
      </trkpt>
      <trkpt lat="37.890085336" lon="-6.572631486">
        <ele>662.00</ele>
        <time>1899-12-29T23:00:00Z</time>
      </trkpt>
      <trkpt lat="37.889984585" lon="-6.573482584">
        <ele>665.00</ele>
        <time>1899-12-29T23:00:00Z</time>
      </trkpt>
      <trkpt lat="37.889946029" lon="-6.573952474">
        <ele>666.00</ele>
        <time>1899-12-29T23:00:00Z</time>
      </trkpt>
      <trkpt lat="37.889921553" lon="-6.574670803">
        <ele>667.00</ele>
        <time>1899-12-29T23:00:00Z</time>
      </trkpt>
      <trkpt lat="37.889943179" lon="-6.575205233">
        <ele>671.00</ele>
        <time>1899-12-29T23:00:00Z</time>
      </trkpt>
      <trkpt lat="37.889984921" lon="-6.575856507">
        <ele>676.00</ele>
        <time>1899-12-29T23:00:00Z</time>
      </trkpt>
      <trkpt lat="37.889946029" lon="-6.576012075">
        <ele>676.00</ele>
        <time>1899-12-29T23:00:00Z</time>
      </trkpt>
      <trkpt lat="37.889704462" lon="-6.576312482">
        <ele>673.00</ele>
        <time>1899-12-29T23:00:00Z</time>
      </trkpt>
      <trkpt lat="37.889300119" lon="-6.576757561">
        <ele>670.00</ele>
        <time>1899-12-29T23:00:00Z</time>
      </trkpt>
      <trkpt lat="37.888992168" lon="-6.577025950">
        <ele>669.00</ele>
        <time>1899-12-29T23:00:00Z</time>
      </trkpt>
      <trkpt lat="37.888676506" lon="-6.577200126">
        <ele>667.00</ele>
        <time>1899-12-29T23:00:00Z</time>
      </trkpt>
      <trkpt lat="37.888296135" lon="-6.577255782">
        <ele>665.00</ele>
        <time>1899-12-29T23:00:00Z</time>
      </trkpt>
      <trkpt lat="37.887991201" lon="-6.577252597">
        <ele>664.00</ele>
        <time>1899-12-29T23:00:00Z</time>
      </trkpt>
      <trkpt lat="37.887512427" lon="-6.577013545">
        <ele>659.00</ele>
        <time>1899-12-29T23:00:00Z</time>
      </trkpt>
      <trkpt lat="37.887151167" lon="-6.576795280">
        <ele>654.00</ele>
        <time>1899-12-29T23:00:00Z</time>
      </trkpt>
      <trkpt lat="37.887058128" lon="-6.576950680">
        <ele>655.00</ele>
        <time>1899-12-29T23:00:00Z</time>
      </trkpt>
      <trkpt lat="37.886997778" lon="-6.577101890">
        <ele>655.00</ele>
        <time>1899-12-29T23:00:00Z</time>
      </trkpt>
      <trkpt lat="37.886869535" lon="-6.577291656">
        <ele>655.00</ele>
        <time>1899-12-29T23:00:00Z</time>
      </trkpt>
      <trkpt lat="37.886727881" lon="-6.577597931">
        <ele>654.00</ele>
        <time>1899-12-29T23:00:00Z</time>
      </trkpt>
      <trkpt lat="37.886628974" lon="-6.577749811">
        <ele>654.00</ele>
        <time>1899-12-29T23:00:00Z</time>
      </trkpt>
      <trkpt lat="37.886532079" lon="-6.577841677">
        <ele>653.00</ele>
        <time>1899-12-29T23:00:00Z</time>
      </trkpt>
      <trkpt lat="37.886445746" lon="-6.578049548">
        <ele>649.00</ele>
        <time>1899-12-29T23:00:00Z</time>
      </trkpt>
      <trkpt lat="37.886447255" lon="-6.578173097">
        <ele>647.00</ele>
        <time>1899-12-29T23:00:00Z</time>
      </trkpt>
      <trkpt lat="37.886383217" lon="-6.578507703">
        <ele>645.00</ele>
        <time>1899-12-29T23:00:00Z</time>
      </trkpt>
      <trkpt lat="37.886447590" lon="-6.578903496">
        <ele>645.00</ele>
        <time>1899-12-29T23:00:00Z</time>
      </trkpt>
      <trkpt lat="37.886458989" lon="-6.579101812">
        <ele>649.00</ele>
        <time>1899-12-29T23:00:00Z</time>
      </trkpt>
      <trkpt lat="37.886557058" lon="-6.579575557">
        <ele>651.00</ele>
        <time>1899-12-29T23:00:00Z</time>
      </trkpt>
      <trkpt lat="37.886567786" lon="-6.579725258">
        <ele>650.00</ele>
        <time>1899-12-29T23:00:00Z</time>
      </trkpt>
      <trkpt lat="37.886404842" lon="-6.579983253">
        <ele>650.00</ele>
        <time>1899-12-29T23:00:00Z</time>
      </trkpt>
      <trkpt lat="37.886347007" lon="-6.580104288">
        <ele>651.00</ele>
        <time>1899-12-29T23:00:00Z</time>
      </trkpt>
      <trkpt lat="37.886057161" lon="-6.580483988">
        <ele>646.00</ele>
        <time>1899-12-29T23:00:00Z</time>
      </trkpt>
      <trkpt lat="37.885993626" lon="-6.580568478">
        <ele>646.00</ele>
        <time>1899-12-29T23:00:00Z</time>
      </trkpt>
      <trkpt lat="37.885855492" lon="-6.580679789">
        <ele>646.00</ele>
        <time>1899-12-29T23:00:00Z</time>
      </trkpt>
      <trkpt lat="37.885716856" lon="-6.580989752">
        <ele>645.00</ele>
        <time>1899-12-29T23:00:00Z</time>
      </trkpt>
      <trkpt lat="37.885611914" lon="-6.581381522">
        <ele>646.00</ele>
        <time>1899-12-29T23:00:00Z</time>
      </trkpt>
      <trkpt lat="37.885473110" lon="-6.581665166">
        <ele>646.00</ele>
        <time>1899-12-29T23:00:00Z</time>
      </trkpt>
      <trkpt lat="37.885397002" lon="-6.581988875">
        <ele>647.00</ele>
        <time>1899-12-29T23:00:00Z</time>
      </trkpt>
      <trkpt lat="37.885333132" lon="-6.582582146">
        <ele>647.00</ele>
        <time>1899-12-29T23:00:00Z</time>
      </trkpt>
      <trkpt lat="37.885276135" lon="-6.582888085">
        <ele>648.00</ele>
        <time>1899-12-29T23:00:00Z</time>
      </trkpt>
      <trkpt lat="37.885218132" lon="-6.583112553">
        <ele>649.00</ele>
        <time>1899-12-29T23:00:00Z</time>
      </trkpt>
      <trkpt lat="37.885132134" lon="-6.583354119">
        <ele>651.00</ele>
        <time>1899-12-29T23:00:00Z</time>
      </trkpt>
      <trkpt lat="37.884988803" lon="-6.583529301">
        <ele>651.00</ele>
        <time>1899-12-29T23:00:00Z</time>
      </trkpt>
      <trkpt lat="37.884959131" lon="-6.583762150">
        <ele>655.00</ele>
        <time>1899-12-29T23:00:00Z</time>
      </trkpt>
      <trkpt lat="37.884827871" lon="-6.583940852">
        <ele>654.00</ele>
        <time>1899-12-29T23:00:00Z</time>
      </trkpt>
      <trkpt lat="37.884635422" lon="-6.584229358">
        <ele>655.00</ele>
        <time>1899-12-29T23:00:00Z</time>
      </trkpt>
      <trkpt lat="37.884628382" lon="-6.584600341">
        <ele>657.00</ele>
        <time>1899-12-29T23:00:00Z</time>
      </trkpt>
      <trkpt lat="37.884529643" lon="-6.584785916">
        <ele>656.00</ele>
        <time>1899-12-29T23:00:00Z</time>
      </trkpt>
      <trkpt lat="37.884523775" lon="-6.585029494">
        <ele>660.00</ele>
        <time>1899-12-29T23:00:00Z</time>
      </trkpt>
      <trkpt lat="37.884562332" lon="-6.585257147">
        <ele>661.00</ele>
        <time>1899-12-29T23:00:00Z</time>
      </trkpt>
      <trkpt lat="37.884568200" lon="-6.585485637">
        <ele>661.00</ele>
        <time>1899-12-29T23:00:00Z</time>
      </trkpt>
      <trkpt lat="37.884528302" lon="-6.585613713">
        <ele>663.00</ele>
        <time>1899-12-29T23:00:00Z</time>
      </trkpt>
      <trkpt lat="37.884548754" lon="-6.585826948">
        <ele>667.00</ele>
        <time>1899-12-29T23:00:00Z</time>
      </trkpt>
      <trkpt lat="37.884599380" lon="-6.586073041">
        <ele>670.00</ele>
        <time>1899-12-29T23:00:00Z</time>
      </trkpt>
      <trkpt lat="37.884604074" lon="-6.586219054">
        <ele>668.00</ele>
        <time>1899-12-29T23:00:00Z</time>
      </trkpt>
      <trkpt lat="37.884614635" lon="-6.586338747">
        <ele>667.00</ele>
        <time>1899-12-29T23:00:00Z</time>
      </trkpt>
      <trkpt lat="37.884659059" lon="-6.586573776">
        <ele>667.00</ele>
        <time>1899-12-29T23:00:00Z</time>
      </trkpt>
      <trkpt lat="37.884626202" lon="-6.586795561">
        <ele>667.00</ele>
        <time>1899-12-29T23:00:00Z</time>
      </trkpt>
      <trkpt lat="37.884473819" lon="-6.586944591">
        <ele>666.00</ele>
        <time>1899-12-29T23:00:00Z</time>
      </trkpt>
      <trkpt lat="37.884445488" lon="-6.587065123">
        <ele>669.00</ele>
        <time>1899-12-29T23:00:00Z</time>
      </trkpt>
      <trkpt lat="37.884507515" lon="-6.587273665">
        <ele>671.00</ele>
        <time>1899-12-29T23:00:00Z</time>
      </trkpt>
      <trkpt lat="37.884546574" lon="-6.587546244">
        <ele>671.00</ele>
        <time>1899-12-29T23:00:00Z</time>
      </trkpt>
      <trkpt lat="37.884532325" lon="-6.587831229">
        <ele>671.00</ele>
        <time>1899-12-29T23:00:00Z</time>
      </trkpt>
      <trkpt lat="37.884508856" lon="-6.588078998">
        <ele>673.00</ele>
        <time>1899-12-29T23:00:00Z</time>
      </trkpt>
      <trkpt lat="37.884565014" lon="-6.588302627">
        <ele>672.00</ele>
        <time>1899-12-29T23:00:00Z</time>
      </trkpt>
      <trkpt lat="37.884625029" lon="-6.588582415">
        <ele>673.00</ele>
        <time>1899-12-29T23:00:00Z</time>
      </trkpt>
      <trkpt lat="37.884670962" lon="-6.588929761">
        <ele>672.00</ele>
        <time>1899-12-29T23:00:00Z</time>
      </trkpt>
      <trkpt lat="37.884697784" lon="-6.589184068">
        <ele>669.00</ele>
        <time>1899-12-29T23:00:00Z</time>
      </trkpt>
      <trkpt lat="37.884738352" lon="-6.589340474">
        <ele>669.00</ele>
        <time>1899-12-29T23:00:00Z</time>
      </trkpt>
      <trkpt lat="37.884837259" lon="-6.589646414">
        <ele>669.00</ele>
        <time>1899-12-29T23:00:00Z</time>
      </trkpt>
      <trkpt lat="37.884870283" lon="-6.589873396">
        <ele>668.00</ele>
        <time>1899-12-29T23:00:00Z</time>
      </trkpt>
      <trkpt lat="37.884884533" lon="-6.590034999">
        <ele>667.00</ele>
        <time>1899-12-29T23:00:00Z</time>
      </trkpt>
      <trkpt lat="37.884914540" lon="-6.590208504">
        <ele>667.00</ele>
        <time>1899-12-29T23:00:00Z</time>
      </trkpt>
      <trkpt lat="37.884898782" lon="-6.590405982">
        <ele>664.00</ele>
        <time>1899-12-29T23:00:00Z</time>
      </trkpt>
      <trkpt lat="37.884850502" lon="-6.590506230">
        <ele>663.00</ele>
        <time>1899-12-29T23:00:00Z</time>
      </trkpt>
      <trkpt lat="37.884798869" lon="-6.590641681">
        <ele>661.00</ele>
        <time>1899-12-29T23:00:00Z</time>
      </trkpt>
      <trkpt lat="37.884744219" lon="-6.590826083">
        <ele>659.00</ele>
        <time>1899-12-29T23:00:00Z</time>
      </trkpt>
      <trkpt lat="37.884674650" lon="-6.591124982">
        <ele>657.00</ele>
        <time>1899-12-29T23:00:00Z</time>
      </trkpt>
      <trkpt lat="37.884690408" lon="-6.591424216">
        <ele>656.00</ele>
        <time>1899-12-29T23:00:00Z</time>
      </trkpt>
      <trkpt lat="37.884670459" lon="-6.591696795">
        <ele>653.00</ele>
        <time>1899-12-29T23:00:00Z</time>
      </trkpt>
      <trkpt lat="37.884649504" lon="-6.592060737">
        <ele>648.00</ele>
        <time>1899-12-29T23:00:00Z</time>
      </trkpt>
      <trkpt lat="37.884623520" lon="-6.592253521">
        <ele>648.00</ele>
        <time>1899-12-29T23:00:00Z</time>
      </trkpt>
      <trkpt lat="37.884543892" lon="-6.592528448">
        <ele>645.00</ele>
        <time>1899-12-29T23:00:00Z</time>
      </trkpt>
      <trkpt lat="37.884477843" lon="-6.592705976">
        <ele>643.00</ele>
        <time>1899-12-29T23:00:00Z</time>
      </trkpt>
      <trkpt lat="37.884326633" lon="-6.592963636">
        <ele>642.00</ele>
        <time>1899-12-29T23:00:00Z</time>
      </trkpt>
      <trkpt lat="37.884257734" lon="-6.593144853">
        <ele>643.00</ele>
        <time>1899-12-29T23:00:00Z</time>
      </trkpt>
      <trkpt lat="37.884203587" lon="-6.593325734">
        <ele>642.00</ele>
        <time>1899-12-29T23:00:00Z</time>
      </trkpt>
      <trkpt lat="37.884214986" lon="-6.593666207">
        <ele>640.00</ele>
        <time>1899-12-29T23:00:00Z</time>
      </trkpt>
      <trkpt lat="37.884184476" lon="-6.594023779">
        <ele>637.00</ele>
        <time>1899-12-29T23:00:00Z</time>
      </trkpt>
      <trkpt lat="37.884124629" lon="-6.594262328">
        <ele>632.00</ele>
        <time>1899-12-29T23:00:00Z</time>
      </trkpt>
      <trkpt lat="37.884014826" lon="-6.594339944">
        <ele>630.00</ele>
        <time>1899-12-29T23:00:00Z</time>
      </trkpt>
      <trkpt lat="37.883853223" lon="-6.594482940">
        <ele>626.00</ele>
        <time>1899-12-29T23:00:00Z</time>
      </trkpt>
      <trkpt lat="37.883719280" lon="-6.594853587">
        <ele>620.00</ele>
        <time>1899-12-29T23:00:00Z</time>
      </trkpt>
      <trkpt lat="37.883717101" lon="-6.595019214">
        <ele>617.00</ele>
        <time>1899-12-29T23:00:00Z</time>
      </trkpt>
      <trkpt lat="37.883666474" lon="-6.595167574">
        <ele>618.00</ele>
        <time>1899-12-29T23:00:00Z</time>
      </trkpt>
      <trkpt lat="37.883667983" lon="-6.595287099">
        <ele>621.00</ele>
        <time>1899-12-29T23:00:00Z</time>
      </trkpt>
      <trkpt lat="37.883691285" lon="-6.595402602">
        <ele>623.00</ele>
        <time>1899-12-29T23:00:00Z</time>
      </trkpt>
      <trkpt lat="37.883725818" lon="-6.595609803">
        <ele>626.00</ele>
        <time>1899-12-29T23:00:00Z</time>
      </trkpt>
      <trkpt lat="37.883854061" lon="-6.595824379">
        <ele>630.00</ele>
        <time>1899-12-29T23:00:00Z</time>
      </trkpt>
      <trkpt lat="37.883990519" lon="-6.596132666">
        <ele>635.00</ele>
        <time>1899-12-29T23:00:00Z</time>
      </trkpt>
      <trkpt lat="37.884024885" lon="-6.596312206">
        <ele>637.00</ele>
        <time>1899-12-29T23:00:00Z</time>
      </trkpt>
      <trkpt lat="37.884087078" lon="-6.596502308">
        <ele>641.00</ele>
        <time>1899-12-29T23:00:00Z</time>
      </trkpt>
      <trkpt lat="37.884179614" lon="-6.596678998">
        <ele>644.00</ele>
        <time>1899-12-29T23:00:00Z</time>
      </trkpt>
      <trkpt lat="37.884239126" lon="-6.596880164">
        <ele>645.00</ele>
        <time>1899-12-29T23:00:00Z</time>
      </trkpt>
      <trkpt lat="37.884288244" lon="-6.597081665">
        <ele>646.00</ele>
        <time>1899-12-29T23:00:00Z</time>
      </trkpt>
      <trkpt lat="37.884246502" lon="-6.597358435">
        <ele>646.00</ele>
        <time>1899-12-29T23:00:00Z</time>
      </trkpt>
      <trkpt lat="37.884164695" lon="-6.597691365">
        <ele>647.00</ele>
        <time>1899-12-29T23:00:00Z</time>
      </trkpt>
      <trkpt lat="37.884088419" lon="-6.598009374">
        <ele>647.00</ele>
        <time>1899-12-29T23:00:00Z</time>
      </trkpt>
      <trkpt lat="37.883967049" lon="-6.598337442">
        <ele>646.00</ele>
        <time>1899-12-29T23:00:00Z</time>
      </trkpt>
      <trkpt lat="37.883943748" lon="-6.598569788">
        <ele>645.00</ele>
        <time>1899-12-29T23:00:00Z</time>
      </trkpt>
      <trkpt lat="37.883972917" lon="-6.598686967">
        <ele>643.00</ele>
        <time>1899-12-29T23:00:00Z</time>
      </trkpt>
      <trkpt lat="37.883973420" lon="-6.598959211">
        <ele>640.00</ele>
        <time>1899-12-29T23:00:00Z</time>
      </trkpt>
      <trkpt lat="37.883940060" lon="-6.599092316">
        <ele>639.00</ele>
        <time>1899-12-29T23:00:00Z</time>
      </trkpt>
      <trkpt lat="37.883933522" lon="-6.599274706">
        <ele>638.00</ele>
        <time>1899-12-29T23:00:00Z</time>
      </trkpt>
      <trkpt lat="37.883877866" lon="-6.599371433">
        <ele>637.00</ele>
        <time>1899-12-29T23:00:00Z</time>
      </trkpt>
      <trkpt lat="37.883733362" lon="-6.599470004">
        <ele>637.00</ele>
        <time>1899-12-29T23:00:00Z</time>
      </trkpt>
      <trkpt lat="37.883533537" lon="-6.599597242">
        <ele>636.00</ele>
        <time>1899-12-29T23:00:00Z</time>
      </trkpt>
      <trkpt lat="37.883328013" lon="-6.599719115">
        <ele>636.00</ele>
        <time>1899-12-29T23:00:00Z</time>
      </trkpt>
      <trkpt lat="37.883224413" lon="-6.599829756">
        <ele>636.00</ele>
        <time>1899-12-29T23:00:00Z</time>
      </trkpt>
      <trkpt lat="37.883180492" lon="-6.600045841">
        <ele>636.00</ele>
        <time>1899-12-29T23:00:00Z</time>
      </trkpt>
      <trkpt lat="37.883053925" lon="-6.600195542">
        <ele>636.00</ele>
        <time>1899-12-29T23:00:00Z</time>
      </trkpt>
      <trkpt lat="37.882884778" lon="-6.600364856">
        <ele>637.00</ele>
        <time>1899-12-29T23:00:00Z</time>
      </trkpt>
      <trkpt lat="37.882717643" lon="-6.600592341">
        <ele>634.00</ele>
        <time>1899-12-29T23:00:00Z</time>
      </trkpt>
      <trkpt lat="37.882586718" lon="-6.600856204">
        <ele>631.00</ele>
        <time>1899-12-29T23:00:00Z</time>
      </trkpt>
      <trkpt lat="37.882504072" lon="-6.601121072">
        <ele>627.00</ele>
        <time>1899-12-29T23:00:00Z</time>
      </trkpt>
      <trkpt lat="37.882341463" lon="-6.601420473">
        <ele>625.00</ele>
        <time>1899-12-29T23:00:00Z</time>
      </trkpt>
      <trkpt lat="37.882382702" lon="-6.601779889">
        <ele>620.00</ele>
        <time>1899-12-29T23:00:00Z</time>
      </trkpt>
      <trkpt lat="37.882436179" lon="-6.602023132">
        <ele>617.00</ele>
        <time>1899-12-29T23:00:00Z</time>
      </trkpt>
      <trkpt lat="37.882427629" lon="-6.602185238">
        <ele>615.00</ele>
        <time>1899-12-29T23:00:00Z</time>
      </trkpt>
      <trkpt lat="37.882291507" lon="-6.602400318">
        <ele>612.00</ele>
        <time>1899-12-29T23:00:00Z</time>
      </trkpt>
      <trkpt lat="37.882418241" lon="-6.602602322">
        <ele>609.00</ele>
        <time>1899-12-29T23:00:00Z</time>
      </trkpt>
      <trkpt lat="37.882496025" lon="-6.602765433">
        <ele>606.00</ele>
        <time>1899-12-29T23:00:00Z</time>
      </trkpt>
      <trkpt lat="37.882536259" lon="-6.602963749">
        <ele>605.00</ele>
        <time>1899-12-29T23:00:00Z</time>
      </trkpt>
      <trkpt lat="37.882502228" lon="-6.603275053">
        <ele>602.00</ele>
        <time>1899-12-29T23:00:00Z</time>
      </trkpt>
      <trkpt lat="37.882499881" lon="-6.603585854">
        <ele>600.00</ele>
        <time>1899-12-29T23:00:00Z</time>
      </trkpt>
      <trkpt lat="37.882583030" lon="-6.603838988">
        <ele>598.00</ele>
        <time>1899-12-29T23:00:00Z</time>
      </trkpt>
      <trkpt lat="37.882732730" lon="-6.604207791">
        <ele>592.00</ele>
        <time>1899-12-29T23:00:00Z</time>
      </trkpt>
      <trkpt lat="37.882921323" lon="-6.604480203">
        <ele>584.00</ele>
        <time>1899-12-29T23:00:00Z</time>
      </trkpt>
      <trkpt lat="37.883050907" lon="-6.604915727">
        <ele>582.00</ele>
        <time>1899-12-29T23:00:00Z</time>
      </trkpt>
      <trkpt lat="37.883190718" lon="-6.605494581">
        <ele>574.00</ele>
        <time>1899-12-29T23:00:00Z</time>
      </trkpt>
      <trkpt lat="37.883327845" lon="-6.605855506">
        <ele>574.00</ele>
        <time>1899-12-29T23:00:00Z</time>
      </trkpt>
      <trkpt lat="37.883474864" lon="-6.606174018">
        <ele>570.00</ele>
        <time>1899-12-29T23:00:00Z</time>
      </trkpt>
      <trkpt lat="37.883579973" lon="-6.606506445">
        <ele>569.00</ele>
        <time>1899-12-29T23:00:00Z</time>
      </trkpt>
      <trkpt lat="37.883564383" lon="-6.606769636">
        <ele>567.00</ele>
        <time>1899-12-29T23:00:00Z</time>
      </trkpt>
      <trkpt lat="37.883567568" lon="-6.607029811">
        <ele>567.00</ele>
        <time>1899-12-29T23:00:00Z</time>
      </trkpt>
      <trkpt lat="37.883611992" lon="-6.607217398">
        <ele>568.00</ele>
        <time>1899-12-29T23:00:00Z</time>
      </trkpt>
      <trkpt lat="37.883716431" lon="-6.607499532">
        <ele>567.00</ele>
        <time>1899-12-29T23:00:00Z</time>
      </trkpt>
      <trkpt lat="37.883945424" lon="-6.607808322">
        <ele>563.00</ele>
        <time>1899-12-29T23:00:00Z</time>
      </trkpt>
      <trkpt lat="37.884096298" lon="-6.607922148">
        <ele>561.00</ele>
        <time>1899-12-29T23:00:00Z</time>
      </trkpt>
      <trkpt lat="37.884246837" lon="-6.608344093">
        <ele>556.00</ele>
        <time>1899-12-29T23:00:00Z</time>
      </trkpt>
      <trkpt lat="37.884345744" lon="-6.608689930">
        <ele>550.00</ele>
        <time>1899-12-29T23:00:00Z</time>
      </trkpt>
      <trkpt lat="37.884371895" lon="-6.609095614">
        <ele>546.00</ele>
        <time>1899-12-29T23:00:00Z</time>
      </trkpt>
      <trkpt lat="37.884296793" lon="-6.609495431">
        <ele>543.00</ele>
        <time>1899-12-29T23:00:00Z</time>
      </trkpt>
      <trkpt lat="37.884195540" lon="-6.609810758">
        <ele>539.00</ele>
        <time>1899-12-29T23:00:00Z</time>
      </trkpt>
      <trkpt lat="37.884176765" lon="-6.610172186">
        <ele>533.00</ele>
        <time>1899-12-29T23:00:00Z</time>
      </trkpt>
      <trkpt lat="37.883941568" lon="-6.610208731">
        <ele>528.00</ele>
        <time>1899-12-29T23:00:00Z</time>
      </trkpt>
      <trkpt lat="37.883930504" lon="-6.610681638">
        <ele>522.00</ele>
        <time>1899-12-29T23:00:00Z</time>
      </trkpt>
      <trkpt lat="37.883995883" lon="-6.611028146">
        <ele>515.00</ele>
        <time>1899-12-29T23:00:00Z</time>
      </trkpt>
      <trkpt lat="37.884099651" lon="-6.611243896">
        <ele>512.00</ele>
        <time>1899-12-29T23:00:00Z</time>
      </trkpt>
      <trkpt lat="37.884161174" lon="-6.611465681">
        <ele>511.00</ele>
        <time>1899-12-29T23:00:00Z</time>
      </trkpt>
      <trkpt lat="37.884229235" lon="-6.611692663">
        <ele>508.00</ele>
        <time>1899-12-29T23:00:00Z</time>
      </trkpt>
      <trkpt lat="37.884379942" lon="-6.611795928">
        <ele>504.00</ele>
        <time>1899-12-29T23:00:00Z</time>
      </trkpt>
      <trkpt lat="37.884576749" lon="-6.611877065">
        <ele>503.00</ele>
        <time>1899-12-29T23:00:00Z</time>
      </trkpt>
      <trkpt lat="37.884523440" lon="-6.611989550">
        <ele>503.00</ele>
        <time>1899-12-29T23:00:00Z</time>
      </trkpt>
      <trkpt lat="37.884264607" lon="-6.612159368">
        <ele>502.00</ele>
        <time>1899-12-29T23:00:00Z</time>
      </trkpt>
      <trkpt lat="37.884105686" lon="-6.612417363">
        <ele>499.00</ele>
        <time>1899-12-29T23:00:00Z</time>
      </trkpt>
      <trkpt lat="37.883946095" lon="-6.612611655">
        <ele>497.00</ele>
        <time>1899-12-29T23:00:00Z</time>
      </trkpt>
      <trkpt lat="37.883948609" lon="-6.612824053">
        <ele>496.00</ele>
        <time>1899-12-29T23:00:00Z</time>
      </trkpt>
      <trkpt lat="37.883901000" lon="-6.613053381">
        <ele>494.00</ele>
        <time>1899-12-29T23:00:00Z</time>
      </trkpt>
      <trkpt lat="37.883762363" lon="-6.613249853">
        <ele>493.00</ele>
        <time>1899-12-29T23:00:00Z</time>
      </trkpt>
      <trkpt lat="37.883578297" lon="-6.613343898">
        <ele>495.00</ele>
        <time>1899-12-29T23:00:00Z</time>
      </trkpt>
      <trkpt lat="37.883549128" lon="-6.613538191">
        <ele>499.00</ele>
        <time>1899-12-29T23:00:00Z</time>
      </trkpt>
      <trkpt lat="37.883652225" lon="-6.613695603">
        <ele>505.00</ele>
        <time>1899-12-29T23:00:00Z</time>
      </trkpt>
      <trkpt lat="37.883776780" lon="-6.613902804">
        <ele>506.00</ele>
        <time>1899-12-29T23:00:00Z</time>
      </trkpt>
      <trkpt lat="37.883574106" lon="-6.614015624">
        <ele>508.00</ele>
        <time>1899-12-29T23:00:00Z</time>
      </trkpt>
      <trkpt lat="37.883433793" lon="-6.614411417">
        <ele>506.00</ele>
        <time>1899-12-29T23:00:00Z</time>
      </trkpt>
      <trkpt lat="37.883334551" lon="-6.614731941">
        <ele>505.00</ele>
        <time>1899-12-29T23:00:00Z</time>
      </trkpt>
      <trkpt lat="37.883242518" lon="-6.614940986">
        <ele>504.00</ele>
        <time>1899-12-29T23:00:00Z</time>
      </trkpt>
      <trkpt lat="37.883130368" lon="-6.615067888">
        <ele>503.00</ele>
        <time>1899-12-29T23:00:00Z</time>
      </trkpt>
      <trkpt lat="37.882911097" lon="-6.615210380">
        <ele>501.00</ele>
        <time>1899-12-29T23:00:00Z</time>
      </trkpt>
      <trkpt lat="37.882662825" lon="-6.615377180">
        <ele>497.00</ele>
        <time>1899-12-29T23:00:00Z</time>
      </trkpt>
      <trkpt lat="37.882621251" lon="-6.615600977">
        <ele>496.00</ele>
        <time>1899-12-29T23:00:00Z</time>
      </trkpt>
      <trkpt lat="37.882510778" lon="-6.615847405">
        <ele>497.00</ele>
        <time>1899-12-29T23:00:00Z</time>
      </trkpt>
      <trkpt lat="37.882379685" lon="-6.616136748">
        <ele>495.00</ele>
        <time>1899-12-29T23:00:00Z</time>
      </trkpt>
      <trkpt lat="37.882209867" lon="-6.616193242">
        <ele>490.00</ele>
        <time>1899-12-29T23:00:00Z</time>
      </trkpt>
      <trkpt lat="37.881972659" lon="-6.616413016">
        <ele>486.00</ele>
        <time>1899-12-29T23:00:00Z</time>
      </trkpt>
      <trkpt lat="37.881872412" lon="-6.616643351">
        <ele>485.00</ele>
        <time>1899-12-29T23:00:00Z</time>
      </trkpt>
      <trkpt lat="37.881773170" lon="-6.616961192">
        <ele>484.00</ele>
        <time>1899-12-29T23:00:00Z</time>
      </trkpt>
      <trkpt lat="37.881625481" lon="-6.617269479">
        <ele>483.00</ele>
        <time>1899-12-29T23:00:00Z</time>
      </trkpt>
      <trkpt lat="37.881592289" lon="-6.617490426">
        <ele>482.00</ele>
        <time>1899-12-29T23:00:00Z</time>
      </trkpt>
      <trkpt lat="37.881542500" lon="-6.617717240">
        <ele>480.00</ele>
        <time>1899-12-29T23:00:00Z</time>
      </trkpt>
      <trkpt lat="37.881312501" lon="-6.617830563">
        <ele>480.00</ele>
        <time>1899-12-29T23:00:00Z</time>
      </trkpt>
      <trkpt lat="37.881304286" lon="-6.618192494">
        <ele>486.00</ele>
        <time>1899-12-29T23:00:00Z</time>
      </trkpt>
      <trkpt lat="37.881238572" lon="-6.618551239">
        <ele>484.00</ele>
        <time>1899-12-29T23:00:00Z</time>
      </trkpt>
      <trkpt lat="37.881082837" lon="-6.618833542">
        <ele>483.00</ele>
        <time>1899-12-29T23:00:00Z</time>
      </trkpt>
      <trkpt lat="37.880891729" lon="-6.619099583">
        <ele>483.00</ele>
        <time>1899-12-29T23:00:00Z</time>
      </trkpt>
      <trkpt lat="37.880802378" lon="-6.619138978">
        <ele>483.00</ele>
        <time>1899-12-29T23:00:00Z</time>
      </trkpt>
      <trkpt lat="37.880673967" lon="-6.619168483">
        <ele>484.00</ele>
        <time>1899-12-29T23:00:00Z</time>
      </trkpt>
      <trkpt lat="37.880573887" lon="-6.619361099">
        <ele>483.00</ele>
        <time>1899-12-29T23:00:00Z</time>
      </trkpt>
      <trkpt lat="37.880369537" lon="-6.619433183">
        <ele>480.00</ele>
        <time>1899-12-29T23:00:00Z</time>
      </trkpt>
      <trkpt lat="37.880101148" lon="-6.619547512">
        <ele>475.00</ele>
        <time>1899-12-29T23:00:00Z</time>
      </trkpt>
      <trkpt lat="37.879827898" lon="-6.619617920">
        <ele>471.00</ele>
        <time>1899-12-29T23:00:00Z</time>
      </trkpt>
      <trkpt lat="37.879744079" lon="-6.619513147">
        <ele>470.00</ele>
        <time>1899-12-29T23:00:00Z</time>
      </trkpt>
      <trkpt lat="37.879535034" lon="-6.619420946">
        <ele>470.00</ele>
        <time>1899-12-29T23:00:00Z</time>
      </trkpt>
      <trkpt lat="37.879391704" lon="-6.619335283">
        <ele>469.00</ele>
        <time>1899-12-29T23:00:00Z</time>
      </trkpt>
      <trkpt lat="37.879269999" lon="-6.619439553">
        <ele>469.00</ele>
        <time>1899-12-29T23:00:00Z</time>
      </trkpt>
      <trkpt lat="37.879213672" lon="-6.619669218">
        <ele>469.00</ele>
        <time>1899-12-29T23:00:00Z</time>
      </trkpt>
      <trkpt lat="37.879198249" lon="-6.619948335">
        <ele>468.00</ele>
        <time>1899-12-29T23:00:00Z</time>
      </trkpt>
      <trkpt lat="37.878436334" lon="-6.620254777">
        <ele>463.00</ele>
        <time>1899-12-29T23:00:00Z</time>
      </trkpt>
      <trkpt lat="37.878319826" lon="-6.620183196">
        <ele>462.00</ele>
        <time>1899-12-29T23:00:00Z</time>
      </trkpt>
      <trkpt lat="37.878205497" lon="-6.620096359">
        <ele>461.00</ele>
        <time>1899-12-29T23:00:00Z</time>
      </trkpt>
      <trkpt lat="37.878052946" lon="-6.619950850">
        <ele>459.00</ele>
        <time>1899-12-29T23:00:00Z</time>
      </trkpt>
      <trkpt lat="37.877926379" lon="-6.619827300">
        <ele>458.00</ele>
        <time>1899-12-29T23:00:00Z</time>
      </trkpt>
      <trkpt lat="37.877856474" lon="-6.619730238">
        <ele>458.00</ele>
        <time>1899-12-29T23:00:00Z</time>
      </trkpt>
      <trkpt lat="37.877735943" lon="-6.619582381">
        <ele>456.00</ele>
        <time>1899-12-29T23:00:00Z</time>
      </trkpt>
      <trkpt lat="37.877650112" lon="-6.619488169">
        <ele>456.00</ele>
        <time>1899-12-29T23:00:00Z</time>
      </trkpt>
      <trkpt lat="37.877571490" lon="-6.619401500">
        <ele>455.00</ele>
        <time>1899-12-29T23:00:00Z</time>
      </trkpt>
      <trkpt lat="37.877479289" lon="-6.619316004">
        <ele>455.00</ele>
        <time>1899-12-29T23:00:00Z</time>
      </trkpt>
      <trkpt lat="37.877393961" lon="-6.619410049">
        <ele>455.00</ele>
        <time>1899-12-29T23:00:00Z</time>
      </trkpt>
      <trkpt lat="37.877338473" lon="-6.619569473">
        <ele>455.00</ele>
        <time>1899-12-29T23:00:00Z</time>
      </trkpt>
      <trkpt lat="37.877281141" lon="-6.619708277">
        <ele>455.00</ele>
        <time>1899-12-29T23:00:00Z</time>
      </trkpt>
      <trkpt lat="37.877191957" lon="-6.619817745">
        <ele>455.00</ele>
        <time>1899-12-29T23:00:00Z</time>
      </trkpt>
      <trkpt lat="37.877077460" lon="-6.619916316">
        <ele>454.00</ele>
        <time>1899-12-29T23:00:00Z</time>
      </trkpt>
      <trkpt lat="37.876955755" lon="-6.619964261">
        <ele>454.00</ele>
        <time>1899-12-29T23:00:00Z</time>
      </trkpt>
      <trkpt lat="37.876858693" lon="-6.619813051">
        <ele>453.00</ele>
        <time>1899-12-29T23:00:00Z</time>
      </trkpt>
      <trkpt lat="37.876740173" lon="-6.619777177">
        <ele>454.00</ele>
        <time>1899-12-29T23:00:00Z</time>
      </trkpt>
      <trkpt lat="37.876532301" lon="-6.619809531">
        <ele>457.00</ele>
        <time>1899-12-29T23:00:00Z</time>
      </trkpt>
      <trkpt lat="37.876369357" lon="-6.620000303">
        <ele>455.00</ele>
        <time>1899-12-29T23:00:00Z</time>
      </trkpt>
      <trkpt lat="37.876206748" lon="-6.620121505">
        <ele>454.00</ele>
        <time>1899-12-29T23:00:00Z</time>
      </trkpt>
      <trkpt lat="37.875997033" lon="-6.620143801">
        <ele>454.00</ele>
        <time>1899-12-29T23:00:00Z</time>
      </trkpt>
      <trkpt lat="37.875792179" lon="-6.620164588">
        <ele>455.00</ele>
        <time>1899-12-29T23:00:00Z</time>
      </trkpt>
      <trkpt lat="37.875635102" lon="-6.620288976">
        <ele>456.00</ele>
        <time>1899-12-29T23:00:00Z</time>
      </trkpt>
      <trkpt lat="37.875525467" lon="-6.620402131">
        <ele>456.00</ele>
        <time>1899-12-29T23:00:00Z</time>
      </trkpt>
      <trkpt lat="37.875369899" lon="-6.620467007">
        <ele>456.00</ele>
        <time>1899-12-29T23:00:00Z</time>
      </trkpt>
      <trkpt lat="37.875172757" lon="-6.620458122">
        <ele>456.00</ele>
        <time>1899-12-29T23:00:00Z</time>
      </trkpt>
      <trkpt lat="37.874958683" lon="-6.620323844">
        <ele>456.00</ele>
        <time>1899-12-29T23:00:00Z</time>
      </trkpt>
      <trkpt lat="37.874731701" lon="-6.620186046">
        <ele>454.00</ele>
        <time>1899-12-29T23:00:00Z</time>
      </trkpt>
      <trkpt lat="37.874505557" lon="-6.620142460">
        <ele>450.00</ele>
        <time>1899-12-29T23:00:00Z</time>
      </trkpt>
      <trkpt lat="37.874333058" lon="-6.620144639">
        <ele>449.00</ele>
        <time>1899-12-29T23:00:00Z</time>
      </trkpt>
      <trkpt lat="37.874176148" lon="-6.620144974">
        <ele>448.00</ele>
        <time>1899-12-29T23:00:00Z</time>
      </trkpt>
      <trkpt lat="37.873998452" lon="-6.620232817">
        <ele>448.00</ele>
        <time>1899-12-29T23:00:00Z</time>
      </trkpt>
      <trkpt lat="37.873946484" lon="-6.620350499">
        <ele>448.00</ele>
        <time>1899-12-29T23:00:00Z</time>
      </trkpt>
      <trkpt lat="37.873862498" lon="-6.620562728">
        <ele>446.00</ele>
        <time>1899-12-29T23:00:00Z</time>
      </trkpt>
      <trkpt lat="37.873756886" lon="-6.620528195">
        <ele>445.00</ele>
        <time>1899-12-29T23:00:00Z</time>
      </trkpt>
      <trkpt lat="37.873646244" lon="-6.620497350">
        <ele>446.00</ele>
        <time>1899-12-29T23:00:00Z</time>
      </trkpt>
      <trkpt lat="37.873546500" lon="-6.620483268">
        <ele>447.00</ele>
        <time>1899-12-29T23:00:00Z</time>
      </trkpt>
      <trkpt lat="37.873342652" lon="-6.620484944">
        <ele>446.00</ele>
        <time>1899-12-29T23:00:00Z</time>
      </trkpt>
      <trkpt lat="37.873186413" lon="-6.620521825">
        <ele>446.00</ele>
        <time>1899-12-29T23:00:00Z</time>
      </trkpt>
      <trkpt lat="37.873081472" lon="-6.620537415">
        <ele>445.00</ele>
        <time>1899-12-29T23:00:00Z</time>
      </trkpt>
      <trkpt lat="37.872802522" lon="-6.620565578">
        <ele>445.00</ele>
        <time>1899-12-29T23:00:00Z</time>
      </trkpt>
      <trkpt lat="37.872582749" lon="-6.620624419">
        <ele>447.00</ele>
        <time>1899-12-29T23:00:00Z</time>
      </trkpt>
      <trkpt lat="37.872497085" lon="-6.620720811">
        <ele>447.00</ele>
        <time>1899-12-29T23:00:00Z</time>
      </trkpt>
      <trkpt lat="37.872432210" lon="-6.620871183">
        <ele>446.00</ele>
        <time>1899-12-29T23:00:00Z</time>
      </trkpt>
      <trkpt lat="37.872364316" lon="-6.621212326">
        <ele>445.00</ele>
        <time>1899-12-29T23:00:00Z</time>
      </trkpt>
      <trkpt lat="37.872329950" lon="-6.621481050">
        <ele>444.00</ele>
        <time>1899-12-29T23:00:00Z</time>
      </trkpt>
      <trkpt lat="37.872185949" lon="-6.621617675">
        <ele>444.00</ele>
        <time>1899-12-29T23:00:00Z</time>
      </trkpt>
      <trkpt lat="37.872038428" lon="-6.621757317">
        <ele>445.00</ele>
        <time>1899-12-29T23:00:00Z</time>
      </trkpt>
      <trkpt lat="37.871974725" lon="-6.621843651">
        <ele>445.00</ele>
        <time>1899-12-29T23:00:00Z</time>
      </trkpt>
      <trkpt lat="37.871880010" lon="-6.621892266">
        <ele>444.00</ele>
        <time>1899-12-29T23:00:00Z</time>
      </trkpt>
      <trkpt lat="37.871698625" lon="-6.621903665">
        <ele>441.00</ele>
        <time>1899-12-29T23:00:00Z</time>
      </trkpt>
      <trkpt lat="37.871586140" lon="-6.621854044">
        <ele>439.00</ele>
        <time>1899-12-29T23:00:00Z</time>
      </trkpt>
      <trkpt lat="37.871489413" lon="-6.621600073">
        <ele>438.00</ele>
        <time>1899-12-29T23:00:00Z</time>
      </trkpt>
      <trkpt lat="37.871401403" lon="-6.621372085">
        <ele>440.00</ele>
        <time>1899-12-29T23:00:00Z</time>
      </trkpt>
      <trkpt lat="37.871352788" lon="-6.621273011">
        <ele>440.00</ele>
        <time>1899-12-29T23:00:00Z</time>
      </trkpt>
      <trkpt lat="37.871211972" lon="-6.621005125">
        <ele>440.00</ele>
        <time>1899-12-29T23:00:00Z</time>
      </trkpt>
      <trkpt lat="37.871039473" lon="-6.620743945">
        <ele>438.00</ele>
        <time>1899-12-29T23:00:00Z</time>
      </trkpt>
      <trkpt lat="37.870955486" lon="-6.620643530">
        <ele>439.00</ele>
        <time>1899-12-29T23:00:00Z</time>
      </trkpt>
      <trkpt lat="37.870805450" lon="-6.620651241">
        <ele>439.00</ele>
        <time>1899-12-29T23:00:00Z</time>
      </trkpt>
      <trkpt lat="37.870607637" lon="-6.620766409">
        <ele>436.00</ele>
        <time>1899-12-29T23:00:00Z</time>
      </trkpt>
      <trkpt lat="37.870454751" lon="-6.620835811">
        <ele>433.00</ele>
        <time>1899-12-29T23:00:00Z</time>
      </trkpt>
      <trkpt lat="37.870338913" lon="-6.620796416">
        <ele>431.00</ele>
        <time>1899-12-29T23:00:00Z</time>
      </trkpt>
      <trkpt lat="37.870209999" lon="-6.620648392">
        <ele>429.00</ele>
        <time>1899-12-29T23:00:00Z</time>
      </trkpt>
      <trkpt lat="37.870112769" lon="-6.620642692">
        <ele>429.00</ele>
        <time>1899-12-29T23:00:00Z</time>
      </trkpt>
      <trkpt lat="37.869992238" lon="-6.620748807">
        <ele>430.00</ele>
        <time>1899-12-29T23:00:00Z</time>
      </trkpt>
      <trkpt lat="37.869854942" lon="-6.620853245">
        <ele>431.00</ele>
        <time>1899-12-29T23:00:00Z</time>
      </trkpt>
      <trkpt lat="37.869770620" lon="-6.620916780">
        <ele>432.00</ele>
        <time>1899-12-29T23:00:00Z</time>
      </trkpt>
      <trkpt lat="37.869686633" lon="-6.620985009">
        <ele>434.00</ele>
        <time>1899-12-29T23:00:00Z</time>
      </trkpt>
      <trkpt lat="37.869591918" lon="-6.621060614">
        <ele>435.00</ele>
        <time>1899-12-29T23:00:00Z</time>
      </trkpt>
      <trkpt lat="37.869496197" lon="-6.621134877">
        <ele>436.00</ele>
        <time>1899-12-29T23:00:00Z</time>
      </trkpt>
      <trkpt lat="37.869360913" lon="-6.621195395">
        <ele>436.00</ele>
        <time>1899-12-29T23:00:00Z</time>
      </trkpt>
      <trkpt lat="37.869257480" lon="-6.621232610">
        <ele>434.00</ele>
        <time>1899-12-29T23:00:00Z</time>
      </trkpt>
      <trkpt lat="37.869122364" lon="-6.621279549">
        <ele>433.00</ele>
        <time>1899-12-29T23:00:00Z</time>
      </trkpt>
      <trkpt lat="37.868985068" lon="-6.621296816">
        <ele>432.00</ele>
        <time>1899-12-29T23:00:00Z</time>
      </trkpt>
      <trkpt lat="37.868860681" lon="-6.621272676">
        <ele>432.00</ele>
        <time>1899-12-29T23:00:00Z</time>
      </trkpt>
      <trkpt lat="37.868731264" lon="-6.621137559">
        <ele>432.00</ele>
        <time>1899-12-29T23:00:00Z</time>
      </trkpt>
      <trkpt lat="37.868682481" lon="-6.621000599">
        <ele>432.00</ele>
        <time>1899-12-29T23:00:00Z</time>
      </trkpt>
      <trkpt lat="37.868618779" lon="-6.620884929">
        <ele>431.00</ele>
        <time>1899-12-29T23:00:00Z</time>
      </trkpt>
      <trkpt lat="37.868522555" lon="-6.620831285">
        <ele>430.00</ele>
        <time>1899-12-29T23:00:00Z</time>
      </trkpt>
      <trkpt lat="37.868378051" lon="-6.620908566">
        <ele>431.00</ele>
        <time>1899-12-29T23:00:00Z</time>
      </trkpt>
      <trkpt lat="37.868279479" lon="-6.621004120">
        <ele>430.00</ele>
        <time>1899-12-29T23:00:00Z</time>
      </trkpt>
      <trkpt lat="37.868174370" lon="-6.621095147">
        <ele>430.00</ele>
        <time>1899-12-29T23:00:00Z</time>
      </trkpt>
      <trkpt lat="37.868067753" lon="-6.621182654">
        <ele>430.00</ele>
        <time>1899-12-29T23:00:00Z</time>
      </trkpt>
      <trkpt lat="37.867881339" lon="-6.621228252">
        <ele>429.00</ele>
        <time>1899-12-29T23:00:00Z</time>
      </trkpt>
      <trkpt lat="37.867727783" lon="-6.621320117">
        <ele>427.00</ele>
        <time>1899-12-29T23:00:00Z</time>
      </trkpt>
      <trkpt lat="37.867589314" lon="-6.621481050">
        <ele>428.00</ele>
        <time>1899-12-29T23:00:00Z</time>
      </trkpt>
      <trkpt lat="37.867237441" lon="-6.621691268">
        <ele>427.00</ele>
        <time>1899-12-29T23:00:00Z</time>
      </trkpt>
      <trkpt lat="37.867027558" lon="-6.621670816">
        <ele>426.00</ele>
        <time>1899-12-29T23:00:00Z</time>
      </trkpt>
      <trkpt lat="37.866922282" lon="-6.621659417">
        <ele>424.00</ele>
        <time>1899-12-29T23:00:00Z</time>
      </trkpt>
      <trkpt lat="37.866834439" lon="-6.621724628">
        <ele>422.00</ele>
        <time>1899-12-29T23:00:00Z</time>
      </trkpt>
      <trkpt lat="37.866779622" lon="-6.621837616">
        <ele>421.00</ele>
        <time>1899-12-29T23:00:00Z</time>
      </trkpt>
      <trkpt lat="37.866733689" lon="-6.621976420">
        <ele>420.00</ele>
        <time>1899-12-29T23:00:00Z</time>
      </trkpt>
      <trkpt lat="37.866656240" lon="-6.622107849">
        <ele>420.00</ele>
        <time>1899-12-29T23:00:00Z</time>
      </trkpt>
      <trkpt lat="37.866477873" lon="-6.622233242">
        <ele>420.00</ele>
        <time>1899-12-29T23:00:00Z</time>
      </trkpt>
      <trkpt lat="37.866351306" lon="-6.622278336">
        <ele>419.00</ele>
        <time>1899-12-29T23:00:00Z</time>
      </trkpt>
      <trkpt lat="37.866249215" lon="-6.622318905">
        <ele>420.00</ele>
        <time>1899-12-29T23:00:00Z</time>
      </trkpt>
      <trkpt lat="37.866123822" lon="-6.622370202">
        <ele>422.00</ele>
        <time>1899-12-29T23:00:00Z</time>
      </trkpt>
      <trkpt lat="37.866041511" lon="-6.622417979">
        <ele>421.00</ele>
        <time>1899-12-29T23:00:00Z</time>
      </trkpt>
      <trkpt lat="37.865869682" lon="-6.622549575">
        <ele>419.00</ele>
        <time>1899-12-29T23:00:00Z</time>
      </trkpt>
      <trkpt lat="37.865733225" lon="-6.622611433">
        <ele>419.00</ele>
        <time>1899-12-29T23:00:00Z</time>
      </trkpt>
      <trkpt lat="37.865629289" lon="-6.622668095">
        <ele>418.00</ele>
        <time>1899-12-29T23:00:00Z</time>
      </trkpt>
      <trkpt lat="37.865405995" lon="-6.622893400">
        <ele>417.00</ele>
        <time>1899-12-29T23:00:00Z</time>
      </trkpt>
      <trkpt lat="37.865207344" lon="-6.622939333">
        <ele>417.00</ele>
        <time>1899-12-29T23:00:00Z</time>
      </trkpt>
      <trkpt lat="37.864855640" lon="-6.622925419">
        <ele>414.00</ele>
        <time>1899-12-29T23:00:00Z</time>
      </trkpt>
      <trkpt lat="37.864738796" lon="-6.622927934">
        <ele>415.00</ele>
        <time>1899-12-29T23:00:00Z</time>
      </trkpt>
      <trkpt lat="37.864548191" lon="-6.622820143">
        <ele>414.00</ele>
        <time>1899-12-29T23:00:00Z</time>
      </trkpt>
      <trkpt lat="37.864429504" lon="-6.622748729">
        <ele>413.00</ele>
        <time>1899-12-29T23:00:00Z</time>
      </trkpt>
      <trkpt lat="37.864309642" lon="-6.622734647">
        <ele>413.00</ele>
        <time>1899-12-29T23:00:00Z</time>
      </trkpt>
      <trkpt lat="37.864015270" lon="-6.622647475">
        <ele>414.00</ele>
        <time>1899-12-29T23:00:00Z</time>
      </trkpt>
      <trkpt lat="37.863860708" lon="-6.622516047">
        <ele>416.00</ele>
        <time>1899-12-29T23:00:00Z</time>
      </trkpt>
      <trkpt lat="37.863751240" lon="-6.622346733">
        <ele>418.00</ele>
        <time>1899-12-29T23:00:00Z</time>
      </trkpt>
      <trkpt lat="37.863704301" lon="-6.622227710">
        <ele>418.00</ele>
        <time>1899-12-29T23:00:00Z</time>
      </trkpt>
      <trkpt lat="37.863661554" lon="-6.622090414">
        <ele>418.00</ele>
        <time>1899-12-29T23:00:00Z</time>
      </trkpt>
      <trkpt lat="37.863622829" lon="-6.621925961">
        <ele>419.00</ele>
        <time>1899-12-29T23:00:00Z</time>
      </trkpt>
      <trkpt lat="37.863585781" lon="-6.621782966">
        <ele>418.00</ele>
        <time>1899-12-29T23:00:00Z</time>
      </trkpt>
      <trkpt lat="37.863523588" lon="-6.621521115">
        <ele>417.00</ele>
        <time>1899-12-29T23:00:00Z</time>
      </trkpt>
      <trkpt lat="37.863480505" lon="-6.621396057">
        <ele>416.00</ele>
        <time>1899-12-29T23:00:00Z</time>
      </trkpt>
      <trkpt lat="37.863377072" lon="-6.621241495">
        <ele>415.00</ele>
        <time>1899-12-29T23:00:00Z</time>
      </trkpt>
      <trkpt lat="37.863260061" lon="-6.621060614">
        <ele>414.00</ele>
        <time>1899-12-29T23:00:00Z</time>
      </trkpt>
      <trkpt lat="37.863197867" lon="-6.620940082">
        <ele>414.00</ele>
        <time>1899-12-29T23:00:00Z</time>
      </trkpt>
      <trkpt lat="37.863151599" lon="-6.620832123">
        <ele>414.00</ele>
        <time>1899-12-29T23:00:00Z</time>
      </trkpt>
      <trkpt lat="37.863069791" lon="-6.620640010">
        <ele>413.00</ele>
        <time>1899-12-29T23:00:00Z</time>
      </trkpt>
      <trkpt lat="37.862956300" lon="-6.620428283">
        <ele>409.00</ele>
        <time>1899-12-29T23:00:00Z</time>
      </trkpt>
      <trkpt lat="37.862851359" lon="-6.620283443">
        <ele>407.00</ele>
        <time>1899-12-29T23:00:00Z</time>
      </trkpt>
      <trkpt lat="37.862748429" lon="-6.620153524">
        <ele>405.00</ele>
        <time>1899-12-29T23:00:00Z</time>
      </trkpt>
      <trkpt lat="37.862638459" lon="-6.620014720">
        <ele>403.00</ele>
        <time>1899-12-29T23:00:00Z</time>
      </trkpt>
      <trkpt lat="37.862546593" lon="-6.619891673">
        <ele>402.00</ele>
        <time>1899-12-29T23:00:00Z</time>
      </trkpt>
      <trkpt lat="37.862479873" lon="-6.619792432">
        <ele>401.00</ele>
        <time>1899-12-29T23:00:00Z</time>
      </trkpt>
      <trkpt lat="37.862376776" lon="-6.619614568">
        <ele>399.00</ele>
        <time>1899-12-29T23:00:00Z</time>
      </trkpt>
      <trkpt lat="37.862322293" lon="-6.619477104">
        <ele>397.00</ele>
        <time>1899-12-29T23:00:00Z</time>
      </trkpt>
      <trkpt lat="37.862206455" lon="-6.619248278">
        <ele>396.00</ele>
        <time>1899-12-29T23:00:00Z</time>
      </trkpt>
      <trkpt lat="37.862057425" lon="-6.619110815">
        <ele>395.00</ele>
        <time>1899-12-29T23:00:00Z</time>
      </trkpt>
      <trkpt lat="37.861944605" lon="-6.619036049">
        <ele>397.00</ele>
        <time>1899-12-29T23:00:00Z</time>
      </trkpt>
      <trkpt lat="37.861862965" lon="-6.618988104">
        <ele>399.00</ele>
        <time>1899-12-29T23:00:00Z</time>
      </trkpt>
      <trkpt lat="37.861747462" lon="-6.618900597">
        <ele>401.00</ele>
        <time>1899-12-29T23:00:00Z</time>
      </trkpt>
      <trkpt lat="37.861671858" lon="-6.618824489">
        <ele>403.00</ele>
        <time>1899-12-29T23:00:00Z</time>
      </trkpt>
      <trkpt lat="37.861595750" lon="-6.618746873">
        <ele>405.00</ele>
        <time>1899-12-29T23:00:00Z</time>
      </trkpt>
      <trkpt lat="37.861505393" lon="-6.618668251">
        <ele>407.00</ele>
        <time>1899-12-29T23:00:00Z</time>
      </trkpt>
      <trkpt lat="37.861391231" lon="-6.618617289">
        <ele>410.00</ele>
        <time>1899-12-29T23:00:00Z</time>
      </trkpt>
      <trkpt lat="37.861307245" lon="-6.618573200">
        <ele>412.00</ele>
        <time>1899-12-29T23:00:00Z</time>
      </trkpt>
      <trkpt lat="37.861207668" lon="-6.618547216">
        <ele>414.00</ele>
        <time>1899-12-29T23:00:00Z</time>
      </trkpt>
      <trkpt lat="37.861104235" lon="-6.618579570">
        <ele>415.00</ele>
        <time>1899-12-29T23:00:00Z</time>
      </trkpt>
      <trkpt lat="37.861025110" lon="-6.618651319">
        <ele>417.00</ele>
        <time>1899-12-29T23:00:00Z</time>
      </trkpt>
      <trkpt lat="37.860903405" lon="-6.618683171">
        <ele>419.00</ele>
        <time>1899-12-29T23:00:00Z</time>
      </trkpt>
      <trkpt lat="37.860774994" lon="-6.618648637">
        <ele>421.00</ele>
        <time>1899-12-29T23:00:00Z</time>
      </trkpt>
      <trkpt lat="37.860684469" lon="-6.618593987">
        <ele>422.00</ele>
        <time>1899-12-29T23:00:00Z</time>
      </trkpt>
      <trkpt lat="37.860583048" lon="-6.618627179">
        <ele>424.00</ele>
        <time>1899-12-29T23:00:00Z</time>
      </trkpt>
      <trkpt lat="37.860552035" lon="-6.618735641">
        <ele>425.00</ele>
        <time>1899-12-29T23:00:00Z</time>
      </trkpt>
      <trkpt lat="37.860538457" lon="-6.618877798">
        <ele>427.00</ele>
        <time>1899-12-29T23:00:00Z</time>
      </trkpt>
      <trkpt lat="37.860543653" lon="-6.619000174">
        <ele>429.00</ele>
        <time>1899-12-29T23:00:00Z</time>
      </trkpt>
      <trkpt lat="37.860579528" lon="-6.619163118">
        <ele>431.00</ele>
        <time>1899-12-29T23:00:00Z</time>
      </trkpt>
      <trkpt lat="37.860553544" lon="-6.619300582">
        <ele>432.00</ele>
        <time>1899-12-29T23:00:00Z</time>
      </trkpt>
      <trkpt lat="37.860465534" lon="-6.619414408">
        <ele>433.00</ele>
        <time>1899-12-29T23:00:00Z</time>
      </trkpt>
      <trkpt lat="37.860349696" lon="-6.619438380">
        <ele>435.00</ele>
        <time>1899-12-29T23:00:00Z</time>
      </trkpt>
      <trkpt lat="37.860206030" lon="-6.619456317">
        <ele>436.00</ele>
        <time>1899-12-29T23:00:00Z</time>
      </trkpt>
      <trkpt lat="37.860102765" lon="-6.619500909">
        <ele>438.00</ele>
        <time>1899-12-29T23:00:00Z</time>
      </trkpt>
      <trkpt lat="37.859972678" lon="-6.619552039">
        <ele>441.00</ele>
        <time>1899-12-29T23:00:00Z</time>
      </trkpt>
      <trkpt lat="37.859881651" lon="-6.619597636">
        <ele>442.00</ele>
        <time>1899-12-29T23:00:00Z</time>
      </trkpt>
      <trkpt lat="37.859762125" lon="-6.619748846">
        <ele>444.00</ele>
        <time>1899-12-29T23:00:00Z</time>
      </trkpt>
      <trkpt lat="37.859685682" lon="-6.619931906">
        <ele>446.00</ele>
        <time>1899-12-29T23:00:00Z</time>
      </trkpt>
      <trkpt lat="37.859562635" lon="-6.620069370">
        <ele>448.00</ele>
        <time>1899-12-29T23:00:00Z</time>
      </trkpt>
      <trkpt lat="37.859472781" lon="-6.620029807">
        <ele>449.00</ele>
        <time>1899-12-29T23:00:00Z</time>
      </trkpt>
      <trkpt lat="37.859451659" lon="-6.619875915">
        <ele>452.00</ele>
        <time>1899-12-29T23:00:00Z</time>
      </trkpt>
      <trkpt lat="37.859470602" lon="-6.619685479">
        <ele>454.00</ele>
        <time>1899-12-29T23:00:00Z</time>
      </trkpt>
      <trkpt lat="37.859485019" lon="-6.619554386">
        <ele>455.00</ele>
        <time>1899-12-29T23:00:00Z</time>
      </trkpt>
      <trkpt lat="37.859462388" lon="-6.619395297">
        <ele>456.00</ele>
        <time>1899-12-29T23:00:00Z</time>
      </trkpt>
      <trkpt lat="37.859438919" lon="-6.619274262">
        <ele>457.00</ele>
        <time>1899-12-29T23:00:00Z</time>
      </trkpt>
      <trkpt lat="37.859391980" lon="-6.619102098">
        <ele>460.00</ele>
        <time>1899-12-29T23:00:00Z</time>
      </trkpt>
      <trkpt lat="37.859348897" lon="-6.618979555">
        <ele>462.00</ele>
        <time>1899-12-29T23:00:00Z</time>
      </trkpt>
      <trkpt lat="37.859310843" lon="-6.618837062">
        <ele>463.00</ele>
        <time>1899-12-29T23:00:00Z</time>
      </trkpt>
      <trkpt lat="37.859272957" lon="-6.618732624">
        <ele>465.00</ele>
        <time>1899-12-29T23:00:00Z</time>
      </trkpt>
      <trkpt lat="37.859190982" lon="-6.618595328">
        <ele>467.00</ele>
        <time>1899-12-29T23:00:00Z</time>
      </trkpt>
      <trkpt lat="37.859095596" lon="-6.618608739">
        <ele>469.00</ele>
        <time>1899-12-29T23:00:00Z</time>
      </trkpt>
      <trkpt lat="37.859061398" lon="-6.618715525">
        <ele>471.00</ele>
        <time>1899-12-29T23:00:00Z</time>
      </trkpt>
      <trkpt lat="37.859029546" lon="-6.618888192">
        <ele>473.00</ele>
        <time>1899-12-29T23:00:00Z</time>
      </trkpt>
      <trkpt lat="37.858951930" lon="-6.619031187">
        <ele>475.00</ele>
        <time>1899-12-29T23:00:00Z</time>
      </trkpt>
      <trkpt lat="37.858877666" lon="-6.619145684">
        <ele>477.00</ele>
        <time>1899-12-29T23:00:00Z</time>
      </trkpt>
      <trkpt lat="37.858794853" lon="-6.619263366">
        <ele>479.00</ele>
        <time>1899-12-29T23:00:00Z</time>
      </trkpt>
      <trkpt lat="37.858725954" lon="-6.619368978">
        <ele>481.00</ele>
        <time>1899-12-29T23:00:00Z</time>
      </trkpt>
      <trkpt lat="37.858662922" lon="-6.619463190">
        <ele>483.00</ele>
        <time>1899-12-29T23:00:00Z</time>
      </trkpt>
      <trkpt lat="37.858566865" lon="-6.619473081">
        <ele>484.00</ele>
        <time>1899-12-29T23:00:00Z</time>
      </trkpt>
      <trkpt lat="37.858507689" lon="-6.619340144">
        <ele>486.00</ele>
        <time>1899-12-29T23:00:00Z</time>
      </trkpt>
      <trkpt lat="37.858531326" lon="-6.619196981">
        <ele>488.00</ele>
        <time>1899-12-29T23:00:00Z</time>
      </trkpt>
      <trkpt lat="37.858531829" lon="-6.619078629">
        <ele>489.00</ele>
        <time>1899-12-29T23:00:00Z</time>
      </trkpt>
      <trkpt lat="37.858514562" lon="-6.618905123">
        <ele>491.00</ele>
        <time>1899-12-29T23:00:00Z</time>
      </trkpt>
      <trkpt lat="37.858477179" lon="-6.618751399">
        <ele>493.00</ele>
        <time>1899-12-29T23:00:00Z</time>
      </trkpt>
      <trkpt lat="37.858419679" lon="-6.618624497">
        <ele>494.00</ele>
        <time>1899-12-29T23:00:00Z</time>
      </trkpt>
      <trkpt lat="37.858322281" lon="-6.618594658">
        <ele>496.00</ele>
        <time>1899-12-29T23:00:00Z</time>
      </trkpt>
      <trkpt lat="37.858283054" lon="-6.618742179">
        <ele>498.00</ele>
        <time>1899-12-29T23:00:00Z</time>
      </trkpt>
      <trkpt lat="37.858233936" lon="-6.618866734">
        <ele>499.00</ele>
        <time>1899-12-29T23:00:00Z</time>
      </trkpt>
      <trkpt lat="37.858110387" lon="-6.618927084">
        <ele>502.00</ele>
        <time>1899-12-29T23:00:00Z</time>
      </trkpt>
      <trkpt lat="37.858009804" lon="-6.618804708">
        <ele>505.00</ele>
        <time>1899-12-29T23:00:00Z</time>
      </trkpt>
      <trkpt lat="37.857971415" lon="-6.618638411">
        <ele>507.00</ele>
        <time>1899-12-29T23:00:00Z</time>
      </trkpt>
      <trkpt lat="37.857957166" lon="-6.618511677">
        <ele>508.00</ele>
        <time>1899-12-29T23:00:00Z</time>
      </trkpt>
      <trkpt lat="37.857913915" lon="-6.618375890">
        <ele>509.00</ele>
        <time>1899-12-29T23:00:00Z</time>
      </trkpt>
      <trkpt lat="37.857847195" lon="-6.618275642">
        <ele>511.00</ele>
        <time>1899-12-29T23:00:00Z</time>
      </trkpt>
      <trkpt lat="37.857777290" lon="-6.618202887">
        <ele>512.00</ele>
        <time>1899-12-29T23:00:00Z</time>
      </trkpt>
      <trkpt lat="37.857700512" lon="-6.618082859">
        <ele>514.00</ele>
        <time>1899-12-29T23:00:00Z</time>
      </trkpt>
      <trkpt lat="37.857617699" lon="-6.618026868">
        <ele>517.00</ele>
        <time>1899-12-29T23:00:00Z</time>
      </trkpt>
      <trkpt lat="37.857594397" lon="-6.618118230">
        <ele>518.00</ele>
        <time>1899-12-29T23:00:00Z</time>
      </trkpt>
      <trkpt lat="37.857641336" lon="-6.618302464">
        <ele>520.00</ele>
        <time>1899-12-29T23:00:00Z</time>
      </trkpt>
      <trkpt lat="37.857626416" lon="-6.618443448">
        <ele>521.00</ele>
        <time>1899-12-29T23:00:00Z</time>
      </trkpt>
      <trkpt lat="37.857598420" lon="-6.618559118">
        <ele>522.00</ele>
        <time>1899-12-29T23:00:00Z</time>
      </trkpt>
      <trkpt lat="37.857533712" lon="-6.618668754">
        <ele>524.00</ele>
        <time>1899-12-29T23:00:00Z</time>
      </trkpt>
      <trkpt lat="37.857442517" lon="-6.618785262">
        <ele>526.00</ele>
        <time>1899-12-29T23:00:00Z</time>
      </trkpt>
      <trkpt lat="37.857337575" lon="-6.618893724">
        <ele>528.00</ele>
        <time>1899-12-29T23:00:00Z</time>
      </trkpt>
      <trkpt lat="37.857257612" lon="-6.618951727">
        <ele>529.00</ele>
        <time>1899-12-29T23:00:00Z</time>
      </trkpt>
      <trkpt lat="37.857179660" lon="-6.619020123">
        <ele>529.00</ele>
        <time>1899-12-29T23:00:00Z</time>
      </trkpt>
      <trkpt lat="37.857061978" lon="-6.619059853">
        <ele>532.00</ele>
        <time>1899-12-29T23:00:00Z</time>
      </trkpt>
      <trkpt lat="37.856991068" lon="-6.618990116">
        <ele>534.00</ele>
        <time>1899-12-29T23:00:00Z</time>
      </trkpt>
      <trkpt lat="37.857049573" lon="-6.618859693">
        <ele>536.00</ele>
        <time>1899-12-29T23:00:00Z</time>
      </trkpt>
      <trkpt lat="37.857100200" lon="-6.618745532">
        <ele>538.00</ele>
        <time>1899-12-29T23:00:00Z</time>
      </trkpt>
      <trkpt lat="37.857137080" lon="-6.618606560">
        <ele>540.00</ele>
        <time>1899-12-29T23:00:00Z</time>
      </trkpt>
      <trkpt lat="37.857137080" lon="-6.618475299">
        <ele>541.00</ele>
        <time>1899-12-29T23:00:00Z</time>
      </trkpt>
      <trkpt lat="37.857094668" lon="-6.618363820">
        <ele>542.00</ele>
        <time>1899-12-29T23:00:00Z</time>
      </trkpt>
      <trkpt lat="37.856960054" lon="-6.618245132">
        <ele>545.00</ele>
        <time>1899-12-29T23:00:00Z</time>
      </trkpt>
      <trkpt lat="37.856849749" lon="-6.618194673">
        <ele>546.00</ele>
        <time>1899-12-29T23:00:00Z</time>
      </trkpt>
      <trkpt lat="37.856751177" lon="-6.618118566">
        <ele>548.00</ele>
        <time>1899-12-29T23:00:00Z</time>
      </trkpt>
      <trkpt lat="37.856678255" lon="-6.618046984">
        <ele>549.00</ele>
        <time>1899-12-29T23:00:00Z</time>
      </trkpt>
      <trkpt lat="37.856587227" lon="-6.617984120">
        <ele>550.00</ele>
        <time>1899-12-29T23:00:00Z</time>
      </trkpt>
      <trkpt lat="37.856500559" lon="-6.617898121">
        <ele>552.00</ele>
        <time>1899-12-29T23:00:00Z</time>
      </trkpt>
      <trkpt lat="37.856431827" lon="-6.617814973">
        <ele>554.00</ele>
        <time>1899-12-29T23:00:00Z</time>
      </trkpt>
      <trkpt lat="37.856360581" lon="-6.617727466">
        <ele>556.00</ele>
        <time>1899-12-29T23:00:00Z</time>
      </trkpt>
      <trkpt lat="37.856293693" lon="-6.617611125">
        <ele>558.00</ele>
        <time>1899-12-29T23:00:00Z</time>
      </trkpt>
      <trkpt lat="37.856329400" lon="-6.617494281">
        <ele>559.00</ele>
        <time>1899-12-29T23:00:00Z</time>
      </trkpt>
      <trkpt lat="37.856402155" lon="-6.617392190">
        <ele>561.00</ele>
        <time>1899-12-29T23:00:00Z</time>
      </trkpt>
      <trkpt lat="37.856464013" lon="-6.617292445">
        <ele>562.00</ele>
        <time>1899-12-29T23:00:00Z</time>
      </trkpt>
      <trkpt lat="37.856465857" lon="-6.617173087">
        <ele>563.00</ele>
        <time>1899-12-29T23:00:00Z</time>
      </trkpt>
      <trkpt lat="37.856365945" lon="-6.617214493">
        <ele>565.00</ele>
        <time>1899-12-29T23:00:00Z</time>
      </trkpt>
      <trkpt lat="37.856285144" lon="-6.617275514">
        <ele>566.00</ele>
        <time>1899-12-29T23:00:00Z</time>
      </trkpt>
      <trkpt lat="37.856189422" lon="-6.617319100">
        <ele>567.00</ele>
        <time>1899-12-29T23:00:00Z</time>
      </trkpt>
      <trkpt lat="37.856091689" lon="-6.617355812">
        <ele>568.00</ele>
        <time>1899-12-29T23:00:00Z</time>
      </trkpt>
      <trkpt lat="37.855976019" lon="-6.617363021">
        <ele>569.00</ele>
        <time>1899-12-29T23:00:00Z</time>
      </trkpt>
      <trkpt lat="37.855833024" lon="-6.617282722">
        <ele>569.00</ele>
        <time>1899-12-29T23:00:00Z</time>
      </trkpt>
      <trkpt lat="37.855586763" lon="-6.617108546">
        <ele>567.00</ele>
        <time>1899-12-29T23:00:00Z</time>
      </trkpt>
      <trkpt lat="37.855385430" lon="-6.616976112">
        <ele>566.00</ele>
        <time>1899-12-29T23:00:00Z</time>
      </trkpt>
      <trkpt lat="37.855271939" lon="-6.616885420">
        <ele>566.00</ele>
        <time>1899-12-29T23:00:00Z</time>
      </trkpt>
      <trkpt lat="37.855255175" lon="-6.616775617">
        <ele>565.00</ele>
        <time>1899-12-29T23:00:00Z</time>
      </trkpt>
      <trkpt lat="37.855298594" lon="-6.616614852">
        <ele>566.00</ele>
        <time>1899-12-29T23:00:00Z</time>
      </trkpt>
      <trkpt lat="37.855302449" lon="-6.616465654">
        <ele>566.00</ele>
        <time>1899-12-29T23:00:00Z</time>
      </trkpt>
      <trkpt lat="37.855189797" lon="-6.616342105">
        <ele>567.00</ele>
        <time>1899-12-29T23:00:00Z</time>
      </trkpt>
      <trkpt lat="37.855089381" lon="-6.616150327">
        <ele>567.00</ele>
        <time>1899-12-29T23:00:00Z</time>
      </trkpt>
      <trkpt lat="37.855068091" lon="-6.616032310">
        <ele>567.00</ele>
        <time>1899-12-29T23:00:00Z</time>
      </trkpt>
      <trkpt lat="37.855048981" lon="-6.615891997">
        <ele>567.00</ele>
        <time>1899-12-29T23:00:00Z</time>
      </trkpt>
      <trkpt lat="37.855084017" lon="-6.615670379">
        <ele>568.00</ele>
        <time>1899-12-29T23:00:00Z</time>
      </trkpt>
      <trkpt lat="37.855187114" lon="-6.615446080">
        <ele>568.00</ele>
        <time>1899-12-29T23:00:00Z</time>
      </trkpt>
      <trkpt lat="37.855348047" lon="-6.615092698">
        <ele>568.00</ele>
        <time>1899-12-29T23:00:00Z</time>
      </trkpt>
      <trkpt lat="37.855427507" lon="-6.614855155">
        <ele>569.00</ele>
        <time>1899-12-29T23:00:00Z</time>
      </trkpt>
      <trkpt lat="37.855488025" lon="-6.614543851">
        <ele>567.00</ele>
        <time>1899-12-29T23:00:00Z</time>
      </trkpt>
      <trkpt lat="37.855513673" lon="-6.614384763">
        <ele>566.00</ele>
        <time>1899-12-29T23:00:00Z</time>
      </trkpt>
      <trkpt lat="37.855559271" lon="-6.614209246">
        <ele>566.00</ele>
        <time>1899-12-29T23:00:00Z</time>
      </trkpt>
      <trkpt lat="37.855589278" lon="-6.614085026">
        <ele>565.00</ele>
        <time>1899-12-29T23:00:00Z</time>
      </trkpt>
      <trkpt lat="37.855636552" lon="-6.613856703">
        <ele>564.00</ele>
        <time>1899-12-29T23:00:00Z</time>
      </trkpt>
      <trkpt lat="37.855684832" lon="-6.613704655">
        <ele>564.00</ele>
        <time>1899-12-29T23:00:00Z</time>
      </trkpt>
      <trkpt lat="37.855740655" lon="-6.613445655">
        <ele>565.00</ele>
        <time>1899-12-29T23:00:00Z</time>
      </trkpt>
      <trkpt lat="37.855816428" lon="-6.613161676">
        <ele>566.00</ele>
        <time>1899-12-29T23:00:00Z</time>
      </trkpt>
      <trkpt lat="37.855913993" lon="-6.613006778">
        <ele>566.00</ele>
        <time>1899-12-29T23:00:00Z</time>
      </trkpt>
      <trkpt lat="37.855968140" lon="-6.612880547">
        <ele>566.00</ele>
        <time>1899-12-29T23:00:00Z</time>
      </trkpt>
      <trkpt lat="37.856026813" lon="-6.612724308">
        <ele>566.00</ele>
        <time>1899-12-29T23:00:00Z</time>
      </trkpt>
      <trkpt lat="37.856092863" lon="-6.612622049">
        <ele>567.00</ele>
        <time>1899-12-29T23:00:00Z</time>
      </trkpt>
      <trkpt lat="37.856272068" lon="-6.612436809">
        <ele>568.00</ele>
        <time>1899-12-29T23:00:00Z</time>
      </trkpt>
      <trkpt lat="37.856337447" lon="-6.612327173">
        <ele>568.00</ele>
        <time>1899-12-29T23:00:00Z</time>
      </trkpt>
      <trkpt lat="37.856384553" lon="-6.612226088">
        <ele>569.00</ele>
        <time>1899-12-29T23:00:00Z</time>
      </trkpt>
      <trkpt lat="37.856441885" lon="-6.612097006">
        <ele>570.00</ele>
        <time>1899-12-29T23:00:00Z</time>
      </trkpt>
      <trkpt lat="37.856512628" lon="-6.611732226">
        <ele>571.00</ele>
        <time>1899-12-29T23:00:00Z</time>
      </trkpt>
      <trkpt lat="37.856542468" lon="-6.611540448">
        <ele>572.00</ele>
        <time>1899-12-29T23:00:00Z</time>
      </trkpt>
      <trkpt lat="37.856560741" lon="-6.611344311">
        <ele>572.00</ele>
        <time>1899-12-29T23:00:00Z</time>
      </trkpt>
      <trkpt lat="37.856571134" lon="-6.611032169">
        <ele>572.00</ele>
        <time>1899-12-29T23:00:00Z</time>
      </trkpt>
      <trkpt lat="37.856665850" lon="-6.610816922">
        <ele>570.00</ele>
        <time>1899-12-29T23:00:00Z</time>
      </trkpt>
      <trkpt lat="37.856763918" lon="-6.610702761">
        <ele>571.00</ele>
        <time>1899-12-29T23:00:00Z</time>
      </trkpt>
      <trkpt lat="37.856822927" lon="-6.610583737">
        <ele>571.00</ele>
        <time>1899-12-29T23:00:00Z</time>
      </trkpt>
      <trkpt lat="37.856797446" lon="-6.610337142">
        <ele>572.00</ele>
        <time>1899-12-29T23:00:00Z</time>
      </trkpt>
      <trkpt lat="37.856755368" lon="-6.610068083">
        <ele>573.00</ele>
        <time>1899-12-29T23:00:00Z</time>
      </trkpt>
      <trkpt lat="37.856706083" lon="-6.609935816">
        <ele>573.00</ele>
        <time>1899-12-29T23:00:00Z</time>
      </trkpt>
      <trkpt lat="37.856630981" lon="-6.609717049">
        <ele>574.00</ele>
        <time>1899-12-29T23:00:00Z</time>
      </trkpt>
      <trkpt lat="37.856590580" lon="-6.609564666">
        <ele>575.00</ele>
        <time>1899-12-29T23:00:00Z</time>
      </trkpt>
      <trkpt lat="37.856553365" lon="-6.609421000">
        <ele>576.00</ele>
        <time>1899-12-29T23:00:00Z</time>
      </trkpt>
      <trkpt lat="37.856531739" lon="-6.609278340">
        <ele>577.00</ele>
        <time>1899-12-29T23:00:00Z</time>
      </trkpt>
      <trkpt lat="37.856498547" lon="-6.609053705">
        <ele>578.00</ele>
        <time>1899-12-29T23:00:00Z</time>
      </trkpt>
      <trkpt lat="37.856458314" lon="-6.608772241">
        <ele>578.00</ele>
        <time>1899-12-29T23:00:00Z</time>
      </trkpt>
      <trkpt lat="37.856484298" lon="-6.608577613">
        <ele>579.00</ele>
        <time>1899-12-29T23:00:00Z</time>
      </trkpt>
      <trkpt lat="37.856524196" lon="-6.608459428">
        <ele>580.00</ele>
        <time>1899-12-29T23:00:00Z</time>
      </trkpt>
      <trkpt lat="37.856596280" lon="-6.608285587">
        <ele>581.00</ele>
        <time>1899-12-29T23:00:00Z</time>
      </trkpt>
      <trkpt lat="37.856671382" lon="-6.608132534">
        <ele>582.00</ele>
        <time>1899-12-29T23:00:00Z</time>
      </trkpt>
      <trkpt lat="37.856763750" lon="-6.607974116">
        <ele>584.00</ele>
        <time>1899-12-29T23:00:00Z</time>
      </trkpt>
      <trkpt lat="37.856808007" lon="-6.607839502">
        <ele>585.00</ele>
        <time>1899-12-29T23:00:00Z</time>
      </trkpt>
      <trkpt lat="37.856776826" lon="-6.607550159">
        <ele>585.00</ele>
        <time>1899-12-29T23:00:00Z</time>
      </trkpt>
      <trkpt lat="37.856773306" lon="-6.607385371">
        <ele>587.00</ele>
        <time>1899-12-29T23:00:00Z</time>
      </trkpt>
      <trkpt lat="37.856771294" lon="-6.607243717">
        <ele>588.00</ele>
        <time>1899-12-29T23:00:00Z</time>
      </trkpt>
      <trkpt lat="37.856766265" lon="-6.607116479">
        <ele>589.00</ele>
        <time>1899-12-29T23:00:00Z</time>
      </trkpt>
      <trkpt lat="37.856757045" lon="-6.606970299">
        <ele>590.00</ele>
        <time>1899-12-29T23:00:00Z</time>
      </trkpt>
      <trkpt lat="37.856761571" lon="-6.606779024">
        <ele>591.00</ele>
        <time>1899-12-29T23:00:00Z</time>
      </trkpt>
      <trkpt lat="37.856790572" lon="-6.606573500">
        <ele>591.00</ele>
        <time>1899-12-29T23:00:00Z</time>
      </trkpt>
      <trkpt lat="37.856822256" lon="-6.606404856">
        <ele>590.00</ele>
        <time>1899-12-29T23:00:00Z</time>
      </trkpt>
      <trkpt lat="37.856798284" lon="-6.606160272">
        <ele>589.00</ele>
        <time>1899-12-29T23:00:00Z</time>
      </trkpt>
      <trkpt lat="37.856730893" lon="-6.606034376">
        <ele>588.00</ele>
        <time>1899-12-29T23:00:00Z</time>
      </trkpt>
      <trkpt lat="37.856656797" lon="-6.605922226">
        <ele>588.00</ele>
        <time>1899-12-29T23:00:00Z</time>
      </trkpt>
      <trkpt lat="37.856532745" lon="-6.605750062">
        <ele>589.00</ele>
        <time>1899-12-29T23:00:00Z</time>
      </trkpt>
      <trkpt lat="37.856458481" lon="-6.605649143">
        <ele>590.00</ele>
        <time>1899-12-29T23:00:00Z</time>
      </trkpt>
      <trkpt lat="37.856364269" lon="-6.605554260">
        <ele>591.00</ele>
        <time>1899-12-29T23:00:00Z</time>
      </trkpt>
      <trkpt lat="37.856238373" lon="-6.605442613">
        <ele>593.00</ele>
        <time>1899-12-29T23:00:00Z</time>
      </trkpt>
      <trkpt lat="37.856148351" lon="-6.605356615">
        <ele>595.00</ele>
        <time>1899-12-29T23:00:00Z</time>
      </trkpt>
      <trkpt lat="37.856067885" lon="-6.605295762">
        <ele>596.00</ele>
        <time>1899-12-29T23:00:00Z</time>
      </trkpt>
      <trkpt lat="37.855965961" lon="-6.605208423">
        <ele>598.00</ele>
        <time>1899-12-29T23:00:00Z</time>
      </trkpt>
      <trkpt lat="37.855794970" lon="-6.605117731">
        <ele>601.00</ele>
        <time>1899-12-29T23:00:00Z</time>
      </trkpt>
      <trkpt lat="37.855706792" lon="-6.605077330">
        <ele>602.00</ele>
        <time>1899-12-29T23:00:00Z</time>
      </trkpt>
      <trkpt lat="37.855622303" lon="-6.604974903">
        <ele>604.00</ele>
        <time>1899-12-29T23:00:00Z</time>
      </trkpt>
      <trkpt lat="37.855513338" lon="-6.604821011">
        <ele>606.00</ele>
        <time>1899-12-29T23:00:00Z</time>
      </trkpt>
      <trkpt lat="37.855470758" lon="-6.604706179">
        <ele>607.00</ele>
        <time>1899-12-29T23:00:00Z</time>
      </trkpt>
      <trkpt lat="37.855393812" lon="-6.604572907">
        <ele>607.00</ele>
        <time>1899-12-29T23:00:00Z</time>
      </trkpt>
      <trkpt lat="37.855312340" lon="-6.604491938">
        <ele>607.00</ele>
        <time>1899-12-29T23:00:00Z</time>
      </trkpt>
      <trkpt lat="37.855243273" lon="-6.604395546">
        <ele>606.00</ele>
        <time>1899-12-29T23:00:00Z</time>
      </trkpt>
      <trkpt lat="37.855223827" lon="-6.604235452">
        <ele>606.00</ele>
        <time>1899-12-29T23:00:00Z</time>
      </trkpt>
      <trkpt lat="37.855250482" lon="-6.603986342">
        <ele>605.00</ele>
        <time>1899-12-29T23:00:00Z</time>
      </trkpt>
      <trkpt lat="37.855276801" lon="-6.603784170">
        <ele>605.00</ele>
        <time>1899-12-29T23:00:00Z</time>
      </trkpt>
      <trkpt lat="37.855312172" lon="-6.603621561">
        <ele>606.00</ele>
        <time>1899-12-29T23:00:00Z</time>
      </trkpt>
      <trkpt lat="37.855354752" lon="-6.603515446">
        <ele>606.00</ele>
        <time>1899-12-29T23:00:00Z</time>
      </trkpt>
      <trkpt lat="37.855411582" lon="-6.603392232">
        <ele>606.00</ele>
        <time>1899-12-29T23:00:00Z</time>
      </trkpt>
      <trkpt lat="37.855493892" lon="-6.603140775">
        <ele>606.00</ele>
        <time>1899-12-29T23:00:00Z</time>
      </trkpt>
      <trkpt lat="37.855470590" lon="-6.602976993">
        <ele>606.00</ele>
        <time>1899-12-29T23:00:00Z</time>
      </trkpt>
      <trkpt lat="37.855366655" lon="-6.602790914">
        <ele>607.00</ele>
        <time>1899-12-29T23:00:00Z</time>
      </trkpt>
      <trkpt lat="37.855289876" lon="-6.602607016">
        <ele>609.00</ele>
        <time>1899-12-29T23:00:00Z</time>
      </trkpt>
      <trkpt lat="37.855201196" lon="-6.602336112">
        <ele>609.00</ele>
        <time>1899-12-29T23:00:00Z</time>
      </trkpt>
      <trkpt lat="37.855211087" lon="-6.602118853">
        <ele>610.00</ele>
        <time>1899-12-29T23:00:00Z</time>
      </trkpt>
      <trkpt lat="37.855252828" lon="-6.601971164">
        <ele>610.00</ele>
        <time>1899-12-29T23:00:00Z</time>
      </trkpt>
      <trkpt lat="37.855270095" lon="-6.601852477">
        <ele>610.00</ele>
        <time>1899-12-29T23:00:00Z</time>
      </trkpt>
      <trkpt lat="37.855217960" lon="-6.601644102">
        <ele>611.00</ele>
        <time>1899-12-29T23:00:00Z</time>
      </trkpt>
      <trkpt lat="37.855118550" lon="-6.601400357">
        <ele>612.00</ele>
        <time>1899-12-29T23:00:00Z</time>
      </trkpt>
      <trkpt lat="37.855052333" lon="-6.601232886">
        <ele>613.00</ele>
        <time>1899-12-29T23:00:00Z</time>
      </trkpt>
      <trkpt lat="37.854985278" lon="-6.600971036">
        <ele>614.00</ele>
        <time>1899-12-29T23:00:00Z</time>
      </trkpt>
      <trkpt lat="37.854957283" lon="-6.600782610">
        <ele>615.00</ele>
        <time>1899-12-29T23:00:00Z</time>
      </trkpt>
      <trkpt lat="37.854951750" lon="-6.600532494">
        <ele>616.00</ele>
        <time>1899-12-29T23:00:00Z</time>
      </trkpt>
      <trkpt lat="37.855009083" lon="-6.600287072">
        <ele>618.00</ele>
        <time>1899-12-29T23:00:00Z</time>
      </trkpt>
      <trkpt lat="37.855088878" lon="-6.600082889">
        <ele>619.00</ele>
        <time>1899-12-29T23:00:00Z</time>
      </trkpt>
      <trkpt lat="37.855156604" lon="-6.599951964">
        <ele>620.00</ele>
        <time>1899-12-29T23:00:00Z</time>
      </trkpt>
      <trkpt lat="37.855252828" lon="-6.599876862">
        <ele>621.00</ele>
        <time>1899-12-29T23:00:00Z</time>
      </trkpt>
      <trkpt lat="37.855390795" lon="-6.599888094">
        <ele>622.00</ele>
        <time>1899-12-29T23:00:00Z</time>
      </trkpt>
      <trkpt lat="37.855542842" lon="-6.599946599">
        <ele>623.00</ele>
        <time>1899-12-29T23:00:00Z</time>
      </trkpt>
      <trkpt lat="37.855674103" lon="-6.600010972">
        <ele>624.00</ele>
        <time>1899-12-29T23:00:00Z</time>
      </trkpt>
      <trkpt lat="37.855815925" lon="-6.600011140">
        <ele>624.00</ele>
        <time>1899-12-29T23:00:00Z</time>
      </trkpt>
      <trkpt lat="37.855983227" lon="-6.600028910">
        <ele>624.00</ele>
        <time>1899-12-29T23:00:00Z</time>
      </trkpt>
      <trkpt lat="37.856208868" lon="-6.600028574">
        <ele>623.00</ele>
        <time>1899-12-29T23:00:00Z</time>
      </trkpt>
      <trkpt lat="37.856334932" lon="-6.599988844">
        <ele>622.00</ele>
        <time>1899-12-29T23:00:00Z</time>
      </trkpt>
      <trkpt lat="37.856483459" lon="-6.599926818">
        <ele>621.00</ele>
        <time>1899-12-29T23:00:00Z</time>
      </trkpt>
      <trkpt lat="37.856579516" lon="-6.599889770">
        <ele>621.00</ele>
        <time>1899-12-29T23:00:00Z</time>
      </trkpt>
      <trkpt lat="37.856838349" lon="-6.599781644">
        <ele>621.00</ele>
        <time>1899-12-29T23:00:00Z</time>
      </trkpt>
      <trkpt lat="37.856943291" lon="-6.599698830">
        <ele>621.00</ele>
        <time>1899-12-29T23:00:00Z</time>
      </trkpt>
      <trkpt lat="37.857031636" lon="-6.599587686">
        <ele>621.00</ele>
        <time>1899-12-29T23:00:00Z</time>
      </trkpt>
      <trkpt lat="37.857261300" lon="-6.599275377">
        <ele>621.00</ele>
        <time>1899-12-29T23:00:00Z</time>
      </trkpt>
      <trkpt lat="37.857491132" lon="-6.599017885">
        <ele>620.00</ele>
        <time>1899-12-29T23:00:00Z</time>
      </trkpt>
      <trkpt lat="37.857563384" lon="-6.598925516">
        <ele>619.00</ele>
        <time>1899-12-29T23:00:00Z</time>
      </trkpt>
      <trkpt lat="37.857651561" lon="-6.598767601">
        <ele>619.00</ele>
        <time>1899-12-29T23:00:00Z</time>
      </trkpt>
      <trkpt lat="37.857728004" lon="-6.598680932">
        <ele>619.00</ele>
        <time>1899-12-29T23:00:00Z</time>
      </trkpt>
      <trkpt lat="37.857895978" lon="-6.598600298">
        <ele>619.00</ele>
        <time>1899-12-29T23:00:00Z</time>
      </trkpt>
      <trkpt lat="37.858044002" lon="-6.598508265">
        <ele>620.00</ele>
        <time>1899-12-29T23:00:00Z</time>
      </trkpt>
      <trkpt lat="37.858143244" lon="-6.598404832">
        <ele>619.00</ele>
        <time>1899-12-29T23:00:00Z</time>
      </trkpt>
      <trkpt lat="37.858408112" lon="-6.598036867">
        <ele>619.00</ele>
        <time>1899-12-29T23:00:00Z</time>
      </trkpt>
      <trkpt lat="37.858558819" lon="-6.597806700">
        <ele>620.00</ele>
        <time>1899-12-29T23:00:00Z</time>
      </trkpt>
      <trkpt lat="37.858632244" lon="-6.597698070">
        <ele>620.00</ele>
        <time>1899-12-29T23:00:00Z</time>
      </trkpt>
      <trkpt lat="37.858842798" lon="-6.597387772">
        <ele>619.00</ele>
        <time>1899-12-29T23:00:00Z</time>
      </trkpt>
      <trkpt lat="37.858949248" lon="-6.597130615">
        <ele>618.00</ele>
        <time>1899-12-29T23:00:00Z</time>
      </trkpt>
      <trkpt lat="37.859060224" lon="-6.596884020">
        <ele>617.00</ele>
        <time>1899-12-29T23:00:00Z</time>
      </trkpt>
      <trkpt lat="37.859174721" lon="-6.596635748">
        <ele>616.00</ele>
        <time>1899-12-29T23:00:00Z</time>
      </trkpt>
      <trkpt lat="37.859236915" lon="-6.596528627">
        <ele>617.00</ele>
        <time>1899-12-29T23:00:00Z</time>
      </trkpt>
      <trkpt lat="37.859359793" lon="-6.596341040">
        <ele>617.00</ele>
        <time>1899-12-29T23:00:00Z</time>
      </trkpt>
      <trkpt lat="37.859480828" lon="-6.596017163">
        <ele>616.00</ele>
        <time>1899-12-29T23:00:00Z</time>
      </trkpt>
      <trkpt lat="37.859507147" lon="-6.595754642">
        <ele>615.00</ele>
        <time>1899-12-29T23:00:00Z</time>
      </trkpt>
      <trkpt lat="37.859519217" lon="-6.595620364">
        <ele>615.00</ele>
        <time>1899-12-29T23:00:00Z</time>
      </trkpt>
      <trkpt lat="37.859537993" lon="-6.595414504">
        <ele>614.00</ele>
        <time>1899-12-29T23:00:00Z</time>
      </trkpt>
      <trkpt lat="37.859533802" lon="-6.595288608">
        <ele>615.00</ele>
        <time>1899-12-29T23:00:00Z</time>
      </trkpt>
      <trkpt lat="37.859593984" lon="-6.595091801">
        <ele>616.00</ele>
        <time>1899-12-29T23:00:00Z</time>
      </trkpt>
      <trkpt lat="37.859780230" lon="-6.594844032">
        <ele>616.00</ele>
        <time>1899-12-29T23:00:00Z</time>
      </trkpt>
      <trkpt lat="37.859925907" lon="-6.594824083">
        <ele>618.00</ele>
        <time>1899-12-29T23:00:00Z</time>
      </trkpt>
      <trkpt lat="37.860079296" lon="-6.594812181">
        <ele>619.00</ele>
        <time>1899-12-29T23:00:00Z</time>
      </trkpt>
      <trkpt lat="37.860229835" lon="-6.594770439">
        <ele>620.00</ele>
        <time>1899-12-29T23:00:00Z</time>
      </trkpt>
      <trkpt lat="37.860370483" lon="-6.594631635">
        <ele>620.00</ele>
        <time>1899-12-29T23:00:00Z</time>
      </trkpt>
      <trkpt lat="37.860430330" lon="-6.594500374">
        <ele>618.00</ele>
        <time>1899-12-29T23:00:00Z</time>
      </trkpt>
      <trkpt lat="37.860482298" lon="-6.594321337">
        <ele>618.00</ele>
        <time>1899-12-29T23:00:00Z</time>
      </trkpt>
      <trkpt lat="37.860585898" lon="-6.594150346">
        <ele>618.00</ele>
        <time>1899-12-29T23:00:00Z</time>
      </trkpt>
      <trkpt lat="37.860703580" lon="-6.594057810">
        <ele>619.00</ele>
        <time>1899-12-29T23:00:00Z</time>
      </trkpt>
      <trkpt lat="37.860878929" lon="-6.593815573">
        <ele>618.00</ele>
        <time>1899-12-29T23:00:00Z</time>
      </trkpt>
      <trkpt lat="37.861038521" lon="-6.593595129">
        <ele>619.00</ele>
        <time>1899-12-29T23:00:00Z</time>
      </trkpt>
      <trkpt lat="37.861039359" lon="-6.593447439">
        <ele>619.00</ele>
        <time>1899-12-29T23:00:00Z</time>
      </trkpt>
      <trkpt lat="37.861036174" lon="-6.593213249">
        <ele>619.00</ele>
        <time>1899-12-29T23:00:00Z</time>
      </trkpt>
      <trkpt lat="37.861022092" lon="-6.593093723">
        <ele>618.00</ele>
        <time>1899-12-29T23:00:00Z</time>
      </trkpt>
      <trkpt lat="37.861031145" lon="-6.592953410">
        <ele>616.00</ele>
        <time>1899-12-29T23:00:00Z</time>
      </trkpt>
      <trkpt lat="37.861046735" lon="-6.592723913">
        <ele>614.00</ele>
        <time>1899-12-29T23:00:00Z</time>
      </trkpt>
      <trkpt lat="37.861093003" lon="-6.592590306">
        <ele>613.00</ele>
        <time>1899-12-29T23:00:00Z</time>
      </trkpt>
      <trkpt lat="37.861152515" lon="-6.592463572">
        <ele>613.00</ele>
        <time>1899-12-29T23:00:00Z</time>
      </trkpt>
      <trkpt lat="37.861202806" lon="-6.592270788">
        <ele>612.00</ele>
        <time>1899-12-29T23:00:00Z</time>
      </trkpt>
      <trkpt lat="37.861202974" lon="-6.592101641">
        <ele>611.00</ele>
        <time>1899-12-29T23:00:00Z</time>
      </trkpt>
      <trkpt lat="37.861195430" lon="-6.591987982">
        <ele>610.00</ele>
        <time>1899-12-29T23:00:00Z</time>
      </trkpt>
      <trkpt lat="37.861199453" lon="-6.591870133">
        <ele>608.00</ele>
        <time>1899-12-29T23:00:00Z</time>
      </trkpt>
      <trkpt lat="37.861220744" lon="-6.591671817">
        <ele>606.00</ele>
        <time>1899-12-29T23:00:00Z</time>
      </trkpt>
      <trkpt lat="37.861244045" lon="-6.591551621">
        <ele>605.00</ele>
        <time>1899-12-29T23:00:00Z</time>
      </trkpt>
      <trkpt lat="37.861282602" lon="-6.591417007">
        <ele>603.00</ele>
        <time>1899-12-29T23:00:00Z</time>
      </trkpt>
      <trkpt lat="37.861307245" lon="-6.591294631">
        <ele>602.00</ele>
        <time>1899-12-29T23:00:00Z</time>
      </trkpt>
      <trkpt lat="37.861330882" lon="-6.591170412">
        <ele>600.00</ele>
        <time>1899-12-29T23:00:00Z</time>
      </trkpt>
      <trkpt lat="37.861353513" lon="-6.591046359">
        <ele>599.00</ele>
        <time>1899-12-29T23:00:00Z</time>
      </trkpt>
      <trkpt lat="37.861382347" lon="-6.590915769">
        <ele>597.00</ele>
        <time>1899-12-29T23:00:00Z</time>
      </trkpt>
      <trkpt lat="37.861409001" lon="-6.590784341">
        <ele>595.00</ele>
        <time>1899-12-29T23:00:00Z</time>
      </trkpt>
      <trkpt lat="37.861483768" lon="-6.590611003">
        <ele>593.00</ele>
        <time>1899-12-29T23:00:00Z</time>
      </trkpt>
      <trkpt lat="37.861554846" lon="-6.590456776">
        <ele>591.00</ele>
        <time>1899-12-29T23:00:00Z</time>
      </trkpt>
      <trkpt lat="37.861762382" lon="-6.590255108">
        <ele>590.00</ele>
        <time>1899-12-29T23:00:00Z</time>
      </trkpt>
      <trkpt lat="37.861827258" lon="-6.590163410">
        <ele>589.00</ele>
        <time>1899-12-29T23:00:00Z</time>
      </trkpt>
      <trkpt lat="37.861887775" lon="-6.590073556">
        <ele>588.00</ele>
        <time>1899-12-29T23:00:00Z</time>
      </trkpt>
      <trkpt lat="37.861999925" lon="-6.589920837">
        <ele>586.00</ele>
        <time>1899-12-29T23:00:00Z</time>
      </trkpt>
      <trkpt lat="37.862055581" lon="-6.589821428">
        <ele>585.00</ele>
        <time>1899-12-29T23:00:00Z</time>
      </trkpt>
      <trkpt lat="37.862075195" lon="-6.589646079">
        <ele>584.00</ele>
        <time>1899-12-29T23:00:00Z</time>
      </trkpt>
      <trkpt lat="37.862110399" lon="-6.589449774">
        <ele>583.00</ele>
        <time>1899-12-29T23:00:00Z</time>
      </trkpt>
      <trkpt lat="37.862129677" lon="-6.589336451">
        <ele>583.00</ele>
        <time>1899-12-29T23:00:00Z</time>
      </trkpt>
      <trkpt lat="37.862181645" lon="-6.589076277">
        <ele>581.00</ele>
        <time>1899-12-29T23:00:00Z</time>
      </trkpt>
      <trkpt lat="37.862219699" lon="-6.588834878">
        <ele>579.00</ele>
        <time>1899-12-29T23:00:00Z</time>
      </trkpt>
      <trkpt lat="37.862255573" lon="-6.588679310">
        <ele>578.00</ele>
        <time>1899-12-29T23:00:00Z</time>
      </trkpt>
      <trkpt lat="37.862269990" lon="-6.588484850">
        <ele>577.00</ele>
        <time>1899-12-29T23:00:00Z</time>
      </trkpt>
      <trkpt lat="37.862313241" lon="-6.588247810">
        <ele>577.00</ele>
        <time>1899-12-29T23:00:00Z</time>
      </trkpt>
      <trkpt lat="37.862369902" lon="-6.588032227">
        <ele>576.00</ele>
        <time>1899-12-29T23:00:00Z</time>
      </trkpt>
      <trkpt lat="37.862414829" lon="-6.587917227">
        <ele>576.00</ele>
        <time>1899-12-29T23:00:00Z</time>
      </trkpt>
      <trkpt lat="37.862485237" lon="-6.587795019">
        <ele>575.00</ele>
        <time>1899-12-29T23:00:00Z</time>
      </trkpt>
      <trkpt lat="37.862669472" lon="-6.587607097">
        <ele>574.00</ele>
        <time>1899-12-29T23:00:00Z</time>
      </trkpt>
      <trkpt lat="37.862774078" lon="-6.587453540">
        <ele>574.00</ele>
        <time>1899-12-29T23:00:00Z</time>
      </trkpt>
      <trkpt lat="37.862812802" lon="-6.587342899">
        <ele>573.00</ele>
        <time>1899-12-29T23:00:00Z</time>
      </trkpt>
      <trkpt lat="37.862817328" lon="-6.587169897">
        <ele>573.00</ele>
        <time>1899-12-29T23:00:00Z</time>
      </trkpt>
      <trkpt lat="37.862811126" lon="-6.587056071">
        <ele>572.00</ele>
        <time>1899-12-29T23:00:00Z</time>
      </trkpt>
      <trkpt lat="37.862830237" lon="-6.586879045">
        <ele>572.00</ele>
        <time>1899-12-29T23:00:00Z</time>
      </trkpt>
      <trkpt lat="37.862907518" lon="-6.586635970">
        <ele>571.00</ele>
        <time>1899-12-29T23:00:00Z</time>
      </trkpt>
      <trkpt lat="37.862995863" lon="-6.586451065">
        <ele>570.00</ele>
        <time>1899-12-29T23:00:00Z</time>
      </trkpt>
      <trkpt lat="37.863026205" lon="-6.586296670">
        <ele>570.00</ele>
        <time>1899-12-29T23:00:00Z</time>
      </trkpt>
      <trkpt lat="37.863066606" lon="-6.586141437">
        <ele>569.00</ele>
        <time>1899-12-29T23:00:00Z</time>
      </trkpt>
      <trkpt lat="37.863122094" lon="-6.586009171">
        <ele>569.00</ele>
        <time>1899-12-29T23:00:00Z</time>
      </trkpt>
      <trkpt lat="37.863244303" lon="-6.585851423">
        <ele>569.00</ele>
        <time>1899-12-29T23:00:00Z</time>
      </trkpt>
      <trkpt lat="37.863338683" lon="-6.585760564">
        <ele>568.00</ele>
        <time>1899-12-29T23:00:00Z</time>
      </trkpt>
      <trkpt lat="37.863480337" lon="-6.585663501">
        <ele>567.00</ele>
        <time>1899-12-29T23:00:00Z</time>
      </trkpt>
      <trkpt lat="37.863568850" lon="-6.585585047">
        <ele>565.00</ele>
        <time>1899-12-29T23:00:00Z</time>
      </trkpt>
      <trkpt lat="37.863661721" lon="-6.585477255">
        <ele>564.00</ele>
        <time>1899-12-29T23:00:00Z</time>
      </trkpt>
      <trkpt lat="37.863789126" lon="-6.585288998">
        <ele>563.00</ele>
        <time>1899-12-29T23:00:00Z</time>
      </trkpt>
      <trkpt lat="37.863868251" lon="-6.585154217">
        <ele>563.00</ele>
        <time>1899-12-29T23:00:00Z</time>
      </trkpt>
      <trkpt lat="37.864049301" lon="-6.584862024">
        <ele>563.00</ele>
        <time>1899-12-29T23:00:00Z</time>
      </trkpt>
      <trkpt lat="37.864215095" lon="-6.584548373">
        <ele>562.00</ele>
        <time>1899-12-29T23:00:00Z</time>
      </trkpt>
      <trkpt lat="37.864336129" lon="-6.584449802">
        <ele>561.00</ele>
        <time>1899-12-29T23:00:00Z</time>
      </trkpt>
      <trkpt lat="37.864430174" lon="-6.584445443">
        <ele>561.00</ele>
        <time>1899-12-29T23:00:00Z</time>
      </trkpt>
      <trkpt lat="37.864520028" lon="-6.584454663">
        <ele>561.00</ele>
        <time>1899-12-29T23:00:00Z</time>
      </trkpt>
      <trkpt lat="37.864679620" lon="-6.584438067">
        <ele>559.00</ele>
        <time>1899-12-29T23:00:00Z</time>
      </trkpt>
      <trkpt lat="37.864761595" lon="-6.584390793">
        <ele>558.00</ele>
        <time>1899-12-29T23:00:00Z</time>
      </trkpt>
      <trkpt lat="37.864810880" lon="-6.584290043">
        <ele>556.00</ele>
        <time>1899-12-29T23:00:00Z</time>
      </trkpt>
      <trkpt lat="37.864889167" lon="-6.584155932">
        <ele>554.00</ele>
        <time>1899-12-29T23:00:00Z</time>
      </trkpt>
      <trkpt lat="37.864928059" lon="-6.584038753">
        <ele>552.00</ele>
        <time>1899-12-29T23:00:00Z</time>
      </trkpt>
      <trkpt lat="37.864957396" lon="-6.583919562">
        <ele>551.00</ele>
        <time>1899-12-29T23:00:00Z</time>
      </trkpt>
      <trkpt lat="37.864969801" lon="-6.583796684">
        <ele>549.00</ele>
        <time>1899-12-29T23:00:00Z</time>
      </trkpt>
      <trkpt lat="37.864983547" lon="-6.583658885">
        <ele>548.00</ele>
        <time>1899-12-29T23:00:00Z</time>
      </trkpt>
      <trkpt lat="37.865067031" lon="-6.583433747">
        <ele>547.00</ele>
        <time>1899-12-29T23:00:00Z</time>
      </trkpt>
      <trkpt lat="37.865137607" lon="-6.583300307">
        <ele>547.00</ele>
        <time>1899-12-29T23:00:00Z</time>
      </trkpt>
      <trkpt lat="37.865222264" lon="-6.583152115">
        <ele>548.00</ele>
        <time>1899-12-29T23:00:00Z</time>
      </trkpt>
      <trkpt lat="37.865245901" lon="-6.582967546">
        <ele>549.00</ele>
        <time>1899-12-29T23:00:00Z</time>
      </trkpt>
      <trkpt lat="37.865260486" lon="-6.582642831">
        <ele>549.00</ele>
        <time>1899-12-29T23:00:00Z</time>
      </trkpt>
      <trkpt lat="37.865281776" lon="-6.582452059">
        <ele>550.00</ele>
        <time>1899-12-29T23:00:00Z</time>
      </trkpt>
      <trkpt lat="37.865301054" lon="-6.582340579">
        <ele>551.00</ele>
        <time>1899-12-29T23:00:00Z</time>
      </trkpt>
      <trkpt lat="37.865324859" lon="-6.582195237">
        <ele>552.00</ele>
        <time>1899-12-29T23:00:00Z</time>
      </trkpt>
      <trkpt lat="37.865342461" lon="-6.581995077">
        <ele>553.00</ele>
        <time>1899-12-29T23:00:00Z</time>
      </trkpt>
      <trkpt lat="37.865358219" lon="-6.581808999">
        <ele>553.00</ele>
        <time>1899-12-29T23:00:00Z</time>
      </trkpt>
      <trkpt lat="37.865376826" lon="-6.581578162">
        <ele>553.00</ele>
        <time>1899-12-29T23:00:00Z</time>
      </trkpt>
      <trkpt lat="37.865423262" lon="-6.581452768">
        <ele>553.00</ele>
        <time>1899-12-29T23:00:00Z</time>
      </trkpt>
      <trkpt lat="37.865488641" lon="-6.581364758">
        <ele>555.00</ele>
        <time>1899-12-29T23:00:00Z</time>
      </trkpt>
      <trkpt lat="37.865580674" lon="-6.581295021">
        <ele>556.00</ele>
        <time>1899-12-29T23:00:00Z</time>
      </trkpt>
      <trkpt lat="37.865718640" lon="-6.581234504">
        <ele>557.00</ele>
        <time>1899-12-29T23:00:00Z</time>
      </trkpt>
      <trkpt lat="37.865864486" lon="-6.581228804">
        <ele>556.00</ele>
        <time>1899-12-29T23:00:00Z</time>
      </trkpt>
      <trkpt lat="37.865975965" lon="-6.581246741">
        <ele>555.00</ele>
        <time>1899-12-29T23:00:00Z</time>
      </trkpt>
      <trkpt lat="37.866138071" lon="-6.581296865">
        <ele>554.00</ele>
        <time>1899-12-29T23:00:00Z</time>
      </trkpt>
      <trkpt lat="37.866236307" lon="-6.581311785">
        <ele>553.00</ele>
        <time>1899-12-29T23:00:00Z</time>
      </trkpt>
      <trkpt lat="37.866334375" lon="-6.581319999">
        <ele>552.00</ele>
        <time>1899-12-29T23:00:00Z</time>
      </trkpt>
      <trkpt lat="37.866439149" lon="-6.581316311">
        <ele>551.00</ele>
        <time>1899-12-29T23:00:00Z</time>
      </trkpt>
      <trkpt lat="37.866555825" lon="-6.581313461">
        <ele>550.00</ele>
        <time>1899-12-29T23:00:00Z</time>
      </trkpt>
      <trkpt lat="37.866672669" lon="-6.581282448">
        <ele>549.00</ele>
        <time>1899-12-29T23:00:00Z</time>
      </trkpt>
      <trkpt lat="37.866885737" lon="-6.581231821">
        <ele>547.00</ele>
        <time>1899-12-29T23:00:00Z</time>
      </trkpt>
      <trkpt lat="37.867024709" lon="-6.581176501">
        <ele>546.00</ele>
        <time>1899-12-29T23:00:00Z</time>
      </trkpt>
      <trkpt lat="37.867130823" lon="-6.581133921">
        <ele>545.00</ele>
        <time>1899-12-29T23:00:00Z</time>
      </trkpt>
      <trkpt lat="37.867293935" lon="-6.581058484">
        <ele>545.00</ele>
        <time>1899-12-29T23:00:00Z</time>
      </trkpt>
      <trkpt lat="37.867483366" lon="-6.580919847">
        <ele>546.00</ele>
        <time>1899-12-29T23:00:00Z</time>
      </trkpt>
      <trkpt lat="37.867704649" lon="-6.580786072">
        <ele>546.00</ele>
        <time>1899-12-29T23:00:00Z</time>
      </trkpt>
      <trkpt lat="37.867851499" lon="-6.580695044">
        <ele>547.00</ele>
        <time>1899-12-29T23:00:00Z</time>
      </trkpt>
      <trkpt lat="37.867844123" lon="-6.580568478">
        <ele>546.00</ele>
        <time>1899-12-29T23:00:00Z</time>
      </trkpt>
      <trkpt lat="37.867748905" lon="-6.580396984">
        <ele>545.00</ele>
        <time>1899-12-29T23:00:00Z</time>
      </trkpt>
      <trkpt lat="37.867651843" lon="-6.580250636">
        <ele>545.00</ele>
        <time>1899-12-29T23:00:00Z</time>
      </trkpt>
      <trkpt lat="37.867534999" lon="-6.580070425">
        <ele>545.00</ele>
        <time>1899-12-29T23:00:00Z</time>
      </trkpt>
      <trkpt lat="37.867449168" lon="-6.579898596">
        <ele>547.00</ele>
        <time>1899-12-29T23:00:00Z</time>
      </trkpt>
      <trkpt lat="37.867380939" lon="-6.579773203">
        <ele>548.00</ele>
        <time>1899-12-29T23:00:00Z</time>
      </trkpt>
      <trkpt lat="37.867248505" lon="-6.579571031">
        <ele>549.00</ele>
        <time>1899-12-29T23:00:00Z</time>
      </trkpt>
      <trkpt lat="37.867181282" lon="-6.579470448">
        <ele>549.00</ele>
        <time>1899-12-29T23:00:00Z</time>
      </trkpt>
      <trkpt lat="37.867052369" lon="-6.579237599">
        <ele>547.00</ele>
        <time>1899-12-29T23:00:00Z</time>
      </trkpt>
      <trkpt lat="37.866943404" lon="-6.579049677">
        <ele>546.00</ele>
        <time>1899-12-29T23:00:00Z</time>
      </trkpt>
      <trkpt lat="37.866861261" lon="-6.578894109">
        <ele>544.00</ele>
        <time>1899-12-29T23:00:00Z</time>
      </trkpt>
      <trkpt lat="37.866715416" lon="-6.578639802">
        <ele>542.00</ele>
        <time>1899-12-29T23:00:00Z</time>
      </trkpt>
      <trkpt lat="37.866555993" lon="-6.578356326">
        <ele>540.00</ele>
        <time>1899-12-29T23:00:00Z</time>
      </trkpt>
      <trkpt lat="37.866387852" lon="-6.578064300">
        <ele>538.00</ele>
        <time>1899-12-29T23:00:00Z</time>
      </trkpt>
      <trkpt lat="37.866331525" lon="-6.577967238">
        <ele>538.00</ele>
        <time>1899-12-29T23:00:00Z</time>
      </trkpt>
      <trkpt lat="37.866224237" lon="-6.577770934">
        <ele>537.00</ele>
        <time>1899-12-29T23:00:00Z</time>
      </trkpt>
      <trkpt lat="37.866113763" lon="-6.577574462">
        <ele>536.00</ele>
        <time>1899-12-29T23:00:00Z</time>
      </trkpt>
      <trkpt lat="37.866007145" lon="-6.577386707">
        <ele>535.00</ele>
        <time>1899-12-29T23:00:00Z</time>
      </trkpt>
      <trkpt lat="37.865857780" lon="-6.577122845">
        <ele>535.00</ele>
        <time>1899-12-29T23:00:00Z</time>
      </trkpt>
      <trkpt lat="37.865759544" lon="-6.576959901">
        <ele>534.00</ele>
        <time>1899-12-29T23:00:00Z</time>
      </trkpt>
      <trkpt lat="37.865494173" lon="-6.576503590">
        <ele>533.00</ele>
        <time>1899-12-29T23:00:00Z</time>
      </trkpt>
      <trkpt lat="37.865251601" lon="-6.576077621">
        <ele>532.00</ele>
        <time>1899-12-29T23:00:00Z</time>
      </trkpt>
      <trkpt lat="37.864889838" lon="-6.575416289">
        <ele>531.00</ele>
        <time>1899-12-29T23:00:00Z</time>
      </trkpt>
      <trkpt lat="37.864654809" lon="-6.574960481">
        <ele>530.00</ele>
        <time>1899-12-29T23:00:00Z</time>
      </trkpt>
      <trkpt lat="37.864592783" lon="-6.574793682">
        <ele>529.00</ele>
        <time>1899-12-29T23:00:00Z</time>
      </trkpt>
      <trkpt lat="37.864441238" lon="-6.574356984">
        <ele>529.00</ele>
        <time>1899-12-29T23:00:00Z</time>
      </trkpt>
      <trkpt lat="37.864187099" lon="-6.573651563">
        <ele>528.00</ele>
        <time>1899-12-29T23:00:00Z</time>
      </trkpt>
      <trkpt lat="37.863954417" lon="-6.572993584">
        <ele>527.00</ele>
        <time>1899-12-29T23:00:00Z</time>
      </trkpt>
      <trkpt lat="37.863763310" lon="-6.572423615">
        <ele>526.00</ele>
        <time>1899-12-29T23:00:00Z</time>
      </trkpt>
      <trkpt lat="37.863612436" lon="-6.572004687">
        <ele>526.00</ele>
        <time>1899-12-29T23:00:00Z</time>
      </trkpt>
      <trkpt lat="37.863539681" lon="-6.571785416">
        <ele>526.00</ele>
        <time>1899-12-29T23:00:00Z</time>
      </trkpt>
      <trkpt lat="37.863473296" lon="-6.571627669">
        <ele>526.00</ele>
        <time>1899-12-29T23:00:00Z</time>
      </trkpt>
      <trkpt lat="37.863395177" lon="-6.571378224">
        <ele>525.00</ele>
        <time>1899-12-29T23:00:00Z</time>
      </trkpt>
      <trkpt lat="37.863270957" lon="-6.570991483">
        <ele>525.00</ele>
        <time>1899-12-29T23:00:00Z</time>
      </trkpt>
      <trkpt lat="37.863206584" lon="-6.570802722">
        <ele>525.00</ele>
        <time>1899-12-29T23:00:00Z</time>
      </trkpt>
      <trkpt lat="37.863088232" lon="-6.570511200">
        <ele>525.00</ele>
        <time>1899-12-29T23:00:00Z</time>
      </trkpt>
      <trkpt lat="37.862962335" lon="-6.570161842">
        <ele>524.00</ele>
        <time>1899-12-29T23:00:00Z</time>
      </trkpt>
      <trkpt lat="37.862847336" lon="-6.569950785">
        <ele>524.00</ele>
        <time>1899-12-29T23:00:00Z</time>
      </trkpt>
      <trkpt lat="37.862761673" lon="-6.569871493">
        <ele>524.00</ele>
        <time>1899-12-29T23:00:00Z</time>
      </trkpt>
      <trkpt lat="37.862475179" lon="-6.569600590">
        <ele>523.00</ele>
        <time>1899-12-29T23:00:00Z</time>
      </trkpt>
      <trkpt lat="37.862275857" lon="-6.569502689">
        <ele>523.00</ele>
        <time>1899-12-29T23:00:00Z</time>
      </trkpt>
      <trkpt lat="37.862170581" lon="-6.569475532">
        <ele>523.00</ele>
        <time>1899-12-29T23:00:00Z</time>
      </trkpt>
      <trkpt lat="37.861812841" lon="-6.569379643">
        <ele>523.00</ele>
        <time>1899-12-29T23:00:00Z</time>
      </trkpt>
      <trkpt lat="37.861654256" lon="-6.569219045">
        <ele>523.00</ele>
        <time>1899-12-29T23:00:00Z</time>
      </trkpt>
      <trkpt lat="37.861437667" lon="-6.569027267">
        <ele>523.00</ele>
        <time>1899-12-29T23:00:00Z</time>
      </trkpt>
      <trkpt lat="37.861253098" lon="-6.568912603">
        <ele>522.00</ele>
        <time>1899-12-29T23:00:00Z</time>
      </trkpt>
      <trkpt lat="37.861088477" lon="-6.568637509">
        <ele>522.00</ele>
        <time>1899-12-29T23:00:00Z</time>
      </trkpt>
      <trkpt lat="37.861051261" lon="-6.568373479">
        <ele>522.00</ele>
        <time>1899-12-29T23:00:00Z</time>
      </trkpt>
      <trkpt lat="37.861077748" lon="-6.568128560">
        <ele>522.00</ele>
        <time>1899-12-29T23:00:00Z</time>
      </trkpt>
      <trkpt lat="37.861097865" lon="-6.568007357">
        <ele>522.00</ele>
        <time>1899-12-29T23:00:00Z</time>
      </trkpt>
      <trkpt lat="37.861124687" lon="-6.567761265">
        <ele>523.00</ele>
        <time>1899-12-29T23:00:00Z</time>
      </trkpt>
      <trkpt lat="37.861119658" lon="-6.567475777">
        <ele>522.00</ele>
        <time>1899-12-29T23:00:00Z</time>
      </trkpt>
      <trkpt lat="37.861107588" lon="-6.567337811">
        <ele>521.00</ele>
        <time>1899-12-29T23:00:00Z</time>
      </trkpt>
      <trkpt lat="37.861079928" lon="-6.567038409">
        <ele>520.00</ele>
        <time>1899-12-29T23:00:00Z</time>
      </trkpt>
      <trkpt lat="37.861082777" lon="-6.566838082">
        <ele>521.00</ele>
        <time>1899-12-29T23:00:00Z</time>
      </trkpt>
      <trkpt lat="37.861110102" lon="-6.566673294">
        <ele>521.00</ele>
        <time>1899-12-29T23:00:00Z</time>
      </trkpt>
      <trkpt lat="37.861132398" lon="-6.566540357">
        <ele>522.00</ele>
        <time>1899-12-29T23:00:00Z</time>
      </trkpt>
      <trkpt lat="37.861142289" lon="-6.566426363">
        <ele>524.00</ele>
        <time>1899-12-29T23:00:00Z</time>
      </trkpt>
      <trkpt lat="37.861047070" lon="-6.566375401">
        <ele>524.00</ele>
        <time>1899-12-29T23:00:00Z</time>
      </trkpt>
      <trkpt lat="37.860861160" lon="-6.566282529">
        <ele>524.00</ele>
        <time>1899-12-29T23:00:00Z</time>
      </trkpt>
      <trkpt lat="37.860744987" lon="-6.566202398">
        <ele>524.00</ele>
        <time>1899-12-29T23:00:00Z</time>
      </trkpt>
      <trkpt lat="37.860558070" lon="-6.566048507">
        <ele>525.00</ele>
        <time>1899-12-29T23:00:00Z</time>
      </trkpt>
      <trkpt lat="37.860371154" lon="-6.565880869">
        <ele>525.00</ele>
        <time>1899-12-29T23:00:00Z</time>
      </trkpt>
      <trkpt lat="37.860285155" lon="-6.565780956">
        <ele>525.00</ele>
        <time>1899-12-29T23:00:00Z</time>
      </trkpt>
      <trkpt lat="37.860172000" lon="-6.565631088">
        <ele>526.00</ele>
        <time>1899-12-29T23:00:00Z</time>
      </trkpt>
      <trkpt lat="37.860040404" lon="-6.565433107">
        <ele>527.00</ele>
        <time>1899-12-29T23:00:00Z</time>
      </trkpt>
      <trkpt lat="37.859952562" lon="-6.565260608">
        <ele>527.00</ele>
        <time>1899-12-29T23:00:00Z</time>
      </trkpt>
      <trkpt lat="37.859805040" lon="-6.564894821">
        <ele>529.00</ele>
        <time>1899-12-29T23:00:00Z</time>
      </trkpt>
      <trkpt lat="37.859742176" lon="-6.564663146">
        <ele>530.00</ele>
        <time>1899-12-29T23:00:00Z</time>
      </trkpt>
      <trkpt lat="37.859694902" lon="-6.564493999">
        <ele>531.00</ele>
        <time>1899-12-29T23:00:00Z</time>
      </trkpt>
      <trkpt lat="37.859660368" lon="-6.564362738">
        <ele>532.00</ele>
        <time>1899-12-29T23:00:00Z</time>
      </trkpt>
      <trkpt lat="37.859594319" lon="-6.564101893">
        <ele>533.00</ele>
        <time>1899-12-29T23:00:00Z</time>
      </trkpt>
      <trkpt lat="37.859528437" lon="-6.563847922">
        <ele>534.00</ele>
        <time>1899-12-29T23:00:00Z</time>
      </trkpt>
      <trkpt lat="37.859470770" lon="-6.563641392">
        <ele>535.00</ele>
        <time>1899-12-29T23:00:00Z</time>
      </trkpt>
      <trkpt lat="37.859396506" lon="-6.563417595">
        <ele>536.00</ele>
        <time>1899-12-29T23:00:00Z</time>
      </trkpt>
      <trkpt lat="37.859312687" lon="-6.563201845">
        <ele>538.00</ele>
        <time>1899-12-29T23:00:00Z</time>
      </trkpt>
      <trkpt lat="37.859202549" lon="-6.562956758">
        <ele>539.00</ele>
        <time>1899-12-29T23:00:00Z</time>
      </trkpt>
      <trkpt lat="37.859115712" lon="-6.562793311">
        <ele>540.00</ele>
        <time>1899-12-29T23:00:00Z</time>
      </trkpt>
      <trkpt lat="37.859002389" lon="-6.562589128">
        <ele>541.00</ele>
        <time>1899-12-29T23:00:00Z</time>
      </trkpt>
      <trkpt lat="37.858923264" lon="-6.562460884">
        <ele>542.00</ele>
        <time>1899-12-29T23:00:00Z</time>
      </trkpt>
      <trkpt lat="37.858769372" lon="-6.562254690">
        <ele>543.00</ele>
        <time>1899-12-29T23:00:00Z</time>
      </trkpt>
      <trkpt lat="37.858620677" lon="-6.562098451">
        <ele>544.00</ele>
        <time>1899-12-29T23:00:00Z</time>
      </trkpt>
      <trkpt lat="37.858510204" lon="-6.562003735">
        <ele>545.00</ele>
        <time>1899-12-29T23:00:00Z</time>
      </trkpt>
      <trkpt lat="37.858323455" lon="-6.561850011">
        <ele>547.00</ele>
        <time>1899-12-29T23:00:00Z</time>
      </trkpt>
      <trkpt lat="37.858234607" lon="-6.561798044">
        <ele>547.00</ele>
        <time>1899-12-29T23:00:00Z</time>
      </trkpt>
      <trkpt lat="37.858143076" lon="-6.561744567">
        <ele>548.00</ele>
        <time>1899-12-29T23:00:00Z</time>
      </trkpt>
      <trkpt lat="37.857987341" lon="-6.561689917">
        <ele>548.00</ele>
        <time>1899-12-29T23:00:00Z</time>
      </trkpt>
      <trkpt lat="37.857791539" lon="-6.561645493">
        <ele>550.00</ele>
        <time>1899-12-29T23:00:00Z</time>
      </trkpt>
      <trkpt lat="37.857628763" lon="-6.561641805">
        <ele>550.00</ele>
        <time>1899-12-29T23:00:00Z</time>
      </trkpt>
      <trkpt lat="37.857368253" lon="-6.561701987">
        <ele>552.00</ele>
        <time>1899-12-29T23:00:00Z</time>
      </trkpt>
      <trkpt lat="37.857109252" lon="-6.561842300">
        <ele>553.00</ele>
        <time>1899-12-29T23:00:00Z</time>
      </trkpt>
      <trkpt lat="37.856860477" lon="-6.562120076">
        <ele>554.00</ele>
        <time>1899-12-29T23:00:00Z</time>
      </trkpt>
      <trkpt lat="37.856767271" lon="-6.562278494">
        <ele>555.00</ele>
        <time>1899-12-29T23:00:00Z</time>
      </trkpt>
      <trkpt lat="37.856689990" lon="-6.562472954">
        <ele>555.00</ele>
        <time>1899-12-29T23:00:00Z</time>
      </trkpt>
      <trkpt lat="37.856593262" lon="-6.562732458">
        <ele>555.00</ele>
        <time>1899-12-29T23:00:00Z</time>
      </trkpt>
      <trkpt lat="37.856535930" lon="-6.562896743">
        <ele>555.00</ele>
        <time>1899-12-29T23:00:00Z</time>
      </trkpt>
      <trkpt lat="37.856384888" lon="-6.563314665">
        <ele>555.00</ele>
        <time>1899-12-29T23:00:00Z</time>
      </trkpt>
      <trkpt lat="37.856169976" lon="-6.563686319">
        <ele>555.00</ele>
        <time>1899-12-29T23:00:00Z</time>
      </trkpt>
      <trkpt lat="37.855858002" lon="-6.564046573">
        <ele>556.00</ele>
        <time>1899-12-29T23:00:00Z</time>
      </trkpt>
      <trkpt lat="37.855465561" lon="-6.564438678">
        <ele>556.00</ele>
        <time>1899-12-29T23:00:00Z</time>
      </trkpt>
      <trkpt lat="37.855139170" lon="-6.564874873">
        <ele>556.00</ele>
        <time>1899-12-29T23:00:00Z</time>
      </trkpt>
      <trkpt lat="37.854986787" lon="-6.565218195">
        <ele>556.00</ele>
        <time>1899-12-29T23:00:00Z</time>
      </trkpt>
      <trkpt lat="37.854850665" lon="-6.565724462">
        <ele>556.00</ele>
        <time>1899-12-29T23:00:00Z</time>
      </trkpt>
      <trkpt lat="37.854794506" lon="-6.566052530">
        <ele>556.00</ele>
        <time>1899-12-29T23:00:00Z</time>
      </trkpt>
      <trkpt lat="37.854747400" lon="-6.566389818">
        <ele>556.00</ele>
        <time>1899-12-29T23:00:00Z</time>
      </trkpt>
      <trkpt lat="37.854654025" lon="-6.566984262">
        <ele>557.00</ele>
        <time>1899-12-29T23:00:00Z</time>
      </trkpt>
      <trkpt lat="37.854558304" lon="-6.567505449">
        <ele>557.00</ele>
        <time>1899-12-29T23:00:00Z</time>
      </trkpt>
      <trkpt lat="37.854529973" lon="-6.567632016">
        <ele>557.00</ele>
        <time>1899-12-29T23:00:00Z</time>
      </trkpt>
      <trkpt lat="37.854448669" lon="-6.568020266">
        <ele>557.00</ele>
        <time>1899-12-29T23:00:00Z</time>
      </trkpt>
      <trkpt lat="37.854388654" lon="-6.568273231">
        <ele>557.00</ele>
        <time>1899-12-29T23:00:00Z</time>
      </trkpt>
      <trkpt lat="37.854218166" lon="-6.568919979">
        <ele>557.00</ele>
        <time>1899-12-29T23:00:00Z</time>
      </trkpt>
      <trkpt lat="37.854055557" lon="-6.569435298">
        <ele>557.00</ele>
        <time>1899-12-29T23:00:00Z</time>
      </trkpt>
      <trkpt lat="37.853823379" lon="-6.570061930">
        <ele>558.00</ele>
        <time>1899-12-29T23:00:00Z</time>
      </trkpt>
      <trkpt lat="37.853562031" lon="-6.570666097">
        <ele>558.00</ele>
        <time>1899-12-29T23:00:00Z</time>
      </trkpt>
      <trkpt lat="37.853336893" lon="-6.571128108">
        <ele>558.00</ele>
        <time>1899-12-29T23:00:00Z</time>
      </trkpt>
      <trkpt lat="37.853004634" lon="-6.571717858">
        <ele>558.00</ele>
        <time>1899-12-29T23:00:00Z</time>
      </trkpt>
      <trkpt lat="37.852785699" lon="-6.572057493">
        <ele>558.00</ele>
        <time>1899-12-29T23:00:00Z</time>
      </trkpt>
      <trkpt lat="37.852601297" lon="-6.572350357">
        <ele>558.00</ele>
        <time>1899-12-29T23:00:00Z</time>
      </trkpt>
      <trkpt lat="37.852372639" lon="-6.572638024">
        <ele>558.00</ele>
        <time>1899-12-29T23:00:00Z</time>
      </trkpt>
      <trkpt lat="37.852128390" lon="-6.572921500">
        <ele>558.00</ele>
        <time>1899-12-29T23:00:00Z</time>
      </trkpt>
      <trkpt lat="37.851841897" lon="-6.573199444">
        <ele>557.00</ele>
        <time>1899-12-29T23:00:00Z</time>
      </trkpt>
      <trkpt lat="37.851595972" lon="-6.573392898">
        <ele>557.00</ele>
        <time>1899-12-29T23:00:00Z</time>
      </trkpt>
      <trkpt lat="37.851465549" lon="-6.573483590">
        <ele>557.00</ele>
        <time>1899-12-29T23:00:00Z</time>
      </trkpt>
      <trkpt lat="37.851006221" lon="-6.573739741">
        <ele>557.00</ele>
        <time>1899-12-29T23:00:00Z</time>
      </trkpt>
      <trkpt lat="37.850558627" lon="-6.573892292">
        <ele>556.00</ele>
        <time>1899-12-29T23:00:00Z</time>
      </trkpt>
      <trkpt lat="37.850114051" lon="-6.573952138">
        <ele>556.00</ele>
        <time>1899-12-29T23:00:00Z</time>
      </trkpt>
      <trkpt lat="37.849710044" lon="-6.573919784">
        <ele>556.00</ele>
        <time>1899-12-29T23:00:00Z</time>
      </trkpt>
      <trkpt lat="37.849615496" lon="-6.573902015">
        <ele>556.00</ele>
        <time>1899-12-29T23:00:00Z</time>
      </trkpt>
      <trkpt lat="37.849335875" lon="-6.573822554">
        <ele>555.00</ele>
        <time>1899-12-29T23:00:00Z</time>
      </trkpt>
      <trkpt lat="37.849247530" lon="-6.573784333">
        <ele>555.00</ele>
        <time>1899-12-29T23:00:00Z</time>
      </trkpt>
      <trkpt lat="37.849081066" lon="-6.573729347">
        <ele>555.00</ele>
        <time>1899-12-29T23:00:00Z</time>
      </trkpt>
      <trkpt lat="37.848926503" lon="-6.573681571">
        <ele>555.00</ele>
        <time>1899-12-29T23:00:00Z</time>
      </trkpt>
      <trkpt lat="37.848499697" lon="-6.573581155">
        <ele>555.00</ele>
        <time>1899-12-29T23:00:00Z</time>
      </trkpt>
      <trkpt lat="37.848401964" lon="-6.573570091">
        <ele>556.00</ele>
        <time>1899-12-29T23:00:00Z</time>
      </trkpt>
      <trkpt lat="37.848276403" lon="-6.573571097">
        <ele>556.00</ele>
        <time>1899-12-29T23:00:00Z</time>
      </trkpt>
      <trkpt lat="37.847967781" lon="-6.573613007">
        <ele>556.00</ele>
        <time>1899-12-29T23:00:00Z</time>
      </trkpt>
      <trkpt lat="37.847851608" lon="-6.573651228">
        <ele>556.00</ele>
        <time>1899-12-29T23:00:00Z</time>
      </trkpt>
      <trkpt lat="37.847691011" lon="-6.573713925">
        <ele>556.00</ele>
        <time>1899-12-29T23:00:00Z</time>
      </trkpt>
      <trkpt lat="37.847383060" lon="-6.573904529">
        <ele>557.00</ele>
        <time>1899-12-29T23:00:00Z</time>
      </trkpt>
      <trkpt lat="37.847237047" lon="-6.574032102">
        <ele>557.00</ele>
        <time>1899-12-29T23:00:00Z</time>
      </trkpt>
      <trkpt lat="37.847072762" lon="-6.574212648">
        <ele>558.00</ele>
        <time>1899-12-29T23:00:00Z</time>
      </trkpt>
      <trkpt lat="37.846862543" lon="-6.574497968">
        <ele>558.00</ele>
        <time>1899-12-29T23:00:00Z</time>
      </trkpt>
      <trkpt lat="37.846532464" lon="-6.574995685">
        <ele>559.00</ele>
        <time>1899-12-29T23:00:00Z</time>
      </trkpt>
      <trkpt lat="37.846413441" lon="-6.575156115">
        <ele>559.00</ele>
        <time>1899-12-29T23:00:00Z</time>
      </trkpt>
      <trkpt lat="37.846280336" lon="-6.575308666">
        <ele>559.00</ele>
        <time>1899-12-29T23:00:00Z</time>
      </trkpt>
      <trkpt lat="37.845946401" lon="-6.575582754">
        <ele>560.00</ele>
        <time>1899-12-29T23:00:00Z</time>
      </trkpt>
      <trkpt lat="37.845548261" lon="-6.575768329">
        <ele>560.00</ele>
        <time>1899-12-29T23:00:00Z</time>
      </trkpt>
      <trkpt lat="37.845268976" lon="-6.575847287">
        <ele>560.00</ele>
        <time>1899-12-29T23:00:00Z</time>
      </trkpt>
      <trkpt lat="37.845096309" lon="-6.575881150">
        <ele>560.00</ele>
        <time>1899-12-29T23:00:00Z</time>
      </trkpt>
      <trkpt lat="37.844582498" lon="-6.576000843">
        <ele>560.00</ele>
        <time>1899-12-29T23:00:00Z</time>
      </trkpt>
      <trkpt lat="37.844007500" lon="-6.576125063">
        <ele>561.00</ele>
        <time>1899-12-29T23:00:00Z</time>
      </trkpt>
      <trkpt lat="37.843814213" lon="-6.576165128">
        <ele>561.00</ele>
        <time>1899-12-29T23:00:00Z</time>
      </trkpt>
      <trkpt lat="37.843269389" lon="-6.576277781">
        <ele>560.00</ele>
        <time>1899-12-29T23:00:00Z</time>
      </trkpt>
      <trkpt lat="37.842660360" lon="-6.576407030">
        <ele>560.00</ele>
        <time>1899-12-29T23:00:00Z</time>
      </trkpt>
      <trkpt lat="37.842181753" lon="-6.576467883">
        <ele>560.00</ele>
        <time>1899-12-29T23:00:00Z</time>
      </trkpt>
      <trkpt lat="37.841747738" lon="-6.576438881">
        <ele>560.00</ele>
        <time>1899-12-29T23:00:00Z</time>
      </trkpt>
      <trkpt lat="37.841301989" lon="-6.576251127">
        <ele>559.00</ele>
        <time>1899-12-29T23:00:00Z</time>
      </trkpt>
      <trkpt lat="37.841031589" lon="-6.576059517">
        <ele>559.00</ele>
        <time>1899-12-29T23:00:00Z</time>
      </trkpt>
      <trkpt lat="37.840898652" lon="-6.575938817">
        <ele>558.00</ele>
        <time>1899-12-29T23:00:00Z</time>
      </trkpt>
      <trkpt lat="37.840491123" lon="-6.575530283">
        <ele>557.00</ele>
        <time>1899-12-29T23:00:00Z</time>
      </trkpt>
      <trkpt lat="37.840350643" lon="-6.575388294">
        <ele>556.00</ele>
        <time>1899-12-29T23:00:00Z</time>
      </trkpt>
      <trkpt lat="37.840208486" lon="-6.575248316">
        <ele>556.00</ele>
        <time>1899-12-29T23:00:00Z</time>
      </trkpt>
      <trkpt lat="37.839782853" lon="-6.574824192">
        <ele>554.00</ele>
        <time>1899-12-29T23:00:00Z</time>
      </trkpt>
      <trkpt lat="37.839576323" lon="-6.574619338">
        <ele>553.00</ele>
        <time>1899-12-29T23:00:00Z</time>
      </trkpt>
      <trkpt lat="37.839367446" lon="-6.574406773">
        <ele>552.00</ele>
        <time>1899-12-29T23:00:00Z</time>
      </trkpt>
      <trkpt lat="37.839223780" lon="-6.574257910">
        <ele>551.00</ele>
        <time>1899-12-29T23:00:00Z</time>
      </trkpt>
      <trkpt lat="37.839075252" lon="-6.574110724">
        <ele>550.00</ele>
        <time>1899-12-29T23:00:00Z</time>
      </trkpt>
      <trkpt lat="37.838710975" lon="-6.573707387">
        <ele>548.00</ele>
        <time>1899-12-29T23:00:00Z</time>
      </trkpt>
      <trkpt lat="37.838562112" lon="-6.573525667">
        <ele>547.00</ele>
        <time>1899-12-29T23:00:00Z</time>
      </trkpt>
      <trkpt lat="37.838418446" lon="-6.573323831">
        <ele>546.00</ele>
        <time>1899-12-29T23:00:00Z</time>
      </trkpt>
      <trkpt lat="37.838276960" lon="-6.573118307">
        <ele>545.00</ele>
        <time>1899-12-29T23:00:00Z</time>
      </trkpt>
      <trkpt lat="37.838134635" lon="-6.572911106">
        <ele>544.00</ele>
        <time>1899-12-29T23:00:00Z</time>
      </trkpt>
      <trkpt lat="37.837992478" lon="-6.572699882">
        <ele>543.00</ele>
        <time>1899-12-29T23:00:00Z</time>
      </trkpt>
      <trkpt lat="37.837779075" lon="-6.572391931">
        <ele>542.00</ele>
        <time>1899-12-29T23:00:00Z</time>
      </trkpt>
      <trkpt lat="37.837642115" lon="-6.572184730">
        <ele>541.00</ele>
        <time>1899-12-29T23:00:00Z</time>
      </trkpt>
      <trkpt lat="37.837432399" lon="-6.571881976">
        <ele>540.00</ele>
        <time>1899-12-29T23:00:00Z</time>
      </trkpt>
      <trkpt lat="37.837224696" lon="-6.571575869">
        <ele>538.00</ele>
        <time>1899-12-29T23:00:00Z</time>
      </trkpt>
      <trkpt lat="37.837088741" lon="-6.571370680">
        <ele>537.00</ele>
        <time>1899-12-29T23:00:00Z</time>
      </trkpt>
      <trkpt lat="37.836946584" lon="-6.571166832">
        <ele>537.00</ele>
        <time>1899-12-29T23:00:00Z</time>
      </trkpt>
      <trkpt lat="37.836789675" lon="-6.570968684">
        <ele>536.00</ele>
        <time>1899-12-29T23:00:00Z</time>
      </trkpt>
      <trkpt lat="37.836621869" lon="-6.570783276">
        <ele>535.00</ele>
        <time>1899-12-29T23:00:00Z</time>
      </trkpt>
      <trkpt lat="37.836437467" lon="-6.570614297">
        <ele>534.00</ele>
        <time>1899-12-29T23:00:00Z</time>
      </trkpt>
      <trkpt lat="37.836338393" lon="-6.570534837">
        <ele>533.00</ele>
        <time>1899-12-29T23:00:00Z</time>
      </trkpt>
      <trkpt lat="37.836130857" lon="-6.570389997">
        <ele>532.00</ele>
        <time>1899-12-29T23:00:00Z</time>
      </trkpt>
      <trkpt lat="37.835916448" lon="-6.570266616">
        <ele>531.00</ele>
        <time>1899-12-29T23:00:00Z</time>
      </trkpt>
      <trkpt lat="37.835807148" lon="-6.570215989">
        <ele>531.00</ele>
        <time>1899-12-29T23:00:00Z</time>
      </trkpt>
      <trkpt lat="37.835588884" lon="-6.570126470">
        <ele>530.00</ele>
        <time>1899-12-29T23:00:00Z</time>
      </trkpt>
      <trkpt lat="37.835169621" lon="-6.569976266">
        <ele>529.00</ele>
        <time>1899-12-29T23:00:00Z</time>
      </trkpt>
      <trkpt lat="37.835065518" lon="-6.569939889">
        <ele>529.00</ele>
        <time>1899-12-29T23:00:00Z</time>
      </trkpt>
      <trkpt lat="37.834760919" lon="-6.569840815">
        <ele>528.00</ele>
        <time>1899-12-29T23:00:00Z</time>
      </trkpt>
      <trkpt lat="37.834562436" lon="-6.569771916">
        <ele>527.00</ele>
        <time>1899-12-29T23:00:00Z</time>
      </trkpt>
      <trkpt lat="37.834467888" lon="-6.569737382">
        <ele>527.00</ele>
        <time>1899-12-29T23:00:00Z</time>
      </trkpt>
      <trkpt lat="37.834375184" lon="-6.569705699">
        <ele>527.00</ele>
        <time>1899-12-29T23:00:00Z</time>
      </trkpt>
      <trkpt lat="37.833842598" lon="-6.569535043">
        <ele>527.00</ele>
        <time>1899-12-29T23:00:00Z</time>
      </trkpt>
      <trkpt lat="37.833210435" lon="-6.569325663">
        <ele>527.00</ele>
        <time>1899-12-29T23:00:00Z</time>
      </trkpt>
      <trkpt lat="37.832604088" lon="-6.569119804">
        <ele>527.00</ele>
        <time>1899-12-29T23:00:00Z</time>
      </trkpt>
      <trkpt lat="37.832454890" lon="-6.569067836">
        <ele>527.00</ele>
        <time>1899-12-29T23:00:00Z</time>
      </trkpt>
      <trkpt lat="37.831889782" lon="-6.568855271">
        <ele>527.00</ele>
        <time>1899-12-29T23:00:00Z</time>
      </trkpt>
      <trkpt lat="37.831441183" lon="-6.568557378">
        <ele>527.00</ele>
        <time>1899-12-29T23:00:00Z</time>
      </trkpt>
      <trkpt lat="37.831125017" lon="-6.568175834">
        <ele>527.00</ele>
        <time>1899-12-29T23:00:00Z</time>
      </trkpt>
      <trkpt lat="37.830881607" lon="-6.567713656">
        <ele>526.00</ele>
        <time>1899-12-29T23:00:00Z</time>
      </trkpt>
      <trkpt lat="37.830591425" lon="-6.566941682">
        <ele>526.00</ele>
        <time>1899-12-29T23:00:00Z</time>
      </trkpt>
      <trkpt lat="37.830357905" lon="-6.566284541">
        <ele>526.00</ele>
        <time>1899-12-29T23:00:00Z</time>
      </trkpt>
      <trkpt lat="37.830128744" lon="-6.565652546">
        <ele>526.00</ele>
        <time>1899-12-29T23:00:00Z</time>
      </trkpt>
      <trkpt lat="37.830074262" lon="-6.565493122">
        <ele>526.00</ele>
        <time>1899-12-29T23:00:00Z</time>
      </trkpt>
      <trkpt lat="37.829881310" lon="-6.564851906">
        <ele>526.00</ele>
        <time>1899-12-29T23:00:00Z</time>
      </trkpt>
      <trkpt lat="37.829730939" lon="-6.564185880">
        <ele>526.00</ele>
        <time>1899-12-29T23:00:00Z</time>
      </trkpt>
      <trkpt lat="37.829590961" lon="-6.563420277">
        <ele>526.00</ele>
        <time>1899-12-29T23:00:00Z</time>
      </trkpt>
      <trkpt lat="37.829481158" lon="-6.562839076">
        <ele>525.00</ele>
        <time>1899-12-29T23:00:00Z</time>
      </trkpt>
      <trkpt lat="37.829454672" lon="-6.562680155">
        <ele>525.00</ele>
        <time>1899-12-29T23:00:00Z</time>
      </trkpt>
      <trkpt lat="37.829319555" lon="-6.562028714">
        <ele>525.00</ele>
        <time>1899-12-29T23:00:00Z</time>
      </trkpt>
      <trkpt lat="37.829189301" lon="-6.561354306">
        <ele>525.00</ele>
        <time>1899-12-29T23:00:00Z</time>
      </trkpt>
      <trkpt lat="37.829090059" lon="-6.560854912">
        <ele>525.00</ele>
        <time>1899-12-29T23:00:00Z</time>
      </trkpt>
      <trkpt lat="37.828961313" lon="-6.560187880">
        <ele>525.00</ele>
        <time>1899-12-29T23:00:00Z</time>
      </trkpt>
      <trkpt lat="37.828898616" lon="-6.559848245">
        <ele>525.00</ele>
        <time>1899-12-29T23:00:00Z</time>
      </trkpt>
      <trkpt lat="37.828740366" lon="-6.559194457">
        <ele>524.00</ele>
        <time>1899-12-29T23:00:00Z</time>
      </trkpt>
      <trkpt lat="37.828529477" lon="-6.558550894">
        <ele>524.00</ele>
        <time>1899-12-29T23:00:00Z</time>
      </trkpt>
      <trkpt lat="37.828214988" lon="-6.557939854">
        <ele>523.00</ele>
        <time>1899-12-29T23:00:00Z</time>
      </trkpt>
      <trkpt lat="37.828104347" lon="-6.557774730">
        <ele>523.00</ele>
        <time>1899-12-29T23:00:00Z</time>
      </trkpt>
      <trkpt lat="37.827936038" lon="-6.557574067">
        <ele>523.00</ele>
        <time>1899-12-29T23:00:00Z</time>
      </trkpt>
      <trkpt lat="37.827576790" lon="-6.557251029">
        <ele>522.00</ele>
        <time>1899-12-29T23:00:00Z</time>
      </trkpt>
      <trkpt lat="37.827259619" lon="-6.557074673">
        <ele>522.00</ele>
        <time>1899-12-29T23:00:00Z</time>
      </trkpt>
      <trkpt lat="37.827148475" lon="-6.557036955">
        <ele>522.00</ele>
        <time>1899-12-29T23:00:00Z</time>
      </trkpt>
      <trkpt lat="37.826737594" lon="-6.556958500">
        <ele>521.00</ele>
        <time>1899-12-29T23:00:00Z</time>
      </trkpt>
      <trkpt lat="37.826286312" lon="-6.557007954">
        <ele>520.00</ele>
        <time>1899-12-29T23:00:00Z</time>
      </trkpt>
      <trkpt lat="37.825925723" lon="-6.557156648">
        <ele>520.00</ele>
        <time>1899-12-29T23:00:00Z</time>
      </trkpt>
      <trkpt lat="37.825444601" lon="-6.557432748">
        <ele>519.00</ele>
        <time>1899-12-29T23:00:00Z</time>
      </trkpt>
      <trkpt lat="37.825207058" lon="-6.557555627">
        <ele>518.00</ele>
        <time>1899-12-29T23:00:00Z</time>
      </trkpt>
      <trkpt lat="37.824965995" lon="-6.557646655">
        <ele>518.00</ele>
        <time>1899-12-29T23:00:00Z</time>
      </trkpt>
      <trkpt lat="37.824533656" lon="-6.557709351">
        <ele>517.00</ele>
        <time>1899-12-29T23:00:00Z</time>
      </trkpt>
      <trkpt lat="37.824160662" lon="-6.557654031">
        <ele>516.00</ele>
        <time>1899-12-29T23:00:00Z</time>
      </trkpt>
      <trkpt lat="37.824036442" lon="-6.557621676">
        <ele>515.00</ele>
        <time>1899-12-29T23:00:00Z</time>
      </trkpt>
      <trkpt lat="37.823790349" lon="-6.557520423">
        <ele>515.00</ele>
        <time>1899-12-29T23:00:00Z</time>
      </trkpt>
      <trkpt lat="37.823664285" lon="-6.557472982">
        <ele>515.00</ele>
        <time>1899-12-29T23:00:00Z</time>
      </trkpt>
      <trkpt lat="37.823131867" lon="-6.557260919">
        <ele>513.00</ele>
        <time>1899-12-29T23:00:00Z</time>
      </trkpt>
      <trkpt lat="37.822728362" lon="-6.557090767">
        <ele>512.00</ele>
        <time>1899-12-29T23:00:00Z</time>
      </trkpt>
      <trkpt lat="37.822523173" lon="-6.557006445">
        <ele>512.00</ele>
        <time>1899-12-29T23:00:00Z</time>
      </trkpt>
      <trkpt lat="37.822393253" lon="-6.556939892">
        <ele>512.00</ele>
        <time>1899-12-29T23:00:00Z</time>
      </trkpt>
      <trkpt lat="37.822141629" lon="-6.556833945">
        <ele>511.00</ele>
        <time>1899-12-29T23:00:00Z</time>
      </trkpt>
      <trkpt lat="37.821645755" lon="-6.556595899">
        <ele>509.00</ele>
        <time>1899-12-29T23:00:00Z</time>
      </trkpt>
      <trkpt lat="37.821510974" lon="-6.556525994">
        <ele>509.00</ele>
        <time>1899-12-29T23:00:00Z</time>
      </trkpt>
      <trkpt lat="37.821297068" lon="-6.556418706">
        <ele>507.00</ele>
        <time>1899-12-29T23:00:00Z</time>
      </trkpt>
      <trkpt lat="37.821060866" lon="-6.556315441">
        <ele>506.00</ele>
        <time>1899-12-29T23:00:00Z</time>
      </trkpt>
      <trkpt lat="37.820890881" lon="-6.556247212">
        <ele>505.00</ele>
        <time>1899-12-29T23:00:00Z</time>
      </trkpt>
      <trkpt lat="37.820713017" lon="-6.556180995">
        <ele>503.00</ele>
        <time>1899-12-29T23:00:00Z</time>
      </trkpt>
      <trkpt lat="37.820522245" lon="-6.556122992">
        <ele>502.00</ele>
        <time>1899-12-29T23:00:00Z</time>
      </trkpt>
      <trkpt lat="37.820424344" lon="-6.556095164">
        <ele>501.00</ele>
        <time>1899-12-29T23:00:00Z</time>
      </trkpt>
      <trkpt lat="37.820325103" lon="-6.556069683">
        <ele>501.00</ele>
        <time>1899-12-29T23:00:00Z</time>
      </trkpt>
      <trkpt lat="37.820224352" lon="-6.556047052">
        <ele>500.00</ele>
        <time>1899-12-29T23:00:00Z</time>
      </trkpt>
      <trkpt lat="37.819908522" lon="-6.556008328">
        <ele>498.00</ele>
        <time>1899-12-29T23:00:00Z</time>
      </trkpt>
      <trkpt lat="37.819801401" lon="-6.556001455">
        <ele>497.00</ele>
        <time>1899-12-29T23:00:00Z</time>
      </trkpt>
      <trkpt lat="37.819473166" lon="-6.555983853">
        <ele>495.00</ele>
        <time>1899-12-29T23:00:00Z</time>
      </trkpt>
      <trkpt lat="37.819364872" lon="-6.555985361">
        <ele>495.00</ele>
        <time>1899-12-29T23:00:00Z</time>
      </trkpt>
      <trkpt lat="37.819256745" lon="-6.555989049">
        <ele>494.00</ele>
        <time>1899-12-29T23:00:00Z</time>
      </trkpt>
      <trkpt lat="37.818926498" lon="-6.555984523">
        <ele>492.00</ele>
        <time>1899-12-29T23:00:00Z</time>
      </trkpt>
      <trkpt lat="37.818705887" lon="-6.555944793">
        <ele>490.00</ele>
        <time>1899-12-29T23:00:00Z</time>
      </trkpt>
      <trkpt lat="37.818596419" lon="-6.555915289">
        <ele>489.00</ele>
        <time>1899-12-29T23:00:00Z</time>
      </trkpt>
      <trkpt lat="37.818487119" lon="-6.555877235">
        <ele>488.00</ele>
        <time>1899-12-29T23:00:00Z</time>
      </trkpt>
      <trkpt lat="37.818171456" lon="-6.555721164">
        <ele>486.00</ele>
        <time>1899-12-29T23:00:00Z</time>
      </trkpt>
      <trkpt lat="37.818069868" lon="-6.555657126">
        <ele>486.00</ele>
        <time>1899-12-29T23:00:00Z</time>
      </trkpt>
      <trkpt lat="37.817967273" lon="-6.555593256">
        <ele>485.00</ele>
        <time>1899-12-29T23:00:00Z</time>
      </trkpt>
      <trkpt lat="37.817659993" lon="-6.555411201">
        <ele>483.00</ele>
        <time>1899-12-29T23:00:00Z</time>
      </trkpt>
      <trkpt lat="37.817449942" lon="-6.555307265">
        <ele>481.00</ele>
        <time>1899-12-29T23:00:00Z</time>
      </trkpt>
      <trkpt lat="37.817343492" lon="-6.555255968">
        <ele>481.00</ele>
        <time>1899-12-29T23:00:00Z</time>
      </trkpt>
      <trkpt lat="37.817235198" lon="-6.555214729">
        <ele>480.00</ele>
        <time>1899-12-29T23:00:00Z</time>
      </trkpt>
      <trkpt lat="37.817121204" lon="-6.555184890">
        <ele>479.00</ele>
        <time>1899-12-29T23:00:00Z</time>
      </trkpt>
      <trkpt lat="37.816776875" lon="-6.555146836">
        <ele>477.00</ele>
        <time>1899-12-29T23:00:00Z</time>
      </trkpt>
      <trkpt lat="37.816294581" lon="-6.555190757">
        <ele>474.00</ele>
        <time>1899-12-29T23:00:00Z</time>
      </trkpt>
      <trkpt lat="37.816172540" lon="-6.555206683">
        <ele>474.00</ele>
        <time>1899-12-29T23:00:00Z</time>
      </trkpt>
      <trkpt lat="37.816046141" lon="-6.555221770">
        <ele>473.00</ele>
        <time>1899-12-29T23:00:00Z</time>
      </trkpt>
      <trkpt lat="37.815798875" lon="-6.555257309">
        <ele>471.00</ele>
        <time>1899-12-29T23:00:00Z</time>
      </trkpt>
      <trkpt lat="37.815431580" lon="-6.555311456">
        <ele>469.00</ele>
        <time>1899-12-29T23:00:00Z</time>
      </trkpt>
      <trkpt lat="37.815182135" lon="-6.555346493">
        <ele>468.00</ele>
        <time>1899-12-29T23:00:00Z</time>
      </trkpt>
      <trkpt lat="37.815058082" lon="-6.555359736">
        <ele>467.00</ele>
        <time>1899-12-29T23:00:00Z</time>
      </trkpt>
      <trkpt lat="37.814934030" lon="-6.555375829">
        <ele>466.00</ele>
        <time>1899-12-29T23:00:00Z</time>
      </trkpt>
      <trkpt lat="37.814687602" lon="-6.555414889">
        <ele>465.00</ele>
        <time>1899-12-29T23:00:00Z</time>
      </trkpt>
      <trkpt lat="37.814440336" lon="-6.555446237">
        <ele>463.00</ele>
        <time>1899-12-29T23:00:00Z</time>
      </trkpt>
      <trkpt lat="37.814194243" lon="-6.555480268">
        <ele>462.00</ele>
        <time>1899-12-29T23:00:00Z</time>
      </trkpt>
      <trkpt lat="37.814069018" lon="-6.555496026">
        <ele>461.00</ele>
        <time>1899-12-29T23:00:00Z</time>
      </trkpt>
      <trkpt lat="37.813940775" lon="-6.555503737">
        <ele>460.00</ele>
        <time>1899-12-29T23:00:00Z</time>
      </trkpt>
      <trkpt lat="37.813684456" lon="-6.555505916">
        <ele>459.00</ele>
        <time>1899-12-29T23:00:00Z</time>
      </trkpt>
      <trkpt lat="37.813426629" lon="-6.555461157">
        <ele>457.00</ele>
        <time>1899-12-29T23:00:00Z</time>
      </trkpt>
      <trkpt lat="37.813302241" lon="-6.555418577">
        <ele>457.00</ele>
        <time>1899-12-29T23:00:00Z</time>
      </trkpt>
      <trkpt lat="37.813179530" lon="-6.555366945">
        <ele>456.00</ele>
        <time>1899-12-29T23:00:00Z</time>
      </trkpt>
      <trkpt lat="37.813058160" lon="-6.555306930">
        <ele>455.00</ele>
        <time>1899-12-29T23:00:00Z</time>
      </trkpt>
      <trkpt lat="37.812943161" lon="-6.555229314">
        <ele>454.00</ele>
        <time>1899-12-29T23:00:00Z</time>
      </trkpt>
      <trkpt lat="37.812832016" lon="-6.555141136">
        <ele>453.00</ele>
        <time>1899-12-29T23:00:00Z</time>
      </trkpt>
      <trkpt lat="37.812724728" lon="-6.555048432">
        <ele>452.00</ele>
        <time>1899-12-29T23:00:00Z</time>
      </trkpt>
      <trkpt lat="37.812624648" lon="-6.554949190">
        <ele>451.00</ele>
        <time>1899-12-29T23:00:00Z</time>
      </trkpt>
      <trkpt lat="37.812528256" lon="-6.554838382">
        <ele>451.00</ele>
        <time>1899-12-29T23:00:00Z</time>
      </trkpt>
      <trkpt lat="37.812436055" lon="-6.554721203">
        <ele>450.00</ele>
        <time>1899-12-29T23:00:00Z</time>
      </trkpt>
      <trkpt lat="37.812347878" lon="-6.554595474">
        <ele>449.00</ele>
        <time>1899-12-29T23:00:00Z</time>
      </trkpt>
      <trkpt lat="37.812262550" lon="-6.554470081">
        <ele>448.00</ele>
        <time>1899-12-29T23:00:00Z</time>
      </trkpt>
      <trkpt lat="37.812096588" lon="-6.554212086">
        <ele>446.00</ele>
        <time>1899-12-29T23:00:00Z</time>
      </trkpt>
      <trkpt lat="37.811838426" lon="-6.553826686">
        <ele>443.00</ele>
        <time>1899-12-29T23:00:00Z</time>
      </trkpt>
      <trkpt lat="37.811636925" lon="-6.553589813">
        <ele>442.00</ele>
        <time>1899-12-29T23:00:00Z</time>
      </trkpt>
      <trkpt lat="37.811524775" lon="-6.553486716">
        <ele>441.00</ele>
        <time>1899-12-29T23:00:00Z</time>
      </trkpt>
      <trkpt lat="37.811407093" lon="-6.553394683">
        <ele>440.00</ele>
        <time>1899-12-29T23:00:00Z</time>
      </trkpt>
      <trkpt lat="37.811282370" lon="-6.553321425">
        <ele>439.00</ele>
        <time>1899-12-29T23:00:00Z</time>
      </trkpt>
      <trkpt lat="37.811153959" lon="-6.553262416">
        <ele>438.00</ele>
        <time>1899-12-29T23:00:00Z</time>
      </trkpt>
      <trkpt lat="37.811024208" lon="-6.553210951">
        <ele>437.00</ele>
        <time>1899-12-29T23:00:00Z</time>
      </trkpt>
      <trkpt lat="37.810889594" lon="-6.553170551">
        <ele>436.00</ele>
        <time>1899-12-29T23:00:00Z</time>
      </trkpt>
      <trkpt lat="37.810753807" lon="-6.553143058">
        <ele>435.00</ele>
        <time>1899-12-29T23:00:00Z</time>
      </trkpt>
      <trkpt lat="37.810478378" lon="-6.553114392">
        <ele>433.00</ele>
        <time>1899-12-29T23:00:00Z</time>
      </trkpt>
      <trkpt lat="37.810336389" lon="-6.553096287">
        <ele>432.00</ele>
        <time>1899-12-29T23:00:00Z</time>
      </trkpt>
      <trkpt lat="37.810055595" lon="-6.553057898">
        <ele>430.00</ele>
        <time>1899-12-29T23:00:00Z</time>
      </trkpt>
      <trkpt lat="37.809914779" lon="-6.553039793">
        <ele>428.00</ele>
        <time>1899-12-29T23:00:00Z</time>
      </trkpt>
      <trkpt lat="37.809775472" lon="-6.553022191">
        <ele>427.00</ele>
        <time>1899-12-29T23:00:00Z</time>
      </trkpt>
      <trkpt lat="37.809498366" lon="-6.552992016">
        <ele>425.00</ele>
        <time>1899-12-29T23:00:00Z</time>
      </trkpt>
      <trkpt lat="37.809229307" lon="-6.552960332">
        <ele>423.00</ele>
        <time>1899-12-29T23:00:00Z</time>
      </trkpt>
      <trkpt lat="37.809095867" lon="-6.552941389">
        <ele>422.00</ele>
        <time>1899-12-29T23:00:00Z</time>
      </trkpt>
      <trkpt lat="37.808828149" lon="-6.552906353">
        <ele>420.00</ele>
        <time>1899-12-29T23:00:00Z</time>
      </trkpt>
      <trkpt lat="37.808561772" lon="-6.552876849">
        <ele>418.00</ele>
        <time>1899-12-29T23:00:00Z</time>
      </trkpt>
      <trkpt lat="37.808429003" lon="-6.552869305">
        <ele>417.00</ele>
        <time>1899-12-29T23:00:00Z</time>
      </trkpt>
      <trkpt lat="37.808296904" lon="-6.552875675">
        <ele>416.00</ele>
        <time>1899-12-29T23:00:00Z</time>
      </trkpt>
      <trkpt lat="37.808163967" lon="-6.552894451">
        <ele>415.00</ele>
        <time>1899-12-29T23:00:00Z</time>
      </trkpt>
      <trkpt lat="37.808033209" lon="-6.552924793">
        <ele>414.00</ele>
        <time>1899-12-29T23:00:00Z</time>
      </trkpt>
      <trkpt lat="37.807902787" lon="-6.552960332">
        <ele>413.00</ele>
        <time>1899-12-29T23:00:00Z</time>
      </trkpt>
      <trkpt lat="37.807645127" lon="-6.553042643">
        <ele>411.00</ele>
        <time>1899-12-29T23:00:00Z</time>
      </trkpt>
      <trkpt lat="37.807516214" lon="-6.553083211">
        <ele>410.00</ele>
        <time>1899-12-29T23:00:00Z</time>
      </trkpt>
      <trkpt lat="37.807387635" lon="-6.553127300">
        <ele>409.00</ele>
        <time>1899-12-29T23:00:00Z</time>
      </trkpt>
      <trkpt lat="37.806993518" lon="-6.553225704">
        <ele>406.00</ele>
        <time>1899-12-29T23:00:00Z</time>
      </trkpt>
      <trkpt lat="37.806858569" lon="-6.553240288">
        <ele>405.00</ele>
        <time>1899-12-29T23:00:00Z</time>
      </trkpt>
      <trkpt lat="37.806592025" lon="-6.553234756">
        <ele>403.00</ele>
        <time>1899-12-29T23:00:00Z</time>
      </trkpt>
      <trkpt lat="37.806328833" lon="-6.553185135">
        <ele>401.00</ele>
        <time>1899-12-29T23:00:00Z</time>
      </trkpt>
      <trkpt lat="37.806070335" lon="-6.553102490">
        <ele>399.00</ele>
        <time>1899-12-29T23:00:00Z</time>
      </trkpt>
      <trkpt lat="37.805941757" lon="-6.553047672">
        <ele>398.00</ele>
        <time>1899-12-29T23:00:00Z</time>
      </trkpt>
      <trkpt lat="37.805814184" lon="-6.552988328">
        <ele>397.00</ele>
        <time>1899-12-29T23:00:00Z</time>
      </trkpt>
      <trkpt lat="37.805691473" lon="-6.552922279">
        <ele>396.00</ele>
        <time>1899-12-29T23:00:00Z</time>
      </trkpt>
      <trkpt lat="37.805568092" lon="-6.552849021">
        <ele>394.00</ele>
        <time>1899-12-29T23:00:00Z</time>
      </trkpt>
      <trkpt lat="37.805447225" lon="-6.552766543">
        <ele>393.00</ele>
        <time>1899-12-29T23:00:00Z</time>
      </trkpt>
      <trkpt lat="37.805330548" lon="-6.552680880">
        <ele>392.00</ele>
        <time>1899-12-29T23:00:00Z</time>
      </trkpt>
      <trkpt lat="37.805216052" lon="-6.552586332">
        <ele>391.00</ele>
        <time>1899-12-29T23:00:00Z</time>
      </trkpt>
      <trkpt lat="37.804997787" lon="-6.552376449">
        <ele>389.00</ele>
        <time>1899-12-29T23:00:00Z</time>
      </trkpt>
      <trkpt lat="37.804892845" lon="-6.552264970">
        <ele>388.00</ele>
        <time>1899-12-29T23:00:00Z</time>
      </trkpt>
      <trkpt lat="37.804789916" lon="-6.552146450">
        <ele>387.00</ele>
        <time>1899-12-29T23:00:00Z</time>
      </trkpt>
      <trkpt lat="37.804600149" lon="-6.551885437">
        <ele>385.00</ele>
        <time>1899-12-29T23:00:00Z</time>
      </trkpt>
      <trkpt lat="37.804511804" lon="-6.551745292">
        <ele>384.00</ele>
        <time>1899-12-29T23:00:00Z</time>
      </trkpt>
      <trkpt lat="37.804425638" lon="-6.551599614">
        <ele>383.00</ele>
        <time>1899-12-29T23:00:00Z</time>
      </trkpt>
      <trkpt lat="37.804264538" lon="-6.551289316">
        <ele>380.00</ele>
        <time>1899-12-29T23:00:00Z</time>
      </trkpt>
      <trkpt lat="37.804195136" lon="-6.551126372">
        <ele>379.00</ele>
        <time>1899-12-29T23:00:00Z</time>
      </trkpt>
      <trkpt lat="37.804131433" lon="-6.550957561">
        <ele>378.00</ele>
        <time>1899-12-29T23:00:00Z</time>
      </trkpt>
      <trkpt lat="37.804073263" lon="-6.550786234">
        <ele>377.00</ele>
        <time>1899-12-29T23:00:00Z</time>
      </trkpt>
      <trkpt lat="37.804019116" lon="-6.550610214">
        <ele>376.00</ele>
        <time>1899-12-29T23:00:00Z</time>
      </trkpt>
      <trkpt lat="37.803967986" lon="-6.550432853">
        <ele>375.00</ele>
        <time>1899-12-29T23:00:00Z</time>
      </trkpt>
      <trkpt lat="37.803919371" lon="-6.550252810">
        <ele>373.00</ele>
        <time>1899-12-29T23:00:00Z</time>
      </trkpt>
      <trkpt lat="37.803871259" lon="-6.550071761">
        <ele>372.00</ele>
        <time>1899-12-29T23:00:00Z</time>
      </trkpt>
      <trkpt lat="37.803822309" lon="-6.549887862">
        <ele>371.00</ele>
        <time>1899-12-29T23:00:00Z</time>
      </trkpt>
      <trkpt lat="37.803771012" lon="-6.549706142">
        <ele>370.00</ele>
        <time>1899-12-29T23:00:00Z</time>
      </trkpt>
      <trkpt lat="37.803716026" lon="-6.549523920">
        <ele>369.00</ele>
        <time>1899-12-29T23:00:00Z</time>
      </trkpt>
      <trkpt lat="37.803658526" lon="-6.549344044">
        <ele>368.00</ele>
        <time>1899-12-29T23:00:00Z</time>
      </trkpt>
      <trkpt lat="37.803591136" lon="-6.549168192">
        <ele>366.00</ele>
        <time>1899-12-29T23:00:00Z</time>
      </trkpt>
      <trkpt lat="37.803515866" lon="-6.548997201">
        <ele>365.00</ele>
        <time>1899-12-29T23:00:00Z</time>
      </trkpt>
      <trkpt lat="37.803328447" lon="-6.548679527">
        <ele>363.00</ele>
        <time>1899-12-29T23:00:00Z</time>
      </trkpt>
      <trkpt lat="37.803221662" lon="-6.548535693">
        <ele>362.00</ele>
        <time>1899-12-29T23:00:00Z</time>
      </trkpt>
      <trkpt lat="37.803104147" lon="-6.548405942">
        <ele>360.00</ele>
        <time>1899-12-29T23:00:00Z</time>
      </trkpt>
      <trkpt lat="37.802972551" lon="-6.548297647">
        <ele>359.00</ele>
        <time>1899-12-29T23:00:00Z</time>
      </trkpt>
      <trkpt lat="37.802833077" lon="-6.548209134">
        <ele>358.00</ele>
        <time>1899-12-29T23:00:00Z</time>
      </trkpt>
      <trkpt lat="37.802687734" lon="-6.548140403">
        <ele>357.00</ele>
        <time>1899-12-29T23:00:00Z</time>
      </trkpt>
      <trkpt lat="37.802539710" lon="-6.548090279">
        <ele>356.00</ele>
        <time>1899-12-29T23:00:00Z</time>
      </trkpt>
      <trkpt lat="37.802389674" lon="-6.548059098">
        <ele>354.00</ele>
        <time>1899-12-29T23:00:00Z</time>
      </trkpt>
      <trkpt lat="37.802239470" lon="-6.548045017">
        <ele>353.00</ele>
        <time>1899-12-29T23:00:00Z</time>
      </trkpt>
      <trkpt lat="37.802091446" lon="-6.548059098">
        <ele>352.00</ele>
        <time>1899-12-29T23:00:00Z</time>
      </trkpt>
      <trkpt lat="37.801677380" lon="-6.548192538">
        <ele>349.00</ele>
        <time>1899-12-29T23:00:00Z</time>
      </trkpt>
      <trkpt lat="37.801549975" lon="-6.548264623">
        <ele>348.00</ele>
        <time>1899-12-29T23:00:00Z</time>
      </trkpt>
      <trkpt lat="37.801431287" lon="-6.548353303">
        <ele>347.00</ele>
        <time>1899-12-29T23:00:00Z</time>
      </trkpt>
      <trkpt lat="37.801321987" lon="-6.548454557">
        <ele>345.00</ele>
        <time>1899-12-29T23:00:00Z</time>
      </trkpt>
      <trkpt lat="37.801128365" lon="-6.548687406">
        <ele>343.00</ele>
        <time>1899-12-29T23:00:00Z</time>
      </trkpt>
      <trkpt lat="37.801046222" lon="-6.548816487">
        <ele>342.00</ele>
        <time>1899-12-29T23:00:00Z</time>
      </trkpt>
      <trkpt lat="37.800975982" lon="-6.548956130">
        <ele>341.00</ele>
        <time>1899-12-29T23:00:00Z</time>
      </trkpt>
      <trkpt lat="37.800865006" lon="-6.549253855">
        <ele>339.00</ele>
        <time>1899-12-29T23:00:00Z</time>
      </trkpt>
      <trkpt lat="37.800825443" lon="-6.549411267">
        <ele>338.00</ele>
        <time>1899-12-29T23:00:00Z</time>
      </trkpt>
      <trkpt lat="37.800794765" lon="-6.549575552">
        <ele>337.00</ele>
        <time>1899-12-29T23:00:00Z</time>
      </trkpt>
      <trkpt lat="37.800776158" lon="-6.549741346">
        <ele>336.00</ele>
        <time>1899-12-29T23:00:00Z</time>
      </trkpt>
      <trkpt lat="37.800763585" lon="-6.549907140">
        <ele>335.00</ele>
        <time>1899-12-29T23:00:00Z</time>
      </trkpt>
      <trkpt lat="37.800760400" lon="-6.550074611">
        <ele>334.00</ele>
        <time>1899-12-29T23:00:00Z</time>
      </trkpt>
      <trkpt lat="37.800766099" lon="-6.550241578">
        <ele>333.00</ele>
        <time>1899-12-29T23:00:00Z</time>
      </trkpt>
      <trkpt lat="37.800778337" lon="-6.550407875">
        <ele>332.00</ele>
        <time>1899-12-29T23:00:00Z</time>
      </trkpt>
      <trkpt lat="37.800796106" lon="-6.550575010">
        <ele>331.00</ele>
        <time>1899-12-29T23:00:00Z</time>
      </trkpt>
      <trkpt lat="37.800869197" lon="-6.551398449">
        <ele>326.00</ele>
        <time>1899-12-29T23:00:00Z</time>
      </trkpt>
      <trkpt lat="37.800875232" lon="-6.551558208">
        <ele>325.00</ele>
        <time>1899-12-29T23:00:00Z</time>
      </trkpt>
      <trkpt lat="37.800870202" lon="-6.551866494">
        <ele>324.00</ele>
        <time>1899-12-29T23:00:00Z</time>
      </trkpt>
      <trkpt lat="37.800838351" lon="-6.552153658">
        <ele>323.00</ele>
        <time>1899-12-29T23:00:00Z</time>
      </trkpt>
      <trkpt lat="37.800781019" lon="-6.552415174">
        <ele>312.00</ele>
        <time>1899-12-29T23:00:00Z</time>
      </trkpt>
      <trkpt lat="37.800702732" lon="-6.552647017">
        <ele>309.00</ele>
        <time>1899-12-29T23:00:00Z</time>
      </trkpt>
      <trkpt lat="37.800517492" lon="-6.553046834">
        <ele>310.00</ele>
        <time>1899-12-29T23:00:00Z</time>
      </trkpt>
      <trkpt lat="37.800463513" lon="-6.553138532">
        <ele>313.00</ele>
        <time>1899-12-29T23:00:00Z</time>
      </trkpt>
      <trkpt lat="37.800348345" lon="-6.553292591">
        <ele>318.00</ele>
        <time>1899-12-29T23:00:00Z</time>
      </trkpt>
      <trkpt lat="37.800231334" lon="-6.553428713">
        <ele>322.00</ele>
        <time>1899-12-29T23:00:00Z</time>
      </trkpt>
      <trkpt lat="37.799930088" lon="-6.553685702">
        <ele>322.00</ele>
        <time>1899-12-29T23:00:00Z</time>
      </trkpt>
      <trkpt lat="37.799494062" lon="-6.553902123">
        <ele>322.00</ele>
        <time>1899-12-29T23:00:00Z</time>
      </trkpt>
      <trkpt lat="37.799158283" lon="-6.553965993">
        <ele>323.00</ele>
        <time>1899-12-29T23:00:00Z</time>
      </trkpt>
      <trkpt lat="37.799052671" lon="-6.553970687">
        <ele>324.00</ele>
        <time>1899-12-29T23:00:00Z</time>
      </trkpt>
      <trkpt lat="37.798812445" lon="-6.553942524">
        <ele>325.00</ele>
        <time>1899-12-29T23:00:00Z</time>
      </trkpt>
      <trkpt lat="37.798390165" lon="-6.553874798">
        <ele>327.00</ele>
        <time>1899-12-29T23:00:00Z</time>
      </trkpt>
      <trkpt lat="37.798225377" lon="-6.553844791">
        <ele>328.00</ele>
        <time>1899-12-29T23:00:00Z</time>
      </trkpt>
      <trkpt lat="37.798031420" lon="-6.553805061">
        <ele>329.00</ele>
        <time>1899-12-29T23:00:00Z</time>
      </trkpt>
      <trkpt lat="37.797858249" lon="-6.553764995">
        <ele>330.00</ele>
        <time>1899-12-29T23:00:00Z</time>
      </trkpt>
      <trkpt lat="37.797681894" lon="-6.553720403">
        <ele>331.00</ele>
        <time>1899-12-29T23:00:00Z</time>
      </trkpt>
      <trkpt lat="37.797464468" lon="-6.553700119">
        <ele>332.00</ele>
        <time>1899-12-29T23:00:00Z</time>
      </trkpt>
      <trkpt lat="37.797357682" lon="-6.553690564">
        <ele>333.00</ele>
        <time>1899-12-29T23:00:00Z</time>
      </trkpt>
      <trkpt lat="37.797172777" lon="-6.553677488">
        <ele>334.00</ele>
        <time>1899-12-29T23:00:00Z</time>
      </trkpt>
      <trkpt lat="37.796983682" lon="-6.553709675">
        <ele>336.00</ele>
        <time>1899-12-29T23:00:00Z</time>
      </trkpt>
      <trkpt lat="37.796878908" lon="-6.553745214">
        <ele>336.00</ele>
        <time>1899-12-29T23:00:00Z</time>
      </trkpt>
      <trkpt lat="37.796687298" lon="-6.553823836">
        <ele>338.00</ele>
        <time>1899-12-29T23:00:00Z</time>
      </trkpt>
      <trkpt lat="37.796520162" lon="-6.553904470">
        <ele>339.00</ele>
        <time>1899-12-29T23:00:00Z</time>
      </trkpt>
      <trkpt lat="37.796406504" lon="-6.553975381">
        <ele>339.00</ele>
        <time>1899-12-29T23:00:00Z</time>
      </trkpt>
      <trkpt lat="37.796312626" lon="-6.554027013">
        <ele>340.00</ele>
        <time>1899-12-29T23:00:00Z</time>
      </trkpt>
      <trkpt lat="37.796196453" lon="-6.554120388">
        <ele>341.00</ele>
        <time>1899-12-29T23:00:00Z</time>
      </trkpt>
      <trkpt lat="37.796101570" lon="-6.554159280">
        <ele>342.00</ele>
        <time>1899-12-29T23:00:00Z</time>
      </trkpt>
      <trkpt lat="37.795906607" lon="-6.554275788">
        <ele>343.00</ele>
        <time>1899-12-29T23:00:00Z</time>
      </trkpt>
      <trkpt lat="37.795773502" lon="-6.554365475">
        <ele>344.00</ele>
        <time>1899-12-29T23:00:00Z</time>
      </trkpt>
      <trkpt lat="37.795593627" lon="-6.554523222">
        <ele>346.00</ele>
        <time>1899-12-29T23:00:00Z</time>
      </trkpt>
      <trkpt lat="37.795522213" lon="-6.554598156">
        <ele>346.00</ele>
        <time>1899-12-29T23:00:00Z</time>
      </trkpt>
      <trkpt lat="37.795344517" lon="-6.554806028">
        <ele>348.00</ele>
        <time>1899-12-29T23:00:00Z</time>
      </trkpt>
      <trkpt lat="37.795250136" lon="-6.554908957">
        <ele>349.00</ele>
        <time>1899-12-29T23:00:00Z</time>
      </trkpt>
      <trkpt lat="37.795147542" lon="-6.555039044">
        <ele>350.00</ele>
        <time>1899-12-29T23:00:00Z</time>
      </trkpt>
      <trkpt lat="37.794964146" lon="-6.555257812">
        <ele>351.00</ele>
        <time>1899-12-29T23:00:00Z</time>
      </trkpt>
      <trkpt lat="37.794846967" lon="-6.555389408">
        <ele>353.00</ele>
        <time>1899-12-29T23:00:00Z</time>
      </trkpt>
      <trkpt lat="37.794746552" lon="-6.555496026">
        <ele>354.00</ele>
        <time>1899-12-29T23:00:00Z</time>
      </trkpt>
      <trkpt lat="37.794620655" lon="-6.555614714">
        <ele>355.00</ele>
        <time>1899-12-29T23:00:00Z</time>
      </trkpt>
      <trkpt lat="37.794525437" lon="-6.555677578">
        <ele>356.00</ele>
        <time>1899-12-29T23:00:00Z</time>
      </trkpt>
      <trkpt lat="37.794320583" lon="-6.555796936">
        <ele>357.00</ele>
        <time>1899-12-29T23:00:00Z</time>
      </trkpt>
      <trkpt lat="37.794148587" lon="-6.555853430">
        <ele>358.00</ele>
        <time>1899-12-29T23:00:00Z</time>
      </trkpt>
      <trkpt lat="37.793964520" lon="-6.555904895">
        <ele>359.00</ele>
        <time>1899-12-29T23:00:00Z</time>
      </trkpt>
      <trkpt lat="37.793832254" lon="-6.555938087">
        <ele>360.00</ele>
        <time>1899-12-29T23:00:00Z</time>
      </trkpt>
      <trkpt lat="37.793630417" lon="-6.555986702">
        <ele>362.00</ele>
        <time>1899-12-29T23:00:00Z</time>
      </trkpt>
      <trkpt lat="37.793423217" lon="-6.556027103">
        <ele>363.00</ele>
        <time>1899-12-29T23:00:00Z</time>
      </trkpt>
      <trkpt lat="37.793241162" lon="-6.556035150">
        <ele>364.00</ele>
        <time>1899-12-29T23:00:00Z</time>
      </trkpt>
      <trkpt lat="37.793094479" lon="-6.556030624">
        <ele>365.00</ele>
        <time>1899-12-29T23:00:00Z</time>
      </trkpt>
      <trkpt lat="37.792915944" lon="-6.555984523">
        <ele>366.00</ele>
        <time>1899-12-29T23:00:00Z</time>
      </trkpt>
      <trkpt lat="37.792726848" lon="-6.555873547">
        <ele>368.00</ele>
        <time>1899-12-29T23:00:00Z</time>
      </trkpt>
      <trkpt lat="37.792556193" lon="-6.555730384">
        <ele>369.00</ele>
        <time>1899-12-29T23:00:00Z</time>
      </trkpt>
      <trkpt lat="37.792470865" lon="-6.555658299">
        <ele>370.00</ele>
        <time>1899-12-29T23:00:00Z</time>
      </trkpt>
      <trkpt lat="37.792337090" lon="-6.555528883">
        <ele>371.00</ele>
        <time>1899-12-29T23:00:00Z</time>
      </trkpt>
      <trkpt lat="37.792252433" lon="-6.555439197">
        <ele>372.00</ele>
        <time>1899-12-29T23:00:00Z</time>
      </trkpt>
      <trkpt lat="37.792146821" lon="-6.555335261">
        <ele>372.00</ele>
        <time>1899-12-29T23:00:00Z</time>
      </trkpt>
      <trkpt lat="37.792058978" lon="-6.555236522">
        <ele>373.00</ele>
        <time>1899-12-29T23:00:00Z</time>
      </trkpt>
      <trkpt lat="37.791920677" lon="-6.555113643">
        <ele>374.00</ele>
        <time>1899-12-29T23:00:00Z</time>
      </trkpt>
      <trkpt lat="37.791819423" lon="-6.555027980">
        <ele>375.00</ele>
        <time>1899-12-29T23:00:00Z</time>
      </trkpt>
      <trkpt lat="37.791644577" lon="-6.554923039">
        <ele>377.00</ele>
        <time>1899-12-29T23:00:00Z</time>
      </trkpt>
      <trkpt lat="37.791484818" lon="-6.554865539">
        <ele>378.00</ele>
        <time>1899-12-29T23:00:00Z</time>
      </trkpt>
      <trkpt lat="37.791321538" lon="-6.554843578">
        <ele>379.00</ele>
        <time>1899-12-29T23:00:00Z</time>
      </trkpt>
      <trkpt lat="37.791132946" lon="-6.554866880">
        <ele>380.00</ele>
        <time>1899-12-29T23:00:00Z</time>
      </trkpt>
      <trkpt lat="37.790997662" lon="-6.554897558">
        <ele>381.00</ele>
        <time>1899-12-29T23:00:00Z</time>
      </trkpt>
      <trkpt lat="37.790870424" lon="-6.554949190">
        <ele>382.00</ele>
        <time>1899-12-29T23:00:00Z</time>
      </trkpt>
      <trkpt lat="37.790687364" lon="-6.555028483">
        <ele>383.00</ele>
        <time>1899-12-29T23:00:00Z</time>
      </trkpt>
      <trkpt lat="37.790507488" lon="-6.555122696">
        <ele>385.00</ele>
        <time>1899-12-29T23:00:00Z</time>
      </trkpt>
      <trkpt lat="37.790356781" lon="-6.555206515">
        <ele>386.00</ele>
        <time>1899-12-29T23:00:00Z</time>
      </trkpt>
      <trkpt lat="37.790231388" lon="-6.555289663">
        <ele>387.00</ele>
        <time>1899-12-29T23:00:00Z</time>
      </trkpt>
      <trkpt lat="37.790106665" lon="-6.555385217">
        <ele>388.00</ele>
        <time>1899-12-29T23:00:00Z</time>
      </trkpt>
      <trkpt lat="37.789969537" lon="-6.555514801">
        <ele>389.00</ele>
        <time>1899-12-29T23:00:00Z</time>
      </trkpt>
      <trkpt lat="37.789845150" lon="-6.555658970">
        <ele>390.00</ele>
        <time>1899-12-29T23:00:00Z</time>
      </trkpt>
      <trkpt lat="37.789727803" lon="-6.555857621">
        <ele>391.00</ele>
        <time>1899-12-29T23:00:00Z</time>
      </trkpt>
      <trkpt lat="37.789646834" lon="-6.556008160">
        <ele>392.00</ele>
        <time>1899-12-29T23:00:00Z</time>
      </trkpt>
      <trkpt lat="37.789547425" lon="-6.556180492">
        <ele>393.00</ele>
        <time>1899-12-29T23:00:00Z</time>
      </trkpt>
      <trkpt lat="37.789456733" lon="-6.556353327">
        <ele>394.00</ele>
        <time>1899-12-29T23:00:00Z</time>
      </trkpt>
      <trkpt lat="37.789372914" lon="-6.556494310">
        <ele>395.00</ele>
        <time>1899-12-29T23:00:00Z</time>
      </trkpt>
      <trkpt lat="37.789240479" lon="-6.556720622">
        <ele>397.00</ele>
        <time>1899-12-29T23:00:00Z</time>
      </trkpt>
      <trkpt lat="37.789142076" lon="-6.556891110">
        <ele>398.00</ele>
        <time>1899-12-29T23:00:00Z</time>
      </trkpt>
      <trkpt lat="37.789047696" lon="-6.557065118">
        <ele>399.00</ele>
        <time>1899-12-29T23:00:00Z</time>
      </trkpt>
      <trkpt lat="37.788947951" lon="-6.557243485">
        <ele>400.00</ele>
        <time>1899-12-29T23:00:00Z</time>
      </trkpt>
      <trkpt lat="37.788861115" lon="-6.557420678">
        <ele>401.00</ele>
        <time>1899-12-29T23:00:00Z</time>
      </trkpt>
      <trkpt lat="37.788788527" lon="-6.557575241">
        <ele>402.00</ele>
        <time>1899-12-29T23:00:00Z</time>
      </trkpt>
      <trkpt lat="37.788727675" lon="-6.557730306">
        <ele>403.00</ele>
        <time>1899-12-29T23:00:00Z</time>
      </trkpt>
      <trkpt lat="37.788685095" lon="-6.557862069">
        <ele>404.00</ele>
        <time>1899-12-29T23:00:00Z</time>
      </trkpt>
      <trkpt lat="37.788648885" lon="-6.557994671">
        <ele>404.00</ele>
        <time>1899-12-29T23:00:00Z</time>
      </trkpt>
      <trkpt lat="37.788609825" lon="-6.558159795">
        <ele>405.00</ele>
        <time>1899-12-29T23:00:00Z</time>
      </trkpt>
      <trkpt lat="37.788576968" lon="-6.558362637">
        <ele>407.00</ele>
        <time>1899-12-29T23:00:00Z</time>
      </trkpt>
      <trkpt lat="37.788558863" lon="-6.558495909">
        <ele>407.00</ele>
        <time>1899-12-29T23:00:00Z</time>
      </trkpt>
      <trkpt lat="37.788532712" lon="-6.558766644">
        <ele>409.00</ele>
        <time>1899-12-29T23:00:00Z</time>
      </trkpt>
      <trkpt lat="37.788517457" lon="-6.558930930">
        <ele>410.00</ele>
        <time>1899-12-29T23:00:00Z</time>
      </trkpt>
      <trkpt lat="37.788502872" lon="-6.559109464">
        <ele>411.00</ele>
        <time>1899-12-29T23:00:00Z</time>
      </trkpt>
      <trkpt lat="37.788488958" lon="-6.559318341">
        <ele>412.00</ele>
        <time>1899-12-29T23:00:00Z</time>
      </trkpt>
      <trkpt lat="37.788475547" lon="-6.559644397">
        <ele>413.00</ele>
        <time>1899-12-29T23:00:00Z</time>
      </trkpt>
      <trkpt lat="37.788464818" lon="-6.559788231">
        <ele>414.00</ele>
        <time>1899-12-29T23:00:00Z</time>
      </trkpt>
      <trkpt lat="37.788455263" lon="-6.559971292">
        <ele>415.00</ele>
        <time>1899-12-29T23:00:00Z</time>
      </trkpt>
      <trkpt lat="37.788436990" lon="-6.560292654">
        <ele>417.00</ele>
        <time>1899-12-29T23:00:00Z</time>
      </trkpt>
      <trkpt lat="37.788426261" lon="-6.560467500">
        <ele>418.00</ele>
        <time>1899-12-29T23:00:00Z</time>
      </trkpt>
      <trkpt lat="37.788418885" lon="-6.560603790">
        <ele>419.00</ele>
        <time>1899-12-29T23:00:00Z</time>
      </trkpt>
      <trkpt lat="37.788397260" lon="-6.560878549">
        <ele>420.00</ele>
        <time>1899-12-29T23:00:00Z</time>
      </trkpt>
      <trkpt lat="37.788390052" lon="-6.561049372">
        <ele>421.00</ele>
        <time>1899-12-29T23:00:00Z</time>
      </trkpt>
      <trkpt lat="37.788374797" lon="-6.561283562">
        <ele>422.00</ele>
        <time>1899-12-29T23:00:00Z</time>
      </trkpt>
      <trkpt lat="37.788352333" lon="-6.561595872">
        <ele>424.00</ele>
        <time>1899-12-29T23:00:00Z</time>
      </trkpt>
      <trkpt lat="37.788347639" lon="-6.561729647">
        <ele>424.00</ele>
        <time>1899-12-29T23:00:00Z</time>
      </trkpt>
      <trkpt lat="37.788344622" lon="-6.561869793">
        <ele>425.00</ele>
        <time>1899-12-29T23:00:00Z</time>
      </trkpt>
      <trkpt lat="37.788330372" lon="-6.562037934">
        <ele>426.00</ele>
        <time>1899-12-29T23:00:00Z</time>
      </trkpt>
      <trkpt lat="37.788321655" lon="-6.562174726">
        <ele>427.00</ele>
        <time>1899-12-29T23:00:00Z</time>
      </trkpt>
      <trkpt lat="37.788315453" lon="-6.562314201">
        <ele>427.00</ele>
        <time>1899-12-29T23:00:00Z</time>
      </trkpt>
      <trkpt lat="37.788302712" lon="-6.562555768">
        <ele>429.00</ele>
        <time>1899-12-29T23:00:00Z</time>
      </trkpt>
      <trkpt lat="37.788283601" lon="-6.562790964">
        <ele>430.00</ele>
        <time>1899-12-29T23:00:00Z</time>
      </trkpt>
      <trkpt lat="37.788266670" lon="-6.563030686">
        <ele>431.00</ele>
        <time>1899-12-29T23:00:00Z</time>
      </trkpt>
      <trkpt lat="37.788236830" lon="-6.563201007">
        <ele>431.00</ele>
        <time>1899-12-29T23:00:00Z</time>
      </trkpt>
      <trkpt lat="37.788213864" lon="-6.563338134">
        <ele>432.00</ele>
        <time>1899-12-29T23:00:00Z</time>
      </trkpt>
      <trkpt lat="37.788175810" lon="-6.563471407">
        <ele>434.00</ele>
        <time>1899-12-29T23:00:00Z</time>
      </trkpt>
      <trkpt lat="37.788153514" lon="-6.563608702">
        <ele>434.00</ele>
        <time>1899-12-29T23:00:00Z</time>
      </trkpt>
      <trkpt lat="37.788107581" lon="-6.563778520">
        <ele>435.00</ele>
        <time>1899-12-29T23:00:00Z</time>
      </trkpt>
      <trkpt lat="37.788036503" lon="-6.563965436">
        <ele>436.00</ele>
        <time>1899-12-29T23:00:00Z</time>
      </trkpt>
      <trkpt lat="37.787987888" lon="-6.564087979">
        <ele>437.00</ele>
        <time>1899-12-29T23:00:00Z</time>
      </trkpt>
      <trkpt lat="37.787878755" lon="-6.564277578">
        <ele>438.00</ele>
        <time>1899-12-29T23:00:00Z</time>
      </trkpt>
      <trkpt lat="37.787739448" lon="-6.564485114">
        <ele>440.00</ele>
        <time>1899-12-29T23:00:00Z</time>
      </trkpt>
      <trkpt lat="37.787661161" lon="-6.564577147">
        <ele>441.00</ele>
        <time>1899-12-29T23:00:00Z</time>
      </trkpt>
      <trkpt lat="37.787523028" lon="-6.564735230">
        <ele>442.00</ele>
        <time>1899-12-29T23:00:00Z</time>
      </trkpt>
      <trkpt lat="37.787304092" lon="-6.564953327">
        <ele>443.00</ele>
        <time>1899-12-29T23:00:00Z</time>
      </trkpt>
      <trkpt lat="37.787146512" lon="-6.565090623">
        <ele>445.00</ele>
        <time>1899-12-29T23:00:00Z</time>
      </trkpt>
      <trkpt lat="37.787054479" lon="-6.565173101">
        <ele>445.00</ele>
        <time>1899-12-29T23:00:00Z</time>
      </trkpt>
      <trkpt lat="37.786849793" lon="-6.565347780">
        <ele>447.00</ele>
        <time>1899-12-29T23:00:00Z</time>
      </trkpt>
      <trkpt lat="37.786650807" lon="-6.565525141">
        <ele>448.00</ele>
        <time>1899-12-29T23:00:00Z</time>
      </trkpt>
      <trkpt lat="37.786515690" lon="-6.565645169">
        <ele>449.00</ele>
        <time>1899-12-29T23:00:00Z</time>
      </trkpt>
      <trkpt lat="37.786401529" lon="-6.565742735">
        <ele>450.00</ele>
        <time>1899-12-29T23:00:00Z</time>
      </trkpt>
      <trkpt lat="37.786245123" lon="-6.565885227">
        <ele>451.00</ele>
        <time>1899-12-29T23:00:00Z</time>
      </trkpt>
      <trkpt lat="37.786156107" lon="-6.565963682">
        <ele>452.00</ele>
        <time>1899-12-29T23:00:00Z</time>
      </trkpt>
      <trkpt lat="37.786072120" lon="-6.566060912">
        <ele>453.00</ele>
        <time>1899-12-29T23:00:00Z</time>
      </trkpt>
      <trkpt lat="37.785988133" lon="-6.566158310">
        <ele>454.00</ele>
        <time>1899-12-29T23:00:00Z</time>
      </trkpt>
      <trkpt lat="37.785912193" lon="-6.566260234">
        <ele>454.00</ele>
        <time>1899-12-29T23:00:00Z</time>
      </trkpt>
      <trkpt lat="37.785751596" lon="-6.566478331">
        <ele>455.00</ele>
        <time>1899-12-29T23:00:00Z</time>
      </trkpt>
      <trkpt lat="37.785680518" lon="-6.566579416">
        <ele>456.00</ele>
        <time>1899-12-29T23:00:00Z</time>
      </trkpt>
      <trkpt lat="37.785547916" lon="-6.566741858">
        <ele>457.00</ele>
        <time>1899-12-29T23:00:00Z</time>
      </trkpt>
      <trkpt lat="37.785366699" lon="-6.566957776">
        <ele>457.00</ele>
        <time>1899-12-29T23:00:00Z</time>
      </trkpt>
      <trkpt lat="37.785285395" lon="-6.567025837">
        <ele>458.00</ele>
        <time>1899-12-29T23:00:00Z</time>
      </trkpt>
      <trkpt lat="37.785129156" lon="-6.567133795">
        <ele>458.00</ele>
        <time>1899-12-29T23:00:00Z</time>
      </trkpt>
      <trkpt lat="37.785033435" lon="-6.567180566">
        <ele>458.00</ele>
        <time>1899-12-29T23:00:00Z</time>
      </trkpt>
      <trkpt lat="37.784841489" lon="-6.567227840">
        <ele>458.00</ele>
        <time>1899-12-29T23:00:00Z</time>
      </trkpt>
      <trkpt lat="37.784578800" lon="-6.567244437">
        <ele>458.00</ele>
        <time>1899-12-29T23:00:00Z</time>
      </trkpt>
      <trkpt lat="37.784276884" lon="-6.567209903">
        <ele>458.00</ele>
        <time>1899-12-29T23:00:00Z</time>
      </trkpt>
      <trkpt lat="37.783841025" lon="-6.567151230">
        <ele>458.00</ele>
        <time>1899-12-29T23:00:00Z</time>
      </trkpt>
      <trkpt lat="37.783369459" lon="-6.567142177">
        <ele>457.00</ele>
        <time>1899-12-29T23:00:00Z</time>
      </trkpt>
      <trkpt lat="37.782895211" lon="-6.567222476">
        <ele>457.00</ele>
        <time>1899-12-29T23:00:00Z</time>
      </trkpt>
      <trkpt lat="37.782424483" lon="-6.567335967">
        <ele>457.00</ele>
        <time>1899-12-29T23:00:00Z</time>
      </trkpt>
      <trkpt lat="37.782070767" lon="-6.567516848">
        <ele>457.00</ele>
        <time>1899-12-29T23:00:00Z</time>
      </trkpt>
      <trkpt lat="37.781935483" lon="-6.567643415">
        <ele>457.00</ele>
        <time>1899-12-29T23:00:00Z</time>
      </trkpt>
      <trkpt lat="37.781667095" lon="-6.568013225">
        <ele>457.00</ele>
        <time>1899-12-29T23:00:00Z</time>
      </trkpt>
      <trkpt lat="37.781438436" lon="-6.568474732">
        <ele>457.00</ele>
        <time>1899-12-29T23:00:00Z</time>
      </trkpt>
      <trkpt lat="37.781412117" lon="-6.568897683">
        <ele>454.00</ele>
        <time>1899-12-29T23:00:00Z</time>
      </trkpt>
      <trkpt lat="37.781349588" lon="-6.569253244">
        <ele>453.00</ele>
        <time>1899-12-29T23:00:00Z</time>
      </trkpt>
      <trkpt lat="37.781310193" lon="-6.569383163">
        <ele>452.00</ele>
        <time>1899-12-29T23:00:00Z</time>
      </trkpt>
      <trkpt lat="37.781138867" lon="-6.569532193">
        <ele>450.00</ele>
        <time>1899-12-29T23:00:00Z</time>
      </trkpt>
      <trkpt lat="37.780830245" lon="-6.569721457">
        <ele>448.00</ele>
        <time>1899-12-29T23:00:00Z</time>
      </trkpt>
      <trkpt lat="37.780514751" lon="-6.569955479">
        <ele>445.00</ele>
        <time>1899-12-29T23:00:00Z</time>
      </trkpt>
      <trkpt lat="37.780389860" lon="-6.570091769">
        <ele>443.00</ele>
        <time>1899-12-29T23:00:00Z</time>
      </trkpt>
      <trkpt lat="37.780296821" lon="-6.570248511">
        <ele>443.00</ele>
        <time>1899-12-29T23:00:00Z</time>
      </trkpt>
      <trkpt lat="37.780149467" lon="-6.570225712">
        <ele>442.00</ele>
        <time>1899-12-29T23:00:00Z</time>
      </trkpt>
      <trkpt lat="37.779975291" lon="-6.570147090">
        <ele>440.00</ele>
        <time>1899-12-29T23:00:00Z</time>
      </trkpt>
      <trkpt lat="37.779830117" lon="-6.570011638">
        <ele>439.00</ele>
        <time>1899-12-29T23:00:00Z</time>
      </trkpt>
      <trkpt lat="37.779681422" lon="-6.570035778">
        <ele>438.00</ele>
        <time>1899-12-29T23:00:00Z</time>
      </trkpt>
      <trkpt lat="37.779549826" lon="-6.570092440">
        <ele>437.00</ele>
        <time>1899-12-29T23:00:00Z</time>
      </trkpt>
      <trkpt lat="37.779348828" lon="-6.570098810">
        <ele>436.00</ele>
        <time>1899-12-29T23:00:00Z</time>
      </trkpt>
      <trkpt lat="37.779089659" lon="-6.570071150">
        <ele>435.00</ele>
        <time>1899-12-29T23:00:00Z</time>
      </trkpt>
      <trkpt lat="37.778834682" lon="-6.570088081">
        <ele>434.00</ele>
        <time>1899-12-29T23:00:00Z</time>
      </trkpt>
      <trkpt lat="37.778619099" lon="-6.570120603">
        <ele>432.00</ele>
        <time>1899-12-29T23:00:00Z</time>
      </trkpt>
      <trkpt lat="37.778485492" lon="-6.570156142">
        <ele>432.00</ele>
        <time>1899-12-29T23:00:00Z</time>
      </trkpt>
      <trkpt lat="37.778268401" lon="-6.570078358">
        <ele>430.00</ele>
        <time>1899-12-29T23:00:00Z</time>
      </trkpt>
      <trkpt lat="37.778128590" lon="-6.570069473">
        <ele>430.00</ele>
        <time>1899-12-29T23:00:00Z</time>
      </trkpt>
      <trkpt lat="37.777854837" lon="-6.570213474">
        <ele>429.00</ele>
        <time>1899-12-29T23:00:00Z</time>
      </trkpt>
      <trkpt lat="37.777691558" lon="-6.570256725">
        <ele>428.00</ele>
        <time>1899-12-29T23:00:00Z</time>
      </trkpt>
      <trkpt lat="37.777552921" lon="-6.570196208">
        <ele>427.00</ele>
        <time>1899-12-29T23:00:00Z</time>
      </trkpt>
      <trkpt lat="37.777392324" lon="-6.570164189">
        <ele>427.00</ele>
        <time>1899-12-29T23:00:00Z</time>
      </trkpt>
      <trkpt lat="37.777263746" lon="-6.570159663">
        <ele>426.00</ele>
        <time>1899-12-29T23:00:00Z</time>
      </trkpt>
      <trkpt lat="37.777152434" lon="-6.570046842">
        <ele>425.00</ele>
        <time>1899-12-29T23:00:00Z</time>
      </trkpt>
      <trkpt lat="37.776982449" lon="-6.569864955">
        <ele>424.00</ele>
        <time>1899-12-29T23:00:00Z</time>
      </trkpt>
      <trkpt lat="37.776877340" lon="-6.569806114">
        <ele>423.00</ele>
        <time>1899-12-29T23:00:00Z</time>
      </trkpt>
      <trkpt lat="37.776784804" lon="-6.569704693">
        <ele>423.00</ele>
        <time>1899-12-29T23:00:00Z</time>
      </trkpt>
      <trkpt lat="37.776558157" lon="-6.569749117">
        <ele>423.00</ele>
        <time>1899-12-29T23:00:00Z</time>
      </trkpt>
      <trkpt lat="37.776468638" lon="-6.569891777">
        <ele>424.00</ele>
        <time>1899-12-29T23:00:00Z</time>
      </trkpt>
      <trkpt lat="37.776344586" lon="-6.569943577">
        <ele>425.00</ele>
        <time>1899-12-29T23:00:00Z</time>
      </trkpt>
      <trkpt lat="37.776160352" lon="-6.569956653">
        <ele>427.00</ele>
        <time>1899-12-29T23:00:00Z</time>
      </trkpt>
      <trkpt lat="37.775904704" lon="-6.570069809">
        <ele>430.00</ele>
        <time>1899-12-29T23:00:00Z</time>
      </trkpt>
      <trkpt lat="37.775651738" lon="-6.570246164">
        <ele>433.00</ele>
        <time>1899-12-29T23:00:00Z</time>
      </trkpt>
      <trkpt lat="37.775533553" lon="-6.570321266">
        <ele>435.00</ele>
        <time>1899-12-29T23:00:00Z</time>
      </trkpt>
      <trkpt lat="37.775424086" lon="-6.570349261">
        <ele>437.00</ele>
        <time>1899-12-29T23:00:00Z</time>
      </trkpt>
      <trkpt lat="37.775163576" lon="-6.570363846">
        <ele>441.00</ele>
        <time>1899-12-29T23:00:00Z</time>
      </trkpt>
      <trkpt lat="37.775002476" lon="-6.570287235">
        <ele>442.00</ele>
        <time>1899-12-29T23:00:00Z</time>
      </trkpt>
      <trkpt lat="37.774796281" lon="-6.570331324">
        <ele>444.00</ele>
        <time>1899-12-29T23:00:00Z</time>
      </trkpt>
      <trkpt lat="37.774476763" lon="-6.570396367">
        <ele>448.00</ele>
        <time>1899-12-29T23:00:00Z</time>
      </trkpt>
      <trkpt lat="37.774012741" lon="-6.570520755">
        <ele>454.00</ele>
        <time>1899-12-29T23:00:00Z</time>
      </trkpt>
      <trkpt lat="37.773904447" lon="-6.570494771">
        <ele>455.00</ele>
        <time>1899-12-29T23:00:00Z</time>
      </trkpt>
      <trkpt lat="37.773697581" lon="-6.570344064">
        <ele>457.00</ele>
        <time>1899-12-29T23:00:00Z</time>
      </trkpt>
      <trkpt lat="37.773345038" lon="-6.570156477">
        <ele>461.00</ele>
        <time>1899-12-29T23:00:00Z</time>
      </trkpt>
      <trkpt lat="37.773082014" lon="-6.570119597">
        <ele>464.00</ele>
        <time>1899-12-29T23:00:00Z</time>
      </trkpt>
      <trkpt lat="37.772789318" lon="-6.570099648">
        <ele>463.00</ele>
        <time>1899-12-29T23:00:00Z</time>
      </trkpt>
      <trkpt lat="37.772480864" lon="-6.570009626">
        <ele>463.00</ele>
        <time>1899-12-29T23:00:00Z</time>
      </trkpt>
      <trkpt lat="37.772137709" lon="-6.569821704">
        <ele>463.00</ele>
        <time>1899-12-29T23:00:00Z</time>
      </trkpt>
      <trkpt lat="37.771779802" lon="-6.569657587">
        <ele>464.00</ele>
        <time>1899-12-29T23:00:00Z</time>
      </trkpt>
      <trkpt lat="37.771406975" lon="-6.569491457">
        <ele>468.00</ele>
        <time>1899-12-29T23:00:00Z</time>
      </trkpt>
      <trkpt lat="37.771218382" lon="-6.569457762">
        <ele>469.00</ele>
        <time>1899-12-29T23:00:00Z</time>
      </trkpt>
      <trkpt lat="37.771108914" lon="-6.569495145">
        <ele>469.00</ele>
        <time>1899-12-29T23:00:00Z</time>
      </trkpt>
      <trkpt lat="37.770969272" lon="-6.569643505">
        <ele>471.00</ele>
        <time>1899-12-29T23:00:00Z</time>
      </trkpt>
      <trkpt lat="37.770844884" lon="-6.569824386">
        <ele>472.00</ele>
        <time>1899-12-29T23:00:00Z</time>
      </trkpt>
      <trkpt lat="37.770789061" lon="-6.570116412">
        <ele>476.00</ele>
        <time>1899-12-29T23:00:00Z</time>
      </trkpt>
      <trkpt lat="37.770531569" lon="-6.570520420">
        <ele>481.00</ele>
        <time>1899-12-29T23:00:00Z</time>
      </trkpt>
      <trkpt lat="37.770384718" lon="-6.570840105">
        <ele>484.00</ele>
        <time>1899-12-29T23:00:00Z</time>
      </trkpt>
      <trkpt lat="37.770147007" lon="-6.571194492">
        <ele>484.00</ele>
        <time>1899-12-29T23:00:00Z</time>
      </trkpt>
      <trkpt lat="37.769881971" lon="-6.571448464">
        <ele>485.00</ele>
        <time>1899-12-29T23:00:00Z</time>
      </trkpt>
      <trkpt lat="37.769738641" lon="-6.571460702">
        <ele>487.00</ele>
        <time>1899-12-29T23:00:00Z</time>
      </trkpt>
      <trkpt lat="37.769628335" lon="-6.571422983">
        <ele>489.00</ele>
        <time>1899-12-29T23:00:00Z</time>
      </trkpt>
      <trkpt lat="37.769440748" lon="-6.571459528">
        <ele>489.00</ele>
        <time>1899-12-29T23:00:00Z</time>
      </trkpt>
      <trkpt lat="37.769208066" lon="-6.571612079">
        <ele>491.00</ele>
        <time>1899-12-29T23:00:00Z</time>
      </trkpt>
      <trkpt lat="37.769097593" lon="-6.571853645">
        <ele>495.00</ele>
        <time>1899-12-29T23:00:00Z</time>
      </trkpt>
      <trkpt lat="37.769026849" lon="-6.572150700">
        <ele>497.00</ele>
        <time>1899-12-29T23:00:00Z</time>
      </trkpt>
      <trkpt lat="37.768950071" lon="-6.572560575">
        <ele>500.00</ele>
        <time>1899-12-29T23:00:00Z</time>
      </trkpt>
      <trkpt lat="37.768765837" lon="-6.573155522">
        <ele>506.00</ele>
        <time>1899-12-29T23:00:00Z</time>
      </trkpt>
      <trkpt lat="37.768502980" lon="-6.573428269">
        <ele>510.00</ele>
        <time>1899-12-29T23:00:00Z</time>
      </trkpt>
      <trkpt lat="37.768210117" lon="-6.573539749">
        <ele>514.00</ele>
        <time>1899-12-29T23:00:00Z</time>
      </trkpt>
      <trkpt lat="37.768078353" lon="-6.573279575">
        <ele>516.00</ele>
        <time>1899-12-29T23:00:00Z</time>
      </trkpt>
      <trkpt lat="37.767971568" lon="-6.572934408">
        <ele>519.00</ele>
        <time>1899-12-29T23:00:00Z</time>
      </trkpt>
      <trkpt lat="37.767885402" lon="-6.572900880">
        <ele>519.00</ele>
        <time>1899-12-29T23:00:00Z</time>
      </trkpt>
      <trkpt lat="37.767658420" lon="-6.572924182">
        <ele>519.00</ele>
        <time>1899-12-29T23:00:00Z</time>
      </trkpt>
      <trkpt lat="37.767572254" lon="-6.572885960">
        <ele>520.00</ele>
        <time>1899-12-29T23:00:00Z</time>
      </trkpt>
      <trkpt lat="37.767512742" lon="-6.572748665">
        <ele>520.00</ele>
        <time>1899-12-29T23:00:00Z</time>
      </trkpt>
      <trkpt lat="37.764846962" lon="-6.574072503">
        <ele>525.00</ele>
        <time>1899-12-29T23:00:00Z</time>
      </trkpt>
      <trkpt lat="37.764768675" lon="-6.573888939">
        <ele>525.00</ele>
        <time>1899-12-29T23:00:00Z</time>
      </trkpt>
      <trkpt lat="37.764704805" lon="-6.573668998">
        <ele>525.00</ele>
        <time>1899-12-29T23:00:00Z</time>
      </trkpt>
      <trkpt lat="37.764471788" lon="-6.573717445">
        <ele>525.00</ele>
        <time>1899-12-29T23:00:00Z</time>
      </trkpt>
      <trkpt lat="37.764176074" lon="-6.573838983">
        <ele>526.00</ele>
        <time>1899-12-29T23:00:00Z</time>
      </trkpt>
      <trkpt lat="37.764009610" lon="-6.573929004">
        <ele>527.00</ele>
        <time>1899-12-29T23:00:00Z</time>
      </trkpt>
      <trkpt lat="37.763921935" lon="-6.573993210">
        <ele>528.00</ele>
        <time>1899-12-29T23:00:00Z</time>
      </trkpt>
      <trkpt lat="37.763812467" lon="-6.574079543">
        <ele>529.00</ele>
        <time>1899-12-29T23:00:00Z</time>
      </trkpt>
      <trkpt lat="37.763538044" lon="-6.574419681">
        <ele>530.00</ele>
        <time>1899-12-29T23:00:00Z</time>
      </trkpt>
      <trkpt lat="37.763474006" lon="-6.574595366">
        <ele>531.00</ele>
        <time>1899-12-29T23:00:00Z</time>
      </trkpt>
      <trkpt lat="37.763424050" lon="-6.574739534">
        <ele>531.00</ele>
        <time>1899-12-29T23:00:00Z</time>
      </trkpt>
      <trkpt lat="37.763323132" lon="-6.575034074">
        <ele>533.00</ele>
        <time>1899-12-29T23:00:00Z</time>
      </trkpt>
      <trkpt lat="37.763321791" lon="-6.575243790">
        <ele>533.00</ele>
        <time>1899-12-29T23:00:00Z</time>
      </trkpt>
      <trkpt lat="37.763374429" lon="-6.575391814">
        <ele>533.00</ele>
        <time>1899-12-29T23:00:00Z</time>
      </trkpt>
      <trkpt lat="37.763455063" lon="-6.575543527">
        <ele>533.00</ele>
        <time>1899-12-29T23:00:00Z</time>
      </trkpt>
      <trkpt lat="37.763476688" lon="-6.575734466">
        <ele>533.00</ele>
        <time>1899-12-29T23:00:00Z</time>
      </trkpt>
      <trkpt lat="37.763477024" lon="-6.575895231">
        <ele>533.00</ele>
        <time>1899-12-29T23:00:00Z</time>
      </trkpt>
      <trkpt lat="37.763460595" lon="-6.576102264">
        <ele>533.00</ele>
        <time>1899-12-29T23:00:00Z</time>
      </trkpt>
      <trkpt lat="37.763399575" lon="-6.576316003">
        <ele>534.00</ele>
        <time>1899-12-29T23:00:00Z</time>
      </trkpt>
      <trkpt lat="37.763314750" lon="-6.576532759">
        <ele>536.00</ele>
        <time>1899-12-29T23:00:00Z</time>
      </trkpt>
      <trkpt lat="37.763235457" lon="-6.576751359">
        <ele>538.00</ele>
        <time>1899-12-29T23:00:00Z</time>
      </trkpt>
      <trkpt lat="37.763239816" lon="-6.576910615">
        <ele>538.00</ele>
        <time>1899-12-29T23:00:00Z</time>
      </trkpt>
      <trkpt lat="37.763264123" lon="-6.577131394">
        <ele>538.00</ele>
        <time>1899-12-29T23:00:00Z</time>
      </trkpt>
      <trkpt lat="37.763201259" lon="-6.577370279">
        <ele>539.00</ele>
        <time>1899-12-29T23:00:00Z</time>
      </trkpt>
      <trkpt lat="37.763087433" lon="-6.577515118">
        <ele>542.00</ele>
        <time>1899-12-29T23:00:00Z</time>
      </trkpt>
      <trkpt lat="37.762851231" lon="-6.577707399">
        <ele>546.00</ele>
        <time>1899-12-29T23:00:00Z</time>
      </trkpt>
      <trkpt lat="37.762646377" lon="-6.577853244">
        <ele>550.00</ele>
        <time>1899-12-29T23:00:00Z</time>
      </trkpt>
      <trkpt lat="37.762460634" lon="-6.577921137">
        <ele>553.00</ele>
        <time>1899-12-29T23:00:00Z</time>
      </trkpt>
      <trkpt lat="37.762293499" lon="-6.577808484">
        <ele>556.00</ele>
        <time>1899-12-29T23:00:00Z</time>
      </trkpt>
      <trkpt lat="37.762189396" lon="-6.577789206">
        <ele>557.00</ele>
        <time>1899-12-29T23:00:00Z</time>
      </trkpt>
      <trkpt lat="37.761982698" lon="-6.577875540">
        <ele>559.00</ele>
        <time>1899-12-29T23:00:00Z</time>
      </trkpt>
      <trkpt lat="37.761830147" lon="-6.577983499">
        <ele>561.00</ele>
        <time>1899-12-29T23:00:00Z</time>
      </trkpt>
      <trkpt lat="37.761715315" lon="-6.578127332">
        <ele>563.00</ele>
        <time>1899-12-29T23:00:00Z</time>
      </trkpt>
      <trkpt lat="37.761587407" lon="-6.578238141">
        <ele>564.00</ele>
        <time>1899-12-29T23:00:00Z</time>
      </trkpt>
      <trkpt lat="37.761247437" lon="-6.578265131">
        <ele>562.00</ele>
        <time>1899-12-29T23:00:00Z</time>
      </trkpt>
      <trkpt lat="37.761099245" lon="-6.578316260">
        <ele>562.00</ele>
        <time>1899-12-29T23:00:00Z</time>
      </trkpt>
      <trkpt lat="37.760930769" lon="-6.578487586">
        <ele>564.00</ele>
        <time>1899-12-29T23:00:00Z</time>
      </trkpt>
      <trkpt lat="37.760842256" lon="-6.578744240">
        <ele>568.00</ele>
        <time>1899-12-29T23:00:00Z</time>
      </trkpt>
      <trkpt lat="37.760862708" lon="-6.578908190">
        <ele>570.00</ele>
        <time>1899-12-29T23:00:00Z</time>
      </trkpt>
      <trkpt lat="37.760913502" lon="-6.579104997">
        <ele>573.00</ele>
        <time>1899-12-29T23:00:00Z</time>
      </trkpt>
      <trkpt lat="37.760928087" lon="-6.579305660">
        <ele>574.00</ele>
        <time>1899-12-29T23:00:00Z</time>
      </trkpt>
      <trkpt lat="37.760885675" lon="-6.579510346">
        <ele>576.00</ele>
        <time>1899-12-29T23:00:00Z</time>
      </trkpt>
      <trkpt lat="37.760766819" lon="-6.579704136">
        <ele>575.00</ele>
        <time>1899-12-29T23:00:00Z</time>
      </trkpt>
      <trkpt lat="37.760666404" lon="-6.579809915">
        <ele>572.00</ele>
        <time>1899-12-29T23:00:00Z</time>
      </trkpt>
      <trkpt lat="37.760461383" lon="-6.580051649">
        <ele>567.00</ele>
        <time>1899-12-29T23:00:00Z</time>
      </trkpt>
      <trkpt lat="37.760386784" lon="-6.580247618">
        <ele>568.00</ele>
        <time>1899-12-29T23:00:00Z</time>
      </trkpt>
      <trkpt lat="37.760329284" lon="-6.580473930">
        <ele>570.00</ele>
        <time>1899-12-29T23:00:00Z</time>
      </trkpt>
      <trkpt lat="37.760277819" lon="-6.580627486">
        <ele>571.00</ele>
        <time>1899-12-29T23:00:00Z</time>
      </trkpt>
      <trkpt lat="37.760159634" lon="-6.580735277">
        <ele>569.00</ele>
        <time>1899-12-29T23:00:00Z</time>
      </trkpt>
      <trkpt lat="37.759969365" lon="-6.580870561">
        <ele>566.00</ele>
        <time>1899-12-29T23:00:00Z</time>
      </trkpt>
      <trkpt lat="37.759743556" lon="-6.581019089">
        <ele>560.00</ele>
        <time>1899-12-29T23:00:00Z</time>
      </trkpt>
      <trkpt lat="37.759551276" lon="-6.581235006">
        <ele>556.00</ele>
        <time>1899-12-29T23:00:00Z</time>
      </trkpt>
      <trkpt lat="37.759425212" lon="-6.581452433">
        <ele>555.00</ele>
        <time>1899-12-29T23:00:00Z</time>
      </trkpt>
      <trkpt lat="37.759353463" lon="-6.581835318">
        <ele>556.00</ele>
        <time>1899-12-29T23:00:00Z</time>
      </trkpt>
      <trkpt lat="37.759295460" lon="-6.582255419">
        <ele>552.00</ele>
        <time>1899-12-29T23:00:00Z</time>
      </trkpt>
      <trkpt lat="37.759310715" lon="-6.582498997">
        <ele>552.00</ele>
        <time>1899-12-29T23:00:00Z</time>
      </trkpt>
      <trkpt lat="37.759345081" lon="-6.582711898">
        <ele>551.00</ele>
        <time>1899-12-29T23:00:00Z</time>
      </trkpt>
      <trkpt lat="37.759363521" lon="-6.583013982">
        <ele>549.00</ele>
        <time>1899-12-29T23:00:00Z</time>
      </trkpt>
      <trkpt lat="37.759342566" lon="-6.583138537">
        <ele>547.00</ele>
        <time>1899-12-29T23:00:00Z</time>
      </trkpt>
      <trkpt lat="37.759299316" lon="-6.583333332">
        <ele>543.00</ele>
        <time>1899-12-29T23:00:00Z</time>
      </trkpt>
      <trkpt lat="37.759259585" lon="-6.583668776">
        <ele>541.00</ele>
        <time>1899-12-29T23:00:00Z</time>
      </trkpt>
      <trkpt lat="37.759228740" lon="-6.583837084">
        <ele>539.00</ele>
        <time>1899-12-29T23:00:00Z</time>
      </trkpt>
      <trkpt lat="37.759141903" lon="-6.584065240">
        <ele>536.00</ele>
        <time>1899-12-29T23:00:00Z</time>
      </trkpt>
      <trkpt lat="37.759050038" lon="-6.584326755">
        <ele>533.00</ele>
        <time>1899-12-29T23:00:00Z</time>
      </trkpt>
      <trkpt lat="37.759020366" lon="-6.584981382">
        <ele>531.00</ele>
        <time>1899-12-29T23:00:00Z</time>
      </trkpt>
      <trkpt lat="37.758972757" lon="-6.585271563">
        <ele>529.00</ele>
        <time>1899-12-29T23:00:00Z</time>
      </trkpt>
      <trkpt lat="37.758849375" lon="-6.585559733">
        <ele>523.00</ele>
        <time>1899-12-29T23:00:00Z</time>
      </trkpt>
      <trkpt lat="37.758718114" lon="-6.585861649">
        <ele>517.00</ele>
        <time>1899-12-29T23:00:00Z</time>
      </trkpt>
      <trkpt lat="37.758621220" lon="-6.586312596">
        <ele>511.00</ele>
        <time>1899-12-29T23:00:00Z</time>
      </trkpt>
      <trkpt lat="37.758431621" lon="-6.586700846">
        <ele>504.00</ele>
        <time>1899-12-29T23:00:00Z</time>
      </trkpt>
      <trkpt lat="37.758268174" lon="-6.587231420">
        <ele>499.00</ele>
        <time>1899-12-29T23:00:00Z</time>
      </trkpt>
      <trkpt lat="37.758038677" lon="-6.587562673">
        <ele>493.00</ele>
        <time>1899-12-29T23:00:00Z</time>
      </trkpt>
      <trkpt lat="37.757794429" lon="-6.587744392">
        <ele>488.00</ele>
        <time>1899-12-29T23:00:00Z</time>
      </trkpt>
      <trkpt lat="37.757523023" lon="-6.588067766">
        <ele>481.00</ele>
        <time>1899-12-29T23:00:00Z</time>
      </trkpt>
      <trkpt lat="37.757418081" lon="-6.588330120">
        <ele>480.00</ele>
        <time>1899-12-29T23:00:00Z</time>
      </trkpt>
      <trkpt lat="37.757253628" lon="-6.588812415">
        <ele>478.00</ele>
        <time>1899-12-29T23:00:00Z</time>
      </trkpt>
      <trkpt lat="37.757153548" lon="-6.589198485">
        <ele>477.00</ele>
        <time>1899-12-29T23:00:00Z</time>
      </trkpt>
      <trkpt lat="37.756928578" lon="-6.589562260">
        <ele>474.00</ele>
        <time>1899-12-29T23:00:00Z</time>
      </trkpt>
      <trkpt lat="37.756766807" lon="-6.589994933">
        <ele>469.00</ele>
        <time>1899-12-29T23:00:00Z</time>
      </trkpt>
      <trkpt lat="37.756612245" lon="-6.590221077">
        <ele>466.00</ele>
        <time>1899-12-29T23:00:00Z</time>
      </trkpt>
      <trkpt lat="37.756420132" lon="-6.590328198">
        <ele>466.00</ele>
        <time>1899-12-29T23:00:00Z</time>
      </trkpt>
      <trkpt lat="37.756222151" lon="-6.590228789">
        <ele>468.00</ele>
        <time>1899-12-29T23:00:00Z</time>
      </trkpt>
      <trkpt lat="37.756051999" lon="-6.590252761">
        <ele>468.00</ele>
        <time>1899-12-29T23:00:00Z</time>
      </trkpt>
      <trkpt lat="37.755995672" lon="-6.590468679">
        <ele>466.00</ele>
        <time>1899-12-29T23:00:00Z</time>
      </trkpt>
      <trkpt lat="37.755876482" lon="-6.590636317">
        <ele>465.00</ele>
        <time>1899-12-29T23:00:00Z</time>
      </trkpt>
      <trkpt lat="37.755631395" lon="-6.590707228">
        <ele>462.00</ele>
        <time>1899-12-29T23:00:00Z</time>
      </trkpt>
      <trkpt lat="37.755468953" lon="-6.590826083">
        <ele>460.00</ele>
        <time>1899-12-29T23:00:00Z</time>
      </trkpt>
      <trkpt lat="37.755304668" lon="-6.591064800">
        <ele>459.00</ele>
        <time>1899-12-29T23:00:00Z</time>
      </trkpt>
      <trkpt lat="37.755203247" lon="-6.591343582">
        <ele>457.00</ele>
        <time>1899-12-29T23:00:00Z</time>
      </trkpt>
      <trkpt lat="37.755097970" lon="-6.591580957">
        <ele>457.00</ele>
        <time>1899-12-29T23:00:00Z</time>
      </trkpt>
      <trkpt lat="37.754923459" lon="-6.591778602">
        <ele>455.00</ele>
        <time>1899-12-29T23:00:00Z</time>
      </trkpt>
      <trkpt lat="37.754853722" lon="-6.591978092">
        <ele>454.00</ele>
        <time>1899-12-29T23:00:00Z</time>
      </trkpt>
      <trkpt lat="37.754850537" lon="-6.592250671">
        <ele>454.00</ele>
        <time>1899-12-29T23:00:00Z</time>
      </trkpt>
      <trkpt lat="37.754774597" lon="-6.592466924">
        <ele>453.00</ele>
        <time>1899-12-29T23:00:00Z</time>
      </trkpt>
      <trkpt lat="37.754544597" lon="-6.592690386">
        <ele>449.00</ele>
        <time>1899-12-29T23:00:00Z</time>
      </trkpt>
      <trkpt lat="37.754319292" lon="-6.592764985">
        <ele>446.00</ele>
        <time>1899-12-29T23:00:00Z</time>
      </trkpt>
      <trkpt lat="37.754051406" lon="-6.592848804">
        <ele>445.00</ele>
        <time>1899-12-29T23:00:00Z</time>
      </trkpt>
      <trkpt lat="37.753827609" lon="-6.593043264">
        <ele>445.00</ele>
        <time>1899-12-29T23:00:00Z</time>
      </trkpt>
      <trkpt lat="37.753608674" lon="-6.593097076">
        <ele>445.00</ele>
        <time>1899-12-29T23:00:00Z</time>
      </trkpt>
      <trkpt lat="37.753435336" lon="-6.593137644">
        <ele>446.00</ele>
        <time>1899-12-29T23:00:00Z</time>
      </trkpt>
      <trkpt lat="37.753338609" lon="-6.593263540">
        <ele>446.00</ele>
        <time>1899-12-29T23:00:00Z</time>
      </trkpt>
      <trkpt lat="37.753214054" lon="-6.593270078">
        <ele>447.00</ele>
        <time>1899-12-29T23:00:00Z</time>
      </trkpt>
      <trkpt lat="37.753091846" lon="-6.593193971">
        <ele>448.00</ele>
        <time>1899-12-29T23:00:00Z</time>
      </trkpt>
      <trkpt lat="37.752998471" lon="-6.593063716">
        <ele>450.00</ele>
        <time>1899-12-29T23:00:00Z</time>
      </trkpt>
      <trkpt lat="37.752893027" lon="-6.593041085">
        <ele>451.00</ele>
        <time>1899-12-29T23:00:00Z</time>
      </trkpt>
      <trkpt lat="37.752648946" lon="-6.592922062">
        <ele>453.00</ele>
        <time>1899-12-29T23:00:00Z</time>
      </trkpt>
      <trkpt lat="37.752554901" lon="-6.592738163">
        <ele>455.00</ele>
        <time>1899-12-29T23:00:00Z</time>
      </trkpt>
      <trkpt lat="37.752265893" lon="-6.592685860">
        <ele>460.00</ele>
        <time>1899-12-29T23:00:00Z</time>
      </trkpt>
      <trkpt lat="37.752061374" lon="-6.592590809">
        <ele>463.00</ele>
        <time>1899-12-29T23:00:00Z</time>
      </trkpt>
      <trkpt lat="37.751838919" lon="-6.592372209">
        <ele>468.00</ele>
        <time>1899-12-29T23:00:00Z</time>
      </trkpt>
      <trkpt lat="37.751628868" lon="-6.592099629">
        <ele>475.00</ele>
        <time>1899-12-29T23:00:00Z</time>
      </trkpt>
      <trkpt lat="37.751378920" lon="-6.591774244">
        <ele>479.00</ele>
        <time>1899-12-29T23:00:00Z</time>
      </trkpt>
      <trkpt lat="37.751262411" lon="-6.591627896">
        <ele>480.00</ele>
        <time>1899-12-29T23:00:00Z</time>
      </trkpt>
      <trkpt lat="37.751069795" lon="-6.591429412">
        <ele>482.00</ele>
        <time>1899-12-29T23:00:00Z</time>
      </trkpt>
      <trkpt lat="37.750961669" lon="-6.591175441">
        <ele>484.00</ele>
        <time>1899-12-29T23:00:00Z</time>
      </trkpt>
      <trkpt lat="37.750954293" lon="-6.590845194">
        <ele>487.00</ele>
        <time>1899-12-29T23:00:00Z</time>
      </trkpt>
      <trkpt lat="37.750941049" lon="-6.590576973">
        <ele>487.00</ele>
        <time>1899-12-29T23:00:00Z</time>
      </trkpt>
      <trkpt lat="37.750914395" lon="-6.590284277">
        <ele>486.00</ele>
        <time>1899-12-29T23:00:00Z</time>
      </trkpt>
      <trkpt lat="37.750857230" lon="-6.589909606">
        <ele>484.00</ele>
        <time>1899-12-29T23:00:00Z</time>
      </trkpt>
      <trkpt lat="37.750839964" lon="-6.589571312">
        <ele>482.00</ele>
        <time>1899-12-29T23:00:00Z</time>
      </trkpt>
      <trkpt lat="37.750855554" lon="-6.589240562">
        <ele>481.00</ele>
        <time>1899-12-29T23:00:00Z</time>
      </trkpt>
      <trkpt lat="37.750877514" lon="-6.588905621">
        <ele>478.00</ele>
        <time>1899-12-29T23:00:00Z</time>
      </trkpt>
      <trkpt lat="37.750913557" lon="-6.588519216">
        <ele>475.00</ele>
        <time>1899-12-29T23:00:00Z</time>
      </trkpt>
      <trkpt lat="37.751029395" lon="-6.588210259">
        <ele>473.00</ele>
        <time>1899-12-29T23:00:00Z</time>
      </trkpt>
      <trkpt lat="37.751114555" lon="-6.588078160">
        <ele>473.00</ele>
        <time>1899-12-29T23:00:00Z</time>
      </trkpt>
      <trkpt lat="37.751249336" lon="-6.587894429">
        <ele>473.00</ele>
        <time>1899-12-29T23:00:00Z</time>
      </trkpt>
      <trkpt lat="37.751404233" lon="-6.587718744">
        <ele>472.00</ele>
        <time>1899-12-29T23:00:00Z</time>
      </trkpt>
      <trkpt lat="37.751377914" lon="-6.587483548">
        <ele>467.00</ele>
        <time>1899-12-29T23:00:00Z</time>
      </trkpt>
      <trkpt lat="37.751433235" lon="-6.587364525">
        <ele>467.00</ele>
        <time>1899-12-29T23:00:00Z</time>
      </trkpt>
      <trkpt lat="37.751561981" lon="-6.587239970">
        <ele>467.00</ele>
        <time>1899-12-29T23:00:00Z</time>
      </trkpt>
      <trkpt lat="37.751660384" lon="-6.587094963">
        <ele>466.00</ele>
        <time>1899-12-29T23:00:00Z</time>
      </trkpt>
      <trkpt lat="37.751665581" lon="-6.586981136">
        <ele>465.00</ele>
        <time>1899-12-29T23:00:00Z</time>
      </trkpt>
      <trkpt lat="37.751615793" lon="-6.586742252">
        <ele>461.00</ele>
        <time>1899-12-29T23:00:00Z</time>
      </trkpt>
      <trkpt lat="37.751618978" lon="-6.586464476">
        <ele>459.00</ele>
        <time>1899-12-29T23:00:00Z</time>
      </trkpt>
      <trkpt lat="37.751595676" lon="-6.586203966">
        <ele>456.00</ele>
        <time>1899-12-29T23:00:00Z</time>
      </trkpt>
      <trkpt lat="37.751676980" lon="-6.586021408">
        <ele>456.00</ele>
        <time>1899-12-29T23:00:00Z</time>
      </trkpt>
      <trkpt lat="37.751701623" lon="-6.585848406">
        <ele>455.00</ele>
        <time>1899-12-29T23:00:00Z</time>
      </trkpt>
      <trkpt lat="37.751706485" lon="-6.585709434">
        <ele>453.00</ele>
        <time>1899-12-29T23:00:00Z</time>
      </trkpt>
      <trkpt lat="37.751719560" lon="-6.585422941">
        <ele>450.00</ele>
        <time>1899-12-29T23:00:00Z</time>
      </trkpt>
      <trkpt lat="37.751730625" lon="-6.585241724">
        <ele>448.00</ele>
        <time>1899-12-29T23:00:00Z</time>
      </trkpt>
      <trkpt lat="37.751761638" lon="-6.585064363">
        <ele>447.00</ele>
        <time>1899-12-29T23:00:00Z</time>
      </trkpt>
      <trkpt lat="37.751864567" lon="-6.585007533">
        <ele>447.00</ele>
        <time>1899-12-29T23:00:00Z</time>
      </trkpt>
      <trkpt lat="37.752069756" lon="-6.585112810">
        <ele>449.00</ele>
        <time>1899-12-29T23:00:00Z</time>
      </trkpt>
      <trkpt lat="37.752209902" lon="-6.585093196">
        <ele>450.00</ele>
        <time>1899-12-29T23:00:00Z</time>
      </trkpt>
      <trkpt lat="37.752282321" lon="-6.585003342">
        <ele>450.00</ele>
        <time>1899-12-29T23:00:00Z</time>
      </trkpt>
      <trkpt lat="37.752337307" lon="-6.584854983">
        <ele>451.00</ele>
        <time>1899-12-29T23:00:00Z</time>
      </trkpt>
      <trkpt lat="37.752339151" lon="-6.584737133">
        <ele>451.00</ele>
        <time>1899-12-29T23:00:00Z</time>
      </trkpt>
      <trkpt lat="37.752320375" lon="-6.584569160">
        <ele>452.00</ele>
        <time>1899-12-29T23:00:00Z</time>
      </trkpt>
      <trkpt lat="37.752324231" lon="-6.584358606">
        <ele>453.00</ele>
        <time>1899-12-29T23:00:00Z</time>
      </trkpt>
      <trkpt lat="37.752284836" lon="-6.584144700">
        <ele>453.00</ele>
        <time>1899-12-29T23:00:00Z</time>
      </trkpt>
      <trkpt lat="37.752235048" lon="-6.583905816">
        <ele>454.00</ele>
        <time>1899-12-29T23:00:00Z</time>
      </trkpt>
      <trkpt lat="37.752214763" lon="-6.583615802">
        <ele>454.00</ele>
        <time>1899-12-29T23:00:00Z</time>
      </trkpt>
      <trkpt lat="37.752215434" lon="-6.583409607">
        <ele>455.00</ele>
        <time>1899-12-29T23:00:00Z</time>
      </trkpt>
      <trkpt lat="37.752271760" lon="-6.583105512">
        <ele>455.00</ele>
        <time>1899-12-29T23:00:00Z</time>
      </trkpt>
      <trkpt lat="37.752279639" lon="-6.582667641">
        <ele>453.00</ele>
        <time>1899-12-29T23:00:00Z</time>
      </trkpt>
      <trkpt lat="37.752328925" lon="-6.582338400">
        <ele>453.00</ele>
        <time>1899-12-29T23:00:00Z</time>
      </trkpt>
      <trkpt lat="37.752387263" lon="-6.582198422">
        <ele>453.00</ele>
        <time>1899-12-29T23:00:00Z</time>
      </trkpt>
      <trkpt lat="37.752545848" lon="-6.582056433">
        <ele>454.00</ele>
        <time>1899-12-29T23:00:00Z</time>
      </trkpt>
      <trkpt lat="37.752694376" lon="-6.581914611">
        <ele>456.00</ele>
        <time>1899-12-29T23:00:00Z</time>
      </trkpt>
      <trkpt lat="37.752738968" lon="-6.581741106">
        <ele>456.00</ele>
        <time>1899-12-29T23:00:00Z</time>
      </trkpt>
      <trkpt lat="37.752694041" lon="-6.581628285">
        <ele>455.00</ele>
        <time>1899-12-29T23:00:00Z</time>
      </trkpt>
      <trkpt lat="37.752493713" lon="-6.581384037">
        <ele>454.00</ele>
        <time>1899-12-29T23:00:00Z</time>
      </trkpt>
      <trkpt lat="37.752271760" lon="-6.581098884">
        <ele>454.00</ele>
        <time>1899-12-29T23:00:00Z</time>
      </trkpt>
      <trkpt lat="37.752149887" lon="-6.580946501">
        <ele>453.00</ele>
        <time>1899-12-29T23:00:00Z</time>
      </trkpt>
      <trkpt lat="37.751936149" lon="-6.580673922">
        <ele>455.00</ele>
        <time>1899-12-29T23:00:00Z</time>
      </trkpt>
      <trkpt lat="37.751817293" lon="-6.580442078">
        <ele>457.00</ele>
        <time>1899-12-29T23:00:00Z</time>
      </trkpt>
      <trkpt lat="37.751695421" lon="-6.580155417">
        <ele>460.00</ele>
        <time>1899-12-29T23:00:00Z</time>
      </trkpt>
      <trkpt lat="37.751583941" lon="-6.579907648">
        <ele>461.00</ele>
        <time>1899-12-29T23:00:00Z</time>
      </trkpt>
      <trkpt lat="37.751530465" lon="-6.579726599">
        <ele>461.00</ele>
        <time>1899-12-29T23:00:00Z</time>
      </trkpt>
      <trkpt lat="37.751469612" lon="-6.579502802">
        <ele>462.00</ele>
        <time>1899-12-29T23:00:00Z</time>
      </trkpt>
      <trkpt lat="37.751351930" lon="-6.579290908">
        <ele>461.00</ele>
        <time>1899-12-29T23:00:00Z</time>
      </trkpt>
      <trkpt lat="37.751298286" lon="-6.578940209">
        <ele>461.00</ele>
        <time>1899-12-29T23:00:00Z</time>
      </trkpt>
      <trkpt lat="37.751282193" lon="-6.578618009">
        <ele>460.00</ele>
        <time>1899-12-29T23:00:00Z</time>
      </trkpt>
      <trkpt lat="37.751303986" lon="-6.578438133">
        <ele>461.00</ele>
        <time>1899-12-29T23:00:00Z</time>
      </trkpt>
      <trkpt lat="37.751271632" lon="-6.578256916">
        <ele>460.00</ele>
        <time>1899-12-29T23:00:00Z</time>
      </trkpt>
      <trkpt lat="37.751215808" lon="-6.577946953">
        <ele>460.00</ele>
        <time>1899-12-29T23:00:00Z</time>
      </trkpt>
      <trkpt lat="37.751224525" lon="-6.577485781">
        <ele>460.00</ele>
        <time>1899-12-29T23:00:00Z</time>
      </trkpt>
      <trkpt lat="37.751250509" lon="-6.577184033">
        <ele>459.00</ele>
        <time>1899-12-29T23:00:00Z</time>
      </trkpt>
      <trkpt lat="37.751259394" lon="-6.576694362">
        <ele>457.00</ele>
        <time>1899-12-29T23:00:00Z</time>
      </trkpt>
      <trkpt lat="37.751248665" lon="-6.576440390">
        <ele>457.00</ele>
        <time>1899-12-29T23:00:00Z</time>
      </trkpt>
      <trkpt lat="37.751161996" lon="-6.576174181">
        <ele>455.00</ele>
        <time>1899-12-29T23:00:00Z</time>
      </trkpt>
      <trkpt lat="37.751115728" lon="-6.575981732">
        <ele>454.00</ele>
        <time>1899-12-29T23:00:00Z</time>
      </trkpt>
      <trkpt lat="37.751023192" lon="-6.575757600">
        <ele>453.00</ele>
        <time>1899-12-29T23:00:00Z</time>
      </trkpt>
      <trkpt lat="37.750909366" lon="-6.575618628">
        <ele>453.00</ele>
        <time>1899-12-29T23:00:00Z</time>
      </trkpt>
      <trkpt lat="37.750869971" lon="-6.575443614">
        <ele>453.00</ele>
        <time>1899-12-29T23:00:00Z</time>
      </trkpt>
      <trkpt lat="37.750800401" lon="-6.575282011">
        <ele>454.00</ele>
        <time>1899-12-29T23:00:00Z</time>
      </trkpt>
      <trkpt lat="37.750635948" lon="-6.575271953">
        <ele>453.00</ele>
        <time>1899-12-29T23:00:00Z</time>
      </trkpt>
      <trkpt lat="37.750455905" lon="-6.575223003">
        <ele>452.00</ele>
        <time>1899-12-29T23:00:00Z</time>
      </trkpt>
      <trkpt lat="37.750300337" lon="-6.575093083">
        <ele>452.00</ele>
        <time>1899-12-29T23:00:00Z</time>
      </trkpt>
      <trkpt lat="37.750161365" lon="-6.574984118">
        <ele>452.00</ele>
        <time>1899-12-29T23:00:00Z</time>
      </trkpt>
      <trkpt lat="37.750040833" lon="-6.574821342">
        <ele>452.00</ele>
        <time>1899-12-29T23:00:00Z</time>
      </trkpt>
      <trkpt lat="37.749903202" lon="-6.574669126">
        <ele>452.00</ele>
        <time>1899-12-29T23:00:00Z</time>
      </trkpt>
      <trkpt lat="37.749720477" lon="-6.574409287">
        <ele>451.00</ele>
        <time>1899-12-29T23:00:00Z</time>
      </trkpt>
      <trkpt lat="37.749696337" lon="-6.574140564">
        <ele>451.00</ele>
        <time>1899-12-29T23:00:00Z</time>
      </trkpt>
      <trkpt lat="37.749700360" lon="-6.573887933">
        <ele>451.00</ele>
        <time>1899-12-29T23:00:00Z</time>
      </trkpt>
      <trkpt lat="37.749714442" lon="-6.573659610">
        <ele>451.00</ele>
        <time>1899-12-29T23:00:00Z</time>
      </trkpt>
      <trkpt lat="37.749693487" lon="-6.573334392">
        <ele>450.00</ele>
        <time>1899-12-29T23:00:00Z</time>
      </trkpt>
      <trkpt lat="37.749705054" lon="-6.572923344">
        <ele>450.00</ele>
        <time>1899-12-29T23:00:00Z</time>
      </trkpt>
      <trkpt lat="37.749742605" lon="-6.572620086">
        <ele>450.00</ele>
        <time>1899-12-29T23:00:00Z</time>
      </trkpt>
      <trkpt lat="37.749804799" lon="-6.572214067">
        <ele>450.00</ele>
        <time>1899-12-29T23:00:00Z</time>
      </trkpt>
      <trkpt lat="37.749815360" lon="-6.572096720">
        <ele>451.00</ele>
        <time>1899-12-29T23:00:00Z</time>
      </trkpt>
      <trkpt lat="37.749794237" lon="-6.571969483">
        <ele>451.00</ele>
        <time>1899-12-29T23:00:00Z</time>
      </trkpt>
      <trkpt lat="37.749650404" lon="-6.571831182">
        <ele>451.00</ele>
        <time>1899-12-29T23:00:00Z</time>
      </trkpt>
      <trkpt lat="37.749460973" lon="-6.571627837">
        <ele>451.00</ele>
        <time>1899-12-29T23:00:00Z</time>
      </trkpt>
      <trkpt lat="37.749318480" lon="-6.571583580">
        <ele>452.00</ele>
        <time>1899-12-29T23:00:00Z</time>
      </trkpt>
      <trkpt lat="37.749109939" lon="-6.571644265">
        <ele>452.00</ele>
        <time>1899-12-29T23:00:00Z</time>
      </trkpt>
      <trkpt lat="37.748927046" lon="-6.571576037">
        <ele>452.00</ele>
        <time>1899-12-29T23:00:00Z</time>
      </trkpt>
      <trkpt lat="37.748597302" lon="-6.571485177">
        <ele>454.00</ele>
        <time>1899-12-29T23:00:00Z</time>
      </trkpt>
      <trkpt lat="37.748418599" lon="-6.571491882">
        <ele>454.00</ele>
        <time>1899-12-29T23:00:00Z</time>
      </trkpt>
      <trkpt lat="37.748084664" lon="-6.571551897">
        <ele>453.00</ele>
        <time>1899-12-29T23:00:00Z</time>
      </trkpt>
      <trkpt lat="37.747615613" lon="-6.571702603">
        <ele>450.00</ele>
        <time>1899-12-29T23:00:00Z</time>
      </trkpt>
      <trkpt lat="37.747483682" lon="-6.571912318">
        <ele>449.00</ele>
        <time>1899-12-29T23:00:00Z</time>
      </trkpt>
      <trkpt lat="37.747306321" lon="-6.572066545">
        <ele>451.00</ele>
        <time>1899-12-29T23:00:00Z</time>
      </trkpt>
      <trkpt lat="37.747052182" lon="-6.572071742">
        <ele>453.00</ele>
        <time>1899-12-29T23:00:00Z</time>
      </trkpt>
      <trkpt lat="37.746798713" lon="-6.572123878">
        <ele>456.00</ele>
        <time>1899-12-29T23:00:00Z</time>
      </trkpt>
      <trkpt lat="37.746576089" lon="-6.572250612">
        <ele>459.00</ele>
        <time>1899-12-29T23:00:00Z</time>
      </trkpt>
      <trkpt lat="37.746404428" lon="-6.572282296">
        <ele>463.00</ele>
        <time>1899-12-29T23:00:00Z</time>
      </trkpt>
      <trkpt lat="37.746238634" lon="-6.572180707">
        <ele>466.00</ele>
        <time>1899-12-29T23:00:00Z</time>
      </trkpt>
      <trkpt lat="37.746057417" lon="-6.572025809">
        <ele>470.00</ele>
        <time>1899-12-29T23:00:00Z</time>
      </trkpt>
      <trkpt lat="37.745799422" lon="-6.571729761">
        <ele>475.00</ele>
        <time>1899-12-29T23:00:00Z</time>
      </trkpt>
      <trkpt lat="37.745677885" lon="-6.571589615">
        <ele>478.00</ele>
        <time>1899-12-29T23:00:00Z</time>
      </trkpt>
      <trkpt lat="37.745556850" lon="-6.571461540">
        <ele>482.00</ele>
        <time>1899-12-29T23:00:00Z</time>
      </trkpt>
      <trkpt lat="37.745483089" lon="-6.571276970">
        <ele>485.00</ele>
        <time>1899-12-29T23:00:00Z</time>
      </trkpt>
      <trkpt lat="37.745436151" lon="-6.571016293">
        <ele>490.00</ele>
        <time>1899-12-29T23:00:00Z</time>
      </trkpt>
      <trkpt lat="37.745398767" lon="-6.570786964">
        <ele>494.00</ele>
        <time>1899-12-29T23:00:00Z</time>
      </trkpt>
      <trkpt lat="37.745363563" lon="-6.570364013">
        <ele>498.00</ele>
        <time>1899-12-29T23:00:00Z</time>
      </trkpt>
      <trkpt lat="37.745290808" lon="-6.570215989">
        <ele>501.00</ele>
        <time>1899-12-29T23:00:00Z</time>
      </trkpt>
      <trkpt lat="37.745143790" lon="-6.570051704">
        <ele>505.00</ele>
        <time>1899-12-29T23:00:00Z</time>
      </trkpt>
      <trkpt lat="37.744984031" lon="-6.569910385">
        <ele>510.00</ele>
        <time>1899-12-29T23:00:00Z</time>
      </trkpt>
      <trkpt lat="37.744875234" lon="-6.569837965">
        <ele>511.00</ele>
        <time>1899-12-29T23:00:00Z</time>
      </trkpt>
      <trkpt lat="37.744751852" lon="-6.569813155">
        <ele>512.00</ele>
        <time>1899-12-29T23:00:00Z</time>
      </trkpt>
      <trkpt lat="37.744609360" lon="-6.569842659">
        <ele>513.00</ele>
        <time>1899-12-29T23:00:00Z</time>
      </trkpt>
      <trkpt lat="37.744386233" lon="-6.569948271">
        <ele>513.00</ele>
        <time>1899-12-29T23:00:00Z</time>
      </trkpt>
      <trkpt lat="37.744253129" lon="-6.570038125">
        <ele>513.00</ele>
        <time>1899-12-29T23:00:00Z</time>
      </trkpt>
      <trkpt lat="37.744000163" lon="-6.570127811">
        <ele>514.00</ele>
        <time>1899-12-29T23:00:00Z</time>
      </trkpt>
      <trkpt lat="37.743903100" lon="-6.570140552">
        <ele>515.00</ele>
        <time>1899-12-29T23:00:00Z</time>
      </trkpt>
      <trkpt lat="37.743790615" lon="-6.570113227">
        <ele>516.00</ele>
        <time>1899-12-29T23:00:00Z</time>
      </trkpt>
      <trkpt lat="37.743586265" lon="-6.569919772">
        <ele>520.00</ele>
        <time>1899-12-29T23:00:00Z</time>
      </trkpt>
      <trkpt lat="37.743426170" lon="-6.569870152">
        <ele>523.00</ele>
        <time>1899-12-29T23:00:00Z</time>
      </trkpt>
      <trkpt lat="37.743367162" lon="-6.569977943">
        <ele>522.00</ele>
        <time>1899-12-29T23:00:00Z</time>
      </trkpt>
      <trkpt lat="37.743311841" lon="-6.570085231">
        <ele>521.00</ele>
        <time>1899-12-29T23:00:00Z</time>
      </trkpt>
      <trkpt lat="37.743139844" lon="-6.570344567">
        <ele>519.00</ele>
        <time>1899-12-29T23:00:00Z</time>
      </trkpt>
      <trkpt lat="37.743084524" lon="-6.570558641">
        <ele>516.00</ele>
        <time>1899-12-29T23:00:00Z</time>
      </trkpt>
      <trkpt lat="37.743021324" lon="-6.570759472">
        <ele>515.00</ele>
        <time>1899-12-29T23:00:00Z</time>
      </trkpt>
      <trkpt lat="37.742917892" lon="-6.571124755">
        <ele>511.00</ele>
        <time>1899-12-29T23:00:00Z</time>
      </trkpt>
      <trkpt lat="37.742849998" lon="-6.571393646">
        <ele>509.00</ele>
        <time>1899-12-29T23:00:00Z</time>
      </trkpt>
      <trkpt lat="37.742757127" lon="-6.571724899">
        <ele>508.00</ele>
        <time>1899-12-29T23:00:00Z</time>
      </trkpt>
      <trkpt lat="37.742633410" lon="-6.572000328">
        <ele>510.00</ele>
        <time>1899-12-29T23:00:00Z</time>
      </trkpt>
      <trkpt lat="37.742504664" lon="-6.572454795">
        <ele>512.00</ele>
        <time>1899-12-29T23:00:00Z</time>
      </trkpt>
      <trkpt lat="37.742485888" lon="-6.572684962">
        <ele>512.00</ele>
        <time>1899-12-29T23:00:00Z</time>
      </trkpt>
      <trkpt lat="37.742495276" lon="-6.572897360">
        <ele>511.00</ele>
        <time>1899-12-29T23:00:00Z</time>
      </trkpt>
      <trkpt lat="37.742373906" lon="-6.573342271">
        <ele>513.00</ele>
        <time>1899-12-29T23:00:00Z</time>
      </trkpt>
      <trkpt lat="37.742275670" lon="-6.573644523">
        <ele>518.00</ele>
        <time>1899-12-29T23:00:00Z</time>
      </trkpt>
      <trkpt lat="37.742127813" lon="-6.573987342">
        <ele>523.00</ele>
        <time>1899-12-29T23:00:00Z</time>
      </trkpt>
      <trkpt lat="37.742047850" lon="-6.574157160">
        <ele>525.00</ele>
        <time>1899-12-29T23:00:00Z</time>
      </trkpt>
      <trkpt lat="37.741909381" lon="-6.574284732">
        <ele>526.00</ele>
        <time>1899-12-29T23:00:00Z</time>
      </trkpt>
      <trkpt lat="37.741789687" lon="-6.574436612">
        <ele>526.00</ele>
        <time>1899-12-29T23:00:00Z</time>
      </trkpt>
      <trkpt lat="37.741598915" lon="-6.574713383">
        <ele>525.00</ele>
        <time>1899-12-29T23:00:00Z</time>
      </trkpt>
      <trkpt lat="37.741440665" lon="-6.574853864">
        <ele>524.00</ele>
        <time>1899-12-29T23:00:00Z</time>
      </trkpt>
      <trkpt lat="37.741208151" lon="-6.574998368">
        <ele>522.00</ele>
        <time>1899-12-29T23:00:00Z</time>
      </trkpt>
      <trkpt lat="37.741006315" lon="-6.575148739">
        <ele>518.00</ele>
        <time>1899-12-29T23:00:00Z</time>
      </trkpt>
      <trkpt lat="37.740821075" lon="-6.575069446">
        <ele>520.00</ele>
        <time>1899-12-29T23:00:00Z</time>
      </trkpt>
      <trkpt lat="37.740717810" lon="-6.575011276">
        <ele>521.00</ele>
        <time>1899-12-29T23:00:00Z</time>
      </trkpt>
      <trkpt lat="37.740515973" lon="-6.574899796">
        <ele>523.00</ele>
        <time>1899-12-29T23:00:00Z</time>
      </trkpt>
      <trkpt lat="37.740314137" lon="-6.574802231">
        <ele>525.00</ele>
        <time>1899-12-29T23:00:00Z</time>
      </trkpt>
      <trkpt lat="37.740096208" lon="-6.574705839">
        <ele>526.00</ele>
        <time>1899-12-29T23:00:00Z</time>
      </trkpt>
      <trkpt lat="37.739902418" lon="-6.574611124">
        <ele>526.00</ele>
        <time>1899-12-29T23:00:00Z</time>
      </trkpt>
      <trkpt lat="37.739652973" lon="-6.574526466">
        <ele>523.00</ele>
        <time>1899-12-29T23:00:00Z</time>
      </trkpt>
      <trkpt lat="37.739452142" lon="-6.574414652">
        <ele>521.00</ele>
        <time>1899-12-29T23:00:00Z</time>
      </trkpt>
      <trkpt lat="37.739379220" lon="-6.574330330">
        <ele>521.00</ele>
        <time>1899-12-29T23:00:00Z</time>
      </trkpt>
      <trkpt lat="37.739218120" lon="-6.574198063">
        <ele>519.00</ele>
        <time>1899-12-29T23:00:00Z</time>
      </trkpt>
      <trkpt lat="37.739117872" lon="-6.574195381">
        <ele>517.00</ele>
        <time>1899-12-29T23:00:00Z</time>
      </trkpt>
      <trkpt lat="37.738960963" lon="-6.574309207">
        <ele>512.00</ele>
        <time>1899-12-29T23:00:00Z</time>
      </trkpt>
      <trkpt lat="37.738811933" lon="-6.574363522">
        <ele>508.00</ele>
        <time>1899-12-29T23:00:00Z</time>
      </trkpt>
      <trkpt lat="37.738720570" lon="-6.574374754">
        <ele>506.00</ele>
        <time>1899-12-29T23:00:00Z</time>
      </trkpt>
      <trkpt lat="37.738459222" lon="-6.574345417">
        <ele>501.00</ele>
        <time>1899-12-29T23:00:00Z</time>
      </trkpt>
      <trkpt lat="37.738344893" lon="-6.574351452">
        <ele>498.00</ele>
        <time>1899-12-29T23:00:00Z</time>
      </trkpt>
      <trkpt lat="37.738144733" lon="-6.574297138">
        <ele>495.00</ele>
        <time>1899-12-29T23:00:00Z</time>
      </trkpt>
      <trkpt lat="37.737995703" lon="-6.574251372">
        <ele>493.00</ele>
        <time>1899-12-29T23:00:00Z</time>
      </trkpt>
      <trkpt lat="37.737797052" lon="-6.574193202">
        <ele>490.00</ele>
        <time>1899-12-29T23:00:00Z</time>
      </trkpt>
      <trkpt lat="37.737652212" lon="-6.574142911">
        <ele>487.00</ele>
        <time>1899-12-29T23:00:00Z</time>
      </trkpt>
      <trkpt lat="37.737532686" lon="-6.574077699">
        <ele>486.00</ele>
        <time>1899-12-29T23:00:00Z</time>
      </trkpt>
      <trkpt lat="37.737462278" lon="-6.574005112">
        <ele>485.00</ele>
        <time>1899-12-29T23:00:00Z</time>
      </trkpt>
      <trkpt lat="37.737379633" lon="-6.573866140">
        <ele>485.00</ele>
        <time>1899-12-29T23:00:00Z</time>
      </trkpt>
      <trkpt lat="37.737325821" lon="-6.573735382">
        <ele>484.00</ele>
        <time>1899-12-29T23:00:00Z</time>
      </trkpt>
      <trkpt lat="37.737197243" lon="-6.573625077">
        <ele>483.00</ele>
        <time>1899-12-29T23:00:00Z</time>
      </trkpt>
      <trkpt lat="37.737098169" lon="-6.573574450">
        <ele>482.00</ele>
        <time>1899-12-29T23:00:00Z</time>
      </trkpt>
      <trkpt lat="37.736941762" lon="-6.573526505">
        <ele>479.00</ele>
        <time>1899-12-29T23:00:00Z</time>
      </trkpt>
      <trkpt lat="37.736812346" lon="-6.573475040">
        <ele>477.00</ele>
        <time>1899-12-29T23:00:00Z</time>
      </trkpt>
      <trkpt lat="37.736629955" lon="-6.573486440">
        <ele>474.00</ele>
        <time>1899-12-29T23:00:00Z</time>
      </trkpt>
      <trkpt lat="37.736423761" lon="-6.573560704">
        <ele>470.00</ele>
        <time>1899-12-29T23:00:00Z</time>
      </trkpt>
      <trkpt lat="37.736331057" lon="-6.573560536">
        <ele>469.00</ele>
        <time>1899-12-29T23:00:00Z</time>
      </trkpt>
      <trkpt lat="37.736230642" lon="-6.573566403">
        <ele>467.00</ele>
        <time>1899-12-29T23:00:00Z</time>
      </trkpt>
      <trkpt lat="37.736114636" lon="-6.573572773">
        <ele>465.00</ele>
        <time>1899-12-29T23:00:00Z</time>
      </trkpt>
      <trkpt lat="37.735906765" lon="-6.573518459">
        <ele>462.00</ele>
        <time>1899-12-29T23:00:00Z</time>
      </trkpt>
      <trkpt lat="37.735797968" lon="-6.573511921">
        <ele>460.00</ele>
        <time>1899-12-29T23:00:00Z</time>
      </trkpt>
      <trkpt lat="37.735632677" lon="-6.573481075">
        <ele>459.00</ele>
        <time>1899-12-29T23:00:00Z</time>
      </trkpt>
      <trkpt lat="37.735628821" lon="-6.573292315">
        <ele>460.00</ele>
        <time>1899-12-29T23:00:00Z</time>
      </trkpt>
      <trkpt lat="37.735642735" lon="-6.573063154">
        <ele>461.00</ele>
        <time>1899-12-29T23:00:00Z</time>
      </trkpt>
      <trkpt lat="37.735679783" lon="-6.572923344">
        <ele>462.00</ele>
        <time>1899-12-29T23:00:00Z</time>
      </trkpt>
      <trkpt lat="37.735749353" lon="-6.572799291">
        <ele>464.00</ele>
        <time>1899-12-29T23:00:00Z</time>
      </trkpt>
      <trkpt lat="37.735660672" lon="-6.572637521">
        <ele>464.00</ele>
        <time>1899-12-29T23:00:00Z</time>
      </trkpt>
      <trkpt lat="37.735584900" lon="-6.572512463">
        <ele>463.00</ele>
        <time>1899-12-29T23:00:00Z</time>
      </trkpt>
      <trkpt lat="37.735430505" lon="-6.572248600">
        <ele>464.00</ele>
        <time>1899-12-29T23:00:00Z</time>
      </trkpt>
      <trkpt lat="37.735368479" lon="-6.572148856">
        <ele>465.00</ele>
        <time>1899-12-29T23:00:00Z</time>
      </trkpt>
      <trkpt lat="37.735314835" lon="-6.571968477">
        <ele>466.00</ele>
        <time>1899-12-29T23:00:00Z</time>
      </trkpt>
      <trkpt lat="37.735293712" lon="-6.571725402">
        <ele>469.00</ele>
        <time>1899-12-29T23:00:00Z</time>
      </trkpt>
      <trkpt lat="37.735338807" lon="-6.571475118">
        <ele>472.00</ele>
        <time>1899-12-29T23:00:00Z</time>
      </trkpt>
      <trkpt lat="37.735366467" lon="-6.571318042">
        <ele>475.00</ele>
        <time>1899-12-29T23:00:00Z</time>
      </trkpt>
      <trkpt lat="37.735286001" lon="-6.570867933">
        <ele>479.00</ele>
        <time>1899-12-29T23:00:00Z</time>
      </trkpt>
      <trkpt lat="37.735288516" lon="-6.570739858">
        <ele>480.00</ele>
        <time>1899-12-29T23:00:00Z</time>
      </trkpt>
      <trkpt lat="37.735334951" lon="-6.570603400">
        <ele>481.00</ele>
        <time>1899-12-29T23:00:00Z</time>
      </trkpt>
      <trkpt lat="37.735497896" lon="-6.570477672">
        <ele>485.00</ele>
        <time>1899-12-29T23:00:00Z</time>
      </trkpt>
      <trkpt lat="37.735586073" lon="-6.570399217">
        <ele>487.00</ele>
        <time>1899-12-29T23:00:00Z</time>
      </trkpt>
      <trkpt lat="37.735705096" lon="-6.570250858">
        <ele>490.00</ele>
        <time>1899-12-29T23:00:00Z</time>
      </trkpt>
      <trkpt lat="37.735717669" lon="-6.570132002">
        <ele>491.00</ele>
        <time>1899-12-29T23:00:00Z</time>
      </trkpt>
      <trkpt lat="37.735700570" lon="-6.569955982">
        <ele>491.00</ele>
        <time>1899-12-29T23:00:00Z</time>
      </trkpt>
      <trkpt lat="37.735524382" lon="-6.569630094">
        <ele>491.00</ele>
        <time>1899-12-29T23:00:00Z</time>
      </trkpt>
      <trkpt lat="37.735278122" lon="-6.569212675">
        <ele>492.00</ele>
        <time>1899-12-29T23:00:00Z</time>
      </trkpt>
      <trkpt lat="37.734966148" lon="-6.568634156">
        <ele>499.00</ele>
        <time>1899-12-29T23:00:00Z</time>
      </trkpt>
      <trkpt lat="37.734532468" lon="-6.568040550">
        <ele>502.00</ele>
        <time>1899-12-29T23:00:00Z</time>
      </trkpt>
      <trkpt lat="37.734424509" lon="-6.567812227">
        <ele>504.00</ele>
        <time>1899-12-29T23:00:00Z</time>
      </trkpt>
      <trkpt lat="37.734309174" lon="-6.567517854">
        <ele>508.00</ele>
        <time>1899-12-29T23:00:00Z</time>
      </trkpt>
      <trkpt lat="37.734275479" lon="-6.567295063">
        <ele>508.00</ele>
        <time>1899-12-29T23:00:00Z</time>
      </trkpt>
      <trkpt lat="37.734295093" lon="-6.567000523">
        <ele>510.00</ele>
        <time>1899-12-29T23:00:00Z</time>
      </trkpt>
      <trkpt lat="37.734248824" lon="-6.566729788">
        <ele>510.00</ele>
        <time>1899-12-29T23:00:00Z</time>
      </trkpt>
      <trkpt lat="37.734168358" lon="-6.566447653">
        <ele>507.00</ele>
        <time>1899-12-29T23:00:00Z</time>
      </trkpt>
      <trkpt lat="37.734157965" lon="-6.566212624">
        <ele>505.00</ele>
        <time>1899-12-29T23:00:00Z</time>
      </trkpt>
      <trkpt lat="37.734184451" lon="-6.566034593">
        <ele>505.00</ele>
        <time>1899-12-29T23:00:00Z</time>
      </trkpt>
      <trkpt lat="37.734235581" lon="-6.565843988">
        <ele>505.00</ele>
        <time>1899-12-29T23:00:00Z</time>
      </trkpt>
      <trkpt lat="37.734276988" lon="-6.565579623">
        <ele>504.00</ele>
        <time>1899-12-29T23:00:00Z</time>
      </trkpt>
      <trkpt lat="37.734417133" lon="-6.565426234">
        <ele>507.00</ele>
        <time>1899-12-29T23:00:00Z</time>
      </trkpt>
      <trkpt lat="37.734550573" lon="-6.565373093">
        <ele>511.00</ele>
        <time>1899-12-29T23:00:00Z</time>
      </trkpt>
      <trkpt lat="37.734667920" lon="-6.565294806">
        <ele>514.00</ele>
        <time>1899-12-29T23:00:00Z</time>
      </trkpt>
      <trkpt lat="37.734697424" lon="-6.565142088">
        <ele>514.00</ele>
        <time>1899-12-29T23:00:00Z</time>
      </trkpt>
      <trkpt lat="37.734688036" lon="-6.564978305">
        <ele>513.00</ele>
        <time>1899-12-29T23:00:00Z</time>
      </trkpt>
      <trkpt lat="37.734676134" lon="-6.564630289">
        <ele>512.00</ele>
        <time>1899-12-29T23:00:00Z</time>
      </trkpt>
      <trkpt lat="37.734664567" lon="-6.564310603">
        <ele>511.00</ele>
        <time>1899-12-29T23:00:00Z</time>
      </trkpt>
      <trkpt lat="37.734605558" lon="-6.564188730">
        <ele>509.00</ele>
        <time>1899-12-29T23:00:00Z</time>
      </trkpt>
      <trkpt lat="37.734402381" lon="-6.564177666">
        <ele>504.00</ele>
        <time>1899-12-29T23:00:00Z</time>
      </trkpt>
      <trkpt lat="37.734229546" lon="-6.564260144">
        <ele>500.00</ele>
        <time>1899-12-29T23:00:00Z</time>
      </trkpt>
      <trkpt lat="37.734088730" lon="-6.564294007">
        <ele>498.00</ele>
        <time>1899-12-29T23:00:00Z</time>
      </trkpt>
      <trkpt lat="37.733992673" lon="-6.564249750">
        <ele>497.00</ele>
        <time>1899-12-29T23:00:00Z</time>
      </trkpt>
      <trkpt lat="37.733900137" lon="-6.564156543">
        <ele>497.00</ele>
        <time>1899-12-29T23:00:00Z</time>
      </trkpt>
      <trkpt lat="37.733808272" lon="-6.564003993">
        <ele>498.00</ele>
        <time>1899-12-29T23:00:00Z</time>
      </trkpt>
      <trkpt lat="37.733776253" lon="-6.563820262">
        <ele>500.00</ele>
        <time>1899-12-29T23:00:00Z</time>
      </trkpt>
      <trkpt lat="37.733809445" lon="-6.563499570">
        <ele>503.00</ele>
        <time>1899-12-29T23:00:00Z</time>
      </trkpt>
      <trkpt lat="37.733903825" lon="-6.563271750">
        <ele>507.00</ele>
        <time>1899-12-29T23:00:00Z</time>
      </trkpt>
      <trkpt lat="37.733998038" lon="-6.563148536">
        <ele>509.00</ele>
        <time>1899-12-29T23:00:00Z</time>
      </trkpt>
      <trkpt lat="37.734117564" lon="-6.563041583">
        <ele>511.00</ele>
        <time>1899-12-29T23:00:00Z</time>
      </trkpt>
      <trkpt lat="37.734198365" lon="-6.562926918">
        <ele>514.00</ele>
        <time>1899-12-29T23:00:00Z</time>
      </trkpt>
      <trkpt lat="37.734047156" lon="-6.562798172">
        <ele>514.00</ele>
        <time>1899-12-29T23:00:00Z</time>
      </trkpt>
      <trkpt lat="37.733935006" lon="-6.562760454">
        <ele>514.00</ele>
        <time>1899-12-29T23:00:00Z</time>
      </trkpt>
      <trkpt lat="37.733829897" lon="-6.562755592">
        <ele>514.00</ele>
        <time>1899-12-29T23:00:00Z</time>
      </trkpt>
      <trkpt lat="37.733735684" lon="-6.562667079">
        <ele>514.00</ele>
        <time>1899-12-29T23:00:00Z</time>
      </trkpt>
      <trkpt lat="37.733685058" lon="-6.562532634">
        <ele>516.00</ele>
        <time>1899-12-29T23:00:00Z</time>
      </trkpt>
      <trkpt lat="37.733578105" lon="-6.562346555">
        <ele>519.00</ele>
        <time>1899-12-29T23:00:00Z</time>
      </trkpt>
      <trkpt lat="37.733475845" lon="-6.562371198">
        <ele>518.00</ele>
        <time>1899-12-29T23:00:00Z</time>
      </trkpt>
      <trkpt lat="37.733343747" lon="-6.562431548">
        <ele>516.00</ele>
        <time>1899-12-29T23:00:00Z</time>
      </trkpt>
      <trkpt lat="37.733034790" lon="-6.562536322">
        <ele>510.00</ele>
        <time>1899-12-29T23:00:00Z</time>
      </trkpt>
      <trkpt lat="37.732773442" lon="-6.562610418">
        <ele>506.00</ele>
        <time>1899-12-29T23:00:00Z</time>
      </trkpt>
      <trkpt lat="37.732677050" lon="-6.562618800">
        <ele>505.00</ele>
        <time>1899-12-29T23:00:00Z</time>
      </trkpt>
      <trkpt lat="37.732501533" lon="-6.562506482">
        <ele>504.00</ele>
        <time>1899-12-29T23:00:00Z</time>
      </trkpt>
      <trkpt lat="37.732322831" lon="-6.562400032">
        <ele>507.00</ele>
        <time>1899-12-29T23:00:00Z</time>
      </trkpt>
      <trkpt lat="37.732156031" lon="-6.562215295">
        <ele>511.00</ele>
        <time>1899-12-29T23:00:00Z</time>
      </trkpt>
      <trkpt lat="37.732100040" lon="-6.561924610">
        <ele>515.00</ele>
        <time>1899-12-29T23:00:00Z</time>
      </trkpt>
      <trkpt lat="37.732008174" lon="-6.561756972">
        <ele>518.00</ele>
        <time>1899-12-29T23:00:00Z</time>
      </trkpt>
      <trkpt lat="37.731860150" lon="-6.561649349">
        <ele>518.00</ele>
        <time>1899-12-29T23:00:00Z</time>
      </trkpt>
      <trkpt lat="37.731728554" lon="-6.561517920">
        <ele>517.00</ele>
        <time>1899-12-29T23:00:00Z</time>
      </trkpt>
      <trkpt lat="37.731449436" lon="-6.561316587">
        <ele>513.00</ele>
        <time>1899-12-29T23:00:00Z</time>
      </trkpt>
      <trkpt lat="37.731259000" lon="-6.561299656">
        <ele>509.00</ele>
        <time>1899-12-29T23:00:00Z</time>
      </trkpt>
      <trkpt lat="37.731075101" lon="-6.561282054">
        <ele>506.00</ele>
        <time>1899-12-29T23:00:00Z</time>
      </trkpt>
      <trkpt lat="37.730940487" lon="-6.561260931">
        <ele>502.00</ele>
        <time>1899-12-29T23:00:00Z</time>
      </trkpt>
      <trkpt lat="37.730740830" lon="-6.561215837">
        <ele>498.00</ele>
        <time>1899-12-29T23:00:00Z</time>
      </trkpt>
      <trkpt lat="37.730528265" lon="-6.561175268">
        <ele>495.00</ele>
        <time>1899-12-29T23:00:00Z</time>
      </trkpt>
      <trkpt lat="37.730342019" lon="-6.561226062">
        <ele>493.00</ele>
        <time>1899-12-29T23:00:00Z</time>
      </trkpt>
      <trkpt lat="37.730080169" lon="-6.561212484">
        <ele>489.00</ele>
        <time>1899-12-29T23:00:00Z</time>
      </trkpt>
      <trkpt lat="37.729975060" lon="-6.561219022">
        <ele>488.00</ele>
        <time>1899-12-29T23:00:00Z</time>
      </trkpt>
      <trkpt lat="37.729906328" lon="-6.561317760">
        <ele>489.00</ele>
        <time>1899-12-29T23:00:00Z</time>
      </trkpt>
      <trkpt lat="37.729814295" lon="-6.561462600">
        <ele>491.00</ele>
        <time>1899-12-29T23:00:00Z</time>
      </trkpt>
      <trkpt lat="37.729771547" lon="-6.561632920">
        <ele>494.00</ele>
        <time>1899-12-29T23:00:00Z</time>
      </trkpt>
      <trkpt lat="37.729661576" lon="-6.561804414">
        <ele>494.00</ele>
        <time>1899-12-29T23:00:00Z</time>
      </trkpt>
      <trkpt lat="37.729512211" lon="-6.561807431">
        <ele>490.00</ele>
        <time>1899-12-29T23:00:00Z</time>
      </trkpt>
      <trkpt lat="37.729415484" lon="-6.561816316">
        <ele>488.00</ele>
        <time>1899-12-29T23:00:00Z</time>
      </trkpt>
      <trkpt lat="37.729290761" lon="-6.561976578">
        <ele>487.00</ele>
        <time>1899-12-29T23:00:00Z</time>
      </trkpt>
      <trkpt lat="37.729210798" lon="-6.562135834">
        <ele>487.00</ele>
        <time>1899-12-29T23:00:00Z</time>
      </trkpt>
      <trkpt lat="37.729138043" lon="-6.562370360">
        <ele>489.00</ele>
        <time>1899-12-29T23:00:00Z</time>
      </trkpt>
      <trkpt lat="37.729086746" lon="-6.562588122">
        <ele>491.00</ele>
        <time>1899-12-29T23:00:00Z</time>
      </trkpt>
      <trkpt lat="37.728947438" lon="-6.562656518">
        <ele>487.00</ele>
        <time>1899-12-29T23:00:00Z</time>
      </trkpt>
      <trkpt lat="37.728753313" lon="-6.562679317">
        <ele>482.00</ele>
        <time>1899-12-29T23:00:00Z</time>
      </trkpt>
      <trkpt lat="37.728590872" lon="-6.562833209">
        <ele>479.00</ele>
        <time>1899-12-29T23:00:00Z</time>
      </trkpt>
      <trkpt lat="37.728563547" lon="-6.563031357">
        <ele>482.00</ele>
        <time>1899-12-29T23:00:00Z</time>
      </trkpt>
      <trkpt lat="37.728582323" lon="-6.563170664">
        <ele>485.00</ele>
        <time>1899-12-29T23:00:00Z</time>
      </trkpt>
      <trkpt lat="37.728588693" lon="-6.563312486">
        <ele>488.00</ele>
        <time>1899-12-29T23:00:00Z</time>
      </trkpt>
      <trkpt lat="37.728426754" lon="-6.563448273">
        <ele>483.00</ele>
        <time>1899-12-29T23:00:00Z</time>
      </trkpt>
      <trkpt lat="37.728326339" lon="-6.563473586">
        <ele>480.00</ele>
        <time>1899-12-29T23:00:00Z</time>
      </trkpt>
      <trkpt lat="37.728195917" lon="-6.563518681">
        <ele>476.00</ele>
        <time>1899-12-29T23:00:00Z</time>
      </trkpt>
      <trkpt lat="37.728084102" lon="-6.563505773">
        <ele>473.00</ele>
        <time>1899-12-29T23:00:00Z</time>
      </trkpt>
      <trkpt lat="37.728003804" lon="-6.563400328">
        <ele>469.00</ele>
        <time>1899-12-29T23:00:00Z</time>
      </trkpt>
      <trkpt lat="37.727982849" lon="-6.563221961">
        <ele>467.00</ele>
        <time>1899-12-29T23:00:00Z</time>
      </trkpt>
      <trkpt lat="37.727922164" lon="-6.563057341">
        <ele>462.00</ele>
        <time>1899-12-29T23:00:00Z</time>
      </trkpt>
      <trkpt lat="37.727887798" lon="-6.562809739">
        <ele>458.00</ele>
        <time>1899-12-29T23:00:00Z</time>
      </trkpt>
      <trkpt lat="37.727778330" lon="-6.562515367">
        <ele>451.00</ele>
        <time>1899-12-29T23:00:00Z</time>
      </trkpt>
      <trkpt lat="37.727669869" lon="-6.562307496">
        <ele>446.00</ele>
        <time>1899-12-29T23:00:00Z</time>
      </trkpt>
      <trkpt lat="37.727579512" lon="-6.562240105">
        <ele>443.00</ele>
        <time>1899-12-29T23:00:00Z</time>
      </trkpt>
      <trkpt lat="37.727298215" lon="-6.562207416">
        <ele>438.00</ele>
        <time>1899-12-29T23:00:00Z</time>
      </trkpt>
      <trkpt lat="37.727148850" lon="-6.562141199">
        <ele>436.00</ele>
        <time>1899-12-29T23:00:00Z</time>
      </trkpt>
      <trkpt lat="37.726898734" lon="-6.561995186">
        <ele>433.00</ele>
        <time>1899-12-29T23:00:00Z</time>
      </trkpt>
      <trkpt lat="37.726624981" lon="-6.561905835">
        <ele>429.00</ele>
        <time>1899-12-29T23:00:00Z</time>
      </trkpt>
      <trkpt lat="37.726415936" lon="-6.561948583">
        <ele>429.00</ele>
        <time>1899-12-29T23:00:00Z</time>
      </trkpt>
      <trkpt lat="37.726213261" lon="-6.562019158">
        <ele>428.00</ele>
        <time>1899-12-29T23:00:00Z</time>
      </trkpt>
      <trkpt lat="37.725969683" lon="-6.562062576">
        <ele>427.00</ele>
        <time>1899-12-29T23:00:00Z</time>
      </trkpt>
      <trkpt lat="37.725772373" lon="-6.562064085">
        <ele>426.00</ele>
        <time>1899-12-29T23:00:00Z</time>
      </trkpt>
      <trkpt lat="37.725544553" lon="-6.562073808">
        <ele>423.00</ele>
        <time>1899-12-29T23:00:00Z</time>
      </trkpt>
      <trkpt lat="37.725466769" lon="-6.562198196">
        <ele>423.00</ele>
        <time>1899-12-29T23:00:00Z</time>
      </trkpt>
      <trkpt lat="37.725404240" lon="-6.562076490">
        <ele>421.00</ele>
        <time>1899-12-29T23:00:00Z</time>
      </trkpt>
      <trkpt lat="37.725175247" lon="-6.561988983">
        <ele>417.00</ele>
        <time>1899-12-29T23:00:00Z</time>
      </trkpt>
      <trkpt lat="37.724935859" lon="-6.561893933">
        <ele>413.00</ele>
        <time>1899-12-29T23:00:00Z</time>
      </trkpt>
      <trkpt lat="37.724724468" lon="-6.561845820">
        <ele>411.00</ele>
        <time>1899-12-29T23:00:00Z</time>
      </trkpt>
      <trkpt lat="37.724447027" lon="-6.561828386">
        <ele>408.00</ele>
        <time>1899-12-29T23:00:00Z</time>
      </trkpt>
      <trkpt lat="37.724154163" lon="-6.561875157">
        <ele>407.00</ele>
        <time>1899-12-29T23:00:00Z</time>
      </trkpt>
      <trkpt lat="37.724000942" lon="-6.561924107">
        <ele>408.00</ele>
        <time>1899-12-29T23:00:00Z</time>
      </trkpt>
      <trkpt lat="37.723559383" lon="-6.562055368">
        <ele>409.00</ele>
        <time>1899-12-29T23:00:00Z</time>
      </trkpt>
      <trkpt lat="37.723274399" lon="-6.562241949">
        <ele>407.00</ele>
        <time>1899-12-29T23:00:00Z</time>
      </trkpt>
      <trkpt lat="37.723039538" lon="-6.562391985">
        <ele>404.00</ele>
        <time>1899-12-29T23:00:00Z</time>
      </trkpt>
      <trkpt lat="37.722811718" lon="-6.562462728">
        <ele>402.00</ele>
        <time>1899-12-29T23:00:00Z</time>
      </trkpt>
      <trkpt lat="37.722577024" lon="-6.562462393">
        <ele>401.00</ele>
        <time>1899-12-29T23:00:00Z</time>
      </trkpt>
      <trkpt lat="37.722367980" lon="-6.562413108">
        <ele>401.00</ele>
        <time>1899-12-29T23:00:00Z</time>
      </trkpt>
      <trkpt lat="37.722057682" lon="-6.562363319">
        <ele>400.00</ele>
        <time>1899-12-29T23:00:00Z</time>
      </trkpt>
      <trkpt lat="37.721734140" lon="-6.562385112">
        <ele>399.00</ele>
        <time>1899-12-29T23:00:00Z</time>
      </trkpt>
      <trkpt lat="37.721443456" lon="-6.562447138">
        <ele>398.00</ele>
        <time>1899-12-29T23:00:00Z</time>
      </trkpt>
      <trkpt lat="37.721119579" lon="-6.562601365">
        <ele>398.00</ele>
        <time>1899-12-29T23:00:00Z</time>
      </trkpt>
      <trkpt lat="37.720896453" lon="-6.562718041">
        <ele>397.00</ele>
        <time>1899-12-29T23:00:00Z</time>
      </trkpt>
      <trkpt lat="37.720675506" lon="-6.563005205">
        <ele>396.00</ele>
        <time>1899-12-29T23:00:00Z</time>
      </trkpt>
      <trkpt lat="37.720305528" lon="-6.563514657">
        <ele>392.00</ele>
        <time>1899-12-29T23:00:00Z</time>
      </trkpt>
      <trkpt lat="37.720087934" lon="-6.563908774">
        <ele>386.00</ele>
        <time>1899-12-29T23:00:00Z</time>
      </trkpt>
      <trkpt lat="37.719786018" lon="-6.564350501">
        <ele>386.00</ele>
        <time>1899-12-29T23:00:00Z</time>
      </trkpt>
      <trkpt lat="37.719653081" lon="-6.564559545">
        <ele>387.00</ele>
        <time>1899-12-29T23:00:00Z</time>
      </trkpt>
      <trkpt lat="37.719545122" lon="-6.564829275">
        <ele>387.00</ele>
        <time>1899-12-29T23:00:00Z</time>
      </trkpt>
      <trkpt lat="37.719485275" lon="-6.565054748">
        <ele>386.00</ele>
        <time>1899-12-29T23:00:00Z</time>
      </trkpt>
      <trkpt lat="37.719451245" lon="-6.565246526">
        <ele>386.00</ele>
        <time>1899-12-29T23:00:00Z</time>
      </trkpt>
      <trkpt lat="37.719411682" lon="-6.565471496">
        <ele>386.00</ele>
        <time>1899-12-29T23:00:00Z</time>
      </trkpt>
      <trkpt lat="37.719359212" lon="-6.565640643">
        <ele>385.00</ele>
        <time>1899-12-29T23:00:00Z</time>
      </trkpt>
      <trkpt lat="37.719266005" lon="-6.565795373">
        <ele>382.00</ele>
        <time>1899-12-29T23:00:00Z</time>
      </trkpt>
      <trkpt lat="37.719152849" lon="-6.565960832">
        <ele>380.00</ele>
        <time>1899-12-29T23:00:00Z</time>
      </trkpt>
      <trkpt lat="37.719008680" lon="-6.566091087">
        <ele>381.00</ele>
        <time>1899-12-29T23:00:00Z</time>
      </trkpt>
      <trkpt lat="37.718696203" lon="-6.566336844">
        <ele>384.00</ele>
        <time>1899-12-29T23:00:00Z</time>
      </trkpt>
      <trkpt lat="37.718447931" lon="-6.566550750">
        <ele>384.00</ele>
        <time>1899-12-29T23:00:00Z</time>
      </trkpt>
      <trkpt lat="37.718191277" lon="-6.566736829">
        <ele>382.00</ele>
        <time>1899-12-29T23:00:00Z</time>
      </trkpt>
      <trkpt lat="37.717972342" lon="-6.566868592">
        <ele>380.00</ele>
        <time>1899-12-29T23:00:00Z</time>
      </trkpt>
      <trkpt lat="37.717295252" lon="-6.567419786">
        <ele>373.00</ele>
        <time>1899-12-29T23:00:00Z</time>
      </trkpt>
      <trkpt lat="37.716947235" lon="-6.567577031">
        <ele>376.00</ele>
        <time>1899-12-29T23:00:00Z</time>
      </trkpt>
      <trkpt lat="37.716649342" lon="-6.567712985">
        <ele>377.00</ele>
        <time>1899-12-29T23:00:00Z</time>
      </trkpt>
      <trkpt lat="37.716206945" lon="-6.567775346">
        <ele>379.00</ele>
        <time>1899-12-29T23:00:00Z</time>
      </trkpt>
      <trkpt lat="37.715868149" lon="-6.567708291">
        <ele>383.00</ele>
        <time>1899-12-29T23:00:00Z</time>
      </trkpt>
      <trkpt lat="37.715723310" lon="-6.567611899">
        <ele>384.00</ele>
        <time>1899-12-29T23:00:00Z</time>
      </trkpt>
      <trkpt lat="37.715512421" lon="-6.567419954">
        <ele>386.00</ele>
        <time>1899-12-29T23:00:00Z</time>
      </trkpt>
      <trkpt lat="37.715325672" lon="-6.567227505">
        <ele>387.00</ele>
        <time>1899-12-29T23:00:00Z</time>
      </trkpt>
      <trkpt lat="37.715090979" lon="-6.567061543">
        <ele>387.00</ele>
        <time>1899-12-29T23:00:00Z</time>
      </trkpt>
      <trkpt lat="37.714625783" lon="-6.566925757">
        <ele>386.00</ele>
        <time>1899-12-29T23:00:00Z</time>
      </trkpt>
      <trkpt lat="37.714455966" lon="-6.566947047">
        <ele>384.00</ele>
        <time>1899-12-29T23:00:00Z</time>
      </trkpt>
      <trkpt lat="37.714094706" lon="-6.567025501">
        <ele>380.00</ele>
        <time>1899-12-29T23:00:00Z</time>
      </trkpt>
      <trkpt lat="37.713841405" lon="-6.567002703">
        <ele>378.00</ele>
        <time>1899-12-29T23:00:00Z</time>
      </trkpt>
      <trkpt lat="37.713413425" lon="-6.566917039">
        <ele>375.00</ele>
        <time>1899-12-29T23:00:00Z</time>
      </trkpt>
      <trkpt lat="37.713118047" lon="-6.566767506">
        <ele>375.00</ele>
        <time>1899-12-29T23:00:00Z</time>
      </trkpt>
      <trkpt lat="37.712866254" lon="-6.566543374">
        <ele>377.00</ele>
        <time>1899-12-29T23:00:00Z</time>
      </trkpt>
      <trkpt lat="37.712656874" lon="-6.566310693">
        <ele>378.00</ele>
        <time>1899-12-29T23:00:00Z</time>
      </trkpt>
      <trkpt lat="37.712480519" lon="-6.566133332">
        <ele>377.00</ele>
        <time>1899-12-29T23:00:00Z</time>
      </trkpt>
      <trkpt lat="37.712270133" lon="-6.565979607">
        <ele>375.00</ele>
        <time>1899-12-29T23:00:00Z</time>
      </trkpt>
      <trkpt lat="37.712082043" lon="-6.565830577">
        <ele>375.00</ele>
        <time>1899-12-29T23:00:00Z</time>
      </trkpt>
      <trkpt lat="37.711923793" lon="-6.565629914">
        <ele>376.00</ele>
        <time>1899-12-29T23:00:00Z</time>
      </trkpt>
      <trkpt lat="37.711789683" lon="-6.565436460">
        <ele>379.00</ele>
        <time>1899-12-29T23:00:00Z</time>
      </trkpt>
      <trkpt lat="37.711651213" lon="-6.565202437">
        <ele>382.00</ele>
        <time>1899-12-29T23:00:00Z</time>
      </trkpt>
      <trkpt lat="37.711564042" lon="-6.564722657">
        <ele>385.00</ele>
        <time>1899-12-29T23:00:00Z</time>
      </trkpt>
      <trkpt lat="37.711460274" lon="-6.564031821">
        <ele>383.00</ele>
        <time>1899-12-29T23:00:00Z</time>
      </trkpt>
      <trkpt lat="37.711315602" lon="-6.563642565">
        <ele>378.00</ele>
        <time>1899-12-29T23:00:00Z</time>
      </trkpt>
      <trkpt lat="37.711162046" lon="-6.563342493">
        <ele>373.00</ele>
        <time>1899-12-29T23:00:00Z</time>
      </trkpt>
      <trkpt lat="37.710985020" lon="-6.563103944">
        <ele>371.00</ele>
        <time>1899-12-29T23:00:00Z</time>
      </trkpt>
      <trkpt lat="37.710802127" lon="-6.562886015">
        <ele>370.00</ele>
        <time>1899-12-29T23:00:00Z</time>
      </trkpt>
      <trkpt lat="37.710585538" lon="-6.562724914">
        <ele>368.00</ele>
        <time>1899-12-29T23:00:00Z</time>
      </trkpt>
      <trkpt lat="37.710204832" lon="-6.562546548">
        <ele>364.00</ele>
        <time>1899-12-29T23:00:00Z</time>
      </trkpt>
      <trkpt lat="37.709951364" lon="-6.562508326">
        <ele>361.00</ele>
        <time>1899-12-29T23:00:00Z</time>
      </trkpt>
      <trkpt lat="37.709513828" lon="-6.562484186">
        <ele>357.00</ele>
        <time>1899-12-29T23:00:00Z</time>
      </trkpt>
      <trkpt lat="37.709270921" lon="-6.562481336">
        <ele>354.00</ele>
        <time>1899-12-29T23:00:00Z</time>
      </trkpt>
      <trkpt lat="37.708954755" lon="-6.562446970">
        <ele>353.00</ele>
        <time>1899-12-29T23:00:00Z</time>
      </trkpt>
      <trkpt lat="37.708707154" lon="-6.562380753">
        <ele>354.00</ele>
        <time>1899-12-29T23:00:00Z</time>
      </trkpt>
      <trkpt lat="37.708320580" lon="-6.562070120">
        <ele>360.00</ele>
        <time>1899-12-29T23:00:00Z</time>
      </trkpt>
      <trkpt lat="37.708055880" lon="-6.561774742">
        <ele>363.00</ele>
        <time>1899-12-29T23:00:00Z</time>
      </trkpt>
      <trkpt lat="37.707977761" lon="-6.561687235">
        <ele>363.00</ele>
        <time>1899-12-29T23:00:00Z</time>
      </trkpt>
      <trkpt lat="37.707918584" lon="-6.561329328">
        <ele>364.00</ele>
        <time>1899-12-29T23:00:00Z</time>
      </trkpt>
      <trkpt lat="37.707801908" lon="-6.560756005">
        <ele>361.00</ele>
        <time>1899-12-29T23:00:00Z</time>
      </trkpt>
      <trkpt lat="37.707732171" lon="-6.560362559">
        <ele>353.00</ele>
        <time>1899-12-29T23:00:00Z</time>
      </trkpt>
      <trkpt lat="37.707743738" lon="-6.560153347">
        <ele>350.00</ele>
        <time>1899-12-29T23:00:00Z</time>
      </trkpt>
      <trkpt lat="37.707674168" lon="-6.559938267">
        <ele>346.00</ele>
        <time>1899-12-29T23:00:00Z</time>
      </trkpt>
      <trkpt lat="37.707559671" lon="-6.559685804">
        <ele>343.00</ele>
        <time>1899-12-29T23:00:00Z</time>
      </trkpt>
      <trkpt lat="37.707482725" lon="-6.559519339">
        <ele>341.00</ele>
        <time>1899-12-29T23:00:00Z</time>
      </trkpt>
      <trkpt lat="37.707382813" lon="-6.559472904">
        <ele>341.00</ele>
        <time>1899-12-29T23:00:00Z</time>
      </trkpt>
      <trkpt lat="37.707257587" lon="-6.559480615">
        <ele>341.00</ele>
        <time>1899-12-29T23:00:00Z</time>
      </trkpt>
      <trkpt lat="37.707079723" lon="-6.559509616">
        <ele>341.00</ele>
        <time>1899-12-29T23:00:00Z</time>
      </trkpt>
      <trkpt lat="37.706948798" lon="-6.559550520">
        <ele>341.00</ele>
        <time>1899-12-29T23:00:00Z</time>
      </trkpt>
      <trkpt lat="37.706866991" lon="-6.559480783">
        <ele>341.00</ele>
        <time>1899-12-29T23:00:00Z</time>
      </trkpt>
      <trkpt lat="37.706833966" lon="-6.559277773">
        <ele>341.00</ele>
        <time>1899-12-29T23:00:00Z</time>
      </trkpt>
      <trkpt lat="37.706896327" lon="-6.559090521">
        <ele>342.00</ele>
        <time>1899-12-29T23:00:00Z</time>
      </trkpt>
      <trkpt lat="37.707000934" lon="-6.558884662">
        <ele>344.00</ele>
        <time>1899-12-29T23:00:00Z</time>
      </trkpt>
      <trkpt lat="37.706909738" lon="-6.558715850">
        <ele>348.00</ele>
        <time>1899-12-29T23:00:00Z</time>
      </trkpt>
      <trkpt lat="37.706772443" lon="-6.558731273">
        <ele>349.00</ele>
        <time>1899-12-29T23:00:00Z</time>
      </trkpt>
      <trkpt lat="37.706605140" lon="-6.558790784">
        <ele>349.00</ele>
        <time>1899-12-29T23:00:00Z</time>
      </trkpt>
      <trkpt lat="37.706422750" lon="-6.558611076">
        <ele>353.00</ele>
        <time>1899-12-29T23:00:00Z</time>
      </trkpt>
      <trkpt lat="37.706236672" lon="-6.558461878">
        <ele>356.00</ele>
        <time>1899-12-29T23:00:00Z</time>
      </trkpt>
      <trkpt lat="37.706107255" lon="-6.558314189">
        <ele>360.00</ele>
        <time>1899-12-29T23:00:00Z</time>
      </trkpt>
      <trkpt lat="37.706050090" lon="-6.558116712">
        <ele>364.00</ele>
        <time>1899-12-29T23:00:00Z</time>
      </trkpt>
      <trkpt lat="37.705849763" lon="-6.557962820">
        <ele>367.00</ele>
        <time>1899-12-29T23:00:00Z</time>
      </trkpt>
      <trkpt lat="37.705710959" lon="-6.557703316">
        <ele>371.00</ele>
        <time>1899-12-29T23:00:00Z</time>
      </trkpt>
      <trkpt lat="37.705593612" lon="-6.557389833">
        <ele>373.00</ele>
        <time>1899-12-29T23:00:00Z</time>
      </trkpt>
      <trkpt lat="37.705429159" lon="-6.557191852">
        <ele>372.00</ele>
        <time>1899-12-29T23:00:00Z</time>
      </trkpt>
      <trkpt lat="37.705297731" lon="-6.557041816">
        <ele>371.00</ele>
        <time>1899-12-29T23:00:00Z</time>
      </trkpt>
      <trkpt lat="37.705198824" lon="-6.556908712">
        <ele>371.00</ele>
        <time>1899-12-29T23:00:00Z</time>
      </trkpt>
      <trkpt lat="37.705087848" lon="-6.556765884">
        <ele>370.00</ele>
        <time>1899-12-29T23:00:00Z</time>
      </trkpt>
      <trkpt lat="37.704646289" lon="-6.556581147">
        <ele>367.00</ele>
        <time>1899-12-29T23:00:00Z</time>
      </trkpt>
      <trkpt lat="37.704264075" lon="-6.556443684">
        <ele>365.00</ele>
        <time>1899-12-29T23:00:00Z</time>
      </trkpt>
      <trkpt lat="37.704032231" lon="-6.556359194">
        <ele>365.00</ele>
        <time>1899-12-29T23:00:00Z</time>
      </trkpt>
      <trkpt lat="37.703850511" lon="-6.556232963">
        <ele>367.00</ele>
        <time>1899-12-29T23:00:00Z</time>
      </trkpt>
      <trkpt lat="37.703573741" lon="-6.555961054">
        <ele>370.00</ele>
        <time>1899-12-29T23:00:00Z</time>
      </trkpt>
      <trkpt lat="37.703356650" lon="-6.555748992">
        <ele>371.00</ele>
        <time>1899-12-29T23:00:00Z</time>
      </trkpt>
      <trkpt lat="37.703127488" lon="-6.555399466">
        <ele>369.00</ele>
        <time>1899-12-29T23:00:00Z</time>
      </trkpt>
      <trkpt lat="37.702971585" lon="-6.555393264">
        <ele>368.00</ele>
        <time>1899-12-29T23:00:00Z</time>
      </trkpt>
      <trkpt lat="37.702755164" lon="-6.555387732">
        <ele>366.00</ele>
        <time>1899-12-29T23:00:00Z</time>
      </trkpt>
      <trkpt lat="37.702523991" lon="-6.555451937">
        <ele>363.00</ele>
        <time>1899-12-29T23:00:00Z</time>
      </trkpt>
      <trkpt lat="37.702245545" lon="-6.555521842">
        <ele>362.00</ele>
        <time>1899-12-29T23:00:00Z</time>
      </trkpt>
      <trkpt lat="37.701827623" lon="-6.555441208">
        <ele>360.00</ele>
        <time>1899-12-29T23:00:00Z</time>
      </trkpt>
      <trkpt lat="37.701401152" lon="-6.555311289">
        <ele>361.00</ele>
        <time>1899-12-29T23:00:00Z</time>
      </trkpt>
      <trkpt lat="37.701172326" lon="-6.555261500">
        <ele>362.00</ele>
        <time>1899-12-29T23:00:00Z</time>
      </trkpt>
      <trkpt lat="37.700894214" lon="-6.555044409">
        <ele>365.00</ele>
        <time>1899-12-29T23:00:00Z</time>
      </trkpt>
      <trkpt lat="37.700645272" lon="-6.554950364">
        <ele>364.00</ele>
        <time>1899-12-29T23:00:00Z</time>
      </trkpt>
      <trkpt lat="37.700248808" lon="-6.555022784">
        <ele>360.00</ele>
        <time>1899-12-29T23:00:00Z</time>
      </trkpt>
      <trkpt lat="37.700022161" lon="-6.555141136">
        <ele>358.00</ele>
        <time>1899-12-29T23:00:00Z</time>
      </trkpt>
      <trkpt lat="37.699912190" lon="-6.555143483">
        <ele>357.00</ele>
        <time>1899-12-29T23:00:00Z</time>
      </trkpt>
      <trkpt lat="37.699880842" lon="-6.554851960">
        <ele>356.00</ele>
        <time>1899-12-29T23:00:00Z</time>
      </trkpt>
      <trkpt lat="37.699830551" lon="-6.554610394">
        <ele>354.00</ele>
        <time>1899-12-29T23:00:00Z</time>
      </trkpt>
      <trkpt lat="37.699558642" lon="-6.554264389">
        <ele>350.00</ele>
        <time>1899-12-29T23:00:00Z</time>
      </trkpt>
      <trkpt lat="37.699290086" lon="-6.554175876">
        <ele>348.00</ele>
        <time>1899-12-29T23:00:00Z</time>
      </trkpt>
      <trkpt lat="37.698978614" lon="-6.554117873">
        <ele>344.00</ele>
        <time>1899-12-29T23:00:00Z</time>
      </trkpt>
      <trkpt lat="37.698628083" lon="-6.553783268">
        <ele>338.00</ele>
        <time>1899-12-29T23:00:00Z</time>
      </trkpt>
      <trkpt lat="37.698458601" lon="-6.553747226">
        <ele>336.00</ele>
        <time>1899-12-29T23:00:00Z</time>
      </trkpt>
      <trkpt lat="37.698323987" lon="-6.553992480">
        <ele>335.00</ele>
        <time>1899-12-29T23:00:00Z</time>
      </trkpt>
      <trkpt lat="37.698143274" lon="-6.554317866">
        <ele>333.00</ele>
        <time>1899-12-29T23:00:00Z</time>
      </trkpt>
      <trkpt lat="37.698018551" lon="-6.554404534">
        <ele>332.00</ele>
        <time>1899-12-29T23:00:00Z</time>
      </trkpt>
      <trkpt lat="37.697726358" lon="-6.554321386">
        <ele>329.00</ele>
        <time>1899-12-29T23:00:00Z</time>
      </trkpt>
      <trkpt lat="37.697458137" lon="-6.554262545">
        <ele>327.00</ele>
        <time>1899-12-29T23:00:00Z</time>
      </trkpt>
      <trkpt lat="37.697219085" lon="-6.554029696">
        <ele>327.00</ele>
        <time>1899-12-29T23:00:00Z</time>
      </trkpt>
      <trkpt lat="37.696932424" lon="-6.553758290">
        <ele>327.00</ele>
        <time>1899-12-29T23:00:00Z</time>
      </trkpt>
      <trkpt lat="37.696477957" lon="-6.553282365">
        <ele>327.00</ele>
        <time>1899-12-29T23:00:00Z</time>
      </trkpt>
      <trkpt lat="37.696260531" lon="-6.552885901">
        <ele>330.00</ele>
        <time>1899-12-29T23:00:00Z</time>
      </trkpt>
      <trkpt lat="37.696017120" lon="-6.552316602">
        <ele>334.00</ele>
        <time>1899-12-29T23:00:00Z</time>
      </trkpt>
      <trkpt lat="37.695918046" lon="-6.551952325">
        <ele>335.00</ele>
        <time>1899-12-29T23:00:00Z</time>
      </trkpt>
      <trkpt lat="37.695916370" lon="-6.551511772">
        <ele>336.00</ele>
        <time>1899-12-29T23:00:00Z</time>
      </trkpt>
      <trkpt lat="37.695911843" lon="-6.551227793">
        <ele>336.00</ele>
        <time>1899-12-29T23:00:00Z</time>
      </trkpt>
      <trkpt lat="37.695240285" lon="-6.551236510">
        <ele>336.00</ele>
        <time>1899-12-29T23:00:00Z</time>
      </trkpt>
      <trkpt lat="37.695158981" lon="-6.551327202">
        <ele>336.00</ele>
        <time>1899-12-29T23:00:00Z</time>
      </trkpt>
      <trkpt lat="37.694678027" lon="-6.551193595">
        <ele>336.00</ele>
        <time>1899-12-29T23:00:00Z</time>
      </trkpt>
      <trkpt lat="37.694643829" lon="-6.551488135">
        <ele>335.00</ele>
        <time>1899-12-29T23:00:00Z</time>
      </trkpt>
      <trkpt lat="37.694324479" lon="-6.551451422">
        <ele>335.00</ele>
        <time>1899-12-29T23:00:00Z</time>
      </trkpt>
      <trkpt lat="37.693950143" lon="-6.551368944">
        <ele>334.00</ele>
        <time>1899-12-29T23:00:00Z</time>
      </trkpt>
      <trkpt lat="37.693059649" lon="-6.551156212">
        <ele>334.00</ele>
        <time>1899-12-29T23:00:00Z</time>
      </trkpt>
      <trkpt lat="37.692976501" lon="-6.551505402">
        <ele>331.00</ele>
        <time>1899-12-29T23:00:00Z</time>
      </trkpt>
      <trkpt lat="37.692860998" lon="-6.552121136">
        <ele>331.00</ele>
        <time>1899-12-29T23:00:00Z</time>
      </trkpt>
      <trkpt lat="37.692825794" lon="-6.552236304">
        <ele>332.00</ele>
        <time>1899-12-29T23:00:00Z</time>
      </trkpt>
      <trkpt lat="37.692917940" lon="-6.552488075">
        <ele>332.00</ele>
        <time>1899-12-29T23:00:00Z</time>
      </trkpt>
      <trkpt lat="37.692980307" lon="-6.552991302">
        <ele>332.00</ele>
        <time>1899-12-29T23:00:00Z</time>
      </trkpt>
      <trkpt lat="37.692804404" lon="-6.552984601">
        <ele>332.00</ele>
        <time>1899-12-29T23:00:00Z</time>
      </trkpt>
      <trkpt lat="37.692671980" lon="-6.552902740">
        <ele>332.00</ele>
        <time>1899-12-29T23:00:00Z</time>
      </trkpt>
      <trkpt lat="37.692475425" lon="-6.552562624">
        <ele>332.00</ele>
        <time>1899-12-29T23:00:00Z</time>
      </trkpt>
      <trkpt lat="37.692166744" lon="-6.552482823">
        <ele>332.00</ele>
        <time>1899-12-29T23:00:00Z</time>
      </trkpt>
      <trkpt lat="37.692157737" lon="-6.552810146">
        <ele>332.00</ele>
        <time>1899-12-29T23:00:00Z</time>
      </trkpt>
      <trkpt lat="37.692209088" lon="-6.553171492">
        <ele>330.00</ele>
        <time>1899-12-29T23:00:00Z</time>
      </trkpt>
      <trkpt lat="37.691750431" lon="-6.553346521">
        <ele>331.00</ele>
        <time>1899-12-29T23:00:00Z</time>
      </trkpt>
      <trkpt lat="37.691269095" lon="-6.553301153">
        <ele>331.00</ele>
        <time>1899-12-29T23:00:00Z</time>
      </trkpt>
      <trkpt lat="37.690739371" lon="-6.553198546">
        <ele>330.00</ele>
        <time>1899-12-29T23:00:00Z</time>
      </trkpt>
      <trkpt lat="37.690442149" lon="-6.553188320">
        <ele>329.00</ele>
        <time>1899-12-29T23:00:00Z</time>
      </trkpt>
      <trkpt lat="37.690126695" lon="-6.553244969">
        <ele>328.00</ele>
        <time>1899-12-29T23:00:00Z</time>
      </trkpt>
      <trkpt lat="37.689771261" lon="-6.553688888">
        <ele>337.00</ele>
        <time>1899-12-29T23:00:00Z</time>
      </trkpt>
      <trkpt lat="37.689529359" lon="-6.553866249">
        <ele>339.00</ele>
        <time>1899-12-29T23:00:00Z</time>
      </trkpt>
      <trkpt lat="37.689237166" lon="-6.554294564">
        <ele>344.00</ele>
        <time>1899-12-29T23:00:00Z</time>
      </trkpt>
      <trkpt lat="37.689106241" lon="-6.554672588">
        <ele>346.00</ele>
        <time>1899-12-29T23:00:00Z</time>
      </trkpt>
      <trkpt lat="37.689060140" lon="-6.555312127">
        <ele>349.00</ele>
        <time>1899-12-29T23:00:00Z</time>
      </trkpt>
      <trkpt lat="37.688950505" lon="-6.555948816">
        <ele>345.00</ele>
        <time>1899-12-29T23:00:00Z</time>
      </trkpt>
      <trkpt lat="37.688814215" lon="-6.556631103">
        <ele>338.00</ele>
        <time>1899-12-29T23:00:00Z</time>
      </trkpt>
      <trkpt lat="37.688813880" lon="-6.557009965">
        <ele>335.00</ele>
        <time>1899-12-29T23:00:00Z</time>
      </trkpt>
      <trkpt lat="37.688849587" lon="-6.557392515">
        <ele>334.00</ele>
        <time>1899-12-29T23:00:00Z</time>
      </trkpt>
      <trkpt lat="37.688770462" lon="-6.557584461">
        <ele>329.00</ele>
        <time>1899-12-29T23:00:00Z</time>
      </trkpt>
      <trkpt lat="37.688604165" lon="-6.557211298">
        <ele>326.00</ele>
        <time>1899-12-29T23:00:00Z</time>
      </trkpt>
      <trkpt lat="37.688403670" lon="-6.556888763">
        <ele>320.00</ele>
        <time>1899-12-29T23:00:00Z</time>
      </trkpt>
      <trkpt lat="37.688042913" lon="-6.556491964">
        <ele>311.00</ele>
        <time>1899-12-29T23:00:00Z</time>
      </trkpt>
      <trkpt lat="37.687684000" lon="-6.556199770">
        <ele>302.00</ele>
        <time>1899-12-29T23:00:00Z</time>
      </trkpt>
      <trkpt lat="37.687126603" lon="-6.555874217">
        <ele>300.00</ele>
        <time>1899-12-29T23:00:00Z</time>
      </trkpt>
      <trkpt lat="37.686464097" lon="-6.555631813">
        <ele>306.00</ele>
        <time>1899-12-29T23:00:00Z</time>
      </trkpt>
      <trkpt lat="37.685778793" lon="-6.555629466">
        <ele>303.00</ele>
        <time>1899-12-29T23:00:00Z</time>
      </trkpt>
      <trkpt lat="37.685289960" lon="-6.555550843">
        <ele>301.00</ele>
        <time>1899-12-29T23:00:00Z</time>
      </trkpt>
      <trkpt lat="37.684919983" lon="-6.555094533">
        <ele>307.00</ele>
        <time>1899-12-29T23:00:00Z</time>
      </trkpt>
      <trkpt lat="37.684757039" lon="-6.554696392">
        <ele>310.00</ele>
        <time>1899-12-29T23:00:00Z</time>
      </trkpt>
      <trkpt lat="37.684549503" lon="-6.554510985">
        <ele>309.00</ele>
        <time>1899-12-29T23:00:00Z</time>
      </trkpt>
      <trkpt lat="37.684272900" lon="-6.554209571">
        <ele>308.00</ele>
        <time>1899-12-29T23:00:00Z</time>
      </trkpt>
      <trkpt lat="37.683817595" lon="-6.553973202">
        <ele>302.00</ele>
        <time>1899-12-29T23:00:00Z</time>
      </trkpt>
      <trkpt lat="37.683204543" lon="-6.553879995">
        <ele>295.00</ele>
        <time>1899-12-29T23:00:00Z</time>
      </trkpt>
      <trkpt lat="37.682545725" lon="-6.554029863">
        <ele>291.00</ele>
        <time>1899-12-29T23:00:00Z</time>
      </trkpt>
      <trkpt lat="37.681991514" lon="-6.554314177">
        <ele>287.00</ele>
        <time>1899-12-29T23:00:00Z</time>
      </trkpt>
      <trkpt lat="37.681818176" lon="-6.554386262">
        <ele>286.00</ele>
        <time>1899-12-29T23:00:00Z</time>
      </trkpt>
      <trkpt lat="37.681455240" lon="-6.554422807">
        <ele>287.00</ele>
        <time>1899-12-29T23:00:00Z</time>
      </trkpt>
      <trkpt lat="37.681054752" lon="-6.554534286">
        <ele>287.00</ele>
        <time>1899-12-29T23:00:00Z</time>
      </trkpt>
      <trkpt lat="37.680678070" lon="-6.554659847">
        <ele>285.00</ele>
        <time>1899-12-29T23:00:00Z</time>
      </trkpt>
      <trkpt lat="37.680270877" lon="-6.554638892">
        <ele>288.00</ele>
        <time>1899-12-29T23:00:00Z</time>
      </trkpt>
      <trkpt lat="37.679968290" lon="-6.554378215">
        <ele>298.00</ele>
        <time>1899-12-29T23:00:00Z</time>
      </trkpt>
      <trkpt lat="37.679831833" lon="-6.554210410">
        <ele>302.00</ele>
        <time>1899-12-29T23:00:00Z</time>
      </trkpt>
      <trkpt lat="37.679686658" lon="-6.553998683">
        <ele>304.00</ele>
        <time>1899-12-29T23:00:00Z</time>
      </trkpt>
      <trkpt lat="37.679602504" lon="-6.553771533">
        <ele>306.00</ele>
        <time>1899-12-29T23:00:00Z</time>
      </trkpt>
      <trkpt lat="37.679565120" lon="-6.553307176">
        <ele>312.00</ele>
        <time>1899-12-29T23:00:00Z</time>
      </trkpt>
      <trkpt lat="37.679556739" lon="-6.553152278">
        <ele>311.00</ele>
        <time>1899-12-29T23:00:00Z</time>
      </trkpt>
      <trkpt lat="37.679408044" lon="-6.553100310">
        <ele>308.00</ele>
        <time>1899-12-29T23:00:00Z</time>
      </trkpt>
      <trkpt lat="37.679264043" lon="-6.553213969">
        <ele>305.00</ele>
        <time>1899-12-29T23:00:00Z</time>
      </trkpt>
      <trkpt lat="37.679079808" lon="-6.553423014">
        <ele>302.00</ele>
        <time>1899-12-29T23:00:00Z</time>
      </trkpt>
      <trkpt lat="37.678933125" lon="-6.553566176">
        <ele>299.00</ele>
        <time>1899-12-29T23:00:00Z</time>
      </trkpt>
      <trkpt lat="37.678775880" lon="-6.553749908">
        <ele>297.00</ele>
        <time>1899-12-29T23:00:00Z</time>
      </trkpt>
      <trkpt lat="37.678475305" lon="-6.554049812">
        <ele>295.00</ele>
        <time>1899-12-29T23:00:00Z</time>
      </trkpt>
      <trkpt lat="37.678372376" lon="-6.554112509">
        <ele>295.00</ele>
        <time>1899-12-29T23:00:00Z</time>
      </trkpt>
      <trkpt lat="37.678264584" lon="-6.554147210">
        <ele>295.00</ele>
        <time>1899-12-29T23:00:00Z</time>
      </trkpt>
      <trkpt lat="37.677896786" lon="-6.554084849">
        <ele>292.00</ele>
        <time>1899-12-29T23:00:00Z</time>
      </trkpt>
      <trkpt lat="37.677727975" lon="-6.553976554">
        <ele>290.00</ele>
        <time>1899-12-29T23:00:00Z</time>
      </trkpt>
      <trkpt lat="37.677563522" lon="-6.553892232">
        <ele>287.00</ele>
        <time>1899-12-29T23:00:00Z</time>
      </trkpt>
      <trkpt lat="37.677444499" lon="-6.553559974">
        <ele>283.00</ele>
        <time>1899-12-29T23:00:00Z</time>
      </trkpt>
      <trkpt lat="37.677348442" lon="-6.553394683">
        <ele>281.00</ele>
        <time>1899-12-29T23:00:00Z</time>
      </trkpt>
      <trkpt lat="37.677234448" lon="-6.553232241">
        <ele>280.00</ele>
        <time>1899-12-29T23:00:00Z</time>
      </trkpt>
      <trkpt lat="37.676985841" lon="-6.552994698">
        <ele>278.00</ele>
        <time>1899-12-29T23:00:00Z</time>
      </trkpt>
      <trkpt lat="37.676722147" lon="-6.552807111">
        <ele>276.00</ele>
        <time>1899-12-29T23:00:00Z</time>
      </trkpt>
      <trkpt lat="37.676563896" lon="-6.552773248">
        <ele>276.00</ele>
        <time>1899-12-29T23:00:00Z</time>
      </trkpt>
      <trkpt lat="37.676358707" lon="-6.552903336">
        <ele>278.00</ele>
        <time>1899-12-29T23:00:00Z</time>
      </trkpt>
      <trkpt lat="37.676186711" lon="-6.553030070">
        <ele>280.00</ele>
        <time>1899-12-29T23:00:00Z</time>
      </trkpt>
      <trkpt lat="37.675827462" lon="-6.553251687">
        <ele>283.00</ele>
        <time>1899-12-29T23:00:00Z</time>
      </trkpt>
      <trkpt lat="37.675663009" lon="-6.553273816">
        <ele>281.00</ele>
        <time>1899-12-29T23:00:00Z</time>
      </trkpt>
      <trkpt lat="37.675510291" lon="-6.553228218">
        <ele>278.00</ele>
        <time>1899-12-29T23:00:00Z</time>
      </trkpt>
      <trkpt lat="37.675465867" lon="-6.553127132">
        <ele>275.00</ele>
        <time>1899-12-29T23:00:00Z</time>
      </trkpt>
      <trkpt lat="37.675540466" lon="-6.552794371">
        <ele>272.00</ele>
        <time>1899-12-29T23:00:00Z</time>
      </trkpt>
      <trkpt lat="37.675610706" lon="-6.552632265">
        <ele>271.00</ele>
        <time>1899-12-29T23:00:00Z</time>
      </trkpt>
      <trkpt lat="37.675599307" lon="-6.552445348">
        <ele>268.00</ele>
        <time>1899-12-29T23:00:00Z</time>
      </trkpt>
      <trkpt lat="37.675459161" lon="-6.552441996">
        <ele>266.00</ele>
        <time>1899-12-29T23:00:00Z</time>
      </trkpt>
      <trkpt lat="37.675389089" lon="-6.552587841">
        <ele>267.00</ele>
        <time>1899-12-29T23:00:00Z</time>
      </trkpt>
      <trkpt lat="37.675289344" lon="-6.552764699">
        <ele>268.00</ele>
        <time>1899-12-29T23:00:00Z</time>
      </trkpt>
      <trkpt lat="37.675221283" lon="-6.552926805">
        <ele>269.00</ele>
        <time>1899-12-29T23:00:00Z</time>
      </trkpt>
      <trkpt lat="37.675144840" lon="-6.553119253">
        <ele>270.00</ele>
        <time>1899-12-29T23:00:00Z</time>
      </trkpt>
      <trkpt lat="37.674988098" lon="-6.553200725">
        <ele>269.00</ele>
        <time>1899-12-29T23:00:00Z</time>
      </trkpt>
      <trkpt lat="37.674427852" lon="-6.552712061">
        <ele>252.00</ele>
        <time>1899-12-29T23:00:00Z</time>
      </trkpt>
      <trkpt lat="37.674272452" lon="-6.552619189">
        <ele>249.00</ele>
        <time>1899-12-29T23:00:00Z</time>
      </trkpt>
      <trkpt lat="37.674459536" lon="-6.552124824">
        <ele>249.00</ele>
        <time>1899-12-29T23:00:00Z</time>
      </trkpt>
      <trkpt lat="37.674478646" lon="-6.551914774">
        <ele>247.00</ele>
        <time>1899-12-29T23:00:00Z</time>
      </trkpt>
      <trkpt lat="37.674462553" lon="-6.551741939">
        <ele>245.00</ele>
        <time>1899-12-29T23:00:00Z</time>
      </trkpt>
      <trkpt lat="37.674312685" lon="-6.551709753">
        <ele>243.00</ele>
        <time>1899-12-29T23:00:00Z</time>
      </trkpt>
      <trkpt lat="37.674073633" lon="-6.551746633">
        <ele>241.00</ele>
        <time>1899-12-29T23:00:00Z</time>
      </trkpt>
      <trkpt lat="37.673808262" lon="-6.551752668">
        <ele>239.00</ele>
        <time>1899-12-29T23:00:00Z</time>
      </trkpt>
      <trkpt lat="37.673681360" lon="-6.551759876">
        <ele>238.00</ele>
        <time>1899-12-29T23:00:00Z</time>
      </trkpt>
      <trkpt lat="37.673296630" lon="-6.551742945">
        <ele>236.00</ele>
        <time>1899-12-29T23:00:00Z</time>
      </trkpt>
      <trkpt lat="37.673112564" lon="-6.551752668">
        <ele>235.00</ele>
        <time>1899-12-29T23:00:00Z</time>
      </trkpt>
      <trkpt lat="37.672854066" lon="-6.551709082">
        <ele>235.00</ele>
        <time>1899-12-29T23:00:00Z</time>
      </trkpt>
      <trkpt lat="37.672640663" lon="-6.551578324">
        <ele>235.00</ele>
        <time>1899-12-29T23:00:00Z</time>
      </trkpt>
      <trkpt lat="37.672504038" lon="-6.551510263">
        <ele>235.00</ele>
        <time>1899-12-29T23:00:00Z</time>
      </trkpt>
      <trkpt lat="37.672312595" lon="-6.551417727">
        <ele>236.00</ele>
        <time>1899-12-29T23:00:00Z</time>
      </trkpt>
      <trkpt lat="37.672032807" lon="-6.551370285">
        <ele>237.00</ele>
        <time>1899-12-29T23:00:00Z</time>
      </trkpt>
      <trkpt lat="37.671552859" lon="-6.551396605">
        <ele>239.00</ele>
        <time>1899-12-29T23:00:00Z</time>
      </trkpt>
      <trkpt lat="37.671249770" lon="-6.551439352">
        <ele>241.00</ele>
        <time>1899-12-29T23:00:00Z</time>
      </trkpt>
      <trkpt lat="37.670969982" lon="-6.551490985">
        <ele>242.00</ele>
        <time>1899-12-29T23:00:00Z</time>
      </trkpt>
      <trkpt lat="37.670529261" lon="-6.551647224">
        <ele>244.00</ele>
        <time>1899-12-29T23:00:00Z</time>
      </trkpt>
      <trkpt lat="37.670379560" lon="-6.551779155">
        <ele>246.00</ele>
        <time>1899-12-29T23:00:00Z</time>
      </trkpt>
      <trkpt lat="37.670182418" lon="-6.551989876">
        <ele>250.00</ele>
        <time>1899-12-29T23:00:00Z</time>
      </trkpt>
      <trkpt lat="37.669796851" lon="-6.552116107">
        <ele>250.00</ele>
        <time>1899-12-29T23:00:00Z</time>
      </trkpt>
      <trkpt lat="37.669375073" lon="-6.552188527">
        <ele>250.00</ele>
        <time>1899-12-29T23:00:00Z</time>
      </trkpt>
      <trkpt lat="37.669048849" lon="-6.552186012">
        <ele>248.00</ele>
        <time>1899-12-29T23:00:00Z</time>
      </trkpt>
      <trkpt lat="37.668679878" lon="-6.552050728">
        <ele>246.00</ele>
        <time>1899-12-29T23:00:00Z</time>
      </trkpt>
      <trkpt lat="37.668448873" lon="-6.551842522">
        <ele>242.00</ele>
        <time>1899-12-29T23:00:00Z</time>
      </trkpt>
      <trkpt lat="37.668222897" lon="-6.551640518">
        <ele>239.00</ele>
        <time>1899-12-29T23:00:00Z</time>
      </trkpt>
      <trkpt lat="37.668042686" lon="-6.551337261">
        <ele>237.00</ele>
        <time>1899-12-29T23:00:00Z</time>
      </trkpt>
      <trkpt lat="37.667924501" lon="-6.550984047">
        <ele>235.00</ele>
        <time>1899-12-29T23:00:00Z</time>
      </trkpt>
      <trkpt lat="37.667847890" lon="-6.550663356">
        <ele>233.00</ele>
        <time>1899-12-29T23:00:00Z</time>
      </trkpt>
      <trkpt lat="37.667826600" lon="-6.549943518">
        <ele>232.00</ele>
        <time>1899-12-29T23:00:00Z</time>
      </trkpt>
      <trkpt lat="37.667836491" lon="-6.549396347">
        <ele>234.00</ele>
        <time>1899-12-29T23:00:00Z</time>
      </trkpt>
      <trkpt lat="37.667848561" lon="-6.549037099">
        <ele>234.00</ele>
        <time>1899-12-29T23:00:00Z</time>
      </trkpt>
      <trkpt lat="37.667848561" lon="-6.548642311">
        <ele>234.00</ele>
        <time>1899-12-29T23:00:00Z</time>
      </trkpt>
      <trkpt lat="37.667767759" lon="-6.548181977">
        <ele>232.00</ele>
        <time>1899-12-29T23:00:00Z</time>
      </trkpt>
      <trkpt lat="37.667610850" lon="-6.547811329">
        <ele>229.00</ele>
        <time>1899-12-29T23:00:00Z</time>
      </trkpt>
      <trkpt lat="37.667417061" lon="-6.547587365">
        <ele>228.00</ele>
        <time>1899-12-29T23:00:00Z</time>
      </trkpt>
      <trkpt lat="37.667257302" lon="-6.547374800">
        <ele>230.00</ele>
        <time>1899-12-29T23:00:00Z</time>
      </trkpt>
      <trkpt lat="37.666832339" lon="-6.547015719">
        <ele>230.00</ele>
        <time>1899-12-29T23:00:00Z</time>
      </trkpt>
      <trkpt lat="37.665851321" lon="-6.546251625">
        <ele>232.00</ele>
        <time>1899-12-29T23:00:00Z</time>
      </trkpt>
      <trkpt lat="37.665585279" lon="-6.546047274">
        <ele>232.00</ele>
        <time>1899-12-29T23:00:00Z</time>
      </trkpt>
      <trkpt lat="37.665339187" lon="-6.545784418">
        <ele>230.00</ele>
        <time>1899-12-29T23:00:00Z</time>
      </trkpt>
      <trkpt lat="37.665069792" lon="-6.545404382">
        <ele>229.00</ele>
        <time>1899-12-29T23:00:00Z</time>
      </trkpt>
      <trkpt lat="37.664858066" lon="-6.545098778">
        <ele>230.00</ele>
        <time>1899-12-29T23:00:00Z</time>
      </trkpt>
      <trkpt lat="37.664607782" lon="-6.544799879">
        <ele>231.00</ele>
        <time>1899-12-29T23:00:00Z</time>
      </trkpt>
      <trkpt lat="37.664362695" lon="-6.544531323">
        <ele>232.00</ele>
        <time>1899-12-29T23:00:00Z</time>
      </trkpt>
      <trkpt lat="37.664162870" lon="-6.544401739">
        <ele>232.00</ele>
        <time>1899-12-29T23:00:00Z</time>
      </trkpt>
      <trkpt lat="37.663856596" lon="-6.544247009">
        <ele>233.00</ele>
        <time>1899-12-29T23:00:00Z</time>
      </trkpt>
      <trkpt lat="37.663348485" lon="-6.544196550">
        <ele>236.00</ele>
        <time>1899-12-29T23:00:00Z</time>
      </trkpt>
      <trkpt lat="37.662894018" lon="-6.544175427">
        <ele>232.00</ele>
        <time>1899-12-29T23:00:00Z</time>
      </trkpt>
      <trkpt lat="37.662181053" lon="-6.544177104">
        <ele>226.00</ele>
        <time>1899-12-29T23:00:00Z</time>
      </trkpt>
      <trkpt lat="37.661521565" lon="-6.544154640">
        <ele>221.00</ele>
        <time>1899-12-29T23:00:00Z</time>
      </trkpt>
      <trkpt lat="37.661257870" lon="-6.544126645">
        <ele>220.00</ele>
        <time>1899-12-29T23:00:00Z</time>
      </trkpt>
      <trkpt lat="37.660876829" lon="-6.543991528">
        <ele>219.00</ele>
        <time>1899-12-29T23:00:00Z</time>
      </trkpt>
      <trkpt lat="37.660691421" lon="-6.543895975">
        <ele>220.00</ele>
        <time>1899-12-29T23:00:00Z</time>
      </trkpt>
      <trkpt lat="37.660426889" lon="-6.543771923">
        <ele>220.00</ele>
        <time>1899-12-29T23:00:00Z</time>
      </trkpt>
      <trkpt lat="37.660116758" lon="-6.543648876">
        <ele>219.00</ele>
        <time>1899-12-29T23:00:00Z</time>
      </trkpt>
      <trkpt lat="37.659669835" lon="-6.543566901">
        <ele>220.00</ele>
        <time>1899-12-29T23:00:00Z</time>
      </trkpt>
      <trkpt lat="37.659425586" lon="-6.543533541">
        <ele>221.00</ele>
        <time>1899-12-29T23:00:00Z</time>
      </trkpt>
      <trkpt lat="37.658918649" lon="-6.543515101">
        <ele>222.00</ele>
        <time>1899-12-29T23:00:00Z</time>
      </trkpt>
      <trkpt lat="37.658415902" lon="-6.543530189">
        <ele>221.00</ele>
        <time>1899-12-29T23:00:00Z</time>
      </trkpt>
      <trkpt lat="37.657891028" lon="-6.543612666">
        <ele>222.00</ele>
        <time>1899-12-29T23:00:00Z</time>
      </trkpt>
      <trkpt lat="37.657499257" lon="-6.543659102">
        <ele>221.00</ele>
        <time>1899-12-29T23:00:00Z</time>
      </trkpt>
      <trkpt lat="37.657019645" lon="-6.543702353">
        <ele>219.00</ele>
        <time>1899-12-29T23:00:00Z</time>
      </trkpt>
      <trkpt lat="37.656644639" lon="-6.543580648">
        <ele>215.00</ele>
        <time>1899-12-29T23:00:00Z</time>
      </trkpt>
      <trkpt lat="37.656326629" lon="-6.543443352">
        <ele>214.00</ele>
        <time>1899-12-29T23:00:00Z</time>
      </trkpt>
      <trkpt lat="37.656032927" lon="-6.543118637">
        <ele>214.00</ele>
        <time>1899-12-29T23:00:00Z</time>
      </trkpt>
      <trkpt lat="37.655802425" lon="-6.542969942">
        <ele>215.00</ele>
        <time>1899-12-29T23:00:00Z</time>
      </trkpt>
      <trkpt lat="37.655441500" lon="-6.542761736">
        <ele>215.00</ele>
        <time>1899-12-29T23:00:00Z</time>
      </trkpt>
      <trkpt lat="37.654967252" lon="-6.542617902">
        <ele>212.00</ele>
        <time>1899-12-29T23:00:00Z</time>
      </trkpt>
      <trkpt lat="37.654580511" lon="-6.542472560">
        <ele>211.00</ele>
        <time>1899-12-29T23:00:00Z</time>
      </trkpt>
      <trkpt lat="37.654238865" lon="-6.542282961">
        <ele>210.00</ele>
        <time>1899-12-29T23:00:00Z</time>
      </trkpt>
      <trkpt lat="37.653796636" lon="-6.541966125">
        <ele>209.00</ele>
        <time>1899-12-29T23:00:00Z</time>
      </trkpt>
      <trkpt lat="37.653315179" lon="-6.541568488">
        <ele>206.00</ele>
        <time>1899-12-29T23:00:00Z</time>
      </trkpt>
      <trkpt lat="37.652908657" lon="-6.541365981">
        <ele>209.00</ele>
        <time>1899-12-29T23:00:00Z</time>
      </trkpt>
      <trkpt lat="37.652119920" lon="-6.541070603">
        <ele>206.00</ele>
        <time>1899-12-29T23:00:00Z</time>
      </trkpt>
      <trkpt lat="37.651499994" lon="-6.540768519">
        <ele>203.00</ele>
        <time>1899-12-29T23:00:00Z</time>
      </trkpt>
      <trkpt lat="37.651201934" lon="-6.540495101">
        <ele>205.00</ele>
        <time>1899-12-29T23:00:00Z</time>
      </trkpt>
      <trkpt lat="37.651023231" lon="-6.540239956">
        <ele>205.00</ele>
        <time>1899-12-29T23:00:00Z</time>
      </trkpt>
      <trkpt lat="37.650671192" lon="-6.539523471">
        <ele>208.00</ele>
        <time>1899-12-29T23:00:00Z</time>
      </trkpt>
      <trkpt lat="37.650244720" lon="-6.538372468">
        <ele>199.00</ele>
        <time>1899-12-29T23:00:00Z</time>
      </trkpt>
      <trkpt lat="37.650038023" lon="-6.537710633">
        <ele>193.00</ele>
        <time>1899-12-29T23:00:00Z</time>
      </trkpt>
      <trkpt lat="37.650030311" lon="-6.537408885">
        <ele>192.00</ele>
        <time>1899-12-29T23:00:00Z</time>
      </trkpt>
      <trkpt lat="37.649990581" lon="-6.537285000">
        <ele>192.00</ele>
        <time>1899-12-29T23:00:00Z</time>
      </trkpt>
      <trkpt lat="37.649872061" lon="-6.537079308">
        <ele>195.00</ele>
        <time>1899-12-29T23:00:00Z</time>
      </trkpt>
      <trkpt lat="37.649806850" lon="-6.536915023">
        <ele>196.00</ele>
        <time>1899-12-29T23:00:00Z</time>
      </trkpt>
      <trkpt lat="37.649461012" lon="-6.536692064">
        <ele>201.00</ele>
        <time>1899-12-29T23:00:00Z</time>
      </trkpt>
      <trkpt lat="37.648927923" lon="-6.536425017">
        <ele>201.00</ele>
        <time>1899-12-29T23:00:00Z</time>
      </trkpt>
      <trkpt lat="37.647997197" lon="-6.536055878">
        <ele>196.00</ele>
        <time>1899-12-29T23:00:00Z</time>
      </trkpt>
      <trkpt lat="37.647341397" lon="-6.535778102">
        <ele>195.00</ele>
        <time>1899-12-29T23:00:00Z</time>
      </trkpt>
      <trkpt lat="37.646874022" lon="-6.535532679">
        <ele>197.00</ele>
        <time>1899-12-29T23:00:00Z</time>
      </trkpt>
      <trkpt lat="37.646176983" lon="-6.535264123">
        <ele>204.00</ele>
        <time>1899-12-29T23:00:00Z</time>
      </trkpt>
      <trkpt lat="37.645771634" lon="-6.535147950">
        <ele>209.00</ele>
        <time>1899-12-29T23:00:00Z</time>
      </trkpt>
      <trkpt lat="37.645287998" lon="-6.535172090">
        <ele>205.00</ele>
        <time>1899-12-29T23:00:00Z</time>
      </trkpt>
      <trkpt lat="37.644893546" lon="-6.535309553">
        <ele>204.00</ele>
        <time>1899-12-29T23:00:00Z</time>
      </trkpt>
      <trkpt lat="37.644549720" lon="-6.535537038">
        <ele>205.00</ele>
        <time>1899-12-29T23:00:00Z</time>
      </trkpt>
      <trkpt lat="37.644177396" lon="-6.535918415">
        <ele>210.00</ele>
        <time>1899-12-29T23:00:00Z</time>
      </trkpt>
      <trkpt lat="37.643825859" lon="-6.536428872">
        <ele>216.00</ele>
        <time>1899-12-29T23:00:00Z</time>
      </trkpt>
      <trkpt lat="37.643665094" lon="-6.536662057">
        <ele>218.00</ele>
        <time>1899-12-29T23:00:00Z</time>
      </trkpt>
      <trkpt lat="37.643308863" lon="-6.537110321">
        <ele>215.00</ele>
        <time>1899-12-29T23:00:00Z</time>
      </trkpt>
      <trkpt lat="37.642950788" lon="-6.537414584">
        <ele>208.00</ele>
        <time>1899-12-29T23:00:00Z</time>
      </trkpt>
      <trkpt lat="37.642526999" lon="-6.537643746">
        <ele>194.00</ele>
        <time>1899-12-29T23:00:00Z</time>
      </trkpt>
      <trkpt lat="37.642140090" lon="-6.537771486">
        <ele>187.00</ele>
        <time>1899-12-29T23:00:00Z</time>
      </trkpt>
      <trkpt lat="37.641786374" lon="-6.537826639">
        <ele>183.00</ele>
        <time>1899-12-29T23:00:00Z</time>
      </trkpt>
      <trkpt lat="37.641336937" lon="-6.537830997">
        <ele>182.00</ele>
        <time>1899-12-29T23:00:00Z</time>
      </trkpt>
      <trkpt lat="37.640855312" lon="-6.537716333">
        <ele>181.00</ele>
        <time>1899-12-29T23:00:00Z</time>
      </trkpt>
      <trkpt lat="37.640502267" lon="-6.537522208">
        <ele>179.00</ele>
        <time>1899-12-29T23:00:00Z</time>
      </trkpt>
      <trkpt lat="37.640181575" lon="-6.537188608">
        <ele>173.00</ele>
        <time>1899-12-29T23:00:00Z</time>
      </trkpt>
      <trkpt lat="37.639877815" lon="-6.536677312">
        <ele>164.00</ele>
        <time>1899-12-29T23:00:00Z</time>
      </trkpt>
      <trkpt lat="37.639625855" lon="-6.536045149">
        <ele>166.00</ele>
        <time>1899-12-29T23:00:00Z</time>
      </trkpt>
      <trkpt lat="37.639524098" lon="-6.535553802">
        <ele>165.00</ele>
        <time>1899-12-29T23:00:00Z</time>
      </trkpt>
      <trkpt lat="37.639424019" lon="-6.534884926">
        <ele>165.00</ele>
        <time>1899-12-29T23:00:00Z</time>
      </trkpt>
      <trkpt lat="37.639306840" lon="-6.534369942">
        <ele>163.00</ele>
        <time>1899-12-29T23:00:00Z</time>
      </trkpt>
      <trkpt lat="37.639150769" lon="-6.533491518">
        <ele>161.00</ele>
        <time>1899-12-29T23:00:00Z</time>
      </trkpt>
      <trkpt lat="37.638969216" lon="-6.533006374">
        <ele>166.00</ele>
        <time>1899-12-29T23:00:00Z</time>
      </trkpt>
      <trkpt lat="37.638707869" lon="-6.532542184">
        <ele>166.00</ele>
        <time>1899-12-29T23:00:00Z</time>
      </trkpt>
      <trkpt lat="37.638276871" lon="-6.531923432">
        <ele>165.00</ele>
        <time>1899-12-29T23:00:00Z</time>
      </trkpt>
      <trkpt lat="37.637764737" lon="-6.531210467">
        <ele>166.00</ele>
        <time>1899-12-29T23:00:00Z</time>
      </trkpt>
      <trkpt lat="37.637457792" lon="-6.530761532">
        <ele>161.00</ele>
        <time>1899-12-29T23:00:00Z</time>
      </trkpt>
      <trkpt lat="37.637037523" lon="-6.530372445">
        <ele>165.00</ele>
        <time>1899-12-29T23:00:00Z</time>
      </trkpt>
      <trkpt lat="37.636696212" lon="-6.530211680">
        <ele>163.00</ele>
        <time>1899-12-29T23:00:00Z</time>
      </trkpt>
      <trkpt lat="37.636303101" lon="-6.530152839">
        <ele>165.00</ele>
        <time>1899-12-29T23:00:00Z</time>
      </trkpt>
      <trkpt lat="37.636051811" lon="-6.530167423">
        <ele>168.00</ele>
        <time>1899-12-29T23:00:00Z</time>
      </trkpt>
      <trkpt lat="37.635687701" lon="-6.530304383">
        <ele>174.00</ele>
        <time>1899-12-29T23:00:00Z</time>
      </trkpt>
      <trkpt lat="37.635381594" lon="-6.530502196">
        <ele>177.00</ele>
        <time>1899-12-29T23:00:00Z</time>
      </trkpt>
      <trkpt lat="37.635110859" lon="-6.530780979">
        <ele>180.00</ele>
        <time>1899-12-29T23:00:00Z</time>
      </trkpt>
      <trkpt lat="37.634924613" lon="-6.531110555">
        <ele>181.00</ele>
        <time>1899-12-29T23:00:00Z</time>
      </trkpt>
      <trkpt lat="37.634722609" lon="-6.531684883">
        <ele>183.00</ele>
        <time>1899-12-29T23:00:00Z</time>
      </trkpt>
      <trkpt lat="37.634474505" lon="-6.532236245">
        <ele>182.00</ele>
        <time>1899-12-29T23:00:00Z</time>
      </trkpt>
      <trkpt lat="37.634251546" lon="-6.532676797">
        <ele>183.00</ele>
        <time>1899-12-29T23:00:00Z</time>
      </trkpt>
      <trkpt lat="37.634016182" lon="-6.533036046">
        <ele>184.00</ele>
        <time>1899-12-29T23:00:00Z</time>
      </trkpt>
      <trkpt lat="37.633693311" lon="-6.533416416">
        <ele>186.00</ele>
        <time>1899-12-29T23:00:00Z</time>
      </trkpt>
      <trkpt lat="37.633475047" lon="-6.533626970">
        <ele>188.00</ele>
        <time>1899-12-29T23:00:00Z</time>
      </trkpt>
      <trkpt lat="37.633199282" lon="-6.533809863">
        <ele>190.00</ele>
        <time>1899-12-29T23:00:00Z</time>
      </trkpt>
      <trkpt lat="37.632884458" lon="-6.533912122">
        <ele>187.00</ele>
        <time>1899-12-29T23:00:00Z</time>
      </trkpt>
      <trkpt lat="37.632537782" lon="-6.533924025">
        <ele>180.00</ele>
        <time>1899-12-29T23:00:00Z</time>
      </trkpt>
      <trkpt lat="37.632191107" lon="-6.533926371">
        <ele>173.00</ele>
        <time>1899-12-29T23:00:00Z</time>
      </trkpt>
      <trkpt lat="37.631821632" lon="-6.533929054">
        <ele>166.00</ele>
        <time>1899-12-29T23:00:00Z</time>
      </trkpt>
      <trkpt lat="37.631490212" lon="-6.533940621">
        <ele>162.00</ele>
        <time>1899-12-29T23:00:00Z</time>
      </trkpt>
      <trkpt lat="37.630513888" lon="-6.534166764">
        <ele>160.00</ele>
        <time>1899-12-29T23:00:00Z</time>
      </trkpt>
      <trkpt lat="37.630127482" lon="-6.534337420">
        <ele>164.00</ele>
        <time>1899-12-29T23:00:00Z</time>
      </trkpt>
      <trkpt lat="37.629730850" lon="-6.534604300">
        <ele>169.00</ele>
        <time>1899-12-29T23:00:00Z</time>
      </trkpt>
      <trkpt lat="37.629527170" lon="-6.534771435">
        <ele>170.00</ele>
        <time>1899-12-29T23:00:00Z</time>
      </trkpt>
      <trkpt lat="37.629275378" lon="-6.535039991">
        <ele>171.00</ele>
        <time>1899-12-29T23:00:00Z</time>
      </trkpt>
      <trkpt lat="37.629006151" lon="-6.535438467">
        <ele>171.00</ele>
        <time>1899-12-29T23:00:00Z</time>
      </trkpt>
      <trkpt lat="37.628681101" lon="-6.535928976">
        <ele>169.00</ele>
        <time>1899-12-29T23:00:00Z</time>
      </trkpt>
      <trkpt lat="37.628335431" lon="-6.536642276">
        <ele>168.00</ele>
        <time>1899-12-29T23:00:00Z</time>
      </trkpt>
      <trkpt lat="37.627892867" lon="-6.537608039">
        <ele>161.00</ele>
        <time>1899-12-29T23:00:00Z</time>
      </trkpt>
      <trkpt lat="37.627781555" lon="-6.537969131">
        <ele>164.00</ele>
        <time>1899-12-29T23:00:00Z</time>
      </trkpt>
      <trkpt lat="37.627767641" lon="-6.538304575">
        <ele>168.00</ele>
        <time>1899-12-29T23:00:00Z</time>
      </trkpt>
      <trkpt lat="37.627751548" lon="-6.538592409">
        <ele>168.00</ele>
        <time>1899-12-29T23:00:00Z</time>
      </trkpt>
      <trkpt lat="37.627776526" lon="-6.538989041">
        <ele>168.00</ele>
        <time>1899-12-29T23:00:00Z</time>
      </trkpt>
      <trkpt lat="37.627902925" lon="-6.539399084">
        <ele>167.00</ele>
        <time>1899-12-29T23:00:00Z</time>
      </trkpt>
      <trkpt lat="37.628092524" lon="-6.539779790">
        <ele>165.00</ele>
        <time>1899-12-29T23:00:00Z</time>
      </trkpt>
      <trkpt lat="37.628407013" lon="-6.540092267">
        <ele>167.00</ele>
        <time>1899-12-29T23:00:00Z</time>
      </trkpt>
      <trkpt lat="37.628692333" lon="-6.540403739">
        <ele>172.00</ele>
        <time>1899-12-29T23:00:00Z</time>
      </trkpt>
      <trkpt lat="37.629318461" lon="-6.541142855">
        <ele>185.00</ele>
        <time>1899-12-29T23:00:00Z</time>
      </trkpt>
      <trkpt lat="37.629753482" lon="-6.541902926">
        <ele>182.00</ele>
        <time>1899-12-29T23:00:00Z</time>
      </trkpt>
      <trkpt lat="37.630017847" lon="-6.542794425">
        <ele>165.00</ele>
        <time>1899-12-29T23:00:00Z</time>
      </trkpt>
      <trkpt lat="37.630000915" lon="-6.543745603">
        <ele>160.00</ele>
        <time>1899-12-29T23:00:00Z</time>
      </trkpt>
      <trkpt lat="37.629695311" lon="-6.544809770">
        <ele>169.00</ele>
        <time>1899-12-29T23:00:00Z</time>
      </trkpt>
      <trkpt lat="37.629097179" lon="-6.545967981">
        <ele>194.00</ele>
        <time>1899-12-29T23:00:00Z</time>
      </trkpt>
      <trkpt lat="37.628524695" lon="-6.546566617">
        <ele>192.00</ele>
        <time>1899-12-29T23:00:00Z</time>
      </trkpt>
      <trkpt lat="37.627104465" lon="-6.547272038">
        <ele>173.00</ele>
        <time>1899-12-29T23:00:00Z</time>
      </trkpt>
      <trkpt lat="37.625756320" lon="-6.547780149">
        <ele>172.00</ele>
        <time>1899-12-29T23:00:00Z</time>
      </trkpt>
      <trkpt lat="37.624886781" lon="-6.548032276">
        <ele>167.00</ele>
        <time>1899-12-29T23:00:00Z</time>
      </trkpt>
      <trkpt lat="37.624089662" lon="-6.547972430">
        <ele>160.00</ele>
        <time>1899-12-29T23:00:00Z</time>
      </trkpt>
      <trkpt lat="37.623425648" lon="-6.548099499">
        <ele>159.00</ele>
        <time>1899-12-29T23:00:00Z</time>
      </trkpt>
      <trkpt lat="37.623040751" lon="-6.548322961">
        <ele>161.00</ele>
        <time>1899-12-29T23:00:00Z</time>
      </trkpt>
      <trkpt lat="37.622835226" lon="-6.548580285">
        <ele>162.00</ele>
        <time>1899-12-29T23:00:00Z</time>
      </trkpt>
      <trkpt lat="37.622662392" lon="-6.549071465">
        <ele>164.00</ele>
        <time>1899-12-29T23:00:00Z</time>
      </trkpt>
      <trkpt lat="37.622496262" lon="-6.549026705">
        <ele>162.00</ele>
        <time>1899-12-29T23:00:00Z</time>
      </trkpt>
      <trkpt lat="37.622214127" lon="-6.548958477">
        <ele>156.00</ele>
        <time>1899-12-29T23:00:00Z</time>
      </trkpt>
      <trkpt lat="37.621910200" lon="-6.548880357">
        <ele>150.00</ele>
        <time>1899-12-29T23:00:00Z</time>
      </trkpt>
      <trkpt lat="37.621821016" lon="-6.549285036">
        <ele>151.00</ele>
        <time>1899-12-29T23:00:00Z</time>
      </trkpt>
      <trkpt lat="37.621491775" lon="-6.549699605">
        <ele>150.00</ele>
        <time>1899-12-29T23:00:00Z</time>
      </trkpt>
      <trkpt lat="37.621249706" lon="-6.549784932">
        <ele>148.00</ele>
        <time>1899-12-29T23:00:00Z</time>
      </trkpt>
      <trkpt lat="37.621119618" lon="-6.549674794">
        <ele>147.00</ele>
        <time>1899-12-29T23:00:00Z</time>
      </trkpt>
      <trkpt lat="37.621394042" lon="-6.549253855">
        <ele>148.00</ele>
        <time>1899-12-29T23:00:00Z</time>
      </trkpt>
      <trkpt lat="37.621514741" lon="-6.548936851">
        <ele>147.00</ele>
        <time>1899-12-29T23:00:00Z</time>
      </trkpt>
      <trkpt lat="37.621595375" lon="-6.548582967">
        <ele>146.00</ele>
        <time>1899-12-29T23:00:00Z</time>
      </trkpt>
      <trkpt lat="37.621664107" lon="-6.548080053">
        <ele>145.00</ele>
        <time>1899-12-29T23:00:00Z</time>
      </trkpt>
      <trkpt lat="37.621682547" lon="-6.547716111">
        <ele>146.00</ele>
        <time>1899-12-29T23:00:00Z</time>
      </trkpt>
      <trkpt lat="37.621807940" lon="-6.547126193">
        <ele>151.00</ele>
        <time>1899-12-29T23:00:00Z</time>
      </trkpt>
      <trkpt lat="37.621925622" lon="-6.546179876">
        <ele>166.00</ele>
        <time>1899-12-29T23:00:00Z</time>
      </trkpt>
      <trkpt lat="37.621899135" lon="-6.545799170">
        <ele>173.00</ele>
        <time>1899-12-29T23:00:00Z</time>
      </trkpt>
      <trkpt lat="37.621974573" lon="-6.545489039">
        <ele>179.00</ele>
        <time>1899-12-29T23:00:00Z</time>
      </trkpt>
      <trkpt lat="37.622033916" lon="-6.545301117">
        <ele>183.00</ele>
        <time>1899-12-29T23:00:00Z</time>
      </trkpt>
      <trkpt lat="37.622118071" lon="-6.545191817">
        <ele>185.00</ele>
        <time>1899-12-29T23:00:00Z</time>
      </trkpt>
      <trkpt lat="37.622242123" lon="-6.545200367">
        <ele>184.00</ele>
        <time>1899-12-29T23:00:00Z</time>
      </trkpt>
      <trkpt lat="37.622366510" lon="-6.545227524">
        <ele>183.00</ele>
        <time>1899-12-29T23:00:00Z</time>
      </trkpt>
      <trkpt lat="37.622474972" lon="-6.545154937">
        <ele>185.00</ele>
        <time>1899-12-29T23:00:00Z</time>
      </trkpt>
      <trkpt lat="37.622561473" lon="-6.544997189">
        <ele>187.00</ele>
        <time>1899-12-29T23:00:00Z</time>
      </trkpt>
      <trkpt lat="37.622642610" lon="-6.544872969">
        <ele>188.00</ele>
        <time>1899-12-29T23:00:00Z</time>
      </trkpt>
      <trkpt lat="37.622795496" lon="-6.544829048">
        <ele>188.00</ele>
        <time>1899-12-29T23:00:00Z</time>
      </trkpt>
      <trkpt lat="37.623060700" lon="-6.544775404">
        <ele>187.00</ele>
        <time>1899-12-29T23:00:00Z</time>
      </trkpt>
      <trkpt lat="37.623185255" lon="-6.544817481">
        <ele>186.00</ele>
        <time>1899-12-29T23:00:00Z</time>
      </trkpt>
      <trkpt lat="37.623317018" lon="-6.544959471">
        <ele>182.00</ele>
        <time>1899-12-29T23:00:00Z</time>
      </trkpt>
      <trkpt lat="37.623431683" lon="-6.544923764">
        <ele>183.00</ele>
        <time>1899-12-29T23:00:00Z</time>
      </trkpt>
      <trkpt lat="37.623589430" lon="-6.544786971">
        <ele>185.00</ele>
        <time>1899-12-29T23:00:00Z</time>
      </trkpt>
      <trkpt lat="37.623674758" lon="-6.544646658">
        <ele>188.00</ele>
        <time>1899-12-29T23:00:00Z</time>
      </trkpt>
      <trkpt lat="37.623830996" lon="-6.544452868">
        <ele>191.00</ele>
        <time>1899-12-29T23:00:00Z</time>
      </trkpt>
      <trkpt lat="37.623958569" lon="-6.544259749">
        <ele>195.00</ele>
        <time>1899-12-29T23:00:00Z</time>
      </trkpt>
      <trkpt lat="37.624118160" lon="-6.543757170">
        <ele>206.00</ele>
        <time>1899-12-29T23:00:00Z</time>
      </trkpt>
      <trkpt lat="37.624278422" lon="-6.543309242">
        <ele>218.00</ele>
        <time>1899-12-29T23:00:00Z</time>
      </trkpt>
      <trkpt lat="37.624441031" lon="-6.543051749">
        <ele>224.00</ele>
        <time>1899-12-29T23:00:00Z</time>
      </trkpt>
      <trkpt lat="37.624466512" lon="-6.542779002">
        <ele>230.00</ele>
        <time>1899-12-29T23:00:00Z</time>
      </trkpt>
      <trkpt lat="37.624506913" lon="-6.542560235">
        <ele>235.00</ele>
        <time>1899-12-29T23:00:00Z</time>
      </trkpt>
      <trkpt lat="37.624458801" lon="-6.542359740">
        <ele>237.00</ele>
        <time>1899-12-29T23:00:00Z</time>
      </trkpt>
      <trkpt lat="37.624320164" lon="-6.542147174">
        <ele>239.00</ele>
        <time>1899-12-29T23:00:00Z</time>
      </trkpt>
      <trkpt lat="37.623983547" lon="-6.541916505">
        <ele>237.00</ele>
        <time>1899-12-29T23:00:00Z</time>
      </trkpt>
      <trkpt lat="37.623608373" lon="-6.541671585">
        <ele>232.00</ele>
        <time>1899-12-29T23:00:00Z</time>
      </trkpt>
      <trkpt lat="37.623197827" lon="-6.541895382">
        <ele>222.00</ele>
        <time>1899-12-29T23:00:00Z</time>
      </trkpt>
      <trkpt lat="37.622875795" lon="-6.542120855">
        <ele>218.00</ele>
        <time>1899-12-29T23:00:00Z</time>
      </trkpt>
      <trkpt lat="37.622428704" lon="-6.542248763">
        <ele>218.00</ele>
        <time>1899-12-29T23:00:00Z</time>
      </trkpt>
      <trkpt lat="37.622178756" lon="-6.542290002">
        <ele>222.00</ele>
        <time>1899-12-29T23:00:00Z</time>
      </trkpt>
      <trkpt lat="37.621898465" lon="-6.542352531">
        <ele>228.00</ele>
        <time>1899-12-29T23:00:00Z</time>
      </trkpt>
      <trkpt lat="37.621741723" lon="-6.542340796">
        <ele>231.00</ele>
        <time>1899-12-29T23:00:00Z</time>
      </trkpt>
      <trkpt lat="37.621507365" lon="-6.542249098">
        <ele>233.00</ele>
        <time>1899-12-29T23:00:00Z</time>
      </trkpt>
      <trkpt lat="37.621285580" lon="-6.542227641">
        <ele>236.00</ele>
        <time>1899-12-29T23:00:00Z</time>
      </trkpt>
      <trkpt lat="37.621075530" lon="-6.542198472">
        <ele>238.00</ele>
        <time>1899-12-29T23:00:00Z</time>
      </trkpt>
      <trkpt lat="37.620870173" lon="-6.542076431">
        <ele>238.00</ele>
        <time>1899-12-29T23:00:00Z</time>
      </trkpt>
      <trkpt lat="37.620627601" lon="-6.541583911">
        <ele>235.00</ele>
        <time>1899-12-29T23:00:00Z</time>
      </trkpt>
      <trkpt lat="37.620351668" lon="-6.541017797">
        <ele>241.00</ele>
        <time>1899-12-29T23:00:00Z</time>
      </trkpt>
      <trkpt lat="37.620276064" lon="-6.540662907">
        <ele>242.00</ele>
        <time>1899-12-29T23:00:00Z</time>
      </trkpt>
      <trkpt lat="37.620201800" lon="-6.540393345">
        <ele>243.00</ele>
        <time>1899-12-29T23:00:00Z</time>
      </trkpt>
      <trkpt lat="37.620040700" lon="-6.540043987">
        <ele>247.00</ele>
        <time>1899-12-29T23:00:00Z</time>
      </trkpt>
      <trkpt lat="37.619867530" lon="-6.539657749">
        <ele>248.00</ele>
        <time>1899-12-29T23:00:00Z</time>
      </trkpt>
      <trkpt lat="37.619760409" lon="-6.539593041">
        <ele>249.00</ele>
        <time>1899-12-29T23:00:00Z</time>
      </trkpt>
      <trkpt lat="37.619544826" lon="-6.539601255">
        <ele>252.00</ele>
        <time>1899-12-29T23:00:00Z</time>
      </trkpt>
      <trkpt lat="37.619388755" lon="-6.539637800">
        <ele>255.00</ele>
        <time>1899-12-29T23:00:00Z</time>
      </trkpt>
      <trkpt lat="37.619237546" lon="-6.539588850">
        <ele>257.00</ele>
        <time>1899-12-29T23:00:00Z</time>
      </trkpt>
      <trkpt lat="37.619120870" lon="-6.539461277">
        <ele>259.00</ele>
        <time>1899-12-29T23:00:00Z</time>
      </trkpt>
      <trkpt lat="37.619086336" lon="-6.539302357">
        <ele>259.00</ele>
        <time>1899-12-29T23:00:00Z</time>
      </trkpt>
      <trkpt lat="37.619090695" lon="-6.539183501">
        <ele>259.00</ele>
        <time>1899-12-29T23:00:00Z</time>
      </trkpt>
      <trkpt lat="37.619148027" lon="-6.539056096">
        <ele>257.00</ele>
        <time>1899-12-29T23:00:00Z</time>
      </trkpt>
      <trkpt lat="37.619343325" lon="-6.538862810">
        <ele>249.00</ele>
        <time>1899-12-29T23:00:00Z</time>
      </trkpt>
      <trkpt lat="37.619406357" lon="-6.538709253">
        <ele>245.00</ele>
        <time>1899-12-29T23:00:00Z</time>
      </trkpt>
      <trkpt lat="37.619426809" lon="-6.538463831">
        <ele>239.00</ele>
        <time>1899-12-29T23:00:00Z</time>
      </trkpt>
      <trkpt lat="37.619344331" lon="-6.538250260">
        <ele>237.00</ele>
        <time>1899-12-29T23:00:00Z</time>
      </trkpt>
      <trkpt lat="37.619205862" lon="-6.537822448">
        <ele>230.00</ele>
        <time>1899-12-29T23:00:00Z</time>
      </trkpt>
      <trkpt lat="37.619076613" lon="-6.537409220">
        <ele>225.00</ele>
        <time>1899-12-29T23:00:00Z</time>
      </trkpt>
      <trkpt lat="37.619028501" lon="-6.537117027">
        <ele>222.00</ele>
        <time>1899-12-29T23:00:00Z</time>
      </trkpt>
      <trkpt lat="37.618976533" lon="-6.536754258">
        <ele>217.00</ele>
        <time>1899-12-29T23:00:00Z</time>
      </trkpt>
      <trkpt lat="37.618966643" lon="-6.536449995">
        <ele>214.00</ele>
        <time>1899-12-29T23:00:00Z</time>
      </trkpt>
      <trkpt lat="37.618939485" lon="-6.536172219">
        <ele>213.00</ele>
        <time>1899-12-29T23:00:00Z</time>
      </trkpt>
      <trkpt lat="37.618822474" lon="-6.535803247">
        <ele>215.00</ele>
        <time>1899-12-29T23:00:00Z</time>
      </trkpt>
      <trkpt lat="37.618673779" lon="-6.535487082">
        <ele>219.00</ele>
        <time>1899-12-29T23:00:00Z</time>
      </trkpt>
      <trkpt lat="37.618340179" lon="-6.535271164">
        <ele>232.00</ele>
        <time>1899-12-29T23:00:00Z</time>
      </trkpt>
      <trkpt lat="37.617950421" lon="-6.535041500">
        <ele>237.00</ele>
        <time>1899-12-29T23:00:00Z</time>
      </trkpt>
      <trkpt lat="37.617669962" lon="-6.534824576">
        <ele>235.00</ele>
        <time>1899-12-29T23:00:00Z</time>
      </trkpt>
      <trkpt lat="37.617414314" lon="-6.534696165">
        <ele>235.00</ele>
        <time>1899-12-29T23:00:00Z</time>
      </trkpt>
      <trkpt lat="37.617230080" lon="-6.534603294">
        <ele>235.00</ele>
        <time>1899-12-29T23:00:00Z</time>
      </trkpt>
      <trkpt lat="37.617030088" lon="-6.534213871">
        <ele>230.00</ele>
        <time>1899-12-29T23:00:00Z</time>
      </trkpt>
      <trkpt lat="37.616812326" lon="-6.533813719">
        <ele>234.00</ele>
        <time>1899-12-29T23:00:00Z</time>
      </trkpt>
      <trkpt lat="37.616497166" lon="-6.533415578">
        <ele>244.00</ele>
        <time>1899-12-29T23:00:00Z</time>
      </trkpt>
      <trkpt lat="37.616226599" lon="-6.533049960">
        <ele>256.00</ele>
        <time>1899-12-29T23:00:00Z</time>
      </trkpt>
      <trkpt lat="37.616100535" lon="-6.532892883">
        <ele>261.00</ele>
        <time>1899-12-29T23:00:00Z</time>
      </trkpt>
      <trkpt lat="37.616081759" lon="-6.532585099">
        <ele>263.00</ele>
        <time>1899-12-29T23:00:00Z</time>
      </trkpt>
      <trkpt lat="37.615984529" lon="-6.532364320">
        <ele>265.00</ele>
        <time>1899-12-29T23:00:00Z</time>
      </trkpt>
      <trkpt lat="37.615815718" lon="-6.532108001">
        <ele>264.00</ele>
        <time>1899-12-29T23:00:00Z</time>
      </trkpt>
      <trkpt lat="37.615707926" lon="-6.531991325">
        <ele>261.00</ele>
        <time>1899-12-29T23:00:00Z</time>
      </trkpt>
      <trkpt lat="37.615521345" lon="-6.531950757">
        <ele>262.00</ele>
        <time>1899-12-29T23:00:00Z</time>
      </trkpt>
      <trkpt lat="37.615341637" lon="-6.531976573">
        <ele>264.00</ele>
        <time>1899-12-29T23:00:00Z</time>
      </trkpt>
      <trkpt lat="37.615119182" lon="-6.531907003">
        <ele>264.00</ele>
        <time>1899-12-29T23:00:00Z</time>
      </trkpt>
      <trkpt lat="37.614960596" lon="-6.531743221">
        <ele>261.00</ele>
        <time>1899-12-29T23:00:00Z</time>
      </trkpt>
      <trkpt lat="37.614874598" lon="-6.531485058">
        <ele>255.00</ele>
        <time>1899-12-29T23:00:00Z</time>
      </trkpt>
      <trkpt lat="37.614820115" lon="-6.530933026">
        <ele>240.00</ele>
        <time>1899-12-29T23:00:00Z</time>
      </trkpt>
      <trkpt lat="37.614768986" lon="-6.530637145">
        <ele>233.00</ele>
        <time>1899-12-29T23:00:00Z</time>
      </trkpt>
      <trkpt lat="37.614683658" lon="-6.530423574">
        <ele>231.00</ele>
        <time>1899-12-29T23:00:00Z</time>
      </trkpt>
      <trkpt lat="37.614491880" lon="-6.530219559">
        <ele>235.00</ele>
        <time>1899-12-29T23:00:00Z</time>
      </trkpt>
      <trkpt lat="37.614262048" lon="-6.530027613">
        <ele>242.00</ele>
        <time>1899-12-29T23:00:00Z</time>
      </trkpt>
      <trkpt lat="37.614062726" lon="-6.529912949">
        <ele>246.00</ele>
        <time>1899-12-29T23:00:00Z</time>
      </trkpt>
      <trkpt lat="37.613793500" lon="-6.529870201">
        <ele>251.00</ele>
        <time>1899-12-29T23:00:00Z</time>
      </trkpt>
      <trkpt lat="37.613386139" lon="-6.529878583">
        <ele>260.00</ele>
        <time>1899-12-29T23:00:00Z</time>
      </trkpt>
      <trkpt lat="37.613152284" lon="-6.529842541">
        <ele>263.00</ele>
        <time>1899-12-29T23:00:00Z</time>
      </trkpt>
      <trkpt lat="37.612909209" lon="-6.529773306">
        <ele>265.00</ele>
        <time>1899-12-29T23:00:00Z</time>
      </trkpt>
      <trkpt lat="37.612751629" lon="-6.529691163">
        <ele>265.00</ele>
        <time>1899-12-29T23:00:00Z</time>
      </trkpt>
      <trkpt lat="37.612586673" lon="-6.529490333">
        <ele>263.00</ele>
        <time>1899-12-29T23:00:00Z</time>
      </trkpt>
      <trkpt lat="37.612433285" lon="-6.529274415">
        <ele>261.00</ele>
        <time>1899-12-29T23:00:00Z</time>
      </trkpt>
      <trkpt lat="37.612363044" lon="-6.529101413">
        <ele>260.00</ele>
        <time>1899-12-29T23:00:00Z</time>
      </trkpt>
      <trkpt lat="37.612382155" lon="-6.528982222">
        <ele>258.00</ele>
        <time>1899-12-29T23:00:00Z</time>
      </trkpt>
      <trkpt lat="37.612437643" lon="-6.528702769">
        <ele>254.00</ele>
        <time>1899-12-29T23:00:00Z</time>
      </trkpt>
      <trkpt lat="37.612350471" lon="-6.528589446">
        <ele>255.00</ele>
        <time>1899-12-29T23:00:00Z</time>
      </trkpt>
      <trkpt lat="37.612164896" lon="-6.528392807">
        <ele>258.00</ele>
        <time>1899-12-29T23:00:00Z</time>
      </trkpt>
      <trkpt lat="37.612003125" lon="-6.528214272">
        <ele>261.00</ele>
        <time>1899-12-29T23:00:00Z</time>
      </trkpt>
      <trkpt lat="37.611860130" lon="-6.528116874">
        <ele>264.00</ele>
        <time>1899-12-29T23:00:00Z</time>
      </trkpt>
      <trkpt lat="37.611605320" lon="-6.528051663">
        <ele>268.00</ele>
        <time>1899-12-29T23:00:00Z</time>
      </trkpt>
      <trkpt lat="37.611486465" lon="-6.528194491">
        <ele>272.00</ele>
        <time>1899-12-29T23:00:00Z</time>
      </trkpt>
      <trkpt lat="37.611415219" lon="-6.528378054">
        <ele>275.00</ele>
        <time>1899-12-29T23:00:00Z</time>
      </trkpt>
      <trkpt lat="37.611620408" lon="-6.528925728">
        <ele>278.00</ele>
        <time>1899-12-29T23:00:00Z</time>
      </trkpt>
      <trkpt lat="37.611736748" lon="-6.529643387">
        <ele>283.00</ele>
        <time>1899-12-29T23:00:00Z</time>
      </trkpt>
      <trkpt lat="37.611921988" lon="-6.529881936">
        <ele>282.00</ele>
        <time>1899-12-29T23:00:00Z</time>
      </trkpt>
      <trkpt lat="37.612261623" lon="-6.530070025">
        <ele>279.00</ele>
        <time>1899-12-29T23:00:00Z</time>
      </trkpt>
      <trkpt lat="37.612569910" lon="-6.530312765">
        <ele>276.00</ele>
        <time>1899-12-29T23:00:00Z</time>
      </trkpt>
      <trkpt lat="37.612648532" lon="-6.530587021">
        <ele>276.00</ele>
        <time>1899-12-29T23:00:00Z</time>
      </trkpt>
      <trkpt lat="37.612714078" lon="-6.531103849">
        <ele>274.00</ele>
        <time>1899-12-29T23:00:00Z</time>
      </trkpt>
      <trkpt lat="37.612820361" lon="-6.531868950">
        <ele>269.00</ele>
        <time>1899-12-29T23:00:00Z</time>
      </trkpt>
      <trkpt lat="37.612603605" lon="-6.532492563">
        <ele>269.00</ele>
        <time>1899-12-29T23:00:00Z</time>
      </trkpt>
      <trkpt lat="37.612322979" lon="-6.532740500">
        <ele>271.00</ele>
        <time>1899-12-29T23:00:00Z</time>
      </trkpt>
      <trkpt lat="37.611923665" lon="-6.532903612">
        <ele>275.00</ele>
        <time>1899-12-29T23:00:00Z</time>
      </trkpt>
      <trkpt lat="37.611555699" lon="-6.533012073">
        <ele>278.00</ele>
        <time>1899-12-29T23:00:00Z</time>
      </trkpt>
      <trkpt lat="37.611354869" lon="-6.533218101">
        <ele>279.00</ele>
        <time>1899-12-29T23:00:00Z</time>
      </trkpt>
      <trkpt lat="37.611211706" lon="-6.533732414">
        <ele>275.00</ele>
        <time>1899-12-29T23:00:00Z</time>
      </trkpt>
      <trkpt lat="37.611004338" lon="-6.534672026">
        <ele>277.00</ele>
        <time>1899-12-29T23:00:00Z</time>
      </trkpt>
      <trkpt lat="37.611177173" lon="-6.535200253">
        <ele>275.00</ele>
        <time>1899-12-29T23:00:00Z</time>
      </trkpt>
      <trkpt lat="37.611589395" lon="-6.536026206">
        <ele>277.00</ele>
        <time>1899-12-29T23:00:00Z</time>
      </trkpt>
      <trkpt lat="37.611979991" lon="-6.536846124">
        <ele>286.00</ele>
        <time>1899-12-29T23:00:00Z</time>
      </trkpt>
      <trkpt lat="37.612172440" lon="-6.537232362">
        <ele>286.00</ele>
        <time>1899-12-29T23:00:00Z</time>
      </trkpt>
      <trkpt lat="37.612117957" lon="-6.537442915">
        <ele>288.00</ele>
        <time>1899-12-29T23:00:00Z</time>
      </trkpt>
      <trkpt lat="37.611930873" lon="-6.537587754">
        <ele>289.00</ele>
        <time>1899-12-29T23:00:00Z</time>
      </trkpt>
      <trkpt lat="37.611767594" lon="-6.537673753">
        <ele>290.00</ele>
        <time>1899-12-29T23:00:00Z</time>
      </trkpt>
      <trkpt lat="37.611712608" lon="-6.537864190">
        <ele>289.00</ele>
        <time>1899-12-29T23:00:00Z</time>
      </trkpt>
      <trkpt lat="37.611791398" lon="-6.538244728">
        <ele>287.00</ele>
        <time>1899-12-29T23:00:00Z</time>
      </trkpt>
      <trkpt lat="37.611709591" lon="-6.538686957">
        <ele>286.00</ele>
        <time>1899-12-29T23:00:00Z</time>
      </trkpt>
      <trkpt lat="37.611753847" lon="-6.538930368">
        <ele>285.00</ele>
        <time>1899-12-29T23:00:00Z</time>
      </trkpt>
      <trkpt lat="37.611937914" lon="-6.539191715">
        <ele>280.00</ele>
        <time>1899-12-29T23:00:00Z</time>
      </trkpt>
      <trkpt lat="37.612037826" lon="-6.539509725">
        <ele>277.00</ele>
        <time>1899-12-29T23:00:00Z</time>
      </trkpt>
      <trkpt lat="37.612059787" lon="-6.539722793">
        <ele>276.00</ele>
        <time>1899-12-29T23:00:00Z</time>
      </trkpt>
      <trkpt lat="37.611980159" lon="-6.539927479">
        <ele>277.00</ele>
        <time>1899-12-29T23:00:00Z</time>
      </trkpt>
      <trkpt lat="37.611765917" lon="-6.540079862">
        <ele>282.00</ele>
        <time>1899-12-29T23:00:00Z</time>
      </trkpt>
      <trkpt lat="37.611533236" lon="-6.540091429">
        <ele>287.00</ele>
        <time>1899-12-29T23:00:00Z</time>
      </trkpt>
      <trkpt lat="37.611357886" lon="-6.540081203">
        <ele>291.00</ele>
        <time>1899-12-29T23:00:00Z</time>
      </trkpt>
      <trkpt lat="37.611122690" lon="-6.540099811">
        <ele>296.00</ele>
        <time>1899-12-29T23:00:00Z</time>
      </trkpt>
      <trkpt lat="37.610931247" lon="-6.540337689">
        <ele>297.00</ele>
        <time>1899-12-29T23:00:00Z</time>
      </trkpt>
      <trkpt lat="37.610656321" lon="-6.540673804">
        <ele>296.00</ele>
        <time>1899-12-29T23:00:00Z</time>
      </trkpt>
      <trkpt lat="37.610375024" lon="-6.540903132">
        <ele>297.00</ele>
        <time>1899-12-29T23:00:00Z</time>
      </trkpt>
      <trkpt lat="37.609900609" lon="-6.541305464">
        <ele>299.00</ele>
        <time>1899-12-29T23:00:00Z</time>
      </trkpt>
      <trkpt lat="37.609196696" lon="-6.541931760">
        <ele>300.00</ele>
        <time>1899-12-29T23:00:00Z</time>
      </trkpt>
      <trkpt lat="37.609048840" lon="-6.542021614">
        <ele>301.00</ele>
        <time>1899-12-29T23:00:00Z</time>
      </trkpt>
      <trkpt lat="37.609121259" lon="-6.542289499">
        <ele>300.00</ele>
        <time>1899-12-29T23:00:00Z</time>
      </trkpt>
      <trkpt lat="37.609020341" lon="-6.542351022">
        <ele>300.00</ele>
        <time>1899-12-29T23:00:00Z</time>
      </trkpt>
      <trkpt lat="37.608875837" lon="-6.542417910">
        <ele>302.00</ele>
        <time>1899-12-29T23:00:00Z</time>
      </trkpt>
      <trkpt lat="37.608709708" lon="-6.542494353">
        <ele>303.00</ele>
        <time>1899-12-29T23:00:00Z</time>
      </trkpt>
      <trkpt lat="37.608643156" lon="-6.542404331">
        <ele>304.00</ele>
        <time>1899-12-29T23:00:00Z</time>
      </trkpt>
      <trkpt lat="37.608454227" lon="-6.542394441">
        <ele>306.00</ele>
        <time>1899-12-29T23:00:00Z</time>
      </trkpt>
      <trkpt lat="37.608220037" lon="-6.542271394">
        <ele>308.00</ele>
        <time>1899-12-29T23:00:00Z</time>
      </trkpt>
      <trkpt lat="37.608454227" lon="-6.542394441">
        <ele>306.00</ele>
        <time>1899-12-29T23:00:00Z</time>
      </trkpt>
      <trkpt lat="37.608220037" lon="-6.542271394">
        <ele>308.00</ele>
        <time>1899-12-29T23:00:00Z</time>
      </trkpt>
      <trkpt lat="37.608183995" lon="-6.542011723">
        <ele>309.00</ele>
        <time>1899-12-29T23:00:00Z</time>
      </trkpt>
      <trkpt lat="37.608010322" lon="-6.541786920">
        <ele>311.00</ele>
        <time>1899-12-29T23:00:00Z</time>
      </trkpt>
      <trkpt lat="37.607855257" lon="-6.541584581">
        <ele>314.00</ele>
        <time>1899-12-29T23:00:00Z</time>
      </trkpt>
      <trkpt lat="37.607071716" lon="-6.541314516">
        <ele>316.00</ele>
        <time>1899-12-29T23:00:00Z</time>
      </trkpt>
      <trkpt lat="37.606762089" lon="-6.541197840">
        <ele>316.00</ele>
        <time>1899-12-29T23:00:00Z</time>
      </trkpt>
      <trkpt lat="37.606228497" lon="-6.541001033">
        <ele>313.00</ele>
        <time>1899-12-29T23:00:00Z</time>
      </trkpt>
      <trkpt lat="37.605933622" lon="-6.540848650">
        <ele>311.00</ele>
        <time>1899-12-29T23:00:00Z</time>
      </trkpt>
      <trkpt lat="37.605150752" lon="-6.540730633">
        <ele>309.00</ele>
        <time>1899-12-29T23:00:00Z</time>
      </trkpt>
      <trkpt lat="37.604452539" lon="-6.540566348">
        <ele>304.00</ele>
        <time>1899-12-29T23:00:00Z</time>
      </trkpt>
      <trkpt lat="37.604045346" lon="-6.540387142">
        <ele>300.00</ele>
        <time>1899-12-29T23:00:00Z</time>
      </trkpt>
      <trkpt lat="37.603779640" lon="-6.540086735">
        <ele>296.00</ele>
        <time>1899-12-29T23:00:00Z</time>
      </trkpt>
      <trkpt lat="37.603234649" lon="-6.539978608">
        <ele>295.00</ele>
        <time>1899-12-29T23:00:00Z</time>
      </trkpt>
      <trkpt lat="37.602816559" lon="-6.539918594">
        <ele>295.00</ele>
        <time>1899-12-29T23:00:00Z</time>
      </trkpt>
      <trkpt lat="37.602470890" lon="-6.539845839">
        <ele>296.00</ele>
        <time>1899-12-29T23:00:00Z</time>
      </trkpt>
      <trkpt lat="37.602315322" lon="-6.539746430">
        <ele>294.00</ele>
        <time>1899-12-29T23:00:00Z</time>
      </trkpt>
      <trkpt lat="37.602042574" lon="-6.539352816">
        <ele>291.00</ele>
        <time>1899-12-29T23:00:00Z</time>
      </trkpt>
      <trkpt lat="37.601711154" lon="-6.538983341">
        <ele>287.00</ele>
        <time>1899-12-29T23:00:00Z</time>
      </trkpt>
      <trkpt lat="37.601619959" lon="-6.538591739">
        <ele>285.00</ele>
        <time>1899-12-29T23:00:00Z</time>
      </trkpt>
      <trkpt lat="37.601600513" lon="-6.538141631">
        <ele>281.00</ele>
        <time>1899-12-29T23:00:00Z</time>
      </trkpt>
      <trkpt lat="37.601692546" lon="-6.537894532">
        <ele>279.00</ele>
        <time>1899-12-29T23:00:00Z</time>
      </trkpt>
      <trkpt lat="37.601641417" lon="-6.537792943">
        <ele>277.00</ele>
        <time>1899-12-29T23:00:00Z</time>
      </trkpt>
      <trkpt lat="37.601489201" lon="-6.537607871">
        <ele>274.00</ele>
        <time>1899-12-29T23:00:00Z</time>
      </trkpt>
      <trkpt lat="37.601324413" lon="-6.537491530">
        <ele>271.00</ele>
        <time>1899-12-29T23:00:00Z</time>
      </trkpt>
      <trkpt lat="37.601159289" lon="-6.537346691">
        <ele>268.00</ele>
        <time>1899-12-29T23:00:00Z</time>
      </trkpt>
      <trkpt lat="37.600979581" lon="-6.537139323">
        <ele>264.00</ele>
        <time>1899-12-29T23:00:00Z</time>
      </trkpt>
      <trkpt lat="37.600871623" lon="-6.536850818">
        <ele>261.00</ele>
        <time>1899-12-29T23:00:00Z</time>
      </trkpt>
      <trkpt lat="37.600803729" lon="-6.536515709">
        <ele>257.00</ele>
        <time>1899-12-29T23:00:00Z</time>
      </trkpt>
      <trkpt lat="37.600687891" lon="-6.536329966">
        <ele>255.00</ele>
        <time>1899-12-29T23:00:00Z</time>
      </trkpt>
      <trkpt lat="37.600546908" lon="-6.536298618">
        <ele>254.00</ele>
        <time>1899-12-29T23:00:00Z</time>
      </trkpt>
      <trkpt lat="37.600365188" lon="-6.536279507">
        <ele>254.00</ele>
        <time>1899-12-29T23:00:00Z</time>
      </trkpt>
      <trkpt lat="37.600152455" lon="-6.536318064">
        <ele>254.00</ele>
        <time>1899-12-29T23:00:00Z</time>
      </trkpt>
      <trkpt lat="37.600114066" lon="-6.536501292">
        <ele>254.00</ele>
        <time>1899-12-29T23:00:00Z</time>
      </trkpt>
      <trkpt lat="37.600054052" lon="-6.536781918">
        <ele>254.00</ele>
        <time>1899-12-29T23:00:00Z</time>
      </trkpt>
      <trkpt lat="37.599899322" lon="-6.536900103">
        <ele>253.00</ele>
        <time>1899-12-29T23:00:00Z</time>
      </trkpt>
      <trkpt lat="37.599756159" lon="-6.536970846">
        <ele>253.00</ele>
        <time>1899-12-29T23:00:00Z</time>
      </trkpt>
      <trkpt lat="37.599682566" lon="-6.537117027">
        <ele>252.00</ele>
        <time>1899-12-29T23:00:00Z</time>
      </trkpt>
      <trkpt lat="37.599670161" lon="-6.537280139">
        <ele>251.00</ele>
        <time>1899-12-29T23:00:00Z</time>
      </trkpt>
      <trkpt lat="37.599712238" lon="-6.537434030">
        <ele>250.00</ele>
        <time>1899-12-29T23:00:00Z</time>
      </trkpt>
      <trkpt lat="37.599735539" lon="-6.537604518">
        <ele>250.00</ele>
        <time>1899-12-29T23:00:00Z</time>
      </trkpt>
      <trkpt lat="37.599738557" lon="-6.537738964">
        <ele>250.00</ele>
        <time>1899-12-29T23:00:00Z</time>
      </trkpt>
      <trkpt lat="37.599603608" lon="-6.538092513">
        <ele>248.00</ele>
        <time>1899-12-29T23:00:00Z</time>
      </trkpt>
      <trkpt lat="37.599426918" lon="-6.538350508">
        <ele>244.00</ele>
        <time>1899-12-29T23:00:00Z</time>
      </trkpt>
      <trkpt lat="37.599258274" lon="-6.538550667">
        <ele>241.00</ele>
        <time>1899-12-29T23:00:00Z</time>
      </trkpt>
      <trkpt lat="37.599030789" lon="-6.538692489">
        <ele>239.00</ele>
        <time>1899-12-29T23:00:00Z</time>
      </trkpt>
      <trkpt lat="37.598765753" lon="-6.538877394">
        <ele>239.00</ele>
        <time>1899-12-29T23:00:00Z</time>
      </trkpt>
      <trkpt lat="37.598425113" lon="-6.539246198">
        <ele>236.00</ele>
        <time>1899-12-29T23:00:00Z</time>
      </trkpt>
      <trkpt lat="37.598222606" lon="-6.539453901">
        <ele>234.00</ele>
        <time>1899-12-29T23:00:00Z</time>
      </trkpt>
      <trkpt lat="37.598048095" lon="-6.540158652">
        <ele>230.00</ele>
        <time>1899-12-29T23:00:00Z</time>
      </trkpt>
      <trkpt lat="37.597913481" lon="-6.540885195">
        <ele>231.00</ele>
        <time>1899-12-29T23:00:00Z</time>
      </trkpt>
      <trkpt lat="37.597764451" lon="-6.541331615">
        <ele>226.00</ele>
        <time>1899-12-29T23:00:00Z</time>
      </trkpt>
      <trkpt lat="37.597594466" lon="-6.541828159">
        <ele>219.00</ele>
        <time>1899-12-29T23:00:00Z</time>
      </trkpt>
      <trkpt lat="37.597454991" lon="-6.541894209">
        <ele>218.00</ele>
        <time>1899-12-29T23:00:00Z</time>
      </trkpt>
      <trkpt lat="37.597236224" lon="-6.541953050">
        <ele>221.00</ele>
        <time>1899-12-29T23:00:00Z</time>
      </trkpt>
      <trkpt lat="37.597110663" lon="-6.541996300">
        <ele>222.00</ele>
        <time>1899-12-29T23:00:00Z</time>
      </trkpt>
      <trkpt lat="37.596912682" lon="-6.541991271">
        <ele>226.00</ele>
        <time>1899-12-29T23:00:00Z</time>
      </trkpt>
      <trkpt lat="37.596783601" lon="-6.542034522">
        <ele>227.00</ele>
        <time>1899-12-29T23:00:00Z</time>
      </trkpt>
      <trkpt lat="37.596601211" lon="-6.542124208">
        <ele>227.00</ele>
        <time>1899-12-29T23:00:00Z</time>
      </trkpt>
      <trkpt lat="37.596357968" lon="-6.542233173">
        <ele>227.00</ele>
        <time>1899-12-29T23:00:00Z</time>
      </trkpt>
      <trkpt lat="37.596094273" lon="-6.542446744">
        <ele>227.00</ele>
        <time>1899-12-29T23:00:00Z</time>
      </trkpt>
      <trkpt lat="37.595841642" lon="-6.542728879">
        <ele>226.00</ele>
        <time>1899-12-29T23:00:00Z</time>
      </trkpt>
      <trkpt lat="37.595588509" lon="-6.542956028">
        <ele>221.00</ele>
        <time>1899-12-29T23:00:00Z</time>
      </trkpt>
      <trkpt lat="37.595511395" lon="-6.543116122">
        <ele>219.00</ele>
        <time>1899-12-29T23:00:00Z</time>
      </trkpt>
      <trkpt lat="37.595547773" lon="-6.543330867">
        <ele>216.00</ele>
        <time>1899-12-29T23:00:00Z</time>
      </trkpt>
      <trkpt lat="37.595642321" lon="-6.543494146">
        <ele>210.00</ele>
        <time>1899-12-29T23:00:00Z</time>
      </trkpt>
      <trkpt lat="37.595684733" lon="-6.543701682">
        <ele>203.00</ele>
        <time>1899-12-29T23:00:00Z</time>
      </trkpt>
      <trkpt lat="37.595382314" lon="-6.543458607">
        <ele>215.00</ele>
        <time>1899-12-29T23:00:00Z</time>
      </trkpt>
      <trkpt lat="37.595249210" lon="-6.543483920">
        <ele>216.00</ele>
        <time>1899-12-29T23:00:00Z</time>
      </trkpt>
      <trkpt lat="37.595072351" lon="-6.543469504">
        <ele>218.00</ele>
        <time>1899-12-29T23:00:00Z</time>
      </trkpt>
      <trkpt lat="37.594935391" lon="-6.543476712">
        <ele>218.00</ele>
        <time>1899-12-29T23:00:00Z</time>
      </trkpt>
      <trkpt lat="37.594735567" lon="-6.543634962">
        <ele>214.00</ele>
        <time>1899-12-29T23:00:00Z</time>
      </trkpt>
      <trkpt lat="37.594458126" lon="-6.543683242">
        <ele>211.00</ele>
        <time>1899-12-29T23:00:00Z</time>
      </trkpt>
      <trkpt lat="37.594303731" lon="-6.543657761">
        <ele>210.00</ele>
        <time>1899-12-29T23:00:00Z</time>
      </trkpt>
      <trkpt lat="37.594115306" lon="-6.543613337">
        <ele>207.00</ele>
        <time>1899-12-29T23:00:00Z</time>
      </trkpt>
      <trkpt lat="37.593917828" lon="-6.543651726">
        <ele>203.00</ele>
        <time>1899-12-29T23:00:00Z</time>
      </trkpt>
      <trkpt lat="37.593191620" lon="-6.543749627">
        <ele>188.00</ele>
        <time>1899-12-29T23:00:00Z</time>
      </trkpt>
      <trkpt lat="37.592771016" lon="-6.543619707">
        <ele>180.00</ele>
        <time>1899-12-29T23:00:00Z</time>
      </trkpt>
      <trkpt lat="37.592430543" lon="-6.543709729">
        <ele>175.00</ele>
        <time>1899-12-29T23:00:00Z</time>
      </trkpt>
      <trkpt lat="37.591781449" lon="-6.543805953">
        <ele>170.00</ele>
        <time>1899-12-29T23:00:00Z</time>
      </trkpt>
      <trkpt lat="37.591440305" lon="-6.544115413">
        <ele>167.00</ele>
        <time>1899-12-29T23:00:00Z</time>
      </trkpt>
      <trkpt lat="37.591230590" lon="-6.544323284">
        <ele>165.00</ele>
        <time>1899-12-29T23:00:00Z</time>
      </trkpt>
      <trkpt lat="37.590973098" lon="-6.544450521">
        <ele>162.00</ele>
        <time>1899-12-29T23:00:00Z</time>
      </trkpt>
      <trkpt lat="37.590635475" lon="-6.544516236">
        <ele>158.00</ele>
        <time>1899-12-29T23:00:00Z</time>
      </trkpt>
      <trkpt lat="37.590094674" lon="-6.544629727">
        <ele>151.00</ele>
        <time>1899-12-29T23:00:00Z</time>
      </trkpt>
      <trkpt lat="37.589893341" lon="-6.544463430">
        <ele>149.00</ele>
        <time>1899-12-29T23:00:00Z</time>
      </trkpt>
      <trkpt lat="37.589665689" lon="-6.544386651">
        <ele>146.00</ele>
        <time>1899-12-29T23:00:00Z</time>
      </trkpt>
      <trkpt lat="37.589341141" lon="-6.544348095">
        <ele>141.00</ele>
        <time>1899-12-29T23:00:00Z</time>
      </trkpt>
      <trkpt lat="37.588974852" lon="-6.544226389">
        <ele>135.00</ele>
        <time>1899-12-29T23:00:00Z</time>
      </trkpt>
      <trkpt lat="37.588789780" lon="-6.544135697">
        <ele>133.00</ele>
        <time>1899-12-29T23:00:00Z</time>
      </trkpt>
      <trkpt lat="37.588566821" lon="-6.544075347">
        <ele>130.00</ele>
        <time>1899-12-29T23:00:00Z</time>
      </trkpt>
      <trkpt lat="37.588229701" lon="-6.544050034">
        <ele>128.00</ele>
        <time>1899-12-29T23:00:00Z</time>
      </trkpt>
      <trkpt lat="37.587943878" lon="-6.544296294">
        <ele>128.00</ele>
        <time>1899-12-29T23:00:00Z</time>
      </trkpt>
      <trkpt lat="37.587513048" lon="-6.544690412">
        <ele>130.00</ele>
        <time>1899-12-29T23:00:00Z</time>
      </trkpt>
      <trkpt lat="37.587173078" lon="-6.544875987">
        <ele>130.00</ele>
        <time>1899-12-29T23:00:00Z</time>
      </trkpt>
      <trkpt lat="37.586915083" lon="-6.544920914">
        <ele>129.00</ele>
        <time>1899-12-29T23:00:00Z</time>
      </trkpt>
      <trkpt lat="37.586497329" lon="-6.544853859">
        <ele>128.00</ele>
        <time>1899-12-29T23:00:00Z</time>
      </trkpt>
      <trkpt lat="37.586386688" lon="-6.544808093">
        <ele>128.00</ele>
        <time>1899-12-29T23:00:00Z</time>
      </trkpt>
      <trkpt lat="37.586260289" lon="-6.544688400">
        <ele>128.00</ele>
        <time>1899-12-29T23:00:00Z</time>
      </trkpt>
      <trkpt lat="37.586116623" lon="-6.544569712">
        <ele>127.00</ele>
        <time>1899-12-29T23:00:00Z</time>
      </trkpt>
      <trkpt lat="37.585869189" lon="-6.544327978">
        <ele>126.00</ele>
        <time>1899-12-29T23:00:00Z</time>
      </trkpt>
      <trkpt lat="37.585686967" lon="-6.544032097">
        <ele>126.00</ele>
        <time>1899-12-29T23:00:00Z</time>
      </trkpt>
      <trkpt lat="37.585569620" lon="-6.543843504">
        <ele>126.00</ele>
        <time>1899-12-29T23:00:00Z</time>
      </trkpt>
      <trkpt lat="37.585489992" lon="-6.543718446">
        <ele>127.00</ele>
        <time>1899-12-29T23:00:00Z</time>
      </trkpt>
      <trkpt lat="37.585170642" lon="-6.543732025">
        <ele>125.00</ele>
        <time>1899-12-29T23:00:00Z</time>
      </trkpt>
      <trkpt lat="37.584940474" lon="-6.543884911">
        <ele>124.00</ele>
        <time>1899-12-29T23:00:00Z</time>
      </trkpt>
      <trkpt lat="37.584701087" lon="-6.544126980">
        <ele>124.00</ele>
        <time>1899-12-29T23:00:00Z</time>
      </trkpt>
      <trkpt lat="37.584590781" lon="-6.544348933">
        <ele>127.00</ele>
        <time>1899-12-29T23:00:00Z</time>
      </trkpt>
      <trkpt lat="37.584538311" lon="-6.544566862">
        <ele>131.00</ele>
        <time>1899-12-29T23:00:00Z</time>
      </trkpt>
      <trkpt lat="37.584501263" lon="-6.544786971">
        <ele>134.00</ele>
        <time>1899-12-29T23:00:00Z</time>
      </trkpt>
      <trkpt lat="37.584379893" lon="-6.544816811">
        <ele>133.00</ele>
        <time>1899-12-29T23:00:00Z</time>
      </trkpt>
      <trkpt lat="37.584200185" lon="-6.544937175">
        <ele>131.00</ele>
        <time>1899-12-29T23:00:00Z</time>
      </trkpt>
      <trkpt lat="37.584053669" lon="-6.544968020">
        <ele>130.00</ele>
        <time>1899-12-29T23:00:00Z</time>
      </trkpt>
      <trkpt lat="37.583899777" lon="-6.544936672">
        <ele>127.00</ele>
        <time>1899-12-29T23:00:00Z</time>
      </trkpt>
      <trkpt lat="37.583658211" lon="-6.544869114">
        <ele>123.00</ele>
        <time>1899-12-29T23:00:00Z</time>
      </trkpt>
      <trkpt lat="37.583509181" lon="-6.544772554">
        <ele>122.00</ele>
        <time>1899-12-29T23:00:00Z</time>
      </trkpt>
      <trkpt lat="37.583377920" lon="-6.544641461">
        <ele>121.00</ele>
        <time>1899-12-29T23:00:00Z</time>
      </trkpt>
      <trkpt lat="37.583090421" lon="-6.544263102">
        <ele>123.00</ele>
        <time>1899-12-29T23:00:00Z</time>
      </trkpt>
      <trkpt lat="37.582874838" lon="-6.544054225">
        <ele>125.00</ele>
        <time>1899-12-29T23:00:00Z</time>
      </trkpt>
      <trkpt lat="37.582696304" lon="-6.543930005">
        <ele>126.00</ele>
        <time>1899-12-29T23:00:00Z</time>
      </trkpt>
      <trkpt lat="37.582358345" lon="-6.543816179">
        <ele>128.00</ele>
        <time>1899-12-29T23:00:00Z</time>
      </trkpt>
      <trkpt lat="37.582257260" lon="-6.543832608">
        <ele>128.00</ele>
        <time>1899-12-29T23:00:00Z</time>
      </trkpt>
      <trkpt lat="37.582061291" lon="-6.543872841">
        <ele>128.00</ele>
        <time>1899-12-29T23:00:00Z</time>
      </trkpt>
      <trkpt lat="37.581850067" lon="-6.543976106">
        <ele>128.00</ele>
        <time>1899-12-29T23:00:00Z</time>
      </trkpt>
      <trkpt lat="37.581660636" lon="-6.544125471">
        <ele>127.00</ele>
        <time>1899-12-29T23:00:00Z</time>
      </trkpt>
      <trkpt lat="37.581546810" lon="-6.544230580">
        <ele>128.00</ele>
        <time>1899-12-29T23:00:00Z</time>
      </trkpt>
      <trkpt lat="37.581275906" lon="-6.544324625">
        <ele>131.00</ele>
        <time>1899-12-29T23:00:00Z</time>
      </trkpt>
      <trkpt lat="37.581195943" lon="-6.544387825">
        <ele>133.00</ele>
        <time>1899-12-29T23:00:00Z</time>
      </trkpt>
      <trkpt lat="37.581075747" lon="-6.544427220">
        <ele>134.00</ele>
        <time>1899-12-29T23:00:00Z</time>
      </trkpt>
      <trkpt lat="37.580817919" lon="-6.544404421">
        <ele>133.00</ele>
        <time>1899-12-29T23:00:00Z</time>
      </trkpt>
      <trkpt lat="37.580661345" lon="-6.544295121">
        <ele>130.00</ele>
        <time>1899-12-29T23:00:00Z</time>
      </trkpt>
      <trkpt lat="37.580557074" lon="-6.544190515">
        <ele>127.00</ele>
        <time>1899-12-29T23:00:00Z</time>
      </trkpt>
      <trkpt lat="37.580691017" lon="-6.544011477">
        <ele>128.00</ele>
        <time>1899-12-29T23:00:00Z</time>
      </trkpt>
      <trkpt lat="37.580816075" lon="-6.543853898">
        <ele>130.00</ele>
        <time>1899-12-29T23:00:00Z</time>
      </trkpt>
      <trkpt lat="37.581004668" lon="-6.543535385">
        <ele>133.00</ele>
        <time>1899-12-29T23:00:00Z</time>
      </trkpt>
      <trkpt lat="37.581068706" lon="-6.543348469">
        <ele>136.00</ele>
        <time>1899-12-29T23:00:00Z</time>
      </trkpt>
      <trkpt lat="37.581117488" lon="-6.543008499">
        <ele>141.00</ele>
        <time>1899-12-29T23:00:00Z</time>
      </trkpt>
      <trkpt lat="37.581090331" lon="-6.542659979">
        <ele>147.00</ele>
        <time>1899-12-29T23:00:00Z</time>
      </trkpt>
      <trkpt lat="37.581028137" lon="-6.542046927">
        <ele>152.00</ele>
        <time>1899-12-29T23:00:00Z</time>
      </trkpt>
      <trkpt lat="37.580853626" lon="-6.541842408">
        <ele>154.00</ele>
        <time>1899-12-29T23:00:00Z</time>
      </trkpt>
      <trkpt lat="37.580703590" lon="-6.541647613">
        <ele>152.00</ele>
        <time>1899-12-29T23:00:00Z</time>
      </trkpt>
      <trkpt lat="37.580598481" lon="-6.541553903">
        <ele>152.00</ele>
        <time>1899-12-29T23:00:00Z</time>
      </trkpt>
      <trkpt lat="37.580505107" lon="-6.541400515">
        <ele>154.00</ele>
        <time>1899-12-29T23:00:00Z</time>
      </trkpt>
      <trkpt lat="37.580276784" lon="-6.541375536">
        <ele>149.00</ele>
        <time>1899-12-29T23:00:00Z</time>
      </trkpt>
      <trkpt lat="37.580070421" lon="-6.541360784">
        <ele>145.00</ele>
        <time>1899-12-29T23:00:00Z</time>
      </trkpt>
      <trkpt lat="37.579974364" lon="-6.541293729">
        <ele>145.00</ele>
        <time>1899-12-29T23:00:00Z</time>
      </trkpt>
      <trkpt lat="37.579783928" lon="-6.541224495">
        <ele>145.00</ele>
        <time>1899-12-29T23:00:00Z</time>
      </trkpt>
      <trkpt lat="37.579581253" lon="-6.541203037">
        <ele>143.00</ele>
        <time>1899-12-29T23:00:00Z</time>
      </trkpt>
      <trkpt lat="37.579372879" lon="-6.541172527">
        <ele>141.00</ele>
        <time>1899-12-29T23:00:00Z</time>
      </trkpt>
      <trkpt lat="37.579213120" lon="-6.541034058">
        <ele>141.00</ele>
        <time>1899-12-29T23:00:00Z</time>
      </trkpt>
      <trkpt lat="37.578967698" lon="-6.540855523">
        <ele>142.00</ele>
        <time>1899-12-29T23:00:00Z</time>
      </trkpt>
      <trkpt lat="37.578779440" lon="-6.540776566">
        <ele>142.00</ele>
        <time>1899-12-29T23:00:00Z</time>
      </trkpt>
      <trkpt lat="37.578514740" lon="-6.540764328">
        <ele>140.00</ele>
        <time>1899-12-29T23:00:00Z</time>
      </trkpt>
      <trkpt lat="37.578318436" lon="-6.540834233">
        <ele>136.00</ele>
        <time>1899-12-29T23:00:00Z</time>
      </trkpt>
      <trkpt lat="37.578161526" lon="-6.540870611">
        <ele>136.00</ele>
        <time>1899-12-29T23:00:00Z</time>
      </trkpt>
      <trkpt lat="37.577988021" lon="-6.540861558">
        <ele>135.00</ele>
        <time>1899-12-29T23:00:00Z</time>
      </trkpt>
      <trkpt lat="37.577857263" lon="-6.540859211">
        <ele>135.00</ele>
        <time>1899-12-29T23:00:00Z</time>
      </trkpt>
      <trkpt lat="37.577704880" lon="-6.540850829">
        <ele>135.00</ele>
        <time>1899-12-29T23:00:00Z</time>
      </trkpt>
      <trkpt lat="37.577485610" lon="-6.540834568">
        <ele>133.00</ele>
        <time>1899-12-29T23:00:00Z</time>
      </trkpt>
      <trkpt lat="37.577230800" lon="-6.540779080">
        <ele>134.00</ele>
        <time>1899-12-29T23:00:00Z</time>
      </trkpt>
      <trkpt lat="37.576968111" lon="-6.540730800">
        <ele>134.00</ele>
        <time>1899-12-29T23:00:00Z</time>
      </trkpt>
      <trkpt lat="37.576805837" lon="-6.540632062">
        <ele>134.00</ele>
        <time>1899-12-29T23:00:00Z</time>
      </trkpt>
      <trkpt lat="37.576670889" lon="-6.540559307">
        <ele>134.00</ele>
        <time>1899-12-29T23:00:00Z</time>
      </trkpt>
      <trkpt lat="37.576525547" lon="-6.540507171">
        <ele>134.00</ele>
        <time>1899-12-29T23:00:00Z</time>
      </trkpt>
      <trkpt lat="37.576431502" lon="-6.540476661">
        <ele>134.00</ele>
        <time>1899-12-29T23:00:00Z</time>
      </trkpt>
      <trkpt lat="37.576344833" lon="-6.540288404">
        <ele>135.00</ele>
        <time>1899-12-29T23:00:00Z</time>
      </trkpt>
      <trkpt lat="37.576349024" lon="-6.540107019">
        <ele>136.00</ele>
        <time>1899-12-29T23:00:00Z</time>
      </trkpt>
      <trkpt lat="37.576437704" lon="-6.540006772">
        <ele>137.00</ele>
        <time>1899-12-29T23:00:00Z</time>
      </trkpt>
      <trkpt lat="37.576480117" lon="-6.539864615">
        <ele>137.00</ele>
        <time>1899-12-29T23:00:00Z</time>
      </trkpt>
      <trkpt lat="37.576660160" lon="-6.539794877">
        <ele>138.00</ele>
        <time>1899-12-29T23:00:00Z</time>
      </trkpt>
      <trkpt lat="37.576773819" lon="-6.539737377">
        <ele>140.00</ele>
        <time>1899-12-29T23:00:00Z</time>
      </trkpt>
      <trkpt lat="37.576913796" lon="-6.539665796">
        <ele>143.00</ele>
        <time>1899-12-29T23:00:00Z</time>
      </trkpt>
      <trkpt lat="37.577024102" lon="-6.539574936">
        <ele>145.00</ele>
        <time>1899-12-29T23:00:00Z</time>
      </trkpt>
      <trkpt lat="37.577184699" lon="-6.539468989">
        <ele>148.00</ele>
        <time>1899-12-29T23:00:00Z</time>
      </trkpt>
      <trkpt lat="37.577271033" lon="-6.539385673">
        <ele>149.00</ele>
        <time>1899-12-29T23:00:00Z</time>
      </trkpt>
      <trkpt lat="37.577383686" lon="-6.539274529">
        <ele>151.00</ele>
        <time>1899-12-29T23:00:00Z</time>
      </trkpt>
      <trkpt lat="37.577499021" lon="-6.539173443">
        <ele>154.00</ele>
        <time>1899-12-29T23:00:00Z</time>
      </trkpt>
      <trkpt lat="37.577618882" lon="-6.539031956">
        <ele>157.00</ele>
        <time>1899-12-29T23:00:00Z</time>
      </trkpt>
      <trkpt lat="37.577718459" lon="-6.538944785">
        <ele>160.00</ele>
        <time>1899-12-29T23:00:00Z</time>
      </trkpt>
      <trkpt lat="37.577760201" lon="-6.538739931">
        <ele>161.00</ele>
        <time>1899-12-29T23:00:00Z</time>
      </trkpt>
      <trkpt lat="37.577652745" lon="-6.538680252">
        <ele>156.00</ele>
        <time>1899-12-29T23:00:00Z</time>
      </trkpt>
      <trkpt lat="37.577549312" lon="-6.538675055">
        <ele>151.00</ele>
        <time>1899-12-29T23:00:00Z</time>
      </trkpt>
      <trkpt lat="37.577439509" lon="-6.538588889">
        <ele>147.00</ele>
        <time>1899-12-29T23:00:00Z</time>
      </trkpt>
      <trkpt lat="37.577255275" lon="-6.538604144">
        <ele>145.00</ele>
        <time>1899-12-29T23:00:00Z</time>
      </trkpt>
      <trkpt lat="37.577017229" lon="-6.538562737">
        <ele>142.00</ele>
        <time>1899-12-29T23:00:00Z</time>
      </trkpt>
      <trkpt lat="37.576862667" lon="-6.538493838">
        <ele>140.00</ele>
        <time>1899-12-29T23:00:00Z</time>
      </trkpt>
      <trkpt lat="37.576717827" lon="-6.538415216">
        <ele>138.00</ele>
        <time>1899-12-29T23:00:00Z</time>
      </trkpt>
      <trkpt lat="37.576459497" lon="-6.538240872">
        <ele>141.00</ele>
        <time>1899-12-29T23:00:00Z</time>
      </trkpt>
      <trkpt lat="37.576257661" lon="-6.538150180">
        <ele>144.00</ele>
        <time>1899-12-29T23:00:00Z</time>
      </trkpt>
      <trkpt lat="37.576087173" lon="-6.538150012">
        <ele>145.00</ele>
        <time>1899-12-29T23:00:00Z</time>
      </trkpt>
      <trkpt lat="37.575844266" lon="-6.538091172">
        <ele>147.00</ele>
        <time>1899-12-29T23:00:00Z</time>
      </trkpt>
      <trkpt lat="37.575711664" lon="-6.537976339">
        <ele>150.00</ele>
        <time>1899-12-29T23:00:00Z</time>
      </trkpt>
      <trkpt lat="37.575563136" lon="-6.537757907">
        <ele>155.00</ele>
        <time>1899-12-29T23:00:00Z</time>
      </trkpt>
      <trkpt lat="37.575401366" lon="-6.537640896">
        <ele>157.00</ele>
        <time>1899-12-29T23:00:00Z</time>
      </trkpt>
      <trkpt lat="37.575246133" lon="-6.537489016">
        <ele>160.00</ele>
        <time>1899-12-29T23:00:00Z</time>
      </trkpt>
      <trkpt lat="37.575057205" lon="-6.537330598">
        <ele>160.00</ele>
        <time>1899-12-29T23:00:00Z</time>
      </trkpt>
      <trkpt lat="37.574950587" lon="-6.537103951">
        <ele>161.00</ele>
        <time>1899-12-29T23:00:00Z</time>
      </trkpt>
      <trkpt lat="37.574888896" lon="-6.536969002">
        <ele>162.00</ele>
        <time>1899-12-29T23:00:00Z</time>
      </trkpt>
      <trkpt lat="37.574770376" lon="-6.536899097">
        <ele>160.00</ele>
        <time>1899-12-29T23:00:00Z</time>
      </trkpt>
      <trkpt lat="37.574648503" lon="-6.536927596">
        <ele>157.00</ele>
        <time>1899-12-29T23:00:00Z</time>
      </trkpt>
      <trkpt lat="37.574604582" lon="-6.537273265">
        <ele>155.00</ele>
        <time>1899-12-29T23:00:00Z</time>
      </trkpt>
      <trkpt lat="37.574671973" lon="-6.537495051">
        <ele>154.00</ele>
        <time>1899-12-29T23:00:00Z</time>
      </trkpt>
      <trkpt lat="37.574800886" lon="-6.537638884">
        <ele>153.00</ele>
        <time>1899-12-29T23:00:00Z</time>
      </trkpt>
      <trkpt lat="37.574895099" lon="-6.537812054">
        <ele>151.00</ele>
        <time>1899-12-29T23:00:00Z</time>
      </trkpt>
      <trkpt lat="37.574960645" lon="-6.538059823">
        <ele>146.00</ele>
        <time>1899-12-29T23:00:00Z</time>
      </trkpt>
      <trkpt lat="37.574998029" lon="-6.538279261">
        <ele>141.00</ele>
        <time>1899-12-29T23:00:00Z</time>
      </trkpt>
      <trkpt lat="37.575029880" lon="-6.538600288">
        <ele>141.00</ele>
        <time>1899-12-29T23:00:00Z</time>
      </trkpt>
      <trkpt lat="37.574986462" lon="-6.538812686">
        <ele>143.00</ele>
        <time>1899-12-29T23:00:00Z</time>
      </trkpt>
      <trkpt lat="37.574895937" lon="-6.538950652">
        <ele>145.00</ele>
        <time>1899-12-29T23:00:00Z</time>
      </trkpt>
      <trkpt lat="37.574762665" lon="-6.539063305">
        <ele>147.00</ele>
        <time>1899-12-29T23:00:00Z</time>
      </trkpt>
      <trkpt lat="37.574546579" lon="-6.539215688">
        <ele>150.00</ele>
        <time>1899-12-29T23:00:00Z</time>
      </trkpt>
      <trkpt lat="37.574338038" lon="-6.539309733">
        <ele>152.00</ele>
        <time>1899-12-29T23:00:00Z</time>
      </trkpt>
      <trkpt lat="37.574449852" lon="-6.539043859">
        <ele>151.00</ele>
        <time>1899-12-29T23:00:00Z</time>
      </trkpt>
      <trkpt lat="37.574500479" lon="-6.538863145">
        <ele>150.00</ele>
        <time>1899-12-29T23:00:00Z</time>
      </trkpt>
      <trkpt lat="37.574496455" lon="-6.538627446">
        <ele>150.00</ele>
        <time>1899-12-29T23:00:00Z</time>
      </trkpt>
      <trkpt lat="37.574434597" lon="-6.538400967">
        <ele>152.00</ele>
        <time>1899-12-29T23:00:00Z</time>
      </trkpt>
      <trkpt lat="37.574288920" lon="-6.538186558">
        <ele>154.00</ele>
        <time>1899-12-29T23:00:00Z</time>
      </trkpt>
      <trkpt lat="37.574108038" lon="-6.537935268">
        <ele>156.00</ele>
        <time>1899-12-29T23:00:00Z</time>
      </trkpt>
      <trkpt lat="37.573778797" lon="-6.537460517">
        <ele>166.00</ele>
        <time>1899-12-29T23:00:00Z</time>
      </trkpt>
      <trkpt lat="37.573638987" lon="-6.537145190">
        <ele>171.00</ele>
        <time>1899-12-29T23:00:00Z</time>
      </trkpt>
      <trkpt lat="37.573506050" lon="-6.536858194">
        <ele>176.00</ele>
        <time>1899-12-29T23:00:00Z</time>
      </trkpt>
      <trkpt lat="37.573472857" lon="-6.536569856">
        <ele>179.00</ele>
        <time>1899-12-29T23:00:00Z</time>
      </trkpt>
      <trkpt lat="37.573488783" lon="-6.536232736">
        <ele>182.00</ele>
        <time>1899-12-29T23:00:00Z</time>
      </trkpt>
      <trkpt lat="37.573516108" lon="-6.535843816">
        <ele>185.00</ele>
        <time>1899-12-29T23:00:00Z</time>
      </trkpt>
      <trkpt lat="37.573442850" lon="-6.535535362">
        <ele>187.00</ele>
        <time>1899-12-29T23:00:00Z</time>
      </trkpt>
      <trkpt lat="37.573345285" lon="-6.535296813">
        <ele>191.00</ele>
        <time>1899-12-29T23:00:00Z</time>
      </trkpt>
      <trkpt lat="37.573246043" lon="-6.535116434">
        <ele>194.00</ele>
        <time>1899-12-29T23:00:00Z</time>
      </trkpt>
      <trkpt lat="37.573132049" lon="-6.535037644">
        <ele>198.00</ele>
        <time>1899-12-29T23:00:00Z</time>
      </trkpt>
      <trkpt lat="37.572950665" lon="-6.535102185">
        <ele>206.00</ele>
        <time>1899-12-29T23:00:00Z</time>
      </trkpt>
      <trkpt lat="37.572814375" lon="-6.535264291">
        <ele>213.00</ele>
        <time>1899-12-29T23:00:00Z</time>
      </trkpt>
      <trkpt lat="37.572634164" lon="-6.535415668">
        <ele>221.00</ele>
        <time>1899-12-29T23:00:00Z</time>
      </trkpt>
      <trkpt lat="37.572450265" lon="-6.535454225">
        <ele>228.00</ele>
        <time>1899-12-29T23:00:00Z</time>
      </trkpt>
      <trkpt lat="37.572347838" lon="-6.535380967">
        <ele>229.00</ele>
        <time>1899-12-29T23:00:00Z</time>
      </trkpt>
      <trkpt lat="37.572273072" lon="-6.535127498">
        <ele>230.00</ele>
        <time>1899-12-29T23:00:00Z</time>
      </trkpt>
      <trkpt lat="37.572193611" lon="-6.534865480">
        <ele>229.00</ele>
        <time>1899-12-29T23:00:00Z</time>
      </trkpt>
      <trkpt lat="37.572088335" lon="-6.534392573">
        <ele>227.00</ele>
        <time>1899-12-29T23:00:00Z</time>
      </trkpt>
      <trkpt lat="37.572070900" lon="-6.534111779">
        <ele>226.00</ele>
        <time>1899-12-29T23:00:00Z</time>
      </trkpt>
      <trkpt lat="37.572051287" lon="-6.533851437">
        <ele>228.00</ele>
        <time>1899-12-29T23:00:00Z</time>
      </trkpt>
      <trkpt lat="37.572111636" lon="-6.533528566">
        <ele>226.00</ele>
        <time>1899-12-29T23:00:00Z</time>
      </trkpt>
      <trkpt lat="37.572132591" lon="-6.533186417">
        <ele>226.00</ele>
        <time>1899-12-29T23:00:00Z</time>
      </trkpt>
      <trkpt lat="37.572085150" lon="-6.532897577">
        <ele>228.00</ele>
        <time>1899-12-29T23:00:00Z</time>
      </trkpt>
      <trkpt lat="37.572058663" lon="-6.532634553">
        <ele>229.00</ele>
        <time>1899-12-29T23:00:00Z</time>
      </trkpt>
      <trkpt lat="37.571994290" lon="-6.532476470">
        <ele>231.00</ele>
        <time>1899-12-29T23:00:00Z</time>
      </trkpt>
      <trkpt lat="37.571826819" lon="-6.532184277">
        <ele>237.00</ele>
        <time>1899-12-29T23:00:00Z</time>
      </trkpt>
      <trkpt lat="37.571703438" lon="-6.531886216">
        <ele>242.00</ele>
        <time>1899-12-29T23:00:00Z</time>
      </trkpt>
      <trkpt lat="37.571666725" lon="-6.531755961">
        <ele>244.00</ele>
        <time>1899-12-29T23:00:00Z</time>
      </trkpt>
      <trkpt lat="37.571678292" lon="-6.531578936">
        <ele>243.00</ele>
        <time>1899-12-29T23:00:00Z</time>
      </trkpt>
      <trkpt lat="37.571807038" lon="-6.531370562">
        <ele>239.00</ele>
        <time>1899-12-29T23:00:00Z</time>
      </trkpt>
      <trkpt lat="37.571926564" lon="-6.531165373">
        <ele>235.00</ele>
        <time>1899-12-29T23:00:00Z</time>
      </trkpt>
      <trkpt lat="37.571930252" lon="-6.530918945">
        <ele>235.00</ele>
        <time>1899-12-29T23:00:00Z</time>
      </trkpt>
      <trkpt lat="37.571884487" lon="-6.530763544">
        <ele>236.00</ele>
        <time>1899-12-29T23:00:00Z</time>
      </trkpt>
      <trkpt lat="37.571735289" lon="-6.530465316">
        <ele>240.00</ele>
        <time>1899-12-29T23:00:00Z</time>
      </trkpt>
      <trkpt lat="37.571469918" lon="-6.530091148">
        <ele>246.00</ele>
        <time>1899-12-29T23:00:00Z</time>
      </trkpt>
      <trkpt lat="37.571227346" lon="-6.529707927">
        <ele>253.00</ele>
        <time>1899-12-29T23:00:00Z</time>
      </trkpt>
      <trkpt lat="37.571104299" lon="-6.529464182">
        <ele>256.00</ele>
        <time>1899-12-29T23:00:00Z</time>
      </trkpt>
      <trkpt lat="37.570912857" lon="-6.528926231">
        <ele>263.00</ele>
        <time>1899-12-29T23:00:00Z</time>
      </trkpt>
      <trkpt lat="37.570714206" lon="-6.528365314">
        <ele>269.00</ele>
        <time>1899-12-29T23:00:00Z</time>
      </trkpt>
      <trkpt lat="37.570681516" lon="-6.527986452">
        <ele>262.00</ele>
        <time>1899-12-29T23:00:00Z</time>
      </trkpt>
      <trkpt lat="37.570627872" lon="-6.527761649">
        <ele>259.00</ele>
        <time>1899-12-29T23:00:00Z</time>
      </trkpt>
      <trkpt lat="37.570573222" lon="-6.527626533">
        <ele>259.00</ele>
        <time>1899-12-29T23:00:00Z</time>
      </trkpt>
      <trkpt lat="37.570460066" lon="-6.527446322">
        <ele>260.00</ele>
        <time>1899-12-29T23:00:00Z</time>
      </trkpt>
      <trkpt lat="37.570337523" lon="-6.527234428">
        <ele>260.00</ele>
        <time>1899-12-29T23:00:00Z</time>
      </trkpt>
      <trkpt lat="37.570274659" lon="-6.527018510">
        <ele>258.00</ele>
        <time>1899-12-29T23:00:00Z</time>
      </trkpt>
      <trkpt lat="37.570238449" lon="-6.526712067">
        <ele>252.00</ele>
        <time>1899-12-29T23:00:00Z</time>
      </trkpt>
      <trkpt lat="37.570234928" lon="-6.525915451">
        <ele>247.00</ele>
        <time>1899-12-29T23:00:00Z</time>
      </trkpt>
      <trkpt lat="37.570262421" lon="-6.525538266">
        <ele>247.00</ele>
        <time>1899-12-29T23:00:00Z</time>
      </trkpt>
      <trkpt lat="37.570169549" lon="-6.525314301">
        <ele>253.00</ele>
        <time>1899-12-29T23:00:00Z</time>
      </trkpt>
      <trkpt lat="37.569980789" lon="-6.524814069">
        <ele>258.00</ele>
        <time>1899-12-29T23:00:00Z</time>
      </trkpt>
      <trkpt lat="37.569869477" lon="-6.524587423">
        <ele>256.00</ele>
        <time>1899-12-29T23:00:00Z</time>
      </trkpt>
      <trkpt lat="37.569452729" lon="-6.524106301">
        <ele>258.00</ele>
        <time>1899-12-29T23:00:00Z</time>
      </trkpt>
      <trkpt lat="37.568916120" lon="-6.523562316">
        <ele>255.00</ele>
        <time>1899-12-29T23:00:00Z</time>
      </trkpt>
      <trkpt lat="37.568673212" lon="-6.523398031">
        <ele>259.00</ele>
        <time>1899-12-29T23:00:00Z</time>
      </trkpt>
      <trkpt lat="37.568360902" lon="-6.523320414">
        <ele>271.00</ele>
        <time>1899-12-29T23:00:00Z</time>
      </trkpt>
      <trkpt lat="37.568123527" lon="-6.523331143">
        <ele>278.00</ele>
        <time>1899-12-29T23:00:00Z</time>
      </trkpt>
      <trkpt lat="37.567893527" lon="-6.523379423">
        <ele>283.00</ele>
        <time>1899-12-29T23:00:00Z</time>
      </trkpt>
      <trkpt lat="37.567724716" lon="-6.523342207">
        <ele>288.00</ele>
        <time>1899-12-29T23:00:00Z</time>
      </trkpt>
      <trkpt lat="37.567550205" lon="-6.523224190">
        <ele>291.00</ele>
        <time>1899-12-29T23:00:00Z</time>
      </trkpt>
      <trkpt lat="37.567330264" lon="-6.523037609">
        <ele>293.00</ele>
        <time>1899-12-29T23:00:00Z</time>
      </trkpt>
      <trkpt lat="37.567206044" lon="-6.522999555">
        <ele>294.00</ele>
        <time>1899-12-29T23:00:00Z</time>
      </trkpt>
      <trkpt lat="37.567052320" lon="-6.523051858">
        <ele>297.00</ele>
        <time>1899-12-29T23:00:00Z</time>
      </trkpt>
      <trkpt lat="37.566860039" lon="-6.523168869">
        <ele>298.00</ele>
        <time>1899-12-29T23:00:00Z</time>
      </trkpt>
      <trkpt lat="37.566710841" lon="-6.523215305">
        <ele>300.00</ele>
        <time>1899-12-29T23:00:00Z</time>
      </trkpt>
      <trkpt lat="37.566594668" lon="-6.523153950">
        <ele>300.00</ele>
        <time>1899-12-29T23:00:00Z</time>
      </trkpt>
      <trkpt lat="37.566514034" lon="-6.523032077">
        <ele>301.00</ele>
        <time>1899-12-29T23:00:00Z</time>
      </trkpt>
      <trkpt lat="37.566494253" lon="-6.522883717">
        <ele>303.00</ele>
        <time>1899-12-29T23:00:00Z</time>
      </trkpt>
      <trkpt lat="37.566476483" lon="-6.522759497">
        <ele>305.00</ele>
        <time>1899-12-29T23:00:00Z</time>
      </trkpt>
      <trkpt lat="37.566491067" lon="-6.522460934">
        <ele>307.00</ele>
        <time>1899-12-29T23:00:00Z</time>
      </trkpt>
      <trkpt lat="37.566466257" lon="-6.522148456">
        <ele>302.00</ele>
        <time>1899-12-29T23:00:00Z</time>
      </trkpt>
      <trkpt lat="37.566430885" lon="-6.521740761">
        <ele>295.00</ele>
        <time>1899-12-29T23:00:00Z</time>
      </trkpt>
      <trkpt lat="37.566338684" lon="-6.521389224">
        <ele>288.00</ele>
        <time>1899-12-29T23:00:00Z</time>
      </trkpt>
      <trkpt lat="37.566243801" lon="-6.521008685">
        <ele>281.00</ele>
        <time>1899-12-29T23:00:00Z</time>
      </trkpt>
      <trkpt lat="37.566072810" lon="-6.520447265">
        <ele>274.00</ele>
        <time>1899-12-29T23:00:00Z</time>
      </trkpt>
      <trkpt lat="37.565948423" lon="-6.519931275">
        <ele>270.00</ele>
        <time>1899-12-29T23:00:00Z</time>
      </trkpt>
      <trkpt lat="37.565811295" lon="-6.519480329">
        <ele>271.00</ele>
        <time>1899-12-29T23:00:00Z</time>
      </trkpt>
      <trkpt lat="37.565711886" lon="-6.519472618">
        <ele>273.00</ele>
        <time>1899-12-29T23:00:00Z</time>
      </trkpt>
      <trkpt lat="37.565554976" lon="-6.519461386">
        <ele>278.00</ele>
        <time>1899-12-29T23:00:00Z</time>
      </trkpt>
      <trkpt lat="37.565331180" lon="-6.519401036">
        <ele>284.00</ele>
        <time>1899-12-29T23:00:00Z</time>
      </trkpt>
      <trkpt lat="37.565184161" lon="-6.519329958">
        <ele>288.00</ele>
        <time>1899-12-29T23:00:00Z</time>
      </trkpt>
      <trkpt lat="37.564892974" lon="-6.519107167">
        <ele>294.00</ele>
        <time>1899-12-29T23:00:00Z</time>
      </trkpt>
      <trkpt lat="37.564582676" lon="-6.518832576">
        <ele>296.00</ele>
        <time>1899-12-29T23:00:00Z</time>
      </trkpt>
      <trkpt lat="37.564343624" lon="-6.518507693">
        <ele>299.00</ele>
        <time>1899-12-29T23:00:00Z</time>
      </trkpt>
      <trkpt lat="37.564232312" lon="-6.518303845">
        <ele>302.00</ele>
        <time>1899-12-29T23:00:00Z</time>
      </trkpt>
      <trkpt lat="37.564030476" lon="-6.518038642">
        <ele>299.00</ele>
        <time>1899-12-29T23:00:00Z</time>
      </trkpt>
      <trkpt lat="37.563718501" lon="-6.517633628">
        <ele>295.00</ele>
        <time>1899-12-29T23:00:00Z</time>
      </trkpt>
      <trkpt lat="37.563448939" lon="-6.517129373">
        <ele>295.00</ele>
        <time>1899-12-29T23:00:00Z</time>
      </trkpt>
      <trkpt lat="37.563369144" lon="-6.516847070">
        <ele>294.00</ele>
        <time>1899-12-29T23:00:00Z</time>
      </trkpt>
      <trkpt lat="37.563301921" lon="-6.516637020">
        <ele>293.00</ele>
        <time>1899-12-29T23:00:00Z</time>
      </trkpt>
      <trkpt lat="37.563205194" lon="-6.516476758">
        <ele>296.00</ele>
        <time>1899-12-29T23:00:00Z</time>
      </trkpt>
      <trkpt lat="37.563028838" lon="-6.516216751">
        <ele>301.00</ele>
        <time>1899-12-29T23:00:00Z</time>
      </trkpt>
      <trkpt lat="37.562971339" lon="-6.516049951">
        <ele>303.00</ele>
        <time>1899-12-29T23:00:00Z</time>
      </trkpt>
      <trkpt lat="37.562915515" lon="-6.515665893">
        <ele>302.00</ele>
        <time>1899-12-29T23:00:00Z</time>
      </trkpt>
      <trkpt lat="37.562837228" lon="-6.515496578">
        <ele>303.00</ele>
        <time>1899-12-29T23:00:00Z</time>
      </trkpt>
      <trkpt lat="37.562708650" lon="-6.515365988">
        <ele>304.00</ele>
        <time>1899-12-29T23:00:00Z</time>
      </trkpt>
      <trkpt lat="37.562519722" lon="-6.515193153">
        <ele>306.00</ele>
        <time>1899-12-29T23:00:00Z</time>
      </trkpt>
      <trkpt lat="37.562247142" lon="-6.514981594">
        <ele>309.00</ele>
        <time>1899-12-29T23:00:00Z</time>
      </trkpt>
      <trkpt lat="37.562061232" lon="-6.514881011">
        <ele>310.00</ele>
        <time>1899-12-29T23:00:00Z</time>
      </trkpt>
      <trkpt lat="37.561843302" lon="-6.514784116">
        <ele>313.00</ele>
        <time>1899-12-29T23:00:00Z</time>
      </trkpt>
      <trkpt lat="37.561596204" lon="-6.514641624">
        <ele>314.00</ele>
        <time>1899-12-29T23:00:00Z</time>
      </trkpt>
      <trkpt lat="37.561446670" lon="-6.514612790">
        <ele>316.00</ele>
        <time>1899-12-29T23:00:00Z</time>
      </trkpt>
      <trkpt lat="37.561303843" lon="-6.514618658">
        <ele>318.00</ele>
        <time>1899-12-29T23:00:00Z</time>
      </trkpt>
      <trkpt lat="37.561152466" lon="-6.514691245">
        <ele>321.00</ele>
        <time>1899-12-29T23:00:00Z</time>
      </trkpt>
      <trkpt lat="37.561007962" lon="-6.514740698">
        <ele>323.00</ele>
        <time>1899-12-29T23:00:00Z</time>
      </trkpt>
      <trkpt lat="37.560847867" lon="-6.514671464">
        <ele>325.00</ele>
        <time>1899-12-29T23:00:00Z</time>
      </trkpt>
      <trkpt lat="37.560661118" lon="-6.514492929">
        <ele>326.00</ele>
        <time>1899-12-29T23:00:00Z</time>
      </trkpt>
      <trkpt lat="37.560469341" lon="-6.514296960">
        <ele>327.00</ele>
        <time>1899-12-29T23:00:00Z</time>
      </trkpt>
      <trkpt lat="37.560187206" lon="-6.514068972">
        <ele>327.00</ele>
        <time>1899-12-29T23:00:00Z</time>
      </trkpt>
      <trkpt lat="37.560025938" lon="-6.513888929">
        <ele>325.00</ele>
        <time>1899-12-29T23:00:00Z</time>
      </trkpt>
      <trkpt lat="37.559976988" lon="-6.513675693">
        <ele>323.00</ele>
        <time>1899-12-29T23:00:00Z</time>
      </trkpt>
      <trkpt lat="37.559932396" lon="-6.513444856">
        <ele>320.00</ele>
        <time>1899-12-29T23:00:00Z</time>
      </trkpt>
      <trkpt lat="37.559909094" lon="-6.513242517">
        <ele>318.00</ele>
        <time>1899-12-29T23:00:00Z</time>
      </trkpt>
      <trkpt lat="37.559812199" lon="-6.513070688">
        <ele>315.00</ele>
        <time>1899-12-29T23:00:00Z</time>
      </trkpt>
      <trkpt lat="37.559655290" lon="-6.512891483">
        <ele>312.00</ele>
        <time>1899-12-29T23:00:00Z</time>
      </trkpt>
      <trkpt lat="37.559476588" lon="-6.512619909">
        <ele>310.00</ele>
        <time>1899-12-29T23:00:00Z</time>
      </trkpt>
      <trkpt lat="37.559422608" lon="-6.512371972">
        <ele>311.00</ele>
        <time>1899-12-29T23:00:00Z</time>
      </trkpt>
      <trkpt lat="37.559411377" lon="-6.512044910">
        <ele>316.00</ele>
        <time>1899-12-29T23:00:00Z</time>
      </trkpt>
      <trkpt lat="37.559427973" lon="-6.511731595">
        <ele>320.00</ele>
        <time>1899-12-29T23:00:00Z</time>
      </trkpt>
      <trkpt lat="37.559505254" lon="-6.511472259">
        <ele>322.00</ele>
        <time>1899-12-29T23:00:00Z</time>
      </trkpt>
      <trkpt lat="37.559527382" lon="-6.511228513">
        <ele>324.00</ele>
        <time>1899-12-29T23:00:00Z</time>
      </trkpt>
      <trkpt lat="37.559596784" lon="-6.510885190">
        <ele>327.00</ele>
        <time>1899-12-29T23:00:00Z</time>
      </trkpt>
      <trkpt lat="37.559592258" lon="-6.510649156">
        <ele>325.00</ele>
        <time>1899-12-29T23:00:00Z</time>
      </trkpt>
      <trkpt lat="37.559515145" lon="-6.510466933">
        <ele>322.00</ele>
        <time>1899-12-29T23:00:00Z</time>
      </trkpt>
      <trkpt lat="37.559418585" lon="-6.510309521">
        <ele>320.00</ele>
        <time>1899-12-29T23:00:00Z</time>
      </trkpt>
      <trkpt lat="37.559223957" lon="-6.510073151">
        <ele>318.00</ele>
        <time>1899-12-29T23:00:00Z</time>
      </trkpt>
      <trkpt lat="37.559108287" lon="-6.509864107">
        <ele>316.00</ele>
        <time>1899-12-29T23:00:00Z</time>
      </trkpt>
      <trkpt lat="37.559033185" lon="-6.509587504">
        <ele>313.00</ele>
        <time>1899-12-29T23:00:00Z</time>
      </trkpt>
      <trkpt lat="37.558889017" lon="-6.509324145">
        <ele>313.00</ele>
        <time>1899-12-29T23:00:00Z</time>
      </trkpt>
      <trkpt lat="37.558855992" lon="-6.509084255">
        <ele>311.00</ele>
        <time>1899-12-29T23:00:00Z</time>
      </trkpt>
      <trkpt lat="37.558774687" lon="-6.508868672">
        <ele>311.00</ele>
        <time>1899-12-29T23:00:00Z</time>
      </trkpt>
      <trkpt lat="37.558679134" lon="-6.508792564">
        <ele>312.00</ele>
        <time>1899-12-29T23:00:00Z</time>
      </trkpt>
      <trkpt lat="37.558547202" lon="-6.508760545">
        <ele>314.00</ele>
        <time>1899-12-29T23:00:00Z</time>
      </trkpt>
      <trkpt lat="37.558349222" lon="-6.508784853">
        <ele>318.00</ele>
        <time>1899-12-29T23:00:00Z</time>
      </trkpt>
      <trkpt lat="37.558052838" lon="-6.508692484">
        <ele>318.00</ele>
        <time>1899-12-29T23:00:00Z</time>
      </trkpt>
      <trkpt lat="37.557790149" lon="-6.508532893">
        <ele>318.00</ele>
        <time>1899-12-29T23:00:00Z</time>
      </trkpt>
      <trkpt lat="37.557645645" lon="-6.508327033">
        <ele>317.00</ele>
        <time>1899-12-29T23:00:00Z</time>
      </trkpt>
      <trkpt lat="37.557533830" lon="-6.507976167">
        <ele>315.00</ele>
        <time>1899-12-29T23:00:00Z</time>
      </trkpt>
      <trkpt lat="37.557451688" lon="-6.507699899">
        <ele>312.00</ele>
        <time>1899-12-29T23:00:00Z</time>
      </trkpt>
      <trkpt lat="37.557412796" lon="-6.507361773">
        <ele>311.00</ele>
        <time>1899-12-29T23:00:00Z</time>
      </trkpt>
      <trkpt lat="37.557347417" lon="-6.507125571">
        <ele>313.00</ele>
        <time>1899-12-29T23:00:00Z</time>
      </trkpt>
      <trkpt lat="37.557266783" lon="-6.506959274">
        <ele>314.00</ele>
        <time>1899-12-29T23:00:00Z</time>
      </trkpt>
      <trkpt lat="37.557312883" lon="-6.506607737">
        <ele>315.00</ele>
        <time>1899-12-29T23:00:00Z</time>
      </trkpt>
      <trkpt lat="37.557279356" lon="-6.506344881">
        <ele>318.00</ele>
        <time>1899-12-29T23:00:00Z</time>
      </trkpt>
      <trkpt lat="37.557244990" lon="-6.506195851">
        <ele>319.00</ele>
        <time>1899-12-29T23:00:00Z</time>
      </trkpt>
      <trkpt lat="37.557029743" lon="-6.505767871">
        <ele>322.00</ele>
        <time>1899-12-29T23:00:00Z</time>
      </trkpt>
      <trkpt lat="37.556953132" lon="-6.505555138">
        <ele>324.00</ele>
        <time>1899-12-29T23:00:00Z</time>
      </trkpt>
      <trkpt lat="37.556816842" lon="-6.505193040">
        <ele>327.00</ele>
        <time>1899-12-29T23:00:00Z</time>
      </trkpt>
      <trkpt lat="37.556744423" lon="-6.504948288">
        <ele>329.00</ele>
        <time>1899-12-29T23:00:00Z</time>
      </trkpt>
      <trkpt lat="37.556687761" lon="-6.504671350">
        <ele>330.00</ele>
        <time>1899-12-29T23:00:00Z</time>
      </trkpt>
      <trkpt lat="37.556742746" lon="-6.504473202">
        <ele>330.00</ele>
        <time>1899-12-29T23:00:00Z</time>
      </trkpt>
      <trkpt lat="37.556821872" lon="-6.504349988">
        <ele>330.00</ele>
        <time>1899-12-29T23:00:00Z</time>
      </trkpt>
      <trkpt lat="37.556926645" lon="-6.504246388">
        <ele>330.00</ele>
        <time>1899-12-29T23:00:00Z</time>
      </trkpt>
      <trkpt lat="37.557048518" lon="-6.504226439">
        <ele>329.00</ele>
        <time>1899-12-29T23:00:00Z</time>
      </trkpt>
      <trkpt lat="37.557195537" lon="-6.504182853">
        <ele>328.00</ele>
        <time>1899-12-29T23:00:00Z</time>
      </trkpt>
      <trkpt lat="37.557307016" lon="-6.504058801">
        <ele>327.00</ele>
        <time>1899-12-29T23:00:00Z</time>
      </trkpt>
      <trkpt lat="37.557488233" lon="-6.503820419">
        <ele>327.00</ele>
        <time>1899-12-29T23:00:00Z</time>
      </trkpt>
      <trkpt lat="37.557550929" lon="-6.503674239">
        <ele>327.00</ele>
        <time>1899-12-29T23:00:00Z</time>
      </trkpt>
      <trkpt lat="37.557562329" lon="-6.503482964">
        <ele>328.00</ele>
        <time>1899-12-29T23:00:00Z</time>
      </trkpt>
      <trkpt lat="37.557562329" lon="-6.503311973">
        <ele>329.00</ele>
        <time>1899-12-29T23:00:00Z</time>
      </trkpt>
      <trkpt lat="37.557580266" lon="-6.503100246">
        <ele>330.00</ele>
        <time>1899-12-29T23:00:00Z</time>
      </trkpt>
      <trkpt lat="37.557564843" lon="-6.502807885">
        <ele>331.00</ele>
        <time>1899-12-29T23:00:00Z</time>
      </trkpt>
      <trkpt lat="37.557515390" lon="-6.502554081">
        <ele>332.00</ele>
        <time>1899-12-29T23:00:00Z</time>
      </trkpt>
      <trkpt lat="37.557427380" lon="-6.502347384">
        <ele>333.00</ele>
        <time>1899-12-29T23:00:00Z</time>
      </trkpt>
      <trkpt lat="37.557270639" lon="-6.502179746">
        <ele>332.00</ele>
        <time>1899-12-29T23:00:00Z</time>
      </trkpt>
      <trkpt lat="37.557162680" lon="-6.502039935">
        <ele>332.00</ele>
        <time>1899-12-29T23:00:00Z</time>
      </trkpt>
      <trkpt lat="37.557026893" lon="-6.501765512">
        <ele>331.00</ele>
        <time>1899-12-29T23:00:00Z</time>
      </trkpt>
      <trkpt lat="37.556909546" lon="-6.501552779">
        <ele>328.00</ele>
        <time>1899-12-29T23:00:00Z</time>
      </trkpt>
      <trkpt lat="37.556731179" lon="-6.501313224">
        <ele>324.00</ele>
        <time>1899-12-29T23:00:00Z</time>
      </trkpt>
      <trkpt lat="37.556621879" lon="-6.501075178">
        <ele>321.00</ele>
        <time>1899-12-29T23:00:00Z</time>
      </trkpt>
      <trkpt lat="37.556542922" lon="-6.500862446">
        <ele>319.00</ele>
        <time>1899-12-29T23:00:00Z</time>
      </trkpt>
      <trkpt lat="37.556509394" lon="-6.500593722">
        <ele>319.00</ele>
        <time>1899-12-29T23:00:00Z</time>
      </trkpt>
      <trkpt lat="37.556451559" lon="-6.500400770">
        <ele>319.00</ele>
        <time>1899-12-29T23:00:00Z</time>
      </trkpt>
      <trkpt lat="37.556379810" lon="-6.500214022">
        <ele>319.00</ele>
        <time>1899-12-29T23:00:00Z</time>
      </trkpt>
      <trkpt lat="37.556290459" lon="-6.500074044">
        <ele>319.00</ele>
        <time>1899-12-29T23:00:00Z</time>
      </trkpt>
      <trkpt lat="37.556111421" lon="-6.499970611">
        <ele>320.00</ele>
        <time>1899-12-29T23:00:00Z</time>
      </trkpt>
      <trkpt lat="37.555960380" lon="-6.499880925">
        <ele>321.00</ele>
        <time>1899-12-29T23:00:00Z</time>
      </trkpt>
      <trkpt lat="37.555762567" lon="-6.499743126">
        <ele>322.00</ele>
        <time>1899-12-29T23:00:00Z</time>
      </trkpt>
      <trkpt lat="37.555544805" lon="-6.499498710">
        <ele>323.00</ele>
        <time>1899-12-29T23:00:00Z</time>
      </trkpt>
      <trkpt lat="37.555173319" lon="-6.499126889">
        <ele>326.00</ele>
        <time>1899-12-29T23:00:00Z</time>
      </trkpt>
      <trkpt lat="37.554864027" lon="-6.498927735">
        <ele>327.00</ele>
        <time>1899-12-29T23:00:00Z</time>
      </trkpt>
      <trkpt lat="37.554591279" lon="-6.498718522">
        <ele>327.00</ele>
        <time>1899-12-29T23:00:00Z</time>
      </trkpt>
      <trkpt lat="37.554509640" lon="-6.498636715">
        <ele>326.00</ele>
        <time>1899-12-29T23:00:00Z</time>
      </trkpt>
      <trkpt lat="37.554276958" lon="-6.498305630">
        <ele>325.00</ele>
        <time>1899-12-29T23:00:00Z</time>
      </trkpt>
      <trkpt lat="37.554018293" lon="-6.497934479">
        <ele>323.00</ele>
        <time>1899-12-29T23:00:00Z</time>
      </trkpt>
      <trkpt lat="37.553927768" lon="-6.497710515">
        <ele>322.00</ele>
        <time>1899-12-29T23:00:00Z</time>
      </trkpt>
      <trkpt lat="37.553897258" lon="-6.497499626">
        <ele>321.00</ele>
        <time>1899-12-29T23:00:00Z</time>
      </trkpt>
      <trkpt lat="37.553880662" lon="-6.497294270">
        <ele>321.00</ele>
        <time>1899-12-29T23:00:00Z</time>
      </trkpt>
      <trkpt lat="37.553775050" lon="-6.496975087">
        <ele>321.00</ele>
        <time>1899-12-29T23:00:00Z</time>
      </trkpt>
      <trkpt lat="37.553684190" lon="-6.496727820">
        <ele>322.00</ele>
        <time>1899-12-29T23:00:00Z</time>
      </trkpt>
      <trkpt lat="37.553547733" lon="-6.496354155">
        <ele>320.00</ele>
        <time>1899-12-29T23:00:00Z</time>
      </trkpt>
      <trkpt lat="37.553428039" lon="-6.496194396">
        <ele>319.00</ele>
        <time>1899-12-29T23:00:00Z</time>
      </trkpt>
      <trkpt lat="37.553250510" lon="-6.496032961">
        <ele>319.00</ele>
        <time>1899-12-29T23:00:00Z</time>
      </trkpt>
      <trkpt lat="37.553114388" lon="-6.495853420">
        <ele>319.00</ele>
        <time>1899-12-29T23:00:00Z</time>
      </trkpt>
      <trkpt lat="37.553019337" lon="-6.495632306">
        <ele>317.00</ele>
        <time>1899-12-29T23:00:00Z</time>
      </trkpt>
      <trkpt lat="37.552928478" lon="-6.495390907">
        <ele>316.00</ele>
        <time>1899-12-29T23:00:00Z</time>
      </trkpt>
      <trkpt lat="37.552812640" lon="-6.495176163">
        <ele>315.00</ele>
        <time>1899-12-29T23:00:00Z</time>
      </trkpt>
      <trkpt lat="37.552630417" lon="-6.495003328">
        <ele>316.00</ele>
        <time>1899-12-29T23:00:00Z</time>
      </trkpt>
      <trkpt lat="37.552443836" lon="-6.494842060">
        <ele>316.00</ele>
        <time>1899-12-29T23:00:00Z</time>
      </trkpt>
      <trkpt lat="37.552297153" lon="-6.494735107">
        <ele>317.00</ele>
        <time>1899-12-29T23:00:00Z</time>
      </trkpt>
      <trkpt lat="37.551993392" lon="-6.494605355">
        <ele>320.00</ele>
        <time>1899-12-29T23:00:00Z</time>
      </trkpt>
      <trkpt lat="37.551843692" lon="-6.494449116">
        <ele>321.00</ele>
        <time>1899-12-29T23:00:00Z</time>
      </trkpt>
      <trkpt lat="37.551564239" lon="-6.494243592">
        <ele>323.00</ele>
        <time>1899-12-29T23:00:00Z</time>
      </trkpt>
      <trkpt lat="37.551443875" lon="-6.494043265">
        <ele>322.00</ele>
        <time>1899-12-29T23:00:00Z</time>
      </trkpt>
      <trkpt lat="37.551371455" lon="-6.493792813">
        <ele>322.00</ele>
        <time>1899-12-29T23:00:00Z</time>
      </trkpt>
      <trkpt lat="37.551268861" lon="-6.493537165">
        <ele>323.00</ele>
        <time>1899-12-29T23:00:00Z</time>
      </trkpt>
      <trkpt lat="37.551169116" lon="-6.493322086">
        <ele>323.00</ele>
        <time>1899-12-29T23:00:00Z</time>
      </trkpt>
      <trkpt lat="37.551005669" lon="-6.492995359">
        <ele>326.00</ele>
        <time>1899-12-29T23:00:00Z</time>
      </trkpt>
      <trkpt lat="37.550930399" lon="-6.492713057">
        <ele>327.00</ele>
        <time>1899-12-29T23:00:00Z</time>
      </trkpt>
      <trkpt lat="37.550769132" lon="-6.492374595">
        <ele>328.00</ele>
        <time>1899-12-29T23:00:00Z</time>
      </trkpt>
      <trkpt lat="37.550602835" lon="-6.492010318">
        <ele>327.00</ele>
        <time>1899-12-29T23:00:00Z</time>
      </trkpt>
      <trkpt lat="37.550396305" lon="-6.491739415">
        <ele>328.00</ele>
        <time>1899-12-29T23:00:00Z</time>
      </trkpt>
      <trkpt lat="37.550228164" lon="-6.491580829">
        <ele>329.00</ele>
        <time>1899-12-29T23:00:00Z</time>
      </trkpt>
      <trkpt lat="37.550119702" lon="-6.491391901">
        <ele>329.00</ele>
        <time>1899-12-29T23:00:00Z</time>
      </trkpt>
      <trkpt lat="37.550042756" lon="-6.491164751">
        <ele>329.00</ele>
        <time>1899-12-29T23:00:00Z</time>
      </trkpt>
      <trkpt lat="37.549901772" lon="-6.490964927">
        <ele>330.00</ele>
        <time>1899-12-29T23:00:00Z</time>
      </trkpt>
      <trkpt lat="37.549716365" lon="-6.490713973">
        <ele>331.00</ele>
        <time>1899-12-29T23:00:00Z</time>
      </trkpt>
      <trkpt lat="37.549617961" lon="-6.490600146">
        <ele>332.00</ele>
        <time>1899-12-29T23:00:00Z</time>
      </trkpt>
      <trkpt lat="37.549532130" lon="-6.490561422">
        <ele>333.00</ele>
        <time>1899-12-29T23:00:00Z</time>
      </trkpt>
      <trkpt lat="37.549393829" lon="-6.490564272">
        <ele>334.00</ele>
        <time>1899-12-29T23:00:00Z</time>
      </trkpt>
      <trkpt lat="37.549248990" lon="-6.490601990">
        <ele>336.00</ele>
        <time>1899-12-29T23:00:00Z</time>
      </trkpt>
      <trkpt lat="37.549087219" lon="-6.490747333">
        <ele>339.00</ele>
        <time>1899-12-29T23:00:00Z</time>
      </trkpt>
      <trkpt lat="37.548918575" lon="-6.490901560">
        <ele>341.00</ele>
        <time>1899-12-29T23:00:00Z</time>
      </trkpt>
      <trkpt lat="37.548738196" lon="-6.491029803">
        <ele>343.00</ele>
        <time>1899-12-29T23:00:00Z</time>
      </trkpt>
      <trkpt lat="37.548512891" lon="-6.491083782">
        <ele>346.00</ele>
        <time>1899-12-29T23:00:00Z</time>
      </trkpt>
      <trkpt lat="37.548314743" lon="-6.491102390">
        <ele>348.00</ele>
        <time>1899-12-29T23:00:00Z</time>
      </trkpt>
      <trkpt lat="37.548033278" lon="-6.491189897">
        <ele>351.00</ele>
        <time>1899-12-29T23:00:00Z</time>
      </trkpt>
      <trkpt lat="37.547901012" lon="-6.491197944">
        <ele>352.00</ele>
        <time>1899-12-29T23:00:00Z</time>
      </trkpt>
      <trkpt lat="37.547752652" lon="-6.491146144">
        <ele>354.00</ele>
        <time>1899-12-29T23:00:00Z</time>
      </trkpt>
      <trkpt lat="37.547597419" lon="-6.491094343">
        <ele>356.00</ele>
        <time>1899-12-29T23:00:00Z</time>
      </trkpt>
      <trkpt lat="37.547440846" lon="-6.491109263">
        <ele>357.00</ele>
        <time>1899-12-29T23:00:00Z</time>
      </trkpt>
      <trkpt lat="37.547252923" lon="-6.491197105">
        <ele>359.00</ele>
        <time>1899-12-29T23:00:00Z</time>
      </trkpt>
      <trkpt lat="37.547044884" lon="-6.491331887">
        <ele>360.00</ele>
        <time>1899-12-29T23:00:00Z</time>
      </trkpt>
      <trkpt lat="37.546763085" lon="-6.491638999">
        <ele>363.00</ele>
        <time>1899-12-29T23:00:00Z</time>
      </trkpt>
      <trkpt lat="37.546558231" lon="-6.491846032">
        <ele>363.00</ele>
        <time>1899-12-29T23:00:00Z</time>
      </trkpt>
      <trkpt lat="37.546427641" lon="-6.491906717">
        <ele>362.00</ele>
        <time>1899-12-29T23:00:00Z</time>
      </trkpt>
      <trkpt lat="37.546238545" lon="-6.491910573">
        <ele>362.00</ele>
        <time>1899-12-29T23:00:00Z</time>
      </trkpt>
      <trkpt lat="37.545980215" lon="-6.491898671">
        <ele>362.00</ele>
        <time>1899-12-29T23:00:00Z</time>
      </trkpt>
      <trkpt lat="37.545742504" lon="-6.491889115">
        <ele>362.00</ele>
        <time>1899-12-29T23:00:00Z</time>
      </trkpt>
      <trkpt lat="37.545515858" lon="-6.492009815">
        <ele>361.00</ele>
        <time>1899-12-29T23:00:00Z</time>
      </trkpt>
      <trkpt lat="37.545321062" lon="-6.491929851">
        <ele>361.00</ele>
        <time>1899-12-29T23:00:00Z</time>
      </trkpt>
      <trkpt lat="37.545111850" lon="-6.491809655">
        <ele>361.00</ele>
        <time>1899-12-29T23:00:00Z</time>
      </trkpt>
      <trkpt lat="37.544818148" lon="-6.491569597">
        <ele>361.00</ele>
        <time>1899-12-29T23:00:00Z</time>
      </trkpt>
      <trkpt lat="37.544643972" lon="-6.491474882">
        <ele>361.00</ele>
        <time>1899-12-29T23:00:00Z</time>
      </trkpt>
      <trkpt lat="37.544426713" lon="-6.491447557">
        <ele>362.00</ele>
        <time>1899-12-29T23:00:00Z</time>
      </trkpt>
      <trkpt lat="37.544159330" lon="-6.491456106">
        <ele>364.00</ele>
        <time>1899-12-29T23:00:00Z</time>
      </trkpt>
      <trkpt lat="37.543974593" lon="-6.491436660">
        <ele>364.00</ele>
        <time>1899-12-29T23:00:00Z</time>
      </trkpt>
      <trkpt lat="37.543616686" lon="-6.491400786">
        <ele>364.00</ele>
        <time>1899-12-29T23:00:00Z</time>
      </trkpt>
      <trkpt lat="37.543474529" lon="-6.491458789">
        <ele>364.00</ele>
        <time>1899-12-29T23:00:00Z</time>
      </trkpt>
      <trkpt lat="37.543297838" lon="-6.491526179">
        <ele>364.00</ele>
        <time>1899-12-29T23:00:00Z</time>
      </trkpt>
      <trkpt lat="37.543136068" lon="-6.491500698">
        <ele>364.00</ele>
        <time>1899-12-29T23:00:00Z</time>
      </trkpt>
      <trkpt lat="37.542934231" lon="-6.491409335">
        <ele>364.00</ele>
        <time>1899-12-29T23:00:00Z</time>
      </trkpt>
      <trkpt lat="37.542746477" lon="-6.491335072">
        <ele>365.00</ele>
        <time>1899-12-29T23:00:00Z</time>
      </trkpt>
      <trkpt lat="37.542585209" lon="-6.491341274">
        <ele>365.00</ele>
        <time>1899-12-29T23:00:00Z</time>
      </trkpt>
      <trkpt lat="37.542477585" lon="-6.491233483">
        <ele>365.00</ele>
        <time>1899-12-29T23:00:00Z</time>
      </trkpt>
      <trkpt lat="37.542369962" lon="-6.491194088">
        <ele>365.00</ele>
        <time>1899-12-29T23:00:00Z</time>
      </trkpt>
      <trkpt lat="37.542236187" lon="-6.491174474">
        <ele>365.00</ele>
        <time>1899-12-29T23:00:00Z</time>
      </trkpt>
      <trkpt lat="37.542083468" lon="-6.491077244">
        <ele>365.00</ele>
        <time>1899-12-29T23:00:00Z</time>
      </trkpt>
      <trkpt lat="37.541997135" lon="-6.490958892">
        <ele>366.00</ele>
        <time>1899-12-29T23:00:00Z</time>
      </trkpt>
      <trkpt lat="37.541887332" lon="-6.490716320">
        <ele>366.00</ele>
        <time>1899-12-29T23:00:00Z</time>
      </trkpt>
      <trkpt lat="37.541805189" lon="-6.490371153">
        <ele>367.00</ele>
        <time>1899-12-29T23:00:00Z</time>
      </trkpt>
      <trkpt lat="37.541790269" lon="-6.490065716">
        <ele>367.00</ele>
        <time>1899-12-29T23:00:00Z</time>
      </trkpt>
      <trkpt lat="37.541681807" lon="-6.490010563">
        <ele>367.00</ele>
        <time>1899-12-29T23:00:00Z</time>
      </trkpt>
      <trkpt lat="37.541153245" lon="-6.490355898">
        <ele>366.00</ele>
        <time>1899-12-29T23:00:00Z</time>
      </trkpt>
      <trkpt lat="37.540836576" lon="-6.490541473">
        <ele>365.00</ele>
        <time>1899-12-29T23:00:00Z</time>
      </trkpt>
      <trkpt lat="37.540748734" lon="-6.490481123">
        <ele>365.00</ele>
        <time>1899-12-29T23:00:00Z</time>
      </trkpt>
      <trkpt lat="37.540581599" lon="-6.490153223">
        <ele>365.00</ele>
        <time>1899-12-29T23:00:00Z</time>
      </trkpt>
      <trkpt lat="37.540482860" lon="-6.489901431">
        <ele>365.00</ele>
        <time>1899-12-29T23:00:00Z</time>
      </trkpt>
      <trkpt lat="37.540456876" lon="-6.489592809">
        <ele>363.00</ele>
        <time>1899-12-29T23:00:00Z</time>
      </trkpt>
      <trkpt lat="37.540422678" lon="-6.489388794">
        <ele>362.00</ele>
        <time>1899-12-29T23:00:00Z</time>
      </trkpt>
      <trkpt lat="37.540295944" lon="-6.489301287">
        <ele>361.00</ele>
        <time>1899-12-29T23:00:00Z</time>
      </trkpt>
      <trkpt lat="37.539911550" lon="-6.489183605">
        <ele>358.00</ele>
        <time>1899-12-29T23:00:00Z</time>
      </trkpt>
      <trkpt lat="37.539462447" lon="-6.489146054">
        <ele>357.00</ele>
        <time>1899-12-29T23:00:00Z</time>
      </trkpt>
      <trkpt lat="37.539225575" lon="-6.489102133">
        <ele>357.00</ele>
        <time>1899-12-29T23:00:00Z</time>
      </trkpt>
      <trkpt lat="37.539105043" lon="-6.489033401">
        <ele>356.00</ele>
        <time>1899-12-29T23:00:00Z</time>
      </trkpt>
      <trkpt lat="37.538976129" lon="-6.488900799">
        <ele>355.00</ele>
        <time>1899-12-29T23:00:00Z</time>
      </trkpt>
      <trkpt lat="37.538806479" lon="-6.488739196">
        <ele>353.00</ele>
        <time>1899-12-29T23:00:00Z</time>
      </trkpt>
      <trkpt lat="37.538553178" lon="-6.488582958">
        <ele>350.00</ele>
        <time>1899-12-29T23:00:00Z</time>
      </trkpt>
      <trkpt lat="37.538371962" lon="-6.488453373">
        <ele>348.00</ele>
        <time>1899-12-29T23:00:00Z</time>
      </trkpt>
      <trkpt lat="37.538228966" lon="-6.488264948">
        <ele>347.00</ele>
        <time>1899-12-29T23:00:00Z</time>
      </trkpt>
      <trkpt lat="37.537979856" lon="-6.488086078">
        <ele>345.00</ele>
        <time>1899-12-29T23:00:00Z</time>
      </trkpt>
      <trkpt lat="37.537764944" lon="-6.487820204">
        <ele>343.00</ele>
        <time>1899-12-29T23:00:00Z</time>
      </trkpt>
      <trkpt lat="37.537586913" lon="-6.487773266">
        <ele>341.00</ele>
        <time>1899-12-29T23:00:00Z</time>
      </trkpt>
      <trkpt lat="37.537434697" lon="-6.487797070">
        <ele>340.00</ele>
        <time>1899-12-29T23:00:00Z</time>
      </trkpt>
      <trkpt lat="37.537294049" lon="-6.487799920">
        <ele>340.00</ele>
        <time>1899-12-29T23:00:00Z</time>
      </trkpt>
      <trkpt lat="37.537123393" lon="-6.487777289">
        <ele>339.00</ele>
        <time>1899-12-29T23:00:00Z</time>
      </trkpt>
      <trkpt lat="37.536840923" lon="-6.487687435">
        <ele>339.00</ele>
        <time>1899-12-29T23:00:00Z</time>
      </trkpt>
      <trkpt lat="37.536580246" lon="-6.487642173">
        <ele>338.00</ele>
        <time>1899-12-29T23:00:00Z</time>
      </trkpt>
      <trkpt lat="37.536305990" lon="-6.487488449">
        <ele>335.00</ele>
        <time>1899-12-29T23:00:00Z</time>
      </trkpt>
      <trkpt lat="37.536051180" lon="-6.487330366">
        <ele>333.00</ele>
        <time>1899-12-29T23:00:00Z</time>
      </trkpt>
      <trkpt lat="37.535872478" lon="-6.487281583">
        <ele>332.00</ele>
        <time>1899-12-29T23:00:00Z</time>
      </trkpt>
      <trkpt lat="37.535716742" lon="-6.487256605">
        <ele>331.00</ele>
        <time>1899-12-29T23:00:00Z</time>
      </trkpt>
      <trkpt lat="37.535440978" lon="-6.487324331">
        <ele>328.00</ele>
        <time>1899-12-29T23:00:00Z</time>
      </trkpt>
      <trkpt lat="37.535288762" lon="-6.487357691">
        <ele>327.00</ele>
        <time>1899-12-29T23:00:00Z</time>
      </trkpt>
      <trkpt lat="37.535151131" lon="-6.487347297">
        <ele>326.00</ele>
        <time>1899-12-29T23:00:00Z</time>
      </trkpt>
      <trkpt lat="37.535013668" lon="-6.487361547">
        <ele>324.00</ele>
        <time>1899-12-29T23:00:00Z</time>
      </trkpt>
      <trkpt lat="37.534839660" lon="-6.487770751">
        <ele>325.00</ele>
        <time>1899-12-29T23:00:00Z</time>
      </trkpt>
      <trkpt lat="37.534766234" lon="-6.487873681">
        <ele>325.00</ele>
        <time>1899-12-29T23:00:00Z</time>
      </trkpt>
      <trkpt lat="37.534653246" lon="-6.487921122">
        <ele>324.00</ele>
        <time>1899-12-29T23:00:00Z</time>
      </trkpt>
      <trkpt lat="37.534535397" lon="-6.487936880">
        <ele>324.00</ele>
        <time>1899-12-29T23:00:00Z</time>
      </trkpt>
      <trkpt lat="37.534428947" lon="-6.488025393">
        <ele>324.00</ele>
        <time>1899-12-29T23:00:00Z</time>
      </trkpt>
      <trkpt lat="37.534284275" lon="-6.488285735">
        <ele>322.00</ele>
        <time>1899-12-29T23:00:00Z</time>
      </trkpt>
      <trkpt lat="37.533941623" lon="-6.488608439">
        <ele>322.00</ele>
        <time>1899-12-29T23:00:00Z</time>
      </trkpt>
      <trkpt lat="37.533588242" lon="-6.488904823">
        <ele>319.00</ele>
        <time>1899-12-29T23:00:00Z</time>
      </trkpt>
      <trkpt lat="37.533413731" lon="-6.489060726">
        <ele>316.00</ele>
        <time>1899-12-29T23:00:00Z</time>
      </trkpt>
      <trkpt lat="37.533324379" lon="-6.489083357">
        <ele>315.00</ele>
        <time>1899-12-29T23:00:00Z</time>
      </trkpt>
      <trkpt lat="37.533222288" lon="-6.489055362">
        <ele>315.00</ele>
        <time>1899-12-29T23:00:00Z</time>
      </trkpt>
      <trkpt lat="37.533134110" lon="-6.488946397">
        <ele>317.00</ele>
        <time>1899-12-29T23:00:00Z</time>
      </trkpt>
      <trkpt lat="37.533085998" lon="-6.488701478">
        <ele>320.00</ele>
        <time>1899-12-29T23:00:00Z</time>
      </trkpt>
      <trkpt lat="37.533040568" lon="-6.488437615">
        <ele>324.00</ele>
        <time>1899-12-29T23:00:00Z</time>
      </trkpt>
      <trkpt lat="37.532833032" lon="-6.488227900">
        <ele>325.00</ele>
        <time>1899-12-29T23:00:00Z</time>
      </trkpt>
      <trkpt lat="37.532599512" lon="-6.488107033">
        <ele>325.00</ele>
        <time>1899-12-29T23:00:00Z</time>
      </trkpt>
      <trkpt lat="37.532470431" lon="-6.488072164">
        <ele>324.00</ele>
        <time>1899-12-29T23:00:00Z</time>
      </trkpt>
      <trkpt lat="37.532370016" lon="-6.488048024">
        <ele>323.00</ele>
        <time>1899-12-29T23:00:00Z</time>
      </trkpt>
      <trkpt lat="37.532147225" lon="-6.487940066">
        <ele>320.00</ele>
        <time>1899-12-29T23:00:00Z</time>
      </trkpt>
      <trkpt lat="37.531992495" lon="-6.487781815">
        <ele>318.00</ele>
        <time>1899-12-29T23:00:00Z</time>
      </trkpt>
      <trkpt lat="37.531825192" lon="-6.487561874">
        <ele>315.00</ele>
        <time>1899-12-29T23:00:00Z</time>
      </trkpt>
      <trkpt lat="37.531592175" lon="-6.487362050">
        <ele>312.00</ele>
        <time>1899-12-29T23:00:00Z</time>
      </trkpt>
      <trkpt lat="37.531487737" lon="-6.487268507">
        <ele>312.00</ele>
        <time>1899-12-29T23:00:00Z</time>
      </trkpt>
      <trkpt lat="37.531381454" lon="-6.487133391">
        <ele>311.00</ele>
        <time>1899-12-29T23:00:00Z</time>
      </trkpt>
      <trkpt lat="37.531331331" lon="-6.486971285">
        <ele>311.00</ele>
        <time>1899-12-29T23:00:00Z</time>
      </trkpt>
      <trkpt lat="37.531324793" lon="-6.486706752">
        <ele>310.00</ele>
        <time>1899-12-29T23:00:00Z</time>
      </trkpt>
      <trkpt lat="37.531324960" lon="-6.486494523">
        <ele>308.00</ele>
        <time>1899-12-29T23:00:00Z</time>
      </trkpt>
      <trkpt lat="37.531297468" lon="-6.486337278">
        <ele>307.00</ele>
        <time>1899-12-29T23:00:00Z</time>
      </trkpt>
      <trkpt lat="37.531226389" lon="-6.486169808">
        <ele>305.00</ele>
        <time>1899-12-29T23:00:00Z</time>
      </trkpt>
      <trkpt lat="37.531015333" lon="-6.485938970">
        <ele>301.00</ele>
        <time>1899-12-29T23:00:00Z</time>
      </trkpt>
      <trkpt lat="37.530686930" lon="-6.485749371">
        <ele>300.00</ele>
        <time>1899-12-29T23:00:00Z</time>
      </trkpt>
      <trkpt lat="37.530441340" lon="-6.485611740">
        <ele>301.00</ele>
        <time>1899-12-29T23:00:00Z</time>
      </trkpt>
      <trkpt lat="37.530256603" lon="-6.485555582">
        <ele>301.00</ele>
        <time>1899-12-29T23:00:00Z</time>
      </trkpt>
      <trkpt lat="37.530059293" lon="-6.485555917">
        <ele>302.00</ele>
        <time>1899-12-29T23:00:00Z</time>
      </trkpt>
      <trkpt lat="37.529958542" lon="-6.485524233">
        <ele>302.00</ele>
        <time>1899-12-29T23:00:00Z</time>
      </trkpt>
      <trkpt lat="37.529749330" lon="-6.485412251">
        <ele>301.00</ele>
        <time>1899-12-29T23:00:00Z</time>
      </trkpt>
      <trkpt lat="37.529442217" lon="-6.485270429">
        <ele>300.00</ele>
        <time>1899-12-29T23:00:00Z</time>
      </trkpt>
      <trkpt lat="37.529310789" lon="-6.485164147">
        <ele>300.00</ele>
        <time>1899-12-29T23:00:00Z</time>
      </trkpt>
      <trkpt lat="37.529102582" lon="-6.484911349">
        <ele>300.00</ele>
        <time>1899-12-29T23:00:00Z</time>
      </trkpt>
      <trkpt lat="37.528783735" lon="-6.484441124">
        <ele>295.00</ele>
        <time>1899-12-29T23:00:00Z</time>
      </trkpt>
      <trkpt lat="37.528626826" lon="-6.484221015">
        <ele>293.00</ele>
        <time>1899-12-29T23:00:00Z</time>
      </trkpt>
      <trkpt lat="37.528484669" lon="-6.484107524">
        <ele>292.00</ele>
        <time>1899-12-29T23:00:00Z</time>
      </trkpt>
      <trkpt lat="37.528299261" lon="-6.483995039">
        <ele>290.00</ele>
        <time>1899-12-29T23:00:00Z</time>
      </trkpt>
      <trkpt lat="37.528010588" lon="-6.483861934">
        <ele>288.00</ele>
        <time>1899-12-29T23:00:00Z</time>
      </trkpt>
      <trkpt lat="37.527654357" lon="-6.483743917">
        <ele>285.00</ele>
        <time>1899-12-29T23:00:00Z</time>
      </trkpt>
      <trkpt lat="37.527433913" lon="-6.483695973">
        <ele>283.00</ele>
        <time>1899-12-29T23:00:00Z</time>
      </trkpt>
      <trkpt lat="37.527273986" lon="-6.483710557">
        <ele>282.00</ele>
        <time>1899-12-29T23:00:00Z</time>
      </trkpt>
      <trkpt lat="37.527125292" lon="-6.483655404">
        <ele>280.00</ele>
        <time>1899-12-29T23:00:00Z</time>
      </trkpt>
      <trkpt lat="37.526956145" lon="-6.483537052">
        <ele>277.00</ele>
        <time>1899-12-29T23:00:00Z</time>
      </trkpt>
      <trkpt lat="37.526752632" lon="-6.483413503">
        <ele>275.00</ele>
        <time>1899-12-29T23:00:00Z</time>
      </trkpt>
      <trkpt lat="37.526618186" lon="-6.483311243">
        <ele>273.00</ele>
        <time>1899-12-29T23:00:00Z</time>
      </trkpt>
      <trkpt lat="37.526480723" lon="-6.483100019">
        <ele>270.00</ele>
        <time>1899-12-29T23:00:00Z</time>
      </trkpt>
      <trkpt lat="37.526357677" lon="-6.482835989">
        <ele>267.00</ele>
        <time>1899-12-29T23:00:00Z</time>
      </trkpt>
      <trkpt lat="37.526236810" lon="-6.482630130">
        <ele>265.00</ele>
        <time>1899-12-29T23:00:00Z</time>
      </trkpt>
      <trkpt lat="37.526129857" lon="-6.482574306">
        <ele>266.00</ele>
        <time>1899-12-29T23:00:00Z</time>
      </trkpt>
      <trkpt lat="37.525838502" lon="-6.482426617">
        <ele>268.00</ele>
        <time>1899-12-29T23:00:00Z</time>
      </trkpt>
      <trkpt lat="37.525552511" lon="-6.482293010">
        <ele>270.00</ele>
        <time>1899-12-29T23:00:00Z</time>
      </trkpt>
      <trkpt lat="37.525258642" lon="-6.482185554">
        <ele>272.00</ele>
        <time>1899-12-29T23:00:00Z</time>
      </trkpt>
      <trkpt lat="37.524991594" lon="-6.482079942">
        <ele>272.00</ele>
        <time>1899-12-29T23:00:00Z</time>
      </trkpt>
      <trkpt lat="37.524642404" lon="-6.482001990">
        <ele>271.00</ele>
        <time>1899-12-29T23:00:00Z</time>
      </trkpt>
      <trkpt lat="37.524384409" lon="-6.481960919">
        <ele>270.00</ele>
        <time>1899-12-29T23:00:00Z</time>
      </trkpt>
      <trkpt lat="37.524124570" lon="-6.481927559">
        <ele>269.00</ele>
        <time>1899-12-29T23:00:00Z</time>
      </trkpt>
      <trkpt lat="37.523816451" lon="-6.481883470">
        <ele>268.00</ele>
        <time>1899-12-29T23:00:00Z</time>
      </trkpt>
      <trkpt lat="37.523718048" lon="-6.481868885">
        <ele>268.00</ele>
        <time>1899-12-29T23:00:00Z</time>
      </trkpt>
      <trkpt lat="37.523676138" lon="-6.481660344">
        <ele>268.00</ele>
        <time>1899-12-29T23:00:00Z</time>
      </trkpt>
      <trkpt lat="37.523590308" lon="-6.481411234">
        <ele>265.00</ele>
        <time>1899-12-29T23:00:00Z</time>
      </trkpt>
      <trkpt lat="37.523493581" lon="-6.481255665">
        <ele>264.00</ele>
        <time>1899-12-29T23:00:00Z</time>
      </trkpt>
      <trkpt lat="37.523284871" lon="-6.481050476">
        <ele>263.00</ele>
        <time>1899-12-29T23:00:00Z</time>
      </trkpt>
      <trkpt lat="37.523060907" lon="-6.480931118">
        <ele>264.00</ele>
        <time>1899-12-29T23:00:00Z</time>
      </trkpt>
      <trkpt lat="37.522869967" lon="-6.480831709">
        <ele>265.00</ele>
        <time>1899-12-29T23:00:00Z</time>
      </trkpt>
      <trkpt lat="37.522683889" lon="-6.480623670">
        <ele>264.00</ele>
        <time>1899-12-29T23:00:00Z</time>
      </trkpt>
      <trkpt lat="37.522577103" lon="-6.480493918">
        <ele>263.00</ele>
        <time>1899-12-29T23:00:00Z</time>
      </trkpt>
      <trkpt lat="37.522358838" lon="-6.480335668">
        <ele>262.00</ele>
        <time>1899-12-29T23:00:00Z</time>
      </trkpt>
      <trkpt lat="37.522121966" lon="-6.480177753">
        <ele>261.00</ele>
        <time>1899-12-29T23:00:00Z</time>
      </trkpt>
      <trkpt lat="37.521991041" lon="-6.480095275">
        <ele>261.00</ele>
        <time>1899-12-29T23:00:00Z</time>
      </trkpt>
      <trkpt lat="37.521887105" lon="-6.479869802">
        <ele>260.00</ele>
        <time>1899-12-29T23:00:00Z</time>
      </trkpt>
      <trkpt lat="37.521790881" lon="-6.479758155">
        <ele>259.00</ele>
        <time>1899-12-29T23:00:00Z</time>
      </trkpt>
      <trkpt lat="37.521637660" lon="-6.479691602">
        <ele>259.00</ele>
        <time>1899-12-29T23:00:00Z</time>
      </trkpt>
      <trkpt lat="37.521463819" lon="-6.479638293">
        <ele>258.00</ele>
        <time>1899-12-29T23:00:00Z</time>
      </trkpt>
      <trkpt lat="37.521269526" lon="-6.479577776">
        <ele>257.00</ele>
        <time>1899-12-29T23:00:00Z</time>
      </trkpt>
      <trkpt lat="37.520746998" lon="-6.479467303">
        <ele>255.00</ele>
        <time>1899-12-29T23:00:00Z</time>
      </trkpt>
      <trkpt lat="37.520293035" lon="-6.479407120">
        <ele>251.00</ele>
        <time>1899-12-29T23:00:00Z</time>
      </trkpt>
      <trkpt lat="37.519899085" lon="-6.479368731">
        <ele>248.00</ele>
        <time>1899-12-29T23:00:00Z</time>
      </trkpt>
      <trkpt lat="37.519631032" lon="-6.479335707">
        <ele>247.00</ele>
        <time>1899-12-29T23:00:00Z</time>
      </trkpt>
      <trkpt lat="37.519507818" lon="-6.479366720">
        <ele>246.00</ele>
        <time>1899-12-29T23:00:00Z</time>
      </trkpt>
      <trkpt lat="37.519330457" lon="-6.479502339">
        <ele>245.00</ele>
        <time>1899-12-29T23:00:00Z</time>
      </trkpt>
      <trkpt lat="37.519112527" lon="-6.479687914">
        <ele>244.00</ele>
        <time>1899-12-29T23:00:00Z</time>
      </trkpt>
      <trkpt lat="37.518838774" lon="-6.479819007">
        <ele>245.00</ele>
        <time>1899-12-29T23:00:00Z</time>
      </trkpt>
      <trkpt lat="37.518591173" lon="-6.479820516">
        <ele>246.00</ele>
        <time>1899-12-29T23:00:00Z</time>
      </trkpt>
      <trkpt lat="37.518397383" lon="-6.479796041">
        <ele>246.00</ele>
        <time>1899-12-29T23:00:00Z</time>
      </trkpt>
      <trkpt lat="37.518194374" lon="-6.479717586">
        <ele>246.00</ele>
        <time>1899-12-29T23:00:00Z</time>
      </trkpt>
      <trkpt lat="37.517986335" lon="-6.479556486">
        <ele>245.00</ele>
        <time>1899-12-29T23:00:00Z</time>
      </trkpt>
      <trkpt lat="37.517623566" lon="-6.479375437">
        <ele>242.00</ele>
        <time>1899-12-29T23:00:00Z</time>
      </trkpt>
      <trkpt lat="37.517054435" lon="-6.479172930">
        <ele>242.00</ele>
        <time>1899-12-29T23:00:00Z</time>
      </trkpt>
      <trkpt lat="37.516764924" lon="-6.479085926">
        <ele>242.00</ele>
        <time>1899-12-29T23:00:00Z</time>
      </trkpt>
      <trkpt lat="37.516459487" lon="-6.479040664">
        <ele>240.00</ele>
        <time>1899-12-29T23:00:00Z</time>
      </trkpt>
      <trkpt lat="37.516143825" lon="-6.478995569">
        <ele>238.00</ele>
        <time>1899-12-29T23:00:00Z</time>
      </trkpt>
      <trkpt lat="37.515937798" lon="-6.478989534">
        <ele>237.00</ele>
        <time>1899-12-29T23:00:00Z</time>
      </trkpt>
      <trkpt lat="37.515779883" lon="-6.479047202">
        <ele>236.00</ele>
        <time>1899-12-29T23:00:00Z</time>
      </trkpt>
      <trkpt lat="37.515484001" lon="-6.479252558">
        <ele>235.00</ele>
        <time>1899-12-29T23:00:00Z</time>
      </trkpt>
      <trkpt lat="37.515284009" lon="-6.479378287">
        <ele>234.00</ele>
        <time>1899-12-29T23:00:00Z</time>
      </trkpt>
      <trkpt lat="37.514948063" lon="-6.479517259">
        <ele>232.00</ele>
        <time>1899-12-29T23:00:00Z</time>
      </trkpt>
      <trkpt lat="37.514788136" lon="-6.479574926">
        <ele>230.00</ele>
        <time>1899-12-29T23:00:00Z</time>
      </trkpt>
      <trkpt lat="37.514652349" lon="-6.479585487">
        <ele>230.00</ele>
        <time>1899-12-29T23:00:00Z</time>
      </trkpt>
      <trkpt lat="37.514534667" lon="-6.479564700">
        <ele>229.00</ele>
        <time>1899-12-29T23:00:00Z</time>
      </trkpt>
      <trkpt lat="37.514335178" lon="-6.479429249">
        <ele>229.00</ele>
        <time>1899-12-29T23:00:00Z</time>
      </trkpt>
      <trkpt lat="37.514214311" lon="-6.479328498">
        <ele>229.00</ele>
        <time>1899-12-29T23:00:00Z</time>
      </trkpt>
      <trkpt lat="37.514028233" lon="-6.479110066">
        <ele>230.00</ele>
        <time>1899-12-29T23:00:00Z</time>
      </trkpt>
      <trkpt lat="37.513865288" lon="-6.478947960">
        <ele>229.00</ele>
        <time>1899-12-29T23:00:00Z</time>
      </trkpt>
      <trkpt lat="37.513591368" lon="-6.478788201">
        <ele>227.00</ele>
        <time>1899-12-29T23:00:00Z</time>
      </trkpt>
      <trkpt lat="37.513312753" lon="-6.478587370">
        <ele>224.00</ele>
        <time>1899-12-29T23:00:00Z</time>
      </trkpt>
      <trkpt lat="37.513159867" lon="-6.478399280">
        <ele>223.00</ele>
        <time>1899-12-29T23:00:00Z</time>
      </trkpt>
      <trkpt lat="37.513120137" lon="-6.478198450">
        <ele>223.00</ele>
        <time>1899-12-29T23:00:00Z</time>
      </trkpt>
      <trkpt lat="37.513086945" lon="-6.477723364">
        <ele>220.00</ele>
        <time>1899-12-29T23:00:00Z</time>
      </trkpt>
      <trkpt lat="37.513057608" lon="-6.477077622">
        <ele>217.00</ele>
        <time>1899-12-29T23:00:00Z</time>
      </trkpt>
      <trkpt lat="37.513038833" lon="-6.476599686">
        <ele>214.00</ele>
        <time>1899-12-29T23:00:00Z</time>
      </trkpt>
      <trkpt lat="37.513012514" lon="-6.476010773">
        <ele>214.00</ele>
        <time>1899-12-29T23:00:00Z</time>
      </trkpt>
      <trkpt lat="37.512988206" lon="-6.475584637">
        <ele>216.00</ele>
        <time>1899-12-29T23:00:00Z</time>
      </trkpt>
      <trkpt lat="37.512956355" lon="-6.475207955">
        <ele>219.00</ele>
        <time>1899-12-29T23:00:00Z</time>
      </trkpt>
      <trkpt lat="37.512942608" lon="-6.474947110">
        <ele>220.00</ele>
        <time>1899-12-29T23:00:00Z</time>
      </trkpt>
      <trkpt lat="37.513006814" lon="-6.474511418">
        <ele>223.00</ele>
        <time>1899-12-29T23:00:00Z</time>
      </trkpt>
      <trkpt lat="37.513150312" lon="-6.474156696">
        <ele>225.00</ele>
        <time>1899-12-29T23:00:00Z</time>
      </trkpt>
      <trkpt lat="37.513236813" lon="-6.474007498">
        <ele>227.00</ele>
        <time>1899-12-29T23:00:00Z</time>
      </trkpt>
      <trkpt lat="37.513267156" lon="-6.473807842">
        <ele>229.00</ele>
        <time>1899-12-29T23:00:00Z</time>
      </trkpt>
      <trkpt lat="37.513210829" lon="-6.473297048">
        <ele>231.00</ele>
        <time>1899-12-29T23:00:00Z</time>
      </trkpt>
      <trkpt lat="37.513059117" lon="-6.472423822">
        <ele>230.00</ele>
        <time>1899-12-29T23:00:00Z</time>
      </trkpt>
      <trkpt lat="37.512954008" lon="-6.471963152">
        <ele>228.00</ele>
        <time>1899-12-29T23:00:00Z</time>
      </trkpt>
      <trkpt lat="37.512796763" lon="-6.471454706">
        <ele>227.00</ele>
        <time>1899-12-29T23:00:00Z</time>
      </trkpt>
      <trkpt lat="37.512723170" lon="-6.471187323">
        <ele>227.00</ele>
        <time>1899-12-29T23:00:00Z</time>
      </trkpt>
      <trkpt lat="37.512730379" lon="-6.470934525">
        <ele>227.00</ele>
        <time>1899-12-29T23:00:00Z</time>
      </trkpt>
      <trkpt lat="37.512815204" lon="-6.470373608">
        <ele>229.00</ele>
        <time>1899-12-29T23:00:00Z</time>
      </trkpt>
      <trkpt lat="37.512826100" lon="-6.469957028">
        <ele>230.00</ele>
        <time>1899-12-29T23:00:00Z</time>
      </trkpt>
      <trkpt lat="37.512790058" lon="-6.469291840">
        <ele>233.00</ele>
        <time>1899-12-29T23:00:00Z</time>
      </trkpt>
      <trkpt lat="37.512840349" lon="-6.469031163">
        <ele>234.00</ele>
        <time>1899-12-29T23:00:00Z</time>
      </trkpt>
      <trkpt lat="37.512984518" lon="-6.468723044">
        <ele>235.00</ele>
        <time>1899-12-29T23:00:00Z</time>
      </trkpt>
      <trkpt lat="37.513009664" lon="-6.468601003">
        <ele>235.00</ele>
        <time>1899-12-29T23:00:00Z</time>
      </trkpt>
      <trkpt lat="37.512850743" lon="-6.468575858">
        <ele>234.00</ele>
        <time>1899-12-29T23:00:00Z</time>
      </trkpt>
      <trkpt lat="37.512661479" lon="-6.468587760">
        <ele>233.00</ele>
        <time>1899-12-29T23:00:00Z</time>
      </trkpt>
      <trkpt lat="37.512436509" lon="-6.468551047">
        <ele>232.00</ele>
        <time>1899-12-29T23:00:00Z</time>
      </trkpt>
      <trkpt lat="37.512272559" lon="-6.468469240">
        <ele>232.00</ele>
        <time>1899-12-29T23:00:00Z</time>
      </trkpt>
      <trkpt lat="37.512120511" lon="-6.468350384">
        <ele>232.00</ele>
        <time>1899-12-29T23:00:00Z</time>
      </trkpt>
      <trkpt lat="37.511967123" lon="-6.468111165">
        <ele>230.00</ele>
        <time>1899-12-29T23:00:00Z</time>
      </trkpt>
      <trkpt lat="37.511841226" lon="-6.467932966">
        <ele>229.00</ele>
        <time>1899-12-29T23:00:00Z</time>
      </trkpt>
      <trkpt lat="37.511696555" lon="-6.467759795">
        <ele>227.00</ele>
        <time>1899-12-29T23:00:00Z</time>
      </trkpt>
      <trkpt lat="37.511580549" lon="-6.467697937">
        <ele>227.00</ele>
        <time>1899-12-29T23:00:00Z</time>
      </trkpt>
      <trkpt lat="37.511429843" lon="-6.467667595">
        <ele>229.00</ele>
        <time>1899-12-29T23:00:00Z</time>
      </trkpt>
      <trkpt lat="37.511335295" lon="-6.467685197">
        <ele>230.00</ele>
        <time>1899-12-29T23:00:00Z</time>
      </trkpt>
      <trkpt lat="37.511245441" lon="-6.467738673">
        <ele>231.00</ele>
        <time>1899-12-29T23:00:00Z</time>
      </trkpt>
      <trkpt lat="37.511166986" lon="-6.467879992">
        <ele>232.00</ele>
        <time>1899-12-29T23:00:00Z</time>
      </trkpt>
      <trkpt lat="37.511065062" lon="-6.468262207">
        <ele>234.00</ele>
        <time>1899-12-29T23:00:00Z</time>
      </trkpt>
      <trkpt lat="37.510979902" lon="-6.468512155">
        <ele>234.00</ele>
        <time>1899-12-29T23:00:00Z</time>
      </trkpt>
      <trkpt lat="37.510882672" lon="-6.468640901">
        <ele>233.00</ele>
        <time>1899-12-29T23:00:00Z</time>
      </trkpt>
      <trkpt lat="37.510612104" lon="-6.468881965">
        <ele>234.00</ele>
        <time>1899-12-29T23:00:00Z</time>
      </trkpt>
      <trkpt lat="37.510336842" lon="-6.469089501">
        <ele>236.00</ele>
        <time>1899-12-29T23:00:00Z</time>
      </trkpt>
      <trkpt lat="37.510098461" lon="-6.469215229">
        <ele>237.00</ele>
        <time>1899-12-29T23:00:00Z</time>
      </trkpt>
      <trkpt lat="37.509953789" lon="-6.469239872">
        <ele>238.00</ele>
        <time>1899-12-29T23:00:00Z</time>
      </trkpt>
      <trkpt lat="37.509786487" lon="-6.469214894">
        <ele>237.00</ele>
        <time>1899-12-29T23:00:00Z</time>
      </trkpt>
      <trkpt lat="37.509479374" lon="-6.469043065">
        <ele>236.00</ele>
        <time>1899-12-29T23:00:00Z</time>
      </trkpt>
      <trkpt lat="37.509231437" lon="-6.468831170">
        <ele>235.00</ele>
        <time>1899-12-29T23:00:00Z</time>
      </trkpt>
      <trkpt lat="37.509075198" lon="-6.468689684">
        <ele>235.00</ele>
        <time>1899-12-29T23:00:00Z</time>
      </trkpt>
      <trkpt lat="37.508918624" lon="-6.468544006">
        <ele>234.00</ele>
        <time>1899-12-29T23:00:00Z</time>
      </trkpt>
      <trkpt lat="37.508733720" lon="-6.468420289">
        <ele>233.00</ele>
        <time>1899-12-29T23:00:00Z</time>
      </trkpt>
      <trkpt lat="37.508396097" lon="-6.468269750">
        <ele>231.00</ele>
        <time>1899-12-29T23:00:00Z</time>
      </trkpt>
      <trkpt lat="37.508151848" lon="-6.468179394">
        <ele>230.00</ele>
        <time>1899-12-29T23:00:00Z</time>
      </trkpt>
      <trkpt lat="37.507984880" lon="-6.468175035">
        <ele>230.00</ele>
        <time>1899-12-29T23:00:00Z</time>
      </trkpt>
      <trkpt lat="37.507849094" lon="-6.468180567">
        <ele>230.00</ele>
        <time>1899-12-29T23:00:00Z</time>
      </trkpt>
      <trkpt lat="37.507660668" lon="-6.468262207">
        <ele>230.00</ele>
        <time>1899-12-29T23:00:00Z</time>
      </trkpt>
      <trkpt lat="37.507538795" lon="-6.468388774">
        <ele>229.00</ele>
        <time>1899-12-29T23:00:00Z</time>
      </trkpt>
      <trkpt lat="37.507428825" lon="-6.468605697">
        <ele>229.00</ele>
        <time>1899-12-29T23:00:00Z</time>
      </trkpt>
      <trkpt lat="37.507333606" lon="-6.468755063">
        <ele>229.00</ele>
        <time>1899-12-29T23:00:00Z</time>
      </trkpt>
      <trkpt lat="37.507198490" lon="-6.468809713">
        <ele>229.00</ele>
        <time>1899-12-29T23:00:00Z</time>
      </trkpt>
      <trkpt lat="37.506981399" lon="-6.468801498">
        <ele>229.00</ele>
        <time>1899-12-29T23:00:00Z</time>
      </trkpt>
      <trkpt lat="37.506643943" lon="-6.468772329">
        <ele>229.00</ele>
        <time>1899-12-29T23:00:00Z</time>
      </trkpt>
      <trkpt lat="37.506182268" lon="-6.468740813">
        <ele>228.00</ele>
        <time>1899-12-29T23:00:00Z</time>
      </trkpt>
      <trkpt lat="37.505915891" lon="-6.468692198">
        <ele>228.00</ele>
        <time>1899-12-29T23:00:00Z</time>
      </trkpt>
      <trkpt lat="37.505665272" lon="-6.468583737">
        <ele>226.00</ele>
        <time>1899-12-29T23:00:00Z</time>
      </trkpt>
      <trkpt lat="37.505173087" lon="-6.468439065">
        <ele>224.00</ele>
        <time>1899-12-29T23:00:00Z</time>
      </trkpt>
      <trkpt lat="37.504920792" lon="-6.468364298">
        <ele>223.00</ele>
        <time>1899-12-29T23:00:00Z</time>
      </trkpt>
      <trkpt lat="37.504692636" lon="-6.468397491">
        <ele>224.00</ele>
        <time>1899-12-29T23:00:00Z</time>
      </trkpt>
      <trkpt lat="37.504041027" lon="-6.468641404">
        <ele>228.00</ele>
        <time>1899-12-29T23:00:00Z</time>
      </trkpt>
      <trkpt lat="37.503817901" lon="-6.468741819">
        <ele>230.00</ele>
        <time>1899-12-29T23:00:00Z</time>
      </trkpt>
      <trkpt lat="37.503692675" lon="-6.468770318">
        <ele>231.00</ele>
        <time>1899-12-29T23:00:00Z</time>
      </trkpt>
      <trkpt lat="37.503464352" lon="-6.468638219">
        <ele>232.00</ele>
        <time>1899-12-29T23:00:00Z</time>
      </trkpt>
      <trkpt lat="37.503240891" lon="-6.468412913">
        <ele>233.00</ele>
        <time>1899-12-29T23:00:00Z</time>
      </trkpt>
      <trkpt lat="37.502997145" lon="-6.468200851">
        <ele>233.00</ele>
        <time>1899-12-29T23:00:00Z</time>
      </trkpt>
      <trkpt lat="37.502856329" lon="-6.467989292">
        <ele>233.00</ele>
        <time>1899-12-29T23:00:00Z</time>
      </trkpt>
      <trkpt lat="37.502729595" lon="-6.467759293">
        <ele>233.00</ele>
        <time>1899-12-29T23:00:00Z</time>
      </trkpt>
      <trkpt lat="37.502599005" lon="-6.467683855">
        <ele>234.00</ele>
        <time>1899-12-29T23:00:00Z</time>
      </trkpt>
      <trkpt lat="37.502351739" lon="-6.467692405">
        <ele>234.00</ele>
        <time>1899-12-29T23:00:00Z</time>
      </trkpt>
      <trkpt lat="37.502240762" lon="-6.467707660">
        <ele>233.00</ele>
        <time>1899-12-29T23:00:00Z</time>
      </trkpt>
      <trkpt lat="37.502118219" lon="-6.467477661">
        <ele>233.00</ele>
        <time>1899-12-29T23:00:00Z</time>
      </trkpt>
      <trkpt lat="37.501962315" lon="-6.467367187">
        <ele>231.00</ele>
        <time>1899-12-29T23:00:00Z</time>
      </trkpt>
      <trkpt lat="37.501842622" lon="-6.467194017">
        <ele>230.00</ele>
        <time>1899-12-29T23:00:00Z</time>
      </trkpt>
      <trkpt lat="37.501727454" lon="-6.466904338">
        <ele>229.00</ele>
        <time>1899-12-29T23:00:00Z</time>
      </trkpt>
      <trkpt lat="37.501525953" lon="-6.466476861">
        <ele>227.00</ele>
        <time>1899-12-29T23:00:00Z</time>
      </trkpt>
      <trkpt lat="37.501435094" lon="-6.466297824">
        <ele>227.00</ele>
        <time>1899-12-29T23:00:00Z</time>
      </trkpt>
      <trkpt lat="37.501354292" lon="-6.466108225">
        <ele>227.00</ele>
        <time>1899-12-29T23:00:00Z</time>
      </trkpt>
      <trkpt lat="37.501279693" lon="-6.465923656">
        <ele>226.00</ele>
        <time>1899-12-29T23:00:00Z</time>
      </trkpt>
      <trkpt lat="37.501233593" lon="-6.465712767">
        <ele>226.00</ele>
        <time>1899-12-29T23:00:00Z</time>
      </trkpt>
      <trkpt lat="37.501223702" lon="-6.465433817">
        <ele>225.00</ele>
        <time>1899-12-29T23:00:00Z</time>
      </trkpt>
      <trkpt lat="37.501263600" lon="-6.465189904">
        <ele>224.00</ele>
        <time>1899-12-29T23:00:00Z</time>
      </trkpt>
      <trkpt lat="37.501304001" lon="-6.464982200">
        <ele>223.00</ele>
        <time>1899-12-29T23:00:00Z</time>
      </trkpt>
      <trkpt lat="37.501242645" lon="-6.464712135">
        <ele>222.00</ele>
        <time>1899-12-29T23:00:00Z</time>
      </trkpt>
      <trkpt lat="37.501082215" lon="-6.464418266">
        <ele>222.00</ele>
        <time>1899-12-29T23:00:00Z</time>
      </trkpt>
      <trkpt lat="37.500940897" lon="-6.464173179">
        <ele>222.00</ele>
        <time>1899-12-29T23:00:00Z</time>
      </trkpt>
      <trkpt lat="37.500577960" lon="-6.463531964">
        <ele>220.00</ele>
        <time>1899-12-29T23:00:00Z</time>
      </trkpt>
      <trkpt lat="37.500386853" lon="-6.463251673">
        <ele>219.00</ele>
        <time>1899-12-29T23:00:00Z</time>
      </trkpt>
      <trkpt lat="37.500188872" lon="-6.463077497">
        <ele>220.00</ele>
        <time>1899-12-29T23:00:00Z</time>
      </trkpt>
      <trkpt lat="37.499975972" lon="-6.462875325">
        <ele>221.00</ele>
        <time>1899-12-29T23:00:00Z</time>
      </trkpt>
      <trkpt lat="37.499859463" lon="-6.462784801">
        <ele>220.00</ele>
        <time>1899-12-29T23:00:00Z</time>
      </trkpt>
      <trkpt lat="37.499778494" lon="-6.462732162">
        <ele>220.00</ele>
        <time>1899-12-29T23:00:00Z</time>
      </trkpt>
      <trkpt lat="37.499703392" lon="-6.462669130">
        <ele>220.00</ele>
        <time>1899-12-29T23:00:00Z</time>
      </trkpt>
      <trkpt lat="37.499595266" lon="-6.462738700">
        <ele>220.00</ele>
        <time>1899-12-29T23:00:00Z</time>
      </trkpt>
      <trkpt lat="37.499540616" lon="-6.462959480">
        <ele>220.00</ele>
        <time>1899-12-29T23:00:00Z</time>
      </trkpt>
      <trkpt lat="37.499265354" lon="-6.462821849">
        <ele>219.00</ele>
        <time>1899-12-29T23:00:00Z</time>
      </trkpt>
      <trkpt lat="37.499021441" lon="-6.462642308">
        <ele>218.00</ele>
        <time>1899-12-29T23:00:00Z</time>
      </trkpt>
      <trkpt lat="37.498880792" lon="-6.462451369">
        <ele>218.00</ele>
        <time>1899-12-29T23:00:00Z</time>
      </trkpt>
      <trkpt lat="37.498781383" lon="-6.462259758">
        <ele>217.00</ele>
        <time>1899-12-29T23:00:00Z</time>
      </trkpt>
      <trkpt lat="37.498659845" lon="-6.461997572">
        <ele>216.00</ele>
        <time>1899-12-29T23:00:00Z</time>
      </trkpt>
      <trkpt lat="37.497436590" lon="-6.460674908">
        <ele>215.00</ele>
        <time>1899-12-29T23:00:00Z</time>
      </trkpt>
      <trkpt lat="37.497296780" lon="-6.460176352">
        <ele>212.00</ele>
        <time>1899-12-29T23:00:00Z</time>
      </trkpt>
      <trkpt lat="37.496737540" lon="-6.459638905">
        <ele>215.00</ele>
        <time>1899-12-29T23:00:00Z</time>
      </trkpt>
      <trkpt lat="37.496391535" lon="-6.459375713">
        <ele>215.00</ele>
        <time>1899-12-29T23:00:00Z</time>
      </trkpt>
      <trkpt lat="37.495274730" lon="-6.459052339">
        <ele>209.00</ele>
        <time>1899-12-29T23:00:00Z</time>
      </trkpt>
      <trkpt lat="37.494731247" lon="-6.458527800">
        <ele>209.00</ele>
        <time>1899-12-29T23:00:00Z</time>
      </trkpt>
      <trkpt lat="37.494271919" lon="-6.458350606">
        <ele>209.00</ele>
        <time>1899-12-29T23:00:00Z</time>
      </trkpt>
      <trkpt lat="37.493876293" lon="-6.457748283">
        <ele>204.00</ele>
        <time>1899-12-29T23:00:00Z</time>
      </trkpt>
      <trkpt lat="37.493126784" lon="-6.457402781">
        <ele>207.00</ele>
        <time>1899-12-29T23:00:00Z</time>
      </trkpt>
      <trkpt lat="37.491381671" lon="-6.457627080">
        <ele>200.00</ele>
        <time>1899-12-29T23:00:00Z</time>
      </trkpt>
      <trkpt lat="37.489984911" lon="-6.456447747">
        <ele>185.00</ele>
        <time>1899-12-29T23:00:00Z</time>
      </trkpt>
      <trkpt lat="37.488938849" lon="-6.456208359">
        <ele>183.00</ele>
        <time>1899-12-29T23:00:00Z</time>
      </trkpt>
      <trkpt lat="37.488388661" lon="-6.455920860">
        <ele>184.00</ele>
        <time>1899-12-29T23:00:00Z</time>
      </trkpt>
      <trkpt lat="37.487537563" lon="-6.455428004">
        <ele>182.00</ele>
        <time>1899-12-29T23:00:00Z</time>
      </trkpt>
      <trkpt lat="37.486807834" lon="-6.454346739">
        <ele>171.00</ele>
        <time>1899-12-29T23:00:00Z</time>
      </trkpt>
      <trkpt lat="37.486039884" lon="-6.454126462">
        <ele>165.00</ele>
        <time>1899-12-29T23:00:00Z</time>
      </trkpt>
      <trkpt lat="37.485497240" lon="-6.453664284">
        <ele>161.00</ele>
        <time>1899-12-29T23:00:00Z</time>
      </trkpt>
      <trkpt lat="37.484870106" lon="-6.452830117">
        <ele>155.00</ele>
        <time>1899-12-29T23:00:00Z</time>
      </trkpt>
      <trkpt lat="37.484418657" lon="-6.452503391">
        <ele>152.00</ele>
        <time>1899-12-29T23:00:00Z</time>
      </trkpt>
      <trkpt lat="37.483781800" lon="-6.452417225">
        <ele>151.00</ele>
        <time>1899-12-29T23:00:00Z</time>
      </trkpt>
      <trkpt lat="37.483053580" lon="-6.452183537">
        <ele>150.00</ele>
        <time>1899-12-29T23:00:00Z</time>
      </trkpt>
      <trkpt lat="37.482381519" lon="-6.451699398">
        <ele>144.00</ele>
        <time>1899-12-29T23:00:00Z</time>
      </trkpt>
      <trkpt lat="37.481631674" lon="-6.451341491">
        <ele>143.00</ele>
        <time>1899-12-29T23:00:00Z</time>
      </trkpt>
      <trkpt lat="37.481233366" lon="-6.450540014">
        <ele>146.00</ele>
        <time>1899-12-29T23:00:00Z</time>
      </trkpt>
      <trkpt lat="37.480427865" lon="-6.449734680">
        <ele>146.00</ele>
        <time>1899-12-29T23:00:00Z</time>
      </trkpt>
      <trkpt lat="37.479185835" lon="-6.448561214">
        <ele>140.00</ele>
        <time>1899-12-29T23:00:00Z</time>
      </trkpt>
      <trkpt lat="37.477257494" lon="-6.448583174">
        <ele>127.00</ele>
        <time>1899-12-29T23:00:00Z</time>
      </trkpt>
      <trkpt lat="37.475389503" lon="-6.448467001">
        <ele>139.00</ele>
        <time>1899-12-29T23:00:00Z</time>
      </trkpt>
      <trkpt lat="37.473574989" lon="-6.447725371">
        <ele>162.00</ele>
        <time>1899-12-29T23:00:00Z</time>
      </trkpt>
      <trkpt lat="37.474201787" lon="-6.445779931">
        <ele>160.00</ele>
        <time>1899-12-29T23:00:00Z</time>
      </trkpt>
      <trkpt lat="37.474307232" lon="-6.444391888">
        <ele>162.00</ele>
        <time>1899-12-29T23:00:00Z</time>
      </trkpt>
      <trkpt lat="37.473374996" lon="-6.442187279">
        <ele>159.00</ele>
        <time>1899-12-29T23:00:00Z</time>
      </trkpt>
      <trkpt lat="37.473103423" lon="-6.440534201">
        <ele>155.00</ele>
        <time>1899-12-29T23:00:00Z</time>
      </trkpt>
      <trkpt lat="37.472496741" lon="-6.439395938">
        <ele>156.00</ele>
        <time>1899-12-29T23:00:00Z</time>
      </trkpt>
      <trkpt lat="37.472096086" lon="-6.437394507">
        <ele>149.00</ele>
        <time>1899-12-29T23:00:00Z</time>
      </trkpt>
      <trkpt lat="37.471988965" lon="-6.435183026">
        <ele>139.00</ele>
        <time>1899-12-29T23:00:00Z</time>
      </trkpt>
      <trkpt lat="37.471061926" lon="-6.432371736">
        <ele>130.00</ele>
        <time>1899-12-29T23:00:00Z</time>
      </trkpt>
      <trkpt lat="37.470043525" lon="-6.429893877">
        <ele>130.00</ele>
        <time>1899-12-29T23:00:00Z</time>
      </trkpt>
      <trkpt lat="37.468334455" lon="-6.428987123">
        <ele>124.00</ele>
        <time>1899-12-29T23:00:00Z</time>
      </trkpt>
      <trkpt lat="37.467106171" lon="-6.428120267">
        <ele>120.00</ele>
        <time>1899-12-29T23:00:00Z</time>
      </trkpt>
      <trkpt lat="37.465525009" lon="-6.426628623">
        <ele>112.00</ele>
        <time>1899-12-29T23:00:00Z</time>
      </trkpt>
      <trkpt lat="37.464011237" lon="-6.425789595">
        <ele>109.00</ele>
        <time>1899-12-29T23:00:00Z</time>
      </trkpt>
      <trkpt lat="37.463088892" lon="-6.425184589">
        <ele>109.00</ele>
        <time>1899-12-29T23:00:00Z</time>
      </trkpt>
      <trkpt lat="37.462136205" lon="-6.424138863">
        <ele>106.00</ele>
        <time>1899-12-29T23:00:00Z</time>
      </trkpt>
      <trkpt lat="37.461817525" lon="-6.423935350">
        <ele>105.00</ele>
        <time>1899-12-29T23:00:00Z</time>
      </trkpt>
      <trkpt lat="37.461435311" lon="-6.423798222">
        <ele>104.00</ele>
        <time>1899-12-29T23:00:00Z</time>
      </trkpt>
      <trkpt lat="37.461237330" lon="-6.423940044">
        <ele>103.00</ele>
        <time>1899-12-29T23:00:00Z</time>
      </trkpt>
      <trkpt lat="37.461055275" lon="-6.424760800">
        <ele>104.00</ele>
        <time>1899-12-29T23:00:00Z</time>
      </trkpt>
      <trkpt lat="37.460859809" lon="-6.425080486">
        <ele>105.00</ele>
        <time>1899-12-29T23:00:00Z</time>
      </trkpt>
      <trkpt lat="37.460557390" lon="-6.424807571">
        <ele>103.00</ele>
        <time>1899-12-29T23:00:00Z</time>
      </trkpt>
      <trkpt lat="37.459757086" lon="-6.424091086">
        <ele>102.00</ele>
        <time>1899-12-29T23:00:00Z</time>
      </trkpt>
      <trkpt lat="37.457573768" lon="-6.422849558">
        <ele>97.00</ele>
        <time>1899-12-29T23:00:00Z</time>
      </trkpt>
      <trkpt lat="37.455908954" lon="-6.422508918">
        <ele>97.00</ele>
        <time>1899-12-29T23:00:00Z</time>
      </trkpt>
      <trkpt lat="37.455080319" lon="-6.422031149">
        <ele>95.00</ele>
        <time>1899-12-29T23:00:00Z</time>
      </trkpt>
      <trkpt lat="37.454598360" lon="-6.421486493">
        <ele>93.00</ele>
        <time>1899-12-29T23:00:00Z</time>
      </trkpt>
      <trkpt lat="37.454050016" lon="-6.420705132">
        <ele>92.00</ele>
        <time>1899-12-29T23:00:00Z</time>
      </trkpt>
      <trkpt lat="37.453428078" lon="-6.420322079">
        <ele>92.00</ele>
        <time>1899-12-29T23:00:00Z</time>
      </trkpt>
      <trkpt lat="37.452931032" lon="-6.419817321">
        <ele>91.00</ele>
        <time>1899-12-29T23:00:00Z</time>
      </trkpt>
      <trkpt lat="37.450989280" lon="-6.417757552">
        <ele>91.00</ele>
        <time>1899-12-29T23:00:00Z</time>
      </trkpt>
      <trkpt lat="37.447404005" lon="-6.414603442">
        <ele>90.00</ele>
        <time>1899-12-29T23:00:00Z</time>
      </trkpt>
      <trkpt lat="37.446222994" lon="-6.413816381">
        <ele>94.00</ele>
        <time>1899-12-29T23:00:00Z</time>
      </trkpt>
      <trkpt lat="37.444621548" lon="-6.413474567">
        <ele>97.00</ele>
        <time>1899-12-29T23:00:00Z</time>
      </trkpt>
      <trkpt lat="37.442185432" lon="-6.413389239">
        <ele>99.00</ele>
        <time>1899-12-29T23:00:00Z</time>
      </trkpt>
      <trkpt lat="37.440247536" lon="-6.412737630">
        <ele>99.00</ele>
        <time>1899-12-29T23:00:00Z</time>
      </trkpt>
      <trkpt lat="37.437875625" lon="-6.412710305">
        <ele>100.00</ele>
        <time>1899-12-29T23:00:00Z</time>
      </trkpt>
      <trkpt lat="37.436643317" lon="-6.412776858">
        <ele>101.00</ele>
        <time>1899-12-29T23:00:00Z</time>
      </trkpt>
      <trkpt lat="37.435831111" lon="-6.412358433">
        <ele>100.00</ele>
        <time>1899-12-29T23:00:00Z</time>
      </trkpt>
      <trkpt lat="37.434620596" lon="-6.411710847">
        <ele>101.00</ele>
        <time>1899-12-29T23:00:00Z</time>
      </trkpt>
      <trkpt lat="37.432486899" lon="-6.410627570">
        <ele>105.00</ele>
        <time>1899-12-29T23:00:00Z</time>
      </trkpt>
      <trkpt lat="37.429194991" lon="-6.408172846">
        <ele>110.00</ele>
        <time>1899-12-29T23:00:00Z</time>
      </trkpt>
      <trkpt lat="37.430262174" lon="-6.406335700">
        <ele>106.00</ele>
        <time>1899-12-29T23:00:00Z</time>
      </trkpt>
      <trkpt lat="37.430868857" lon="-6.405124683">
        <ele>102.00</ele>
        <time>1899-12-29T23:00:00Z</time>
      </trkpt>
      <trkpt lat="37.431178987" lon="-6.404098738">
        <ele>101.00</ele>
        <time>1899-12-29T23:00:00Z</time>
      </trkpt>
      <trkpt lat="37.430400308" lon="-6.403571852">
        <ele>103.00</ele>
        <time>1899-12-29T23:00:00Z</time>
      </trkpt>
      <trkpt lat="37.429187447" lon="-6.403034236">
        <ele>107.00</ele>
        <time>1899-12-29T23:00:00Z</time>
      </trkpt>
      <trkpt lat="37.428104840" lon="-6.402614806">
        <ele>111.00</ele>
        <time>1899-12-29T23:00:00Z</time>
      </trkpt>
      <trkpt lat="37.427308559" lon="-6.401987504">
        <ele>113.00</ele>
        <time>1899-12-29T23:00:00Z</time>
      </trkpt>
      <trkpt lat="37.426354028" lon="-6.401326004">
        <ele>117.00</ele>
        <time>1899-12-29T23:00:00Z</time>
      </trkpt>
      <trkpt lat="37.426243555" lon="-6.401381325">
        <ele>118.00</ele>
        <time>1899-12-29T23:00:00Z</time>
      </trkpt>
      <trkpt lat="37.425993606" lon="-6.401376966">
        <ele>118.00</ele>
        <time>1899-12-29T23:00:00Z</time>
      </trkpt>
      <trkpt lat="37.425757907" lon="-6.401344612">
        <ele>119.00</ele>
        <time>1899-12-29T23:00:00Z</time>
      </trkpt>
      <trkpt lat="37.425517850" lon="-6.401259620">
        <ele>121.00</ele>
        <time>1899-12-29T23:00:00Z</time>
      </trkpt>
      <trkpt lat="37.425245102" lon="-6.401248891">
        <ele>123.00</ele>
        <time>1899-12-29T23:00:00Z</time>
      </trkpt>
      <trkpt lat="37.425017282" lon="-6.401320975">
        <ele>124.00</ele>
        <time>1899-12-29T23:00:00Z</time>
      </trkpt>
      <trkpt lat="37.424486876" lon="-6.401429940">
        <ele>129.00</ele>
        <time>1899-12-29T23:00:00Z</time>
      </trkpt>
      <trkpt lat="37.423699480" lon="-6.401527338">
        <ele>137.00</ele>
        <time>1899-12-29T23:00:00Z</time>
      </trkpt>
      <trkpt lat="37.422357537" lon="-6.401938722">
        <ele>159.00</ele>
        <time>1899-12-29T23:00:00Z</time>
      </trkpt>
      <trkpt lat="37.422253434" lon="-6.401379816">
        <ele>160.00</ele>
        <time>1899-12-29T23:00:00Z</time>
      </trkpt>
      <trkpt lat="37.421945482" lon="-6.400687974">
        <ele>163.00</ele>
        <time>1899-12-29T23:00:00Z</time>
      </trkpt>
      <trkpt lat="37.421606183" lon="-6.400865000">
        <ele>171.00</ele>
        <time>1899-12-29T23:00:00Z</time>
      </trkpt>
      <trkpt lat="37.421221454" lon="-6.401090473">
        <ele>178.00</ele>
        <time>1899-12-29T23:00:00Z</time>
      </trkpt>
      <trkpt lat="37.420981228" lon="-6.400243733">
        <ele>181.00</ele>
        <time>1899-12-29T23:00:00Z</time>
      </trkpt>
      <trkpt lat="37.420793138" lon="-6.400254462">
        <ele>184.00</ele>
        <time>1899-12-29T23:00:00Z</time>
      </trkpt>
      <trkpt lat="37.420493066" lon="-6.400212552">
        <ele>185.00</ele>
        <time>1899-12-29T23:00:00Z</time>
      </trkpt>
      <trkpt lat="37.420264408" lon="-6.400409527">
        <ele>185.00</ele>
        <time>1899-12-29T23:00:00Z</time>
      </trkpt>
      <trkpt lat="37.420523409" lon="-6.401051413">
        <ele>184.00</ele>
        <time>1899-12-29T23:00:00Z</time>
      </trkpt>
      <trkpt lat="37.420742009" lon="-6.401590705">
        <ele>185.00</ele>
        <time>1899-12-29T23:00:00Z</time>
      </trkpt>
      <trkpt lat="37.421060856" lon="-6.402006112">
        <ele>182.00</ele>
        <time>1899-12-29T23:00:00Z</time>
      </trkpt>
      <trkpt lat="37.421308123" lon="-6.402286906">
        <ele>178.00</ele>
        <time>1899-12-29T23:00:00Z</time>
      </trkpt>
      <trkpt lat="37.421464361" lon="-6.402547248">
        <ele>176.00</ele>
        <time>1899-12-29T23:00:00Z</time>
      </trkpt>
      <trkpt lat="37.421572823" lon="-6.402712539">
        <ele>175.00</ele>
        <time>1899-12-29T23:00:00Z</time>
      </trkpt>
      <trkpt lat="37.421739958" lon="-6.403047144">
        <ele>173.00</ele>
        <time>1899-12-29T23:00:00Z</time>
      </trkpt>
      <trkpt lat="37.421803828" lon="-6.403284352">
        <ele>173.00</ele>
        <time>1899-12-29T23:00:00Z</time>
      </trkpt>
      <trkpt lat="37.421865351" lon="-6.403558608">
        <ele>175.00</ele>
        <time>1899-12-29T23:00:00Z</time>
      </trkpt>
      <trkpt lat="37.421917487" lon="-6.404099073">
        <ele>179.00</ele>
        <time>1899-12-29T23:00:00Z</time>
      </trkpt>
      <trkpt lat="37.421962582" lon="-6.404595282">
        <ele>179.00</ele>
        <time>1899-12-29T23:00:00Z</time>
      </trkpt>
      <trkpt lat="37.421974316" lon="-6.405293662">
        <ele>177.00</ele>
        <time>1899-12-29T23:00:00Z</time>
      </trkpt>
      <trkpt lat="37.422004826" lon="-6.405657269">
        <ele>174.00</ele>
        <time>1899-12-29T23:00:00Z</time>
      </trkpt>
      <trkpt lat="37.422036175" lon="-6.405978967">
        <ele>172.00</ele>
        <time>1899-12-29T23:00:00Z</time>
      </trkpt>
      <trkpt lat="37.422098201" lon="-6.406195220">
        <ele>170.00</ele>
        <time>1899-12-29T23:00:00Z</time>
      </trkpt>
      <trkpt lat="37.422167435" lon="-6.406383980">
        <ele>169.00</ele>
        <time>1899-12-29T23:00:00Z</time>
      </trkpt>
      <trkpt lat="37.422230300" lon="-6.406652201">
        <ele>166.00</ele>
        <time>1899-12-29T23:00:00Z</time>
      </trkpt>
      <trkpt lat="37.422315963" lon="-6.407141536">
        <ele>171.00</ele>
        <time>1899-12-29T23:00:00Z</time>
      </trkpt>
      <trkpt lat="37.422368266" lon="-6.407673787">
        <ele>177.00</ele>
        <time>1899-12-29T23:00:00Z</time>
      </trkpt>
      <trkpt lat="37.422360387" lon="-6.408091541">
        <ele>180.00</ele>
        <time>1899-12-29T23:00:00Z</time>
      </trkpt>
      <trkpt lat="37.422322165" lon="-6.408611722">
        <ele>181.00</ele>
        <time>1899-12-29T23:00:00Z</time>
      </trkpt>
      <trkpt lat="37.422417719" lon="-6.409007851">
        <ele>180.00</ele>
        <time>1899-12-29T23:00:00Z</time>
      </trkpt>
      <trkpt lat="37.422482762" lon="-6.409329548">
        <ele>178.00</ele>
        <time>1899-12-29T23:00:00Z</time>
      </trkpt>
      <trkpt lat="37.422620058" lon="-6.409968417">
        <ele>174.00</ele>
        <time>1899-12-29T23:00:00Z</time>
      </trkpt>
      <trkpt lat="37.422644701" lon="-6.410154998">
        <ele>172.00</ele>
        <time>1899-12-29T23:00:00Z</time>
      </trkpt>
      <trkpt lat="37.422656268" lon="-6.410648189">
        <ele>169.00</ele>
        <time>1899-12-29T23:00:00Z</time>
      </trkpt>
      <trkpt lat="37.422673870" lon="-6.410918422">
        <ele>168.00</ele>
        <time>1899-12-29T23:00:00Z</time>
      </trkpt>
      <trkpt lat="37.422795240" lon="-6.411676984">
        <ele>173.00</ele>
        <time>1899-12-29T23:00:00Z</time>
      </trkpt>
      <trkpt lat="37.422824409" lon="-6.412334628">
        <ele>176.00</ele>
        <time>1899-12-29T23:00:00Z</time>
      </trkpt>
      <trkpt lat="37.422846369" lon="-6.412799824">
        <ele>175.00</ele>
        <time>1899-12-29T23:00:00Z</time>
      </trkpt>
      <trkpt lat="37.422876377" lon="-6.413277760">
        <ele>174.00</ele>
        <time>1899-12-29T23:00:00Z</time>
      </trkpt>
      <trkpt lat="37.422956340" lon="-6.414003968">
        <ele>173.00</ele>
        <time>1899-12-29T23:00:00Z</time>
      </trkpt>
      <trkpt lat="37.422938738" lon="-6.415049192">
        <ele>174.00</ele>
        <time>1899-12-29T23:00:00Z</time>
      </trkpt>
      <trkpt lat="37.423070502" lon="-6.416023672">
        <ele>179.00</ele>
        <time>1899-12-29T23:00:00Z</time>
      </trkpt>
      <trkpt lat="37.423068658" lon="-6.416664049">
        <ele>181.00</ele>
        <time>1899-12-29T23:00:00Z</time>
      </trkpt>
      <trkpt lat="37.423111741" lon="-6.417329069">
        <ele>183.00</ele>
        <time>1899-12-29T23:00:00Z</time>
      </trkpt>
      <trkpt lat="37.423153818" lon="-6.418114621">
        <ele>187.00</ele>
        <time>1899-12-29T23:00:00Z</time>
      </trkpt>
      <trkpt lat="37.423161194" lon="-6.418690961">
        <ele>188.00</ele>
        <time>1899-12-29T23:00:00Z</time>
      </trkpt>
      <trkpt lat="37.423276193" lon="-6.419553794">
        <ele>188.00</ele>
        <time>1899-12-29T23:00:00Z</time>
      </trkpt>
      <trkpt lat="37.423325479" lon="-6.419907007">
        <ele>188.00</ele>
        <time>1899-12-29T23:00:00Z</time>
      </trkpt>
      <trkpt lat="37.423402593" lon="-6.420170199">
        <ele>187.00</ele>
        <time>1899-12-29T23:00:00Z</time>
      </trkpt>
      <trkpt lat="37.423480377" lon="-6.420382764">
        <ele>185.00</ele>
        <time>1899-12-29T23:00:00Z</time>
      </trkpt>
      <trkpt lat="37.423618846" lon="-6.420692727">
        <ele>182.00</ele>
        <time>1899-12-29T23:00:00Z</time>
      </trkpt>
      <trkpt lat="37.423693612" lon="-6.421025321">
        <ele>180.00</ele>
        <time>1899-12-29T23:00:00Z</time>
      </trkpt>
      <trkpt lat="37.423720770" lon="-6.421460174">
        <ele>180.00</ele>
        <time>1899-12-29T23:00:00Z</time>
      </trkpt>
      <trkpt lat="37.423754968" lon="-6.421847250">
        <ele>181.00</ele>
        <time>1899-12-29T23:00:00Z</time>
      </trkpt>
      <trkpt lat="37.423791680" lon="-6.422080602">
        <ele>182.00</ele>
        <time>1899-12-29T23:00:00Z</time>
      </trkpt>
      <trkpt lat="37.423896957" lon="-6.422295850">
        <ele>184.00</ele>
        <time>1899-12-29T23:00:00Z</time>
      </trkpt>
      <trkpt lat="37.424036767" lon="-6.422514282">
        <ele>185.00</ele>
        <time>1899-12-29T23:00:00Z</time>
      </trkpt>
      <trkpt lat="37.424256708" lon="-6.422866657">
        <ele>186.00</ele>
        <time>1899-12-29T23:00:00Z</time>
      </trkpt>
      <trkpt lat="37.424453516" lon="-6.423131693">
        <ele>187.00</ele>
        <time>1899-12-29T23:00:00Z</time>
      </trkpt>
      <trkpt lat="37.424656022" lon="-6.423459258">
        <ele>187.00</ele>
        <time>1899-12-29T23:00:00Z</time>
      </trkpt>
      <trkpt lat="37.424882334" lon="-6.423906181">
        <ele>187.00</ele>
        <time>1899-12-29T23:00:00Z</time>
      </trkpt>
      <trkpt lat="37.425050810" lon="-6.424312200">
        <ele>186.00</ele>
        <time>1899-12-29T23:00:00Z</time>
      </trkpt>
      <trkpt lat="37.425281648" lon="-6.425119042">
        <ele>185.00</ele>
        <time>1899-12-29T23:00:00Z</time>
      </trkpt>
      <trkpt lat="37.425329424" lon="-6.425405033">
        <ele>187.00</ele>
        <time>1899-12-29T23:00:00Z</time>
      </trkpt>
      <trkpt lat="37.425418273" lon="-6.425824463">
        <ele>190.00</ele>
        <time>1899-12-29T23:00:00Z</time>
      </trkpt>
      <trkpt lat="37.425549366" lon="-6.426134091">
        <ele>189.00</ele>
        <time>1899-12-29T23:00:00Z</time>
      </trkpt>
      <trkpt lat="37.425647434" lon="-6.426472217">
        <ele>188.00</ele>
        <time>1899-12-29T23:00:00Z</time>
      </trkpt>
      <trkpt lat="37.425725721" lon="-6.426833142">
        <ele>187.00</ele>
        <time>1899-12-29T23:00:00Z</time>
      </trkpt>
      <trkpt lat="37.425740138" lon="-6.427228767">
        <ele>185.00</ele>
        <time>1899-12-29T23:00:00Z</time>
      </trkpt>
      <trkpt lat="37.425736953" lon="-6.427667812">
        <ele>183.00</ele>
        <time>1899-12-29T23:00:00Z</time>
      </trkpt>
      <trkpt lat="37.425718680" lon="-6.428088415">
        <ele>182.00</ele>
        <time>1899-12-29T23:00:00Z</time>
      </trkpt>
      <trkpt lat="37.425657157" lon="-6.428628042">
        <ele>182.00</ele>
        <time>1899-12-29T23:00:00Z</time>
      </trkpt>
      <trkpt lat="37.425591275" lon="-6.429194491">
        <ele>182.00</ele>
        <time>1899-12-29T23:00:00Z</time>
      </trkpt>
      <trkpt lat="37.425610721" lon="-6.429621968">
        <ele>180.00</ele>
        <time>1899-12-29T23:00:00Z</time>
      </trkpt>
      <trkpt lat="37.425597645" lon="-6.430043746">
        <ele>179.00</ele>
        <time>1899-12-29T23:00:00Z</time>
      </trkpt>
      <trkpt lat="37.425522376" lon="-6.430468876">
        <ele>179.00</ele>
        <time>1899-12-29T23:00:00Z</time>
      </trkpt>
      <trkpt lat="37.425410729" lon="-6.430917308">
        <ele>180.00</ele>
        <time>1899-12-29T23:00:00Z</time>
      </trkpt>
      <trkpt lat="37.425200846" lon="-6.431683581">
        <ele>180.00</ele>
        <time>1899-12-29T23:00:00Z</time>
      </trkpt>
      <trkpt lat="37.425194979" lon="-6.431895643">
        <ele>179.00</ele>
        <time>1899-12-29T23:00:00Z</time>
      </trkpt>
      <trkpt lat="37.425228339" lon="-6.432114411">
        <ele>178.00</ele>
        <time>1899-12-29T23:00:00Z</time>
      </trkpt>
      <trkpt lat="37.425321713" lon="-6.432537194">
        <ele>175.00</ele>
        <time>1899-12-29T23:00:00Z</time>
      </trkpt>
      <trkpt lat="37.425429672" lon="-6.433067266">
        <ele>173.00</ele>
        <time>1899-12-29T23:00:00Z</time>
      </trkpt>
      <trkpt lat="37.425631341" lon="-6.434060689">
        <ele>171.00</ele>
        <time>1899-12-29T23:00:00Z</time>
      </trkpt>
      <trkpt lat="37.425790932" lon="-6.435108762">
        <ele>174.00</ele>
        <time>1899-12-29T23:00:00Z</time>
      </trkpt>
      <trkpt lat="37.425900064" lon="-6.435612012">
        <ele>176.00</ele>
        <time>1899-12-29T23:00:00Z</time>
      </trkpt>
      <trkpt lat="37.426041383" lon="-6.436114591">
        <ele>179.00</ele>
        <time>1899-12-29T23:00:00Z</time>
      </trkpt>
      <trkpt lat="37.426333074" lon="-6.436613817">
        <ele>182.00</ele>
        <time>1899-12-29T23:00:00Z</time>
      </trkpt>
      <trkpt lat="37.426525354" lon="-6.436764691">
        <ele>182.00</ele>
        <time>1899-12-29T23:00:00Z</time>
      </trkpt>
      <trkpt lat="37.426707242" lon="-6.436848510">
        <ele>181.00</ele>
        <time>1899-12-29T23:00:00Z</time>
      </trkpt>
      <trkpt lat="37.427041680" lon="-6.436922103">
        <ele>178.00</ele>
        <time>1899-12-29T23:00:00Z</time>
      </trkpt>
      <trkpt lat="37.427268829" lon="-6.436971724">
        <ele>176.00</ele>
        <time>1899-12-29T23:00:00Z</time>
      </trkpt>
      <trkpt lat="37.427555658" lon="-6.437124610">
        <ele>175.00</ele>
        <time>1899-12-29T23:00:00Z</time>
      </trkpt>
      <trkpt lat="37.427701335" lon="-6.437205076">
        <ele>175.00</ele>
        <time>1899-12-29T23:00:00Z</time>
      </trkpt>
      <trkpt lat="37.427827735" lon="-6.437397357">
        <ele>177.00</ele>
        <time>1899-12-29T23:00:00Z</time>
      </trkpt>
      <trkpt lat="37.427883726" lon="-6.437683683">
        <ele>178.00</ele>
        <time>1899-12-29T23:00:00Z</time>
      </trkpt>
      <trkpt lat="37.427931838" lon="-6.437934302">
        <ele>179.00</ele>
        <time>1899-12-29T23:00:00Z</time>
      </trkpt>
      <trkpt lat="37.428062763" lon="-6.438575182">
        <ele>179.00</ele>
        <time>1899-12-29T23:00:00Z</time>
      </trkpt>
      <trkpt lat="37.428187151" lon="-6.439217068">
        <ele>174.00</ele>
        <time>1899-12-29T23:00:00Z</time>
      </trkpt>
      <trkpt lat="37.428265437" lon="-6.439731214">
        <ele>169.00</ele>
        <time>1899-12-29T23:00:00Z</time>
      </trkpt>
      <trkpt lat="37.428315226" lon="-6.440279558">
        <ele>164.00</ele>
        <time>1899-12-29T23:00:00Z</time>
      </trkpt>
      <trkpt lat="37.428337019" lon="-6.440737378">
        <ele>161.00</ele>
        <time>1899-12-29T23:00:00Z</time>
      </trkpt>
      <trkpt lat="37.428387646" lon="-6.441192850">
        <ele>159.00</ele>
        <time>1899-12-29T23:00:00Z</time>
      </trkpt>
      <trkpt lat="37.428400051" lon="-6.441641953">
        <ele>157.00</ele>
        <time>1899-12-29T23:00:00Z</time>
      </trkpt>
      <trkpt lat="37.428334001" lon="-6.442006063">
        <ele>155.00</ele>
        <time>1899-12-29T23:00:00Z</time>
      </trkpt>
      <trkpt lat="37.428230066" lon="-6.442509983">
        <ele>153.00</ele>
        <time>1899-12-29T23:00:00Z</time>
      </trkpt>
      <trkpt lat="37.428124454" lon="-6.443184894">
        <ele>150.00</ele>
        <time>1899-12-29T23:00:00Z</time>
      </trkpt>
      <trkpt lat="37.428077348" lon="-6.443550847">
        <ele>149.00</ele>
        <time>1899-12-29T23:00:00Z</time>
      </trkpt>
      <trkpt lat="37.428086568" lon="-6.444061138">
        <ele>149.00</ele>
        <time>1899-12-29T23:00:00Z</time>
      </trkpt>
      <trkpt lat="37.428048179" lon="-6.444842163">
        <ele>149.00</ele>
        <time>1899-12-29T23:00:00Z</time>
      </trkpt>
      <trkpt lat="37.428010963" lon="-6.445677336">
        <ele>149.00</ele>
        <time>1899-12-29T23:00:00Z</time>
      </trkpt>
      <trkpt lat="37.428053878" lon="-6.446393654">
        <ele>146.00</ele>
        <time>1899-12-29T23:00:00Z</time>
      </trkpt>
      <trkpt lat="37.428106181" lon="-6.447118353">
        <ele>143.00</ele>
        <time>1899-12-29T23:00:00Z</time>
      </trkpt>
      <trkpt lat="37.428265437" lon="-6.447715312">
        <ele>141.00</ele>
        <time>1899-12-29T23:00:00Z</time>
      </trkpt>
      <trkpt lat="37.428484708" lon="-6.448395252">
        <ele>138.00</ele>
        <time>1899-12-29T23:00:00Z</time>
      </trkpt>
      <trkpt lat="37.428546064" lon="-6.448887773">
        <ele>137.00</ele>
        <time>1899-12-29T23:00:00Z</time>
      </trkpt>
      <trkpt lat="37.428562660" lon="-6.449470650">
        <ele>136.00</ele>
        <time>1899-12-29T23:00:00Z</time>
      </trkpt>
      <trkpt lat="37.428652514" lon="-6.449998375">
        <ele>135.00</ele>
        <time>1899-12-29T23:00:00Z</time>
      </trkpt>
      <trkpt lat="37.428702973" lon="-6.450446472">
        <ele>132.00</ele>
        <time>1899-12-29T23:00:00Z</time>
      </trkpt>
      <trkpt lat="37.428747229" lon="-6.451012418">
        <ele>130.00</ele>
        <time>1899-12-29T23:00:00Z</time>
      </trkpt>
      <trkpt lat="37.428724598" lon="-6.451207381">
        <ele>130.00</ele>
        <time>1899-12-29T23:00:00Z</time>
      </trkpt>
      <trkpt lat="37.428707164" lon="-6.451405864">
        <ele>129.00</ele>
        <time>1899-12-29T23:00:00Z</time>
      </trkpt>
      <trkpt lat="37.428729795" lon="-6.451597810">
        <ele>129.00</ele>
        <time>1899-12-29T23:00:00Z</time>
      </trkpt>
      <trkpt lat="37.428903133" lon="-6.451744661">
        <ele>128.00</ele>
        <time>1899-12-29T23:00:00Z</time>
      </trkpt>
      <trkpt lat="37.429113351" lon="-6.451823954">
        <ele>128.00</ele>
        <time>1899-12-29T23:00:00Z</time>
      </trkpt>
      <trkpt lat="37.429345865" lon="-6.451919340">
        <ele>127.00</ele>
        <time>1899-12-29T23:00:00Z</time>
      </trkpt>
      <trkpt lat="37.429667059" lon="-6.452149674">
        <ele>126.00</ele>
        <time>1899-12-29T23:00:00Z</time>
      </trkpt>
      <trkpt lat="37.429774348" lon="-6.452342626">
        <ele>126.00</ele>
        <time>1899-12-29T23:00:00Z</time>
      </trkpt>
      <trkpt lat="37.429770492" lon="-6.452551838">
        <ele>126.00</ele>
        <time>1899-12-29T23:00:00Z</time>
      </trkpt>
      <trkpt lat="37.429723553" lon="-6.452865154">
        <ele>127.00</ele>
        <time>1899-12-29T23:00:00Z</time>
      </trkpt>
      <trkpt lat="37.429693714" lon="-6.453289781">
        <ele>127.00</ele>
        <time>1899-12-29T23:00:00Z</time>
      </trkpt>
      <trkpt lat="37.429669071" lon="-6.453602761">
        <ele>126.00</ele>
        <time>1899-12-29T23:00:00Z</time>
      </trkpt>
      <trkpt lat="37.429666724" lon="-6.453926302">
        <ele>126.00</ele>
        <time>1899-12-29T23:00:00Z</time>
      </trkpt>
      <trkpt lat="37.429694049" lon="-6.454461403">
        <ele>125.00</ele>
        <time>1899-12-29T23:00:00Z</time>
      </trkpt>
      <trkpt lat="37.429752052" lon="-6.455109660">
        <ele>124.00</ele>
        <time>1899-12-29T23:00:00Z</time>
      </trkpt>
      <trkpt lat="37.429810893" lon="-6.456351355">
        <ele>124.00</ele>
        <time>1899-12-29T23:00:00Z</time>
      </trkpt>
      <trkpt lat="37.429719362" lon="-6.457038000">
        <ele>125.00</ele>
        <time>1899-12-29T23:00:00Z</time>
      </trkpt>
      <trkpt lat="37.429491878" lon="-6.458222531">
        <ele>122.00</ele>
        <time>1899-12-29T23:00:00Z</time>
      </trkpt>
      <trkpt lat="37.429339830" lon="-6.459808555">
        <ele>119.00</ele>
        <time>1899-12-29T23:00:00Z</time>
      </trkpt>
      <trkpt lat="37.429301608" lon="-6.460923180">
        <ele>121.00</ele>
        <time>1899-12-29T23:00:00Z</time>
      </trkpt>
      <trkpt lat="37.429270428" lon="-6.461595073">
        <ele>121.00</ele>
        <time>1899-12-29T23:00:00Z</time>
      </trkpt>
      <trkpt lat="37.429228351" lon="-6.462293621">
        <ele>119.00</ele>
        <time>1899-12-29T23:00:00Z</time>
      </trkpt>
      <trkpt lat="37.429085355" lon="-6.462843809">
        <ele>118.00</ele>
        <time>1899-12-29T23:00:00Z</time>
      </trkpt>
      <trkpt lat="37.428920567" lon="-6.463185456">
        <ele>117.00</ele>
        <time>1899-12-29T23:00:00Z</time>
      </trkpt>
      <trkpt lat="37.428654190" lon="-6.463991627">
        <ele>115.00</ele>
        <time>1899-12-29T23:00:00Z</time>
      </trkpt>
      <trkpt lat="37.428553272" lon="-6.464715824">
        <ele>115.00</ele>
        <time>1899-12-29T23:00:00Z</time>
      </trkpt>
      <trkpt lat="37.428427543" lon="-6.465318650">
        <ele>114.00</ele>
        <time>1899-12-29T23:00:00Z</time>
      </trkpt>
      <trkpt lat="37.428301144" lon="-6.466474347">
        <ele>112.00</ele>
        <time>1899-12-29T23:00:00Z</time>
      </trkpt>
      <trkpt lat="37.428326458" lon="-6.467105839">
        <ele>112.00</ele>
        <time>1899-12-29T23:00:00Z</time>
      </trkpt>
      <trkpt lat="37.428357303" lon="-6.468008906">
        <ele>112.00</ele>
        <time>1899-12-29T23:00:00Z</time>
      </trkpt>
      <trkpt lat="37.428340539" lon="-6.468577031">
        <ele>111.00</ele>
        <time>1899-12-29T23:00:00Z</time>
      </trkpt>
      <trkpt lat="37.428254373" lon="-6.468906607">
        <ele>111.00</ele>
        <time>1899-12-29T23:00:00Z</time>
      </trkpt>
      <trkpt lat="37.427873500" lon="-6.469641030">
        <ele>111.00</ele>
        <time>1899-12-29T23:00:00Z</time>
      </trkpt>
      <trkpt lat="37.427431773" lon="-6.470537558">
        <ele>109.00</ele>
        <time>1899-12-29T23:00:00Z</time>
      </trkpt>
      <trkpt lat="37.426805310" lon="-6.472046468">
        <ele>110.00</ele>
        <time>1899-12-29T23:00:00Z</time>
      </trkpt>
      <trkpt lat="37.426490653" lon="-6.472883485">
        <ele>110.00</ele>
        <time>1899-12-29T23:00:00Z</time>
      </trkpt>
      <trkpt lat="37.426149175" lon="-6.473861486">
        <ele>108.00</ele>
        <time>1899-12-29T23:00:00Z</time>
      </trkpt>
      <trkpt lat="37.425760590" lon="-6.474954654">
        <ele>109.00</ele>
        <time>1899-12-29T23:00:00Z</time>
      </trkpt>
      <trkpt lat="37.425383739" lon="-6.475702319">
        <ele>108.00</ele>
        <time>1899-12-29T23:00:00Z</time>
      </trkpt>
      <trkpt lat="37.424967829" lon="-6.476593483">
        <ele>108.00</ele>
        <time>1899-12-29T23:00:00Z</time>
      </trkpt>
      <trkpt lat="37.424594332" lon="-6.477559749">
        <ele>107.00</ele>
        <time>1899-12-29T23:00:00Z</time>
      </trkpt>
      <trkpt lat="37.424219828" lon="-6.478424091">
        <ele>107.00</ele>
        <time>1899-12-29T23:00:00Z</time>
      </trkpt>
      <trkpt lat="37.423903160" lon="-6.479280554">
        <ele>105.00</ele>
        <time>1899-12-29T23:00:00Z</time>
      </trkpt>
      <trkpt lat="37.423406951" lon="-6.480542030">
        <ele>107.00</ele>
        <time>1899-12-29T23:00:00Z</time>
      </trkpt>
      <trkpt lat="37.422831785" lon="-6.482083630">
        <ele>103.00</ele>
        <time>1899-12-29T23:00:00Z</time>
      </trkpt>
      <trkpt lat="37.422062494" lon="-6.484237947">
        <ele>101.00</ele>
        <time>1899-12-29T23:00:00Z</time>
      </trkpt>
      <trkpt lat="37.421730068" lon="-6.485471763">
        <ele>99.00</ele>
        <time>1899-12-29T23:00:00Z</time>
      </trkpt>
      <trkpt lat="37.421336621" lon="-6.487139091">
        <ele>98.00</ele>
        <time>1899-12-29T23:00:00Z</time>
      </trkpt>
      <trkpt lat="37.420869749" lon="-6.489297431">
        <ele>97.00</ele>
        <time>1899-12-29T23:00:00Z</time>
      </trkpt>
      <trkpt lat="37.420592979" lon="-6.489966642">
        <ele>97.00</ele>
        <time>1899-12-29T23:00:00Z</time>
      </trkpt>
      <trkpt lat="37.420088388" lon="-6.491188388">
        <ele>96.00</ele>
        <time>1899-12-29T23:00:00Z</time>
      </trkpt>
      <trkpt lat="37.419769540" lon="-6.492217015">
        <ele>97.00</ele>
        <time>1899-12-29T23:00:00Z</time>
      </trkpt>
      <trkpt lat="37.419486903" lon="-6.493349578">
        <ele>98.00</ele>
        <time>1899-12-29T23:00:00Z</time>
      </trkpt>
      <trkpt lat="37.419264447" lon="-6.493670102">
        <ele>99.00</ele>
        <time>1899-12-29T23:00:00Z</time>
      </trkpt>
      <trkpt lat="37.420034241" lon="-6.494792607">
        <ele>98.00</ele>
        <time>1899-12-29T23:00:00Z</time>
      </trkpt>
      <trkpt lat="37.420637906" lon="-6.495861802">
        <ele>96.00</ele>
        <time>1899-12-29T23:00:00Z</time>
      </trkpt>
      <trkpt lat="37.421452291" lon="-6.497376412">
        <ele>95.00</ele>
        <time>1899-12-29T23:00:00Z</time>
      </trkpt>
      <trkpt lat="37.422529534" lon="-6.499388907">
        <ele>91.00</ele>
        <time>1899-12-29T23:00:00Z</time>
      </trkpt>
      <trkpt lat="37.423246522" lon="-6.500974763">
        <ele>89.00</ele>
        <time>1899-12-29T23:00:00Z</time>
      </trkpt>
      <trkpt lat="37.424150426" lon="-6.502482835">
        <ele>89.00</ele>
        <time>1899-12-29T23:00:00Z</time>
      </trkpt>
      <trkpt lat="37.424745038" lon="-6.503520180">
        <ele>89.00</ele>
        <time>1899-12-29T23:00:00Z</time>
      </trkpt>
      <trkpt lat="37.426199969" lon="-6.505032443">
        <ele>87.00</ele>
        <time>1899-12-29T23:00:00Z</time>
      </trkpt>
      <trkpt lat="37.428053711" lon="-6.506996993">
        <ele>85.00</ele>
        <time>1899-12-29T23:00:00Z</time>
      </trkpt>
      <trkpt lat="37.429587767" lon="-6.508679241">
        <ele>85.00</ele>
        <time>1899-12-29T23:00:00Z</time>
      </trkpt>
      <trkpt lat="37.430938929" lon="-6.510108020">
        <ele>84.00</ele>
        <time>1899-12-29T23:00:00Z</time>
      </trkpt>
      <trkpt lat="37.431802768" lon="-6.510840096">
        <ele>83.00</ele>
        <time>1899-12-29T23:00:00Z</time>
      </trkpt>
      <trkpt lat="37.432400230" lon="-6.511459854">
        <ele>83.00</ele>
        <time>1899-12-29T23:00:00Z</time>
      </trkpt>
      <trkpt lat="37.432898451" lon="-6.512327883">
        <ele>83.00</ele>
        <time>1899-12-29T23:00:00Z</time>
      </trkpt>
      <trkpt lat="37.433631029" lon="-6.513469666">
        <ele>83.00</ele>
        <time>1899-12-29T23:00:00Z</time>
      </trkpt>
      <trkpt lat="37.434268221" lon="-6.514517069">
        <ele>84.00</ele>
        <time>1899-12-29T23:00:00Z</time>
      </trkpt>
      <trkpt lat="37.435777634" lon="-6.516939104">
        <ele>87.00</ele>
        <time>1899-12-29T23:00:00Z</time>
      </trkpt>
      <trkpt lat="37.436711714" lon="-6.518484056">
        <ele>85.00</ele>
        <time>1899-12-29T23:00:00Z</time>
      </trkpt>
      <trkpt lat="37.437828854" lon="-6.520314328">
        <ele>90.00</ele>
        <time>1899-12-29T23:00:00Z</time>
      </trkpt>
      <trkpt lat="37.438559588" lon="-6.521327868">
        <ele>93.00</ele>
        <time>1899-12-29T23:00:00Z</time>
      </trkpt>
      <trkpt lat="37.439411357" lon="-6.522456575">
        <ele>92.00</ele>
        <time>1899-12-29T23:00:00Z</time>
      </trkpt>
      <trkpt lat="37.439945117" lon="-6.522767041">
        <ele>93.00</ele>
        <time>1899-12-29T23:00:00Z</time>
      </trkpt>
      <trkpt lat="37.440529503" lon="-6.523044482">
        <ele>96.00</ele>
        <time>1899-12-29T23:00:00Z</time>
      </trkpt>
      <trkpt lat="37.440885566" lon="-6.523497775">
        <ele>98.00</ele>
        <time>1899-12-29T23:00:00Z</time>
      </trkpt>
      <trkpt lat="37.441419829" lon="-6.524367481">
        <ele>99.00</ele>
        <time>1899-12-29T23:00:00Z</time>
      </trkpt>
      <trkpt lat="37.441759128" lon="-6.525352187">
        <ele>99.00</ele>
        <time>1899-12-29T23:00:00Z</time>
      </trkpt>
      <trkpt lat="37.442100439" lon="-6.526487600">
        <ele>99.00</ele>
        <time>1899-12-29T23:00:00Z</time>
      </trkpt>
      <trkpt lat="37.442349046" lon="-6.527107693">
        <ele>100.00</ele>
        <time>1899-12-29T23:00:00Z</time>
      </trkpt>
      <trkpt lat="37.442747355" lon="-6.527782101">
        <ele>101.00</ele>
        <time>1899-12-29T23:00:00Z</time>
      </trkpt>
      <trkpt lat="37.443229817" lon="-6.528318375">
        <ele>100.00</ele>
        <time>1899-12-29T23:00:00Z</time>
      </trkpt>
      <trkpt lat="37.443480100" lon="-6.528629512">
        <ele>100.00</ele>
        <time>1899-12-29T23:00:00Z</time>
      </trkpt>
      <trkpt lat="37.443661988" lon="-6.528822463">
        <ele>100.00</ele>
        <time>1899-12-29T23:00:00Z</time>
      </trkpt>
      <trkpt lat="37.443859465" lon="-6.529093534">
        <ele>100.00</ele>
        <time>1899-12-29T23:00:00Z</time>
      </trkpt>
      <trkpt lat="37.444088962" lon="-6.529480778">
        <ele>99.00</ele>
        <time>1899-12-29T23:00:00Z</time>
      </trkpt>
      <trkpt lat="37.444312926" lon="-6.530040521">
        <ele>98.00</ele>
        <time>1899-12-29T23:00:00Z</time>
      </trkpt>
      <trkpt lat="37.444771752" lon="-6.531177275">
        <ele>99.00</ele>
        <time>1899-12-29T23:00:00Z</time>
      </trkpt>
      <trkpt lat="37.445411794" lon="-6.532308161">
        <ele>99.00</ele>
        <time>1899-12-29T23:00:00Z</time>
      </trkpt>
      <trkpt lat="37.445954438" lon="-6.533412058">
        <ele>101.00</ele>
        <time>1899-12-29T23:00:00Z</time>
      </trkpt>
      <trkpt lat="37.446711659" lon="-6.534948461">
        <ele>107.00</ele>
        <time>1899-12-29T23:00:00Z</time>
      </trkpt>
      <trkpt lat="37.447185405" lon="-6.536221337">
        <ele>104.00</ele>
        <time>1899-12-29T23:00:00Z</time>
      </trkpt>
      <trkpt lat="37.447692510" lon="-6.537596304">
        <ele>97.00</ele>
        <time>1899-12-29T23:00:00Z</time>
      </trkpt>
      <trkpt lat="37.447822597" lon="-6.538216062">
        <ele>94.00</ele>
        <time>1899-12-29T23:00:00Z</time>
      </trkpt>
      <trkpt lat="37.447918318" lon="-6.539304871">
        <ele>91.00</ele>
        <time>1899-12-29T23:00:00Z</time>
      </trkpt>
      <trkpt lat="37.448099870" lon="-6.539941225">
        <ele>88.00</ele>
        <time>1899-12-29T23:00:00Z</time>
      </trkpt>
      <trkpt lat="37.448345460" lon="-6.540492922">
        <ele>89.00</ele>
        <time>1899-12-29T23:00:00Z</time>
      </trkpt>
      <trkpt lat="37.448801771" lon="-6.540624686">
        <ele>85.00</ele>
        <time>1899-12-29T23:00:00Z</time>
      </trkpt>
      <trkpt lat="37.449091449" lon="-6.540835407">
        <ele>81.00</ele>
        <time>1899-12-29T23:00:00Z</time>
      </trkpt>
      <trkpt lat="37.449357156" lon="-6.540946048">
        <ele>80.00</ele>
        <time>1899-12-29T23:00:00Z</time>
      </trkpt>
      <trkpt lat="37.449689750" lon="-6.541109495">
        <ele>79.00</ele>
        <time>1899-12-29T23:00:00Z</time>
      </trkpt>
      <trkpt lat="37.449723613" lon="-6.541328598">
        <ele>78.00</ele>
        <time>1899-12-29T23:00:00Z</time>
      </trkpt>
      <trkpt lat="37.449580617" lon="-6.541837882">
        <ele>78.00</ele>
        <time>1899-12-29T23:00:00Z</time>
      </trkpt>
      <trkpt lat="37.449481376" lon="-6.542345826">
        <ele>78.00</ele>
        <time>1899-12-29T23:00:00Z</time>
      </trkpt>
      <trkpt lat="37.449513394" lon="-6.542831138">
        <ele>78.00</ele>
        <time>1899-12-29T23:00:00Z</time>
      </trkpt>
      <trkpt lat="37.449598555" lon="-6.543406472">
        <ele>78.00</ele>
        <time>1899-12-29T23:00:00Z</time>
      </trkpt>
      <trkpt lat="37.449549269" lon="-6.543848533">
        <ele>78.00</ele>
        <time>1899-12-29T23:00:00Z</time>
      </trkpt>
      <trkpt lat="37.450176738" lon="-6.544306353">
        <ele>85.00</ele>
        <time>1899-12-29T23:00:00Z</time>
      </trkpt>
      <trkpt lat="37.450374383" lon="-6.544357818">
        <ele>86.00</ele>
        <time>1899-12-29T23:00:00Z</time>
      </trkpt>
      <trkpt lat="37.450616620" lon="-6.544335522">
        <ele>87.00</ele>
        <time>1899-12-29T23:00:00Z</time>
      </trkpt>
      <trkpt lat="37.450775541" lon="-6.544475332">
        <ele>88.00</ele>
        <time>1899-12-29T23:00:00Z</time>
      </trkpt>
      <trkpt lat="37.450911999" lon="-6.544369217">
        <ele>89.00</ele>
        <time>1899-12-29T23:00:00Z</time>
      </trkpt>
      <trkpt lat="37.450935133" lon="-6.544093117">
        <ele>89.00</ele>
        <time>1899-12-29T23:00:00Z</time>
      </trkpt>
      <trkpt lat="37.451098915" lon="-6.543906536">
        <ele>89.00</ele>
        <time>1899-12-29T23:00:00Z</time>
      </trkpt>
      <trkpt lat="37.451372165" lon="-6.543984488">
        <ele>91.00</ele>
        <time>1899-12-29T23:00:00Z</time>
      </trkpt>
      <trkpt lat="37.451500744" lon="-6.544328313">
        <ele>92.00</ele>
        <time>1899-12-29T23:00:00Z</time>
      </trkpt>
      <trkpt lat="37.451719344" lon="-6.544284895">
        <ele>93.00</ele>
        <time>1899-12-29T23:00:00Z</time>
      </trkpt>
      <trkpt lat="37.452157047" lon="-6.544205267">
        <ele>94.00</ele>
        <time>1899-12-29T23:00:00Z</time>
      </trkpt>
      <trkpt lat="37.452363074" lon="-6.544296630">
        <ele>93.00</ele>
        <time>1899-12-29T23:00:00Z</time>
      </trkpt>
      <trkpt lat="37.452505399" lon="-6.544409115">
        <ele>92.00</ele>
        <time>1899-12-29T23:00:00Z</time>
      </trkpt>
      <trkpt lat="37.452586368" lon="-6.544483043">
        <ele>92.00</ele>
        <time>1899-12-29T23:00:00Z</time>
      </trkpt>
      <trkpt lat="37.452656105" lon="-6.544581447">
        <ele>91.00</ele>
        <time>1899-12-29T23:00:00Z</time>
      </trkpt>
      <trkpt lat="37.452787366" lon="-6.544613130">
        <ele>92.00</ele>
        <time>1899-12-29T23:00:00Z</time>
      </trkpt>
      <trkpt lat="37.452926841" lon="-6.544665936">
        <ele>93.00</ele>
        <time>1899-12-29T23:00:00Z</time>
      </trkpt>
      <trkpt lat="37.452929690" lon="-6.544799544">
        <ele>92.00</ele>
        <time>1899-12-29T23:00:00Z</time>
      </trkpt>
      <trkpt lat="37.452949304" lon="-6.545049157">
        <ele>90.00</ele>
        <time>1899-12-29T23:00:00Z</time>
      </trkpt>
      <trkpt lat="37.453024741" lon="-6.545165163">
        <ele>89.00</ele>
        <time>1899-12-29T23:00:00Z</time>
      </trkpt>
      <trkpt lat="37.453119624" lon="-6.545256525">
        <ele>89.00</ele>
        <time>1899-12-29T23:00:00Z</time>
      </trkpt>
      <trkpt lat="37.453228589" lon="-6.545305811">
        <ele>89.00</ele>
        <time>1899-12-29T23:00:00Z</time>
      </trkpt>
      <trkpt lat="37.453379296" lon="-6.545256525">
        <ele>91.00</ele>
        <time>1899-12-29T23:00:00Z</time>
      </trkpt>
      <trkpt lat="37.453415506" lon="-6.545112357">
        <ele>94.00</ele>
        <time>1899-12-29T23:00:00Z</time>
      </trkpt>
      <trkpt lat="37.453537546" lon="-6.545008421">
        <ele>96.00</ele>
        <time>1899-12-29T23:00:00Z</time>
      </trkpt>
      <trkpt lat="37.453666627" lon="-6.545049157">
        <ele>97.00</ele>
        <time>1899-12-29T23:00:00Z</time>
      </trkpt>
      <trkpt lat="37.453630418" lon="-6.545397174">
        <ele>91.00</ele>
        <time>1899-12-29T23:00:00Z</time>
      </trkpt>
      <trkpt lat="37.453562524" lon="-6.545652822">
        <ele>87.00</ele>
        <time>1899-12-29T23:00:00Z</time>
      </trkpt>
      <trkpt lat="37.453619186" lon="-6.545914002">
        <ele>84.00</ele>
        <time>1899-12-29T23:00:00Z</time>
      </trkpt>
      <trkpt lat="37.453599740" lon="-6.546184905">
        <ele>82.00</ele>
        <time>1899-12-29T23:00:00Z</time>
      </trkpt>
      <trkpt lat="37.453549448" lon="-6.546416916">
        <ele>80.00</ele>
        <time>1899-12-29T23:00:00Z</time>
      </trkpt>
      <trkpt lat="37.453499325" lon="-6.546589248">
        <ele>78.00</ele>
        <time>1899-12-29T23:00:00Z</time>
      </trkpt>
      <trkpt lat="37.453379128" lon="-6.546663009">
        <ele>78.00</ele>
        <time>1899-12-29T23:00:00Z</time>
      </trkpt>
      <trkpt lat="37.453256249" lon="-6.546663009">
        <ele>78.00</ele>
        <time>1899-12-29T23:00:00Z</time>
      </trkpt>
      <trkpt lat="37.453147452" lon="-6.546733249">
        <ele>78.00</ele>
        <time>1899-12-29T23:00:00Z</time>
      </trkpt>
      <trkpt lat="37.453111243" lon="-6.546891499">
        <ele>81.00</ele>
        <time>1899-12-29T23:00:00Z</time>
      </trkpt>
      <trkpt lat="37.453250885" lon="-6.547077913">
        <ele>84.00</ele>
        <time>1899-12-29T23:00:00Z</time>
      </trkpt>
      <trkpt lat="37.453325987" lon="-6.547244042">
        <ele>87.00</ele>
        <time>1899-12-29T23:00:00Z</time>
      </trkpt>
      <trkpt lat="37.453350127" lon="-6.547431294">
        <ele>89.00</ele>
        <time>1899-12-29T23:00:00Z</time>
      </trkpt>
      <trkpt lat="37.453374267" lon="-6.547771096">
        <ele>90.00</ele>
        <time>1899-12-29T23:00:00Z</time>
      </trkpt>
      <trkpt lat="37.453395221" lon="-6.548015177">
        <ele>91.00</ele>
        <time>1899-12-29T23:00:00Z</time>
      </trkpt>
      <trkpt lat="37.453481723" lon="-6.548167728">
        <ele>91.00</ele>
        <time>1899-12-29T23:00:00Z</time>
      </trkpt>
      <trkpt lat="37.453696132" lon="-6.548376773">
        <ele>92.00</ele>
        <time>1899-12-29T23:00:00Z</time>
      </trkpt>
      <trkpt lat="37.453858741" lon="-6.548550949">
        <ele>93.00</ele>
        <time>1899-12-29T23:00:00Z</time>
      </trkpt>
      <trkpt lat="37.453945242" lon="-6.548855882">
        <ele>94.00</ele>
        <time>1899-12-29T23:00:00Z</time>
      </trkpt>
      <trkpt lat="37.454118077" lon="-6.549243629">
        <ele>95.00</ele>
        <time>1899-12-29T23:00:00Z</time>
      </trkpt>
      <trkpt lat="37.454391327" lon="-6.549727097">
        <ele>94.00</ele>
        <time>1899-12-29T23:00:00Z</time>
      </trkpt>
      <trkpt lat="37.454719897" lon="-6.550132278">
        <ele>96.00</ele>
        <time>1899-12-29T23:00:00Z</time>
      </trkpt>
      <trkpt lat="37.454958446" lon="-6.550306454">
        <ele>99.00</ele>
        <time>1899-12-29T23:00:00Z</time>
      </trkpt>
      <trkpt lat="37.455158941" lon="-6.550615747">
        <ele>100.00</ele>
        <time>1899-12-29T23:00:00Z</time>
      </trkpt>
      <trkpt lat="37.455501258" lon="-6.550994776">
        <ele>102.00</ele>
        <time>1899-12-29T23:00:00Z</time>
      </trkpt>
      <trkpt lat="37.455964610" lon="-6.551417392">
        <ele>101.00</ele>
        <time>1899-12-29T23:00:00Z</time>
      </trkpt>
      <trkpt lat="37.456223946" lon="-6.551639512">
        <ele>101.00</ele>
        <time>1899-12-29T23:00:00Z</time>
      </trkpt>
      <trkpt lat="37.456338108" lon="-6.551835481">
        <ele>102.00</ele>
        <time>1899-12-29T23:00:00Z</time>
      </trkpt>
      <trkpt lat="37.456576489" lon="-6.551961713">
        <ele>103.00</ele>
        <time>1899-12-29T23:00:00Z</time>
      </trkpt>
      <trkpt lat="37.456787378" lon="-6.551987864">
        <ele>103.00</ele>
        <time>1899-12-29T23:00:00Z</time>
      </trkpt>
      <trkpt lat="37.456922326" lon="-6.552040167">
        <ele>103.00</ele>
        <time>1899-12-29T23:00:00Z</time>
      </trkpt>
      <trkpt lat="37.457015701" lon="-6.552231777">
        <ele>102.00</ele>
        <time>1899-12-29T23:00:00Z</time>
      </trkpt>
      <trkpt lat="37.457143608" lon="-6.552384328">
        <ele>101.00</ele>
        <time>1899-12-29T23:00:00Z</time>
      </trkpt>
      <trkpt lat="37.457323484" lon="-6.552358177">
        <ele>102.00</ele>
        <time>1899-12-29T23:00:00Z</time>
      </trkpt>
      <trkpt lat="37.457548287" lon="-6.552310232">
        <ele>103.00</ele>
        <time>1899-12-29T23:00:00Z</time>
      </trkpt>
      <trkpt lat="37.457717769" lon="-6.552236136">
        <ele>105.00</ele>
        <time>1899-12-29T23:00:00Z</time>
      </trkpt>
      <trkpt lat="37.458066959" lon="-6.552053243">
        <ele>109.00</ele>
        <time>1899-12-29T23:00:00Z</time>
      </trkpt>
      <trkpt lat="37.458208781" lon="-6.551896334">
        <ele>110.00</ele>
        <time>1899-12-29T23:00:00Z</time>
      </trkpt>
      <trkpt lat="37.458319422" lon="-6.551883258">
        <ele>111.00</ele>
        <time>1899-12-29T23:00:00Z</time>
      </trkpt>
      <trkpt lat="37.458457723" lon="-6.551909409">
        <ele>111.00</ele>
        <time>1899-12-29T23:00:00Z</time>
      </trkpt>
      <trkpt lat="37.457942571" lon="-6.552776266">
        <ele>106.00</ele>
        <time>1899-12-29T23:00:00Z</time>
      </trkpt>
      <trkpt lat="37.457821537" lon="-6.553233750">
        <ele>103.00</ele>
        <time>1899-12-29T23:00:00Z</time>
      </trkpt>
      <trkpt lat="37.457748950" lon="-6.553686876">
        <ele>104.00</ele>
        <time>1899-12-29T23:00:00Z</time>
      </trkpt>
      <trkpt lat="37.457641829" lon="-6.553996168">
        <ele>105.00</ele>
        <time>1899-12-29T23:00:00Z</time>
      </trkpt>
      <trkpt lat="37.457430940" lon="-6.554261874">
        <ele>106.00</ele>
        <time>1899-12-29T23:00:00Z</time>
      </trkpt>
      <trkpt lat="37.457123157" lon="-6.554457843">
        <ele>106.00</ele>
        <time>1899-12-29T23:00:00Z</time>
      </trkpt>
      <trkpt lat="37.456756532" lon="-6.554606035">
        <ele>106.00</ele>
        <time>1899-12-29T23:00:00Z</time>
      </trkpt>
      <trkpt lat="37.456438188" lon="-6.554845590">
        <ele>106.00</ele>
        <time>1899-12-29T23:00:00Z</time>
      </trkpt>
      <trkpt lat="37.456123531" lon="-6.555185392">
        <ele>105.00</ele>
        <time>1899-12-29T23:00:00Z</time>
      </trkpt>
      <trkpt lat="37.455915995" lon="-6.555403154">
        <ele>104.00</ele>
        <time>1899-12-29T23:00:00Z</time>
      </trkpt>
      <trkpt lat="37.455732767" lon="-6.555494685">
        <ele>104.00</ele>
        <time>1899-12-29T23:00:00Z</time>
      </trkpt>
      <trkpt lat="37.455445770" lon="-6.555520836">
        <ele>105.00</ele>
        <time>1899-12-29T23:00:00Z</time>
      </trkpt>
      <trkpt lat="37.455134466" lon="-6.555594932">
        <ele>105.00</ele>
        <time>1899-12-29T23:00:00Z</time>
      </trkpt>
      <trkpt lat="37.454909664" lon="-6.555751842">
        <ele>105.00</ele>
        <time>1899-12-29T23:00:00Z</time>
      </trkpt>
      <trkpt lat="37.454733308" lon="-6.555960886">
        <ele>104.00</ele>
        <time>1899-12-29T23:00:00Z</time>
      </trkpt>
      <trkpt lat="37.454581093" lon="-6.556339916">
        <ele>101.00</ele>
        <time>1899-12-29T23:00:00Z</time>
      </trkpt>
      <trkpt lat="37.454425525" lon="-6.556945425">
        <ele>98.00</ele>
        <time>1899-12-29T23:00:00Z</time>
      </trkpt>
      <trkpt lat="37.454259563" lon="-6.557276510">
        <ele>99.00</ele>
        <time>1899-12-29T23:00:00Z</time>
      </trkpt>
      <trkpt lat="37.453982960" lon="-6.557516064">
        <ele>102.00</ele>
        <time>1899-12-29T23:00:00Z</time>
      </trkpt>
      <trkpt lat="37.453605942" lon="-6.557659898">
        <ele>106.00</ele>
        <time>1899-12-29T23:00:00Z</time>
      </trkpt>
      <trkpt lat="37.452989202" lon="-6.557861567">
        <ele>110.00</ele>
        <time>1899-12-29T23:00:00Z</time>
      </trkpt>
      <trkpt lat="37.452539597" lon="-6.558183935">
        <ele>110.00</ele>
        <time>1899-12-29T23:00:00Z</time>
      </trkpt>
      <trkpt lat="37.452228293" lon="-6.558641419">
        <ele>105.00</ele>
        <time>1899-12-29T23:00:00Z</time>
      </trkpt>
      <trkpt lat="37.451986223" lon="-6.559190266">
        <ele>102.00</ele>
        <time>1899-12-29T23:00:00Z</time>
      </trkpt>
      <trkpt lat="37.451926544" lon="-6.559592094">
        <ele>102.00</ele>
        <time>1899-12-29T23:00:00Z</time>
      </trkpt>
      <trkpt lat="37.451878935" lon="-6.560065839">
        <ele>103.00</ele>
        <time>1899-12-29T23:00:00Z</time>
      </trkpt>
      <trkpt lat="37.451892849" lon="-6.560714934">
        <ele>99.00</ele>
        <time>1899-12-29T23:00:00Z</time>
      </trkpt>
      <trkpt lat="37.451830655" lon="-6.561603583">
        <ele>98.00</ele>
        <time>1899-12-29T23:00:00Z</time>
      </trkpt>
      <trkpt lat="37.451756895" lon="-6.562846620">
        <ele>90.00</ele>
        <time>1899-12-29T23:00:00Z</time>
      </trkpt>
      <trkpt lat="37.451882455" lon="-6.563415751">
        <ele>87.00</ele>
        <time>1899-12-29T23:00:00Z</time>
      </trkpt>
      <trkpt lat="37.451998629" lon="-6.563764606">
        <ele>90.00</ele>
        <time>1899-12-29T23:00:00Z</time>
      </trkpt>
      <trkpt lat="37.452167608" lon="-6.564062499">
        <ele>91.00</ele>
        <time>1899-12-29T23:00:00Z</time>
      </trkpt>
      <trkpt lat="37.452231813" lon="-6.564278249">
        <ele>91.00</ele>
        <time>1899-12-29T23:00:00Z</time>
      </trkpt>
      <trkpt lat="37.452251930" lon="-6.564578824">
        <ele>92.00</ele>
        <time>1899-12-29T23:00:00Z</time>
      </trkpt>
      <trkpt lat="37.452166099" lon="-6.564896833">
        <ele>95.00</ele>
        <time>1899-12-29T23:00:00Z</time>
      </trkpt>
      <trkpt lat="37.452065684" lon="-6.565127671">
        <ele>95.00</ele>
        <time>1899-12-29T23:00:00Z</time>
      </trkpt>
      <trkpt lat="37.451920509" lon="-6.565314922">
        <ele>95.00</ele>
        <time>1899-12-29T23:00:00Z</time>
      </trkpt>
      <trkpt lat="37.451709621" lon="-6.565493625">
        <ele>97.00</ele>
        <time>1899-12-29T23:00:00Z</time>
      </trkpt>
      <trkpt lat="37.451274265" lon="-6.565779448">
        <ele>98.00</ele>
        <time>1899-12-29T23:00:00Z</time>
      </trkpt>
      <trkpt lat="37.451052479" lon="-6.565942224">
        <ele>98.00</ele>
        <time>1899-12-29T23:00:00Z</time>
      </trkpt>
      <trkpt lat="37.450869251" lon="-6.566177420">
        <ele>98.00</ele>
        <time>1899-12-29T23:00:00Z</time>
      </trkpt>
      <trkpt lat="37.450727429" lon="-6.566630546">
        <ele>96.00</ele>
        <time>1899-12-29T23:00:00Z</time>
      </trkpt>
      <trkpt lat="37.450739834" lon="-6.567101441">
        <ele>90.00</ele>
        <time>1899-12-29T23:00:00Z</time>
      </trkpt>
      <trkpt lat="37.450778391" lon="-6.568002999">
        <ele>82.00</ele>
        <time>1899-12-29T23:00:00Z</time>
      </trkpt>
      <trkpt lat="37.450715024" lon="-6.568316650">
        <ele>81.00</ele>
        <time>1899-12-29T23:00:00Z</time>
      </trkpt>
      <trkpt lat="37.450409420" lon="-6.568795759">
        <ele>83.00</ele>
        <time>1899-12-29T23:00:00Z</time>
      </trkpt>
      <trkpt lat="37.450060565" lon="-6.569140423">
        <ele>87.00</ele>
        <time>1899-12-29T23:00:00Z</time>
      </trkpt>
      <trkpt lat="37.449916732" lon="-6.569376960">
        <ele>84.00</ele>
        <time>1899-12-29T23:00:00Z</time>
      </trkpt>
      <trkpt lat="37.449853029" lon="-6.569785997">
        <ele>76.00</ele>
        <time>1899-12-29T23:00:00Z</time>
      </trkpt>
      <trkpt lat="37.450009938" lon="-6.569883898">
        <ele>73.00</ele>
        <time>1899-12-29T23:00:00Z</time>
      </trkpt>
      <trkpt lat="37.450297941" lon="-6.569664292">
        <ele>73.00</ele>
        <time>1899-12-29T23:00:00Z</time>
      </trkpt>
      <trkpt lat="37.450465914" lon="-6.569846682">
        <ele>67.00</ele>
        <time>1899-12-29T23:00:00Z</time>
      </trkpt>
      <trkpt lat="37.450729944" lon="-6.569672674">
        <ele>67.00</ele>
        <time>1899-12-29T23:00:00Z</time>
      </trkpt>
      <trkpt lat="37.450919207" lon="-6.569854394">
        <ele>62.00</ele>
        <time>1899-12-29T23:00:00Z</time>
      </trkpt>
      <trkpt lat="37.451209556" lon="-6.569775604">
        <ele>61.00</ele>
        <time>1899-12-29T23:00:00Z</time>
      </trkpt>
      <trkpt lat="37.451770809" lon="-6.569485255">
        <ele>62.00</ele>
        <time>1899-12-29T23:00:00Z</time>
      </trkpt>
      <trkpt lat="37.452654429" lon="-6.569544431">
        <ele>58.00</ele>
        <time>1899-12-29T23:00:00Z</time>
      </trkpt>
      <trkpt lat="37.453443669" lon="-6.569782309">
        <ele>57.00</ele>
        <time>1899-12-29T23:00:00Z</time>
      </trkpt>
      <trkpt lat="37.453634441" lon="-6.569864117">
        <ele>60.00</ele>
        <time>1899-12-29T23:00:00Z</time>
      </trkpt>
      <trkpt lat="37.453652378" lon="-6.570056733">
        <ele>60.00</ele>
        <time>1899-12-29T23:00:00Z</time>
      </trkpt>
      <trkpt lat="37.452792395" lon="-6.570119765">
        <ele>55.00</ele>
        <time>1899-12-29T23:00:00Z</time>
      </trkpt>
      <trkpt lat="37.452364750" lon="-6.570440959">
        <ele>53.00</ele>
        <time>1899-12-29T23:00:00Z</time>
      </trkpt>
      <trkpt lat="37.451993935" lon="-6.570453029">
        <ele>53.00</ele>
        <time>1899-12-29T23:00:00Z</time>
      </trkpt>
      <trkpt lat="37.451115176" lon="-6.570973378">
        <ele>50.00</ele>
        <time>1899-12-29T23:00:00Z</time>
      </trkpt>
      <trkpt lat="37.450770345" lon="-6.571838725">
        <ele>49.00</ele>
        <time>1899-12-29T23:00:00Z</time>
      </trkpt>
      <trkpt lat="37.450349405" lon="-6.573256943">
        <ele>52.00</ele>
        <time>1899-12-29T23:00:00Z</time>
      </trkpt>
      <trkpt lat="37.449983787" lon="-6.575134993">
        <ele>48.00</ele>
        <time>1899-12-29T23:00:00Z</time>
      </trkpt>
      <trkpt lat="37.449328154" lon="-6.576845907">
        <ele>50.00</ele>
        <time>1899-12-29T23:00:00Z</time>
      </trkpt>
      <trkpt lat="37.447927874" lon="-6.579728611">
        <ele>51.00</ele>
        <time>1899-12-29T23:00:00Z</time>
      </trkpt>
      <trkpt lat="37.447192110" lon="-6.580900401">
        <ele>48.00</ele>
        <time>1899-12-29T23:00:00Z</time>
      </trkpt>
      <trkpt lat="37.445861232" lon="-6.581690647">
        <ele>46.00</ele>
        <time>1899-12-29T23:00:00Z</time>
      </trkpt>
      <trkpt lat="37.444453407" lon="-6.582104210">
        <ele>47.00</ele>
        <time>1899-12-29T23:00:00Z</time>
      </trkpt>
      <trkpt lat="37.443053294" lon="-6.582463291">
        <ele>51.00</ele>
        <time>1899-12-29T23:00:00Z</time>
      </trkpt>
      <trkpt lat="37.441561483" lon="-6.582565550">
        <ele>52.00</ele>
        <time>1899-12-29T23:00:00Z</time>
      </trkpt>
      <trkpt lat="37.440348789" lon="-6.582799405">
        <ele>53.00</ele>
        <time>1899-12-29T23:00:00Z</time>
      </trkpt>
      <trkpt lat="37.439552844" lon="-6.583572384">
        <ele>47.00</ele>
        <time>1899-12-29T23:00:00Z</time>
      </trkpt>
      <trkpt lat="37.438566796" lon="-6.584329605">
        <ele>48.00</ele>
        <time>1899-12-29T23:00:00Z</time>
      </trkpt>
      <trkpt lat="37.438092045" lon="-6.584767140">
        <ele>48.00</ele>
        <time>1899-12-29T23:00:00Z</time>
      </trkpt>
      <trkpt lat="37.436261605" lon="-6.586883571">
        <ele>44.00</ele>
        <time>1899-12-29T23:00:00Z</time>
      </trkpt>
      <trkpt lat="37.435036339" lon="-6.588622984">
        <ele>44.00</ele>
        <time>1899-12-29T23:00:00Z</time>
      </trkpt>
      <trkpt lat="37.434374671" lon="-6.589629650">
        <ele>43.00</ele>
        <time>1899-12-29T23:00:00Z</time>
      </trkpt>
      <trkpt lat="37.433556765" lon="-6.591442656">
        <ele>45.00</ele>
        <time>1899-12-29T23:00:00Z</time>
      </trkpt>
      <trkpt lat="37.432954609" lon="-6.592826340">
        <ele>48.00</ele>
        <time>1899-12-29T23:00:00Z</time>
      </trkpt>
      <trkpt lat="37.432592511" lon="-6.593704261">
        <ele>44.00</ele>
        <time>1899-12-29T23:00:00Z</time>
      </trkpt>
      <trkpt lat="37.432470974" lon="-6.594520323">
        <ele>42.00</ele>
        <time>1899-12-29T23:00:00Z</time>
      </trkpt>
      <trkpt lat="37.432666104" lon="-6.595618520">
        <ele>42.00</ele>
        <time>1899-12-29T23:00:00Z</time>
      </trkpt>
      <trkpt lat="37.433549892" lon="-6.597041264">
        <ele>43.00</ele>
        <time>1899-12-29T23:00:00Z</time>
      </trkpt>
      <trkpt lat="37.434150372" lon="-6.598115824">
        <ele>39.00</ele>
        <time>1899-12-29T23:00:00Z</time>
      </trkpt>
      <trkpt lat="37.434633840" lon="-6.598966587">
        <ele>43.00</ele>
        <time>1899-12-29T23:00:00Z</time>
      </trkpt>
      <trkpt lat="37.434763256" lon="-6.599807125">
        <ele>47.00</ele>
        <time>1899-12-29T23:00:00Z</time>
      </trkpt>
      <trkpt lat="37.434669044" lon="-6.600429229">
        <ele>48.00</ele>
        <time>1899-12-29T23:00:00Z</time>
      </trkpt>
      <trkpt lat="37.434592769" lon="-6.600769870">
        <ele>47.00</ele>
        <time>1899-12-29T23:00:00Z</time>
      </trkpt>
      <trkpt lat="37.434476595" lon="-6.601141021">
        <ele>47.00</ele>
        <time>1899-12-29T23:00:00Z</time>
      </trkpt>
      <trkpt lat="37.434216756" lon="-6.601825990">
        <ele>43.00</ele>
        <time>1899-12-29T23:00:00Z</time>
      </trkpt>
      <trkpt lat="37.433898076" lon="-6.602273751">
        <ele>43.00</ele>
        <time>1899-12-29T23:00:00Z</time>
      </trkpt>
      <trkpt lat="37.433478143" lon="-6.602674574">
        <ele>44.00</ele>
        <time>1899-12-29T23:00:00Z</time>
      </trkpt>
      <trkpt lat="37.433104813" lon="-6.602943968">
        <ele>44.00</ele>
        <time>1899-12-29T23:00:00Z</time>
      </trkpt>
      <trkpt lat="37.432707511" lon="-6.603201125">
        <ele>43.00</ele>
        <time>1899-12-29T23:00:00Z</time>
      </trkpt>
      <trkpt lat="37.432268802" lon="-6.603441015">
        <ele>42.00</ele>
        <time>1899-12-29T23:00:00Z</time>
      </trkpt>
      <trkpt lat="37.431966886" lon="-6.603519134">
        <ele>43.00</ele>
        <time>1899-12-29T23:00:00Z</time>
      </trkpt>
      <trkpt lat="37.431528177" lon="-6.603665650">
        <ele>43.00</ele>
        <time>1899-12-29T23:00:00Z</time>
      </trkpt>
      <trkpt lat="37.431136575" lon="-6.603753157">
        <ele>44.00</ele>
        <time>1899-12-29T23:00:00Z</time>
      </trkpt>
      <trkpt lat="37.430574317" lon="-6.603831276">
        <ele>45.00</ele>
        <time>1899-12-29T23:00:00Z</time>
      </trkpt>
      <trkpt lat="37.430224791" lon="-6.603865642">
        <ele>45.00</ele>
        <time>1899-12-29T23:00:00Z</time>
      </trkpt>
      <trkpt lat="37.429781724" lon="-6.603930686">
        <ele>44.00</ele>
        <time>1899-12-29T23:00:00Z</time>
      </trkpt>
      <trkpt lat="37.429469749" lon="-6.604064628">
        <ele>41.00</ele>
        <time>1899-12-29T23:00:00Z</time>
      </trkpt>
      <trkpt lat="37.429103795" lon="-6.604266297">
        <ele>39.00</ele>
        <time>1899-12-29T23:00:00Z</time>
      </trkpt>
      <trkpt lat="37.428825852" lon="-6.604596712">
        <ele>41.00</ele>
        <time>1899-12-29T23:00:00Z</time>
      </trkpt>
      <trkpt lat="37.428551931" lon="-6.604844816">
        <ele>40.00</ele>
        <time>1899-12-29T23:00:00Z</time>
      </trkpt>
      <trkpt lat="37.428249847" lon="-6.605222337">
        <ele>40.00</ele>
        <time>1899-12-29T23:00:00Z</time>
      </trkpt>
      <trkpt lat="37.427891269" lon="-6.605677642">
        <ele>42.00</ele>
        <time>1899-12-29T23:00:00Z</time>
      </trkpt>
      <trkpt lat="37.427675016" lon="-6.605926249">
        <ele>41.00</ele>
        <time>1899-12-29T23:00:00Z</time>
      </trkpt>
      <trkpt lat="37.427383997" lon="-6.606248282">
        <ele>41.00</ele>
        <time>1899-12-29T23:00:00Z</time>
      </trkpt>
      <trkpt lat="37.426442374" lon="-6.606953368">
        <ele>39.00</ele>
        <time>1899-12-29T23:00:00Z</time>
      </trkpt>
      <trkpt lat="37.426126711" lon="-6.607190743">
        <ele>39.00</ele>
        <time>1899-12-29T23:00:00Z</time>
      </trkpt>
      <trkpt lat="37.425611559" lon="-6.607586201">
        <ele>40.00</ele>
        <time>1899-12-29T23:00:00Z</time>
      </trkpt>
      <trkpt lat="37.424509842" lon="-6.608462613">
        <ele>38.00</ele>
        <time>1899-12-29T23:00:00Z</time>
      </trkpt>
      <trkpt lat="37.424026877" lon="-6.608895957">
        <ele>38.00</ele>
        <time>1899-12-29T23:00:00Z</time>
      </trkpt>
      <trkpt lat="37.423353810" lon="-6.609466262">
        <ele>37.00</ele>
        <time>1899-12-29T23:00:00Z</time>
      </trkpt>
      <trkpt lat="37.422912419" lon="-6.609937325">
        <ele>36.00</ele>
        <time>1899-12-29T23:00:00Z</time>
      </trkpt>
      <trkpt lat="37.422625758" lon="-6.610168666">
        <ele>36.00</ele>
        <time>1899-12-29T23:00:00Z</time>
      </trkpt>
      <trkpt lat="37.422275729" lon="-6.610454321">
        <ele>37.00</ele>
        <time>1899-12-29T23:00:00Z</time>
      </trkpt>
      <trkpt lat="37.421612553" lon="-6.611013394">
        <ele>36.00</ele>
        <time>1899-12-29T23:00:00Z</time>
      </trkpt>
      <trkpt lat="37.420965303" lon="-6.611628961">
        <ele>33.00</ele>
        <time>1899-12-29T23:00:00Z</time>
      </trkpt>
      <trkpt lat="37.420351077" lon="-6.612138581">
        <ele>33.00</ele>
        <time>1899-12-29T23:00:00Z</time>
      </trkpt>
      <trkpt lat="37.419637609" lon="-6.612775940">
        <ele>34.00</ele>
        <time>1899-12-29T23:00:00Z</time>
      </trkpt>
      <trkpt lat="37.419118434" lon="-6.613191180">
        <ele>34.00</ele>
        <time>1899-12-29T23:00:00Z</time>
      </trkpt>
      <trkpt lat="37.418486439" lon="-6.613716222">
        <ele>37.00</ele>
        <time>1899-12-29T23:00:00Z</time>
      </trkpt>
      <trkpt lat="37.417850085" lon="-6.614254173">
        <ele>35.00</ele>
        <time>1899-12-29T23:00:00Z</time>
      </trkpt>
      <trkpt lat="37.417404503" lon="-6.614844427">
        <ele>33.00</ele>
        <time>1899-12-29T23:00:00Z</time>
      </trkpt>
      <trkpt lat="37.416739315" lon="-6.615761407">
        <ele>35.00</ele>
        <time>1899-12-29T23:00:00Z</time>
      </trkpt>
      <trkpt lat="37.416144870" lon="-6.616522651">
        <ele>33.00</ele>
        <time>1899-12-29T23:00:00Z</time>
      </trkpt>
      <trkpt lat="37.415223867" lon="-6.617556643">
        <ele>35.00</ele>
        <time>1899-12-29T23:00:00Z</time>
      </trkpt>
      <trkpt lat="37.414680216" lon="-6.618073303">
        <ele>34.00</ele>
        <time>1899-12-29T23:00:00Z</time>
      </trkpt>
      <trkpt lat="37.414119467" lon="-6.618685015">
        <ele>33.00</ele>
        <time>1899-12-29T23:00:00Z</time>
      </trkpt>
      <trkpt lat="37.412994616" lon="-6.619954035">
        <ele>35.00</ele>
        <time>1899-12-29T23:00:00Z</time>
      </trkpt>
      <trkpt lat="37.411129978" lon="-6.622001063">
        <ele>34.00</ele>
        <time>1899-12-29T23:00:00Z</time>
      </trkpt>
      <trkpt lat="37.410164885" lon="-6.623098757">
        <ele>32.00</ele>
        <time>1899-12-29T23:00:00Z</time>
      </trkpt>
      <trkpt lat="37.409348320" lon="-6.623983383">
        <ele>35.00</ele>
        <time>1899-12-29T23:00:00Z</time>
      </trkpt>
      <trkpt lat="37.408652958" lon="-6.624725349">
        <ele>35.00</ele>
        <time>1899-12-29T23:00:00Z</time>
      </trkpt>
      <trkpt lat="37.408084497" lon="-6.625355333">
        <ele>34.00</ele>
        <time>1899-12-29T23:00:00Z</time>
      </trkpt>
      <trkpt lat="37.407318391" lon="-6.626236439">
        <ele>35.00</ele>
        <time>1899-12-29T23:00:00Z</time>
      </trkpt>
      <trkpt lat="37.406386659" lon="-6.627312340">
        <ele>33.00</ele>
        <time>1899-12-29T23:00:00Z</time>
      </trkpt>
      <trkpt lat="37.405784503" lon="-6.627964787">
        <ele>33.00</ele>
        <time>1899-12-29T23:00:00Z</time>
      </trkpt>
      <trkpt lat="37.405056953" lon="-6.628760230">
        <ele>32.00</ele>
        <time>1899-12-29T23:00:00Z</time>
      </trkpt>
      <trkpt lat="37.404045425" lon="-6.629849039">
        <ele>33.00</ele>
        <time>1899-12-29T23:00:00Z</time>
      </trkpt>
      <trkpt lat="37.402944211" lon="-6.631105822">
        <ele>35.00</ele>
        <time>1899-12-29T23:00:00Z</time>
      </trkpt>
      <trkpt lat="37.401949279" lon="-6.632194463">
        <ele>35.00</ele>
        <time>1899-12-29T23:00:00Z</time>
      </trkpt>
      <trkpt lat="37.400929872" lon="-6.633274220">
        <ele>35.00</ele>
        <time>1899-12-29T23:00:00Z</time>
      </trkpt>
      <trkpt lat="37.399699073" lon="-6.634651031">
        <ele>38.00</ele>
        <time>1899-12-29T23:00:00Z</time>
      </trkpt>
      <trkpt lat="37.398673128" lon="-6.635741349">
        <ele>38.00</ele>
        <time>1899-12-29T23:00:00Z</time>
      </trkpt>
      <trkpt lat="37.396697178" lon="-6.637852751">
        <ele>36.00</ele>
        <time>1899-12-29T23:00:00Z</time>
      </trkpt>
      <trkpt lat="37.396278083" lon="-6.638337057">
        <ele>35.00</ele>
        <time>1899-12-29T23:00:00Z</time>
      </trkpt>
      <trkpt lat="37.395328917" lon="-6.639370881">
        <ele>30.00</ele>
        <time>1899-12-29T23:00:00Z</time>
      </trkpt>
      <trkpt lat="37.393861413" lon="-6.640989091">
        <ele>28.00</ele>
        <time>1899-12-29T23:00:00Z</time>
      </trkpt>
      <trkpt lat="37.392615024" lon="-6.642420888">
        <ele>30.00</ele>
        <time>1899-12-29T23:00:00Z</time>
      </trkpt>
      <trkpt lat="37.392602619" lon="-6.642258614">
        <ele>30.00</ele>
        <time>1899-12-29T23:00:00Z</time>
      </trkpt>
      <trkpt lat="37.392551322" lon="-6.642113104">
        <ele>30.00</ele>
        <time>1899-12-29T23:00:00Z</time>
      </trkpt>
      <trkpt lat="37.392204646" lon="-6.641919315">
        <ele>30.00</ele>
        <time>1899-12-29T23:00:00Z</time>
      </trkpt>
      <trkpt lat="37.391729560" lon="-6.641539615">
        <ele>30.00</ele>
        <time>1899-12-29T23:00:00Z</time>
      </trkpt>
      <trkpt lat="37.391318679" lon="-6.641167961">
        <ele>31.00</ele>
        <time>1899-12-29T23:00:00Z</time>
      </trkpt>
      <trkpt lat="37.390959095" lon="-6.640998311">
        <ele>31.00</ele>
        <time>1899-12-29T23:00:00Z</time>
      </trkpt>
      <trkpt lat="37.390779387" lon="-6.640901417">
        <ele>32.00</ele>
        <time>1899-12-29T23:00:00Z</time>
      </trkpt>
      <trkpt lat="37.390631698" lon="-6.640715171">
        <ele>32.00</ele>
        <time>1899-12-29T23:00:00Z</time>
      </trkpt>
      <trkpt lat="37.390445452" lon="-6.640465222">
        <ele>33.00</ele>
        <time>1899-12-29T23:00:00Z</time>
      </trkpt>
      <trkpt lat="37.389983274" lon="-6.640360113">
        <ele>35.00</ele>
        <time>1899-12-29T23:00:00Z</time>
      </trkpt>
      <trkpt lat="37.389566023" lon="-6.640214603">
        <ele>39.00</ele>
        <time>1899-12-29T23:00:00Z</time>
      </trkpt>
      <trkpt lat="37.389045842" lon="-6.640158109">
        <ele>44.00</ele>
        <time>1899-12-29T23:00:00Z</time>
      </trkpt>
      <trkpt lat="37.388480902" lon="-6.640012600">
        <ele>49.00</ele>
        <time>1899-12-29T23:00:00Z</time>
      </trkpt>
      <trkpt lat="37.388012186" lon="-6.639826689">
        <ele>52.00</ele>
        <time>1899-12-29T23:00:00Z</time>
      </trkpt>
      <trkpt lat="37.387357391" lon="-6.639624685">
        <ele>54.00</ele>
        <time>1899-12-29T23:00:00Z</time>
      </trkpt>
      <trkpt lat="37.386708967" lon="-6.639487389">
        <ele>53.00</ele>
        <time>1899-12-29T23:00:00Z</time>
      </trkpt>
      <trkpt lat="37.386362292" lon="-6.639406420">
        <ele>54.00</ele>
        <time>1899-12-29T23:00:00Z</time>
      </trkpt>
      <trkpt lat="37.385861557" lon="-6.639236771">
        <ele>54.00</ele>
        <time>1899-12-29T23:00:00Z</time>
      </trkpt>
      <trkpt lat="37.385591827" lon="-6.639301479">
        <ele>55.00</ele>
        <time>1899-12-29T23:00:00Z</time>
      </trkpt>
      <trkpt lat="37.385373563" lon="-6.639737841">
        <ele>55.00</ele>
        <time>1899-12-29T23:00:00Z</time>
      </trkpt>
      <trkpt lat="37.384956144" lon="-6.640400346">
        <ele>53.00</ele>
        <time>1899-12-29T23:00:00Z</time>
      </trkpt>
      <trkpt lat="37.384436131" lon="-6.640772000">
        <ele>52.00</ele>
        <time>1899-12-29T23:00:00Z</time>
      </trkpt>
      <trkpt lat="37.384153660" lon="-6.641151700">
        <ele>51.00</ele>
        <time>1899-12-29T23:00:00Z</time>
      </trkpt>
      <trkpt lat="37.383871190" lon="-6.641628463">
        <ele>49.00</ele>
        <time>1899-12-29T23:00:00Z</time>
      </trkpt>
      <trkpt lat="37.383601461" lon="-6.642339583">
        <ele>48.00</ele>
        <time>1899-12-29T23:00:00Z</time>
      </trkpt>
      <trkpt lat="37.383280434" lon="-6.643252708">
        <ele>45.00</ele>
        <time>1899-12-29T23:00:00Z</time>
      </trkpt>
      <trkpt lat="37.382535618" lon="-6.644464731">
        <ele>48.00</ele>
        <time>1899-12-29T23:00:00Z</time>
      </trkpt>
      <trkpt lat="37.381906472" lon="-6.645369809">
        <ele>47.00</ele>
        <time>1899-12-29T23:00:00Z</time>
      </trkpt>
      <trkpt lat="37.381354272" lon="-6.646363735">
        <ele>48.00</ele>
        <time>1899-12-29T23:00:00Z</time>
      </trkpt>
      <trkpt lat="37.380648013" lon="-6.647494957">
        <ele>46.00</ele>
        <time>1899-12-29T23:00:00Z</time>
      </trkpt>
      <trkpt lat="37.380230594" lon="-6.648165677">
        <ele>46.00</ele>
        <time>1899-12-29T23:00:00Z</time>
      </trkpt>
      <trkpt lat="37.379813176" lon="-6.649127249">
        <ele>43.00</ele>
        <time>1899-12-29T23:00:00Z</time>
      </trkpt>
      <trkpt lat="37.379254606" lon="-6.649612058">
        <ele>41.00</ele>
        <time>1899-12-29T23:00:00Z</time>
      </trkpt>
      <trkpt lat="37.378721684" lon="-6.650589723">
        <ele>38.00</ele>
        <time>1899-12-29T23:00:00Z</time>
      </trkpt>
      <trkpt lat="37.378336284" lon="-6.651072185">
        <ele>38.00</ele>
        <time>1899-12-29T23:00:00Z</time>
      </trkpt>
      <trkpt lat="37.378081977" lon="-6.651190873">
        <ele>39.00</ele>
        <time>1899-12-29T23:00:00Z</time>
      </trkpt>
      <trkpt lat="37.377839908" lon="-6.651572753">
        <ele>40.00</ele>
        <time>1899-12-29T23:00:00Z</time>
      </trkpt>
      <trkpt lat="37.378221285" lon="-6.652176417">
        <ele>38.00</ele>
        <time>1899-12-29T23:00:00Z</time>
      </trkpt>
      <trkpt lat="37.378414068" lon="-6.652671788">
        <ele>38.00</ele>
        <time>1899-12-29T23:00:00Z</time>
      </trkpt>
      <trkpt lat="37.378644571" lon="-6.653167326">
        <ele>37.00</ele>
        <time>1899-12-29T23:00:00Z</time>
      </trkpt>
      <trkpt lat="37.379466500" lon="-6.654355209">
        <ele>34.00</ele>
        <time>1899-12-29T23:00:00Z</time>
      </trkpt>
      <trkpt lat="37.380069997" lon="-6.655252073">
        <ele>35.00</ele>
        <time>1899-12-29T23:00:00Z</time>
      </trkpt>
      <trkpt lat="37.380521279" lon="-6.655952130">
        <ele>34.00</ele>
        <time>1899-12-29T23:00:00Z</time>
      </trkpt>
      <trkpt lat="37.379411682" lon="-6.657329611">
        <ele>33.00</ele>
        <time>1899-12-29T23:00:00Z</time>
      </trkpt>
      <trkpt lat="37.378985379" lon="-6.657885332">
        <ele>34.00</ele>
        <time>1899-12-29T23:00:00Z</time>
      </trkpt>
      <trkpt lat="37.378338128" lon="-6.658628639">
        <ele>34.00</ele>
        <time>1899-12-29T23:00:00Z</time>
      </trkpt>
      <trkpt lat="37.378015760" lon="-6.659087297">
        <ele>34.00</ele>
        <time>1899-12-29T23:00:00Z</time>
      </trkpt>
      <trkpt lat="37.377502620" lon="-6.659664139">
        <ele>33.00</ele>
        <time>1899-12-29T23:00:00Z</time>
      </trkpt>
      <trkpt lat="37.376428898" lon="-6.661050171">
        <ele>31.00</ele>
        <time>1899-12-29T23:00:00Z</time>
      </trkpt>
      <trkpt lat="37.375917938" lon="-6.661681663">
        <ele>31.00</ele>
        <time>1899-12-29T23:00:00Z</time>
      </trkpt>
      <trkpt lat="37.374853101" lon="-6.663005669">
        <ele>29.00</ele>
        <time>1899-12-29T23:00:00Z</time>
      </trkpt>
      <trkpt lat="37.373985406" lon="-6.664112750">
        <ele>27.00</ele>
        <time>1899-12-29T23:00:00Z</time>
      </trkpt>
      <trkpt lat="37.372472975" lon="-6.665970348">
        <ele>25.00</ele>
        <time>1899-12-29T23:00:00Z</time>
      </trkpt>
      <trkpt lat="37.371718101" lon="-6.666909289">
        <ele>25.00</ele>
        <time>1899-12-29T23:00:00Z</time>
      </trkpt>
      <trkpt lat="37.371081915" lon="-6.667631641">
        <ele>25.00</ele>
        <time>1899-12-29T23:00:00Z</time>
      </trkpt>
      <trkpt lat="37.370515466" lon="-6.668269336">
        <ele>25.00</ele>
        <time>1899-12-29T23:00:00Z</time>
      </trkpt>
      <trkpt lat="37.369952369" lon="-6.668923795">
        <ele>23.00</ele>
        <time>1899-12-29T23:00:00Z</time>
      </trkpt>
      <trkpt lat="37.369021643" lon="-6.669747066">
        <ele>22.00</ele>
        <time>1899-12-29T23:00:00Z</time>
      </trkpt>
      <trkpt lat="37.368870433" lon="-6.670044456">
        <ele>21.00</ele>
        <time>1899-12-29T23:00:00Z</time>
      </trkpt>
      <trkpt lat="37.368541025" lon="-6.670430358">
        <ele>20.00</ele>
        <time>1899-12-29T23:00:00Z</time>
      </trkpt>
      <trkpt lat="37.368127629" lon="-6.671058163">
        <ele>20.00</ele>
        <time>1899-12-29T23:00:00Z</time>
      </trkpt>
      <trkpt lat="37.367252558" lon="-6.671888139">
        <ele>21.00</ele>
        <time>1899-12-29T23:00:00Z</time>
      </trkpt>
      <trkpt lat="37.366999257" lon="-6.672102381">
        <ele>21.00</ele>
        <time>1899-12-29T23:00:00Z</time>
      </trkpt>
      <trkpt lat="37.366497014" lon="-6.672343779">
        <ele>21.00</ele>
        <time>1899-12-29T23:00:00Z</time>
      </trkpt>
      <trkpt lat="37.366021425" lon="-6.672422402">
        <ele>21.00</ele>
        <time>1899-12-29T23:00:00Z</time>
      </trkpt>
      <trkpt lat="37.365662344" lon="-6.672512088">
        <ele>20.00</ele>
        <time>1899-12-29T23:00:00Z</time>
      </trkpt>
      <trkpt lat="37.365176696" lon="-6.672670338">
        <ele>19.00</ele>
        <time>1899-12-29T23:00:00Z</time>
      </trkpt>
      <trkpt lat="37.364906296" lon="-6.672876198">
        <ele>18.00</ele>
        <time>1899-12-29T23:00:00Z</time>
      </trkpt>
      <trkpt lat="37.364598010" lon="-6.673086248">
        <ele>18.00</ele>
        <time>1899-12-29T23:00:00Z</time>
      </trkpt>
      <trkpt lat="37.364159301" lon="-6.673547421">
        <ele>17.00</ele>
        <time>1899-12-29T23:00:00Z</time>
      </trkpt>
      <trkpt lat="37.363836262" lon="-6.673664264">
        <ele>18.00</ele>
        <time>1899-12-29T23:00:00Z</time>
      </trkpt>
      <trkpt lat="37.363356818" lon="-6.673411801">
        <ele>19.00</ele>
        <time>1899-12-29T23:00:00Z</time>
      </trkpt>
      <trkpt lat="37.362787686" lon="-6.673750095">
        <ele>19.00</ele>
        <time>1899-12-29T23:00:00Z</time>
      </trkpt>
      <trkpt lat="37.361991573" lon="-6.674749888">
        <ele>20.00</ele>
        <time>1899-12-29T23:00:00Z</time>
      </trkpt>
      <trkpt lat="37.361343484" lon="-6.675150711">
        <ele>21.00</ele>
        <time>1899-12-29T23:00:00Z</time>
      </trkpt>
      <trkpt lat="37.360748369" lon="-6.675249282">
        <ele>23.00</ele>
        <time>1899-12-29T23:00:00Z</time>
      </trkpt>
      <trkpt lat="37.359978575" lon="-6.675419938">
        <ele>24.00</ele>
        <time>1899-12-29T23:00:00Z</time>
      </trkpt>
      <trkpt lat="37.359314058" lon="-6.675520521">
        <ele>24.00</ele>
        <time>1899-12-29T23:00:00Z</time>
      </trkpt>
      <trkpt lat="37.358836457" lon="-6.675635520">
        <ele>24.00</ele>
        <time>1899-12-29T23:00:00Z</time>
      </trkpt>
      <trkpt lat="37.358410154" lon="-6.675648596">
        <ele>23.00</ele>
        <time>1899-12-29T23:00:00Z</time>
      </trkpt>
      <trkpt lat="37.357924506" lon="-6.675630324">
        <ele>23.00</ele>
        <time>1899-12-29T23:00:00Z</time>
      </trkpt>
      <trkpt lat="37.357461825" lon="-6.675958559">
        <ele>21.00</ele>
        <time>1899-12-29T23:00:00Z</time>
      </trkpt>
      <trkpt lat="37.357033677" lon="-6.676425934">
        <ele>21.00</ele>
        <time>1899-12-29T23:00:00Z</time>
      </trkpt>
      <trkpt lat="37.356716674" lon="-6.677110232">
        <ele>21.00</ele>
        <time>1899-12-29T23:00:00Z</time>
      </trkpt>
      <trkpt lat="37.356583402" lon="-6.677662097">
        <ele>19.00</ele>
        <time>1899-12-29T23:00:00Z</time>
      </trkpt>
      <trkpt lat="37.356561776" lon="-6.678724755">
        <ele>18.00</ele>
        <time>1899-12-29T23:00:00Z</time>
      </trkpt>
      <trkpt lat="37.356627826" lon="-6.681548283">
        <ele>15.00</ele>
        <time>1899-12-29T23:00:00Z</time>
      </trkpt>
      <trkpt lat="37.356816921" lon="-6.683853474">
        <ele>16.00</ele>
        <time>1899-12-29T23:00:00Z</time>
      </trkpt>
      <trkpt lat="37.356898561" lon="-6.684759390">
        <ele>17.00</ele>
        <time>1899-12-29T23:00:00Z</time>
      </trkpt>
      <trkpt lat="37.356626652" lon="-6.685348134">
        <ele>16.00</ele>
        <time>1899-12-29T23:00:00Z</time>
      </trkpt>
      <trkpt lat="37.356371842" lon="-6.685977951">
        <ele>16.00</ele>
        <time>1899-12-29T23:00:00Z</time>
      </trkpt>
      <trkpt lat="37.356147543" lon="-6.686537024">
        <ele>16.00</ele>
        <time>1899-12-29T23:00:00Z</time>
      </trkpt>
      <trkpt lat="37.355900612" lon="-6.686776076">
        <ele>15.00</ele>
        <time>1899-12-29T23:00:00Z</time>
      </trkpt>
      <trkpt lat="37.355633397" lon="-6.686774567">
        <ele>15.00</ele>
        <time>1899-12-29T23:00:00Z</time>
      </trkpt>
      <trkpt lat="37.355302479" lon="-6.686810609">
        <ele>15.00</ele>
        <time>1899-12-29T23:00:00Z</time>
      </trkpt>
      <trkpt lat="37.355136350" lon="-6.686928626">
        <ele>15.00</ele>
        <time>1899-12-29T23:00:00Z</time>
      </trkpt>
      <trkpt lat="37.354749944" lon="-6.686650682">
        <ele>18.00</ele>
        <time>1899-12-29T23:00:00Z</time>
      </trkpt>
      <trkpt lat="37.354665790" lon="-6.686267294">
        <ele>22.00</ele>
        <time>1899-12-29T23:00:00Z</time>
      </trkpt>
      <trkpt lat="37.354555652" lon="-6.686059423">
        <ele>25.00</ele>
        <time>1899-12-29T23:00:00Z</time>
      </trkpt>
      <trkpt lat="37.354516927" lon="-6.685820203">
        <ele>28.00</ele>
        <time>1899-12-29T23:00:00Z</time>
      </trkpt>
      <trkpt lat="37.354264632" lon="-6.685744766">
        <ele>33.00</ele>
        <time>1899-12-29T23:00:00Z</time>
      </trkpt>
      <trkpt lat="37.354115937" lon="-6.685657427">
        <ele>37.00</ele>
        <time>1899-12-29T23:00:00Z</time>
      </trkpt>
      <trkpt lat="37.353954334" lon="-6.685485430">
        <ele>39.00</ele>
        <time>1899-12-29T23:00:00Z</time>
      </trkpt>
      <trkpt lat="37.354141083" lon="-6.685412005">
        <ele>39.00</ele>
        <time>1899-12-29T23:00:00Z</time>
      </trkpt>
      <trkpt lat="37.354407962" lon="-6.685377304">
        <ele>34.00</ele>
        <time>1899-12-29T23:00:00Z</time>
      </trkpt>
      <trkpt lat="37.354378626" lon="-6.685242858">
        <ele>36.00</ele>
        <time>1899-12-29T23:00:00Z</time>
      </trkpt>
      <trkpt lat="37.354118451" lon="-6.685182508">
        <ele>42.00</ele>
        <time>1899-12-29T23:00:00Z</time>
      </trkpt>
      <trkpt lat="37.353716288" lon="-6.685112938">
        <ele>45.00</ele>
        <time>1899-12-29T23:00:00Z</time>
      </trkpt>
      <trkpt lat="37.353387550" lon="-6.685065161">
        <ele>47.00</ele>
        <time>1899-12-29T23:00:00Z</time>
      </trkpt>
      <trkpt lat="37.353139278" lon="-6.685048398">
        <ele>48.00</ele>
        <time>1899-12-29T23:00:00Z</time>
      </trkpt>
      <trkpt lat="37.352863513" lon="-6.685005482">
        <ele>49.00</ele>
        <time>1899-12-29T23:00:00Z</time>
      </trkpt>
      <trkpt lat="37.352405358" lon="-6.684939265">
        <ele>50.00</ele>
        <time>1899-12-29T23:00:00Z</time>
      </trkpt>
      <trkpt lat="37.352165133" lon="-6.684930380">
        <ele>50.00</ele>
        <time>1899-12-29T23:00:00Z</time>
      </trkpt>
      <trkpt lat="37.352048121" lon="-6.684895344">
        <ele>50.00</ele>
        <time>1899-12-29T23:00:00Z</time>
      </trkpt>
      <trkpt lat="37.351580914" lon="-6.684868857">
        <ele>50.00</ele>
        <time>1899-12-29T23:00:00Z</time>
      </trkpt>
      <trkpt lat="37.351231053" lon="-6.684640199">
        <ele>51.00</ele>
        <time>1899-12-29T23:00:00Z</time>
      </trkpt>
      <trkpt lat="37.350890748" lon="-6.684536431">
        <ele>51.00</ele>
        <time>1899-12-29T23:00:00Z</time>
      </trkpt>
      <trkpt lat="37.350347433" lon="-6.684481446">
        <ele>53.00</ele>
        <time>1899-12-29T23:00:00Z</time>
      </trkpt>
      <trkpt lat="37.350163031" lon="-6.684404835">
        <ele>54.00</ele>
        <time>1899-12-29T23:00:00Z</time>
      </trkpt>
      <trkpt lat="37.350045852" lon="-6.684292015">
        <ele>54.00</ele>
        <time>1899-12-29T23:00:00Z</time>
      </trkpt>
      <trkpt lat="37.349992041" lon="-6.684123036">
        <ele>54.00</ele>
        <time>1899-12-29T23:00:00Z</time>
      </trkpt>
      <trkpt lat="37.350161020" lon="-6.683550049">
        <ele>54.00</ele>
        <time>1899-12-29T23:00:00Z</time>
      </trkpt>
      <trkpt lat="37.350220028" lon="-6.682784278">
        <ele>54.00</ele>
        <time>1899-12-29T23:00:00Z</time>
      </trkpt>
      <trkpt lat="37.350165211" lon="-6.682535335">
        <ele>54.00</ele>
        <time>1899-12-29T23:00:00Z</time>
      </trkpt>
      <trkpt lat="37.350026406" lon="-6.682262924">
        <ele>55.00</ele>
        <time>1899-12-29T23:00:00Z</time>
      </trkpt>
      <trkpt lat="37.349793557" lon="-6.682142224">
        <ele>56.00</ele>
        <time>1899-12-29T23:00:00Z</time>
      </trkpt>
      <trkpt lat="37.349409666" lon="-6.682079192">
        <ele>56.00</ele>
        <time>1899-12-29T23:00:00Z</time>
      </trkpt>
      <trkpt lat="37.349086795" lon="-6.681970730">
        <ele>57.00</ele>
        <time>1899-12-29T23:00:00Z</time>
      </trkpt>
      <trkpt lat="37.348841373" lon="-6.681934688">
        <ele>57.00</ele>
        <time>1899-12-29T23:00:00Z</time>
      </trkpt>
      <trkpt lat="37.348614223" lon="-6.682308689">
        <ele>56.00</ele>
        <time>1899-12-29T23:00:00Z</time>
      </trkpt>
      <trkpt lat="37.348372489" lon="-6.682792827">
        <ele>56.00</ele>
        <time>1899-12-29T23:00:00Z</time>
      </trkpt>
      <trkpt lat="37.348256484" lon="-6.683104970">
        <ele>56.00</ele>
        <time>1899-12-29T23:00:00Z</time>
      </trkpt>
      <trkpt lat="37.348269057" lon="-6.683509480">
        <ele>55.00</ele>
        <time>1899-12-29T23:00:00Z</time>
      </trkpt>
      <trkpt lat="37.348056491" lon="-6.684267707">
        <ele>54.00</ele>
        <time>1899-12-29T23:00:00Z</time>
      </trkpt>
      <trkpt lat="37.347872760" lon="-6.685116291">
        <ele>53.00</ele>
        <time>1899-12-29T23:00:00Z</time>
      </trkpt>
      <trkpt lat="37.347598169" lon="-6.685521137">
        <ele>53.00</ele>
        <time>1899-12-29T23:00:00Z</time>
      </trkpt>
      <trkpt lat="37.347395159" lon="-6.685574781">
        <ele>53.00</ele>
        <time>1899-12-29T23:00:00Z</time>
      </trkpt>
      <trkpt lat="37.347122580" lon="-6.685814671">
        <ele>52.00</ele>
        <time>1899-12-29T23:00:00Z</time>
      </trkpt>
      <trkpt lat="37.346778419" lon="-6.686415654">
        <ele>50.00</ele>
        <time>1899-12-29T23:00:00Z</time>
      </trkpt>
      <trkpt lat="37.346672472" lon="-6.686562505">
        <ele>50.00</ele>
        <time>1899-12-29T23:00:00Z</time>
      </trkpt>
      <trkpt lat="37.346580606" lon="-6.686909012">
        <ele>49.00</ele>
        <time>1899-12-29T23:00:00Z</time>
      </trkpt>
      <trkpt lat="37.346521094" lon="-6.687619966">
        <ele>48.00</ele>
        <time>1899-12-29T23:00:00Z</time>
      </trkpt>
      <trkpt lat="37.346365694" lon="-6.687992625">
        <ele>47.00</ele>
        <time>1899-12-29T23:00:00Z</time>
      </trkpt>
      <trkpt lat="37.346403077" lon="-6.688121874">
        <ele>47.00</ele>
        <time>1899-12-29T23:00:00Z</time>
      </trkpt>
      <trkpt lat="37.346434593" lon="-6.688771136">
        <ele>46.00</ele>
        <time>1899-12-29T23:00:00Z</time>
      </trkpt>
      <trkpt lat="37.346061263" lon="-6.689957343">
        <ele>45.00</ele>
        <time>1899-12-29T23:00:00Z</time>
      </trkpt>
      <trkpt lat="37.345698327" lon="-6.690952610">
        <ele>41.00</ele>
        <time>1899-12-29T23:00:00Z</time>
      </trkpt>
      <trkpt lat="37.345596235" lon="-6.691150423">
        <ele>41.00</ele>
        <time>1899-12-29T23:00:00Z</time>
      </trkpt>
      <trkpt lat="37.345454246" lon="-6.690957975">
        <ele>41.00</ele>
        <time>1899-12-29T23:00:00Z</time>
      </trkpt>
      <trkpt lat="37.345180660" lon="-6.690068319">
        <ele>44.00</ele>
        <time>1899-12-29T23:00:00Z</time>
      </trkpt>
      <trkpt lat="37.344747316" lon="-6.689176485">
        <ele>43.00</ele>
        <time>1899-12-29T23:00:00Z</time>
      </trkpt>
      <trkpt lat="37.344713118" lon="-6.688632332">
        <ele>44.00</ele>
        <time>1899-12-29T23:00:00Z</time>
      </trkpt>
      <trkpt lat="37.344737090" lon="-6.688257325">
        <ele>44.00</ele>
        <time>1899-12-29T23:00:00Z</time>
      </trkpt>
      <trkpt lat="37.344772462" lon="-6.687901597">
        <ele>43.00</ele>
        <time>1899-12-29T23:00:00Z</time>
      </trkpt>
      <trkpt lat="37.344724182" lon="-6.687522568">
        <ele>42.00</ele>
        <time>1899-12-29T23:00:00Z</time>
      </trkpt>
      <trkpt lat="37.344649918" lon="-6.687308997">
        <ele>42.00</ele>
        <time>1899-12-29T23:00:00Z</time>
      </trkpt>
      <trkpt lat="37.344569620" lon="-6.687400360">
        <ele>42.00</ele>
        <time>1899-12-29T23:00:00Z</time>
      </trkpt>
      <trkpt lat="37.344446573" lon="-6.687657181">
        <ele>41.00</ele>
        <time>1899-12-29T23:00:00Z</time>
      </trkpt>
      <trkpt lat="37.344137616" lon="-6.688203011">
        <ele>40.00</ele>
        <time>1899-12-29T23:00:00Z</time>
      </trkpt>
      <trkpt lat="37.344040386" lon="-6.688585728">
        <ele>40.00</ele>
        <time>1899-12-29T23:00:00Z</time>
      </trkpt>
      <trkpt lat="37.343888171" lon="-6.689053606">
        <ele>39.00</ele>
        <time>1899-12-29T23:00:00Z</time>
      </trkpt>
      <trkpt lat="37.343563791" lon="-6.690077204">
        <ele>37.00</ele>
        <time>1899-12-29T23:00:00Z</time>
      </trkpt>
      <trkpt lat="37.343504447" lon="-6.690696795">
        <ele>37.00</ele>
        <time>1899-12-29T23:00:00Z</time>
      </trkpt>
      <trkpt lat="37.343417443" lon="-6.691149920">
        <ele>36.00</ele>
        <time>1899-12-29T23:00:00Z</time>
      </trkpt>
      <trkpt lat="37.343286015" lon="-6.691861879">
        <ele>36.00</ele>
        <time>1899-12-29T23:00:00Z</time>
      </trkpt>
      <trkpt lat="37.343137152" lon="-6.692260858">
        <ele>35.00</ele>
        <time>1899-12-29T23:00:00Z</time>
      </trkpt>
      <trkpt lat="37.342993822" lon="-6.692487001">
        <ele>33.00</ele>
        <time>1899-12-29T23:00:00Z</time>
      </trkpt>
      <trkpt lat="37.342897765" lon="-6.692584902">
        <ele>33.00</ele>
        <time>1899-12-29T23:00:00Z</time>
      </trkpt>
      <trkpt lat="37.342768181" lon="-6.692646090">
        <ele>32.00</ele>
        <time>1899-12-29T23:00:00Z</time>
      </trkpt>
      <trkpt lat="37.342555448" lon="-6.692499407">
        <ele>31.00</ele>
        <time>1899-12-29T23:00:00Z</time>
      </trkpt>
      <trkpt lat="37.342410106" lon="-6.692392621">
        <ele>31.00</ele>
        <time>1899-12-29T23:00:00Z</time>
      </trkpt>
      <trkpt lat="37.342185974" lon="-6.692331601">
        <ele>31.00</ele>
        <time>1899-12-29T23:00:00Z</time>
      </trkpt>
      <trkpt lat="37.342047840" lon="-6.692459174">
        <ele>31.00</ele>
        <time>1899-12-29T23:00:00Z</time>
      </trkpt>
      <trkpt lat="37.341968883" lon="-6.692693364">
        <ele>30.00</ele>
        <time>1899-12-29T23:00:00Z</time>
      </trkpt>
      <trkpt lat="37.341884561" lon="-6.692836862">
        <ele>30.00</ele>
        <time>1899-12-29T23:00:00Z</time>
      </trkpt>
      <trkpt lat="37.341674678" lon="-6.692970637">
        <ele>29.00</ele>
        <time>1899-12-29T23:00:00Z</time>
      </trkpt>
      <trkpt lat="37.341660429" lon="-6.693130732">
        <ele>29.00</ele>
        <time>1899-12-29T23:00:00Z</time>
      </trkpt>
      <trkpt lat="37.341595218" lon="-6.693351846">
        <ele>29.00</ele>
        <time>1899-12-29T23:00:00Z</time>
      </trkpt>
      <trkpt lat="37.341729663" lon="-6.693939250">
        <ele>28.00</ele>
        <time>1899-12-29T23:00:00Z</time>
      </trkpt>
      <trkpt lat="37.341721617" lon="-6.694211662">
        <ele>28.00</ele>
        <time>1899-12-29T23:00:00Z</time>
      </trkpt>
      <trkpt lat="37.341667470" lon="-6.694343593">
        <ele>28.00</ele>
        <time>1899-12-29T23:00:00Z</time>
      </trkpt>
      <trkpt lat="37.341549620" lon="-6.694338564">
        <ele>28.00</ele>
        <time>1899-12-29T23:00:00Z</time>
      </trkpt>
      <trkpt lat="37.341379635" lon="-6.694336217">
        <ele>29.00</ele>
        <time>1899-12-29T23:00:00Z</time>
      </trkpt>
      <trkpt lat="37.341106385" lon="-6.694323141">
        <ele>31.00</ele>
        <time>1899-12-29T23:00:00Z</time>
      </trkpt>
      <trkpt lat="37.340524513" lon="-6.694285925">
        <ele>35.00</ele>
        <time>1899-12-29T23:00:00Z</time>
      </trkpt>
      <trkpt lat="37.340501547" lon="-6.694164053">
        <ele>35.00</ele>
        <time>1899-12-29T23:00:00Z</time>
      </trkpt>
      <trkpt lat="37.340552174" lon="-6.693864986">
        <ele>35.00</ele>
        <time>1899-12-29T23:00:00Z</time>
      </trkpt>
      <trkpt lat="37.340601962" lon="-6.693676058">
        <ele>34.00</ele>
        <time>1899-12-29T23:00:00Z</time>
      </trkpt>
      <trkpt lat="37.340496685" lon="-6.693557706">
        <ele>35.00</ele>
        <time>1899-12-29T23:00:00Z</time>
      </trkpt>
      <trkpt lat="37.340336926" lon="-6.693527363">
        <ele>35.00</ele>
        <time>1899-12-29T23:00:00Z</time>
      </trkpt>
      <trkpt lat="37.339939959" lon="-6.693485621">
        <ele>37.00</ele>
        <time>1899-12-29T23:00:00Z</time>
      </trkpt>
      <trkpt lat="37.339410223" lon="-6.693372466">
        <ele>40.00</ele>
        <time>1899-12-29T23:00:00Z</time>
      </trkpt>
      <trkpt lat="37.339036725" lon="-6.693314463">
        <ele>42.00</ele>
        <time>1899-12-29T23:00:00Z</time>
      </trkpt>
      <trkpt lat="37.338576559" lon="-6.693234332">
        <ele>43.00</ele>
        <time>1899-12-29T23:00:00Z</time>
      </trkpt>
      <trkpt lat="37.338207923" lon="-6.693093851">
        <ele>44.00</ele>
        <time>1899-12-29T23:00:00Z</time>
      </trkpt>
      <trkpt lat="37.337882370" lon="-6.692873072">
        <ele>45.00</ele>
        <time>1899-12-29T23:00:00Z</time>
      </trkpt>
      <trkpt lat="37.337579783" lon="-6.692522876">
        <ele>46.00</ele>
        <time>1899-12-29T23:00:00Z</time>
      </trkpt>
      <trkpt lat="37.337056920" lon="-6.692176871">
        <ele>46.00</ele>
        <time>1899-12-29T23:00:00Z</time>
      </trkpt>
      <trkpt lat="37.336505055" lon="-6.691849809">
        <ele>45.00</ele>
        <time>1899-12-29T23:00:00Z</time>
      </trkpt>
      <trkpt lat="37.336019408" lon="-6.691331472">
        <ele>46.00</ele>
        <time>1899-12-29T23:00:00Z</time>
      </trkpt>
      <trkpt lat="37.335612718" lon="-6.690866780">
        <ele>48.00</ele>
        <time>1899-12-29T23:00:00Z</time>
      </trkpt>
      <trkpt lat="37.335318513" lon="-6.690394040">
        <ele>49.00</ele>
        <time>1899-12-29T23:00:00Z</time>
      </trkpt>
      <trkpt lat="37.334986087" lon="-6.689995565">
        <ele>51.00</ele>
        <time>1899-12-29T23:00:00Z</time>
      </trkpt>
      <trkpt lat="37.334643267" lon="-6.689554341">
        <ele>56.00</ele>
        <time>1899-12-29T23:00:00Z</time>
      </trkpt>
      <trkpt lat="37.334252335" lon="-6.689187549">
        <ele>60.00</ele>
        <time>1899-12-29T23:00:00Z</time>
      </trkpt>
      <trkpt lat="37.333843801" lon="-6.688991245">
        <ele>61.00</ele>
        <time>1899-12-29T23:00:00Z</time>
      </trkpt>
      <trkpt lat="37.333405595" lon="-6.688761581">
        <ele>63.00</ele>
        <time>1899-12-29T23:00:00Z</time>
      </trkpt>
      <trkpt lat="37.333144248" lon="-6.688582376">
        <ele>66.00</ele>
        <time>1899-12-29T23:00:00Z</time>
      </trkpt>
      <trkpt lat="37.333017513" lon="-6.688633841">
        <ele>67.00</ele>
        <time>1899-12-29T23:00:00Z</time>
      </trkpt>
      <trkpt lat="37.332912236" lon="-6.688844059">
        <ele>67.00</ele>
        <time>1899-12-29T23:00:00Z</time>
      </trkpt>
      <trkpt lat="37.332679890" lon="-6.689062826">
        <ele>68.00</ele>
        <time>1899-12-29T23:00:00Z</time>
      </trkpt>
      <trkpt lat="37.332377303" lon="-6.689129546">
        <ele>70.00</ele>
        <time>1899-12-29T23:00:00Z</time>
      </trkpt>
      <trkpt lat="37.332074214" lon="-6.689159553">
        <ele>72.00</ele>
        <time>1899-12-29T23:00:00Z</time>
      </trkpt>
      <trkpt lat="37.331700549" lon="-6.688754875">
        <ele>78.00</ele>
        <time>1899-12-29T23:00:00Z</time>
      </trkpt>
      <trkpt lat="37.331391759" lon="-6.688234527">
        <ele>83.00</ele>
        <time>1899-12-29T23:00:00Z</time>
      </trkpt>
      <trkpt lat="37.330997642" lon="-6.687941998">
        <ele>87.00</ele>
        <time>1899-12-29T23:00:00Z</time>
      </trkpt>
      <trkpt lat="37.330653146" lon="-6.687715854">
        <ele>89.00</ele>
        <time>1899-12-29T23:00:00Z</time>
      </trkpt>
      <trkpt lat="37.330195326" lon="-6.687399857">
        <ele>87.00</ele>
        <time>1899-12-29T23:00:00Z</time>
      </trkpt>
      <trkpt lat="37.329705488" lon="-6.687274296">
        <ele>84.00</ele>
        <time>1899-12-29T23:00:00Z</time>
      </trkpt>
      <trkpt lat="37.329432238" lon="-6.687303632">
        <ele>84.00</ele>
        <time>1899-12-29T23:00:00Z</time>
      </trkpt>
      <trkpt lat="37.329145744" lon="-6.687443443">
        <ele>83.00</ele>
        <time>1899-12-29T23:00:00Z</time>
      </trkpt>
      <trkpt lat="37.328784652" lon="-6.687480491">
        <ele>83.00</ele>
        <time>1899-12-29T23:00:00Z</time>
      </trkpt>
      <trkpt lat="37.328172773" lon="-6.687357109">
        <ele>84.00</ele>
        <time>1899-12-29T23:00:00Z</time>
      </trkpt>
      <trkpt lat="37.327595428" lon="-6.687269770">
        <ele>86.00</ele>
        <time>1899-12-29T23:00:00Z</time>
      </trkpt>
      <trkpt lat="37.327086814" lon="-6.687211599">
        <ele>87.00</ele>
        <time>1899-12-29T23:00:00Z</time>
      </trkpt>
      <trkpt lat="37.326428667" lon="-6.686766353">
        <ele>90.00</ele>
        <time>1899-12-29T23:00:00Z</time>
      </trkpt>
      <trkpt lat="37.325947713" lon="-6.686233766">
        <ele>94.00</ele>
        <time>1899-12-29T23:00:00Z</time>
      </trkpt>
      <trkpt lat="37.325494085" lon="-6.685803942">
        <ele>93.00</ele>
        <time>1899-12-29T23:00:00Z</time>
      </trkpt>
      <trkpt lat="37.324876674" lon="-6.685224082">
        <ele>94.00</ele>
        <time>1899-12-29T23:00:00Z</time>
      </trkpt>
      <trkpt lat="37.324124314" lon="-6.684932727">
        <ele>93.00</ele>
        <time>1899-12-29T23:00:00Z</time>
      </trkpt>
      <trkpt lat="37.323506065" lon="-6.684639025">
        <ele>92.00</ele>
        <time>1899-12-29T23:00:00Z</time>
      </trkpt>
      <trkpt lat="37.323087975" lon="-6.684280783">
        <ele>93.00</ele>
        <time>1899-12-29T23:00:00Z</time>
      </trkpt>
      <trkpt lat="37.322815061" lon="-6.683851127">
        <ele>91.00</ele>
        <time>1899-12-29T23:00:00Z</time>
      </trkpt>
      <trkpt lat="37.322501242" lon="-6.683567148">
        <ele>87.00</ele>
        <time>1899-12-29T23:00:00Z</time>
      </trkpt>
    </trkseg>
  </trk>
</gpx>
